<?xml version="1.0" encoding="UTF-8" standalone="no" ?>
<gpx xmlns="http://www.topografix.com/GPX/1/1" xmlns:xsi="http://www.w3.org/2001/XMLSchema-instance" xsi:schemaLocation="http://www.topografix.com/GPX/1/1 http://www.topografix.com/GPX/1/1/gpx.xsd" version="1.1" creator="VisuGPX - https://www.visugpx.com">
  <metadata>
    <name>VTT_Izeaux&amp;gt;Forteresse&amp;gt;SingleMeunier_23km_680D+</name>
    <desc><![CDATA[Du nouveau dans le final du Meunier, a réouvrir et se sera top de nouveau]]></desc>
  </metadata>
  <trk>
    <name><![CDATA[VTT Forteresse top Meunier toujours bouché]]></name>
    <desc><![CDATA[Du nouveau dans le final du Meunier, a réouvrir et se sera top de nouveau]]></desc>
    <extensions>
      <line xmlns="http://www.topografix.com/GPX/gpx_style/0/2">
        <color>0000FF</color>
        <width>4</width>
      </line>
    </extensions>
    <trkseg>
      <trkpt lat="45.33307" lon="5.42768">
        <ele>438.39999389648</ele>
        <time>2024-03-01T13:01:54.000Z</time>
      </trkpt>
      <trkpt lat="45.33303" lon="5.42769">
        <ele>438.39999389648</ele>
        <time>2024-03-01T13:01:55.000Z</time>
      </trkpt>
      <trkpt lat="45.33301" lon="5.42772">
        <ele>438.39999389648</ele>
        <time>2024-03-01T13:01:56.000Z</time>
      </trkpt>
      <trkpt lat="45.33298" lon="5.42775">
        <ele>438.39999389648</ele>
        <time>2024-03-01T13:01:57.000Z</time>
      </trkpt>
      <trkpt lat="45.33296" lon="5.42778">
        <ele>438.39999389648</ele>
        <time>2024-03-01T13:01:58.000Z</time>
      </trkpt>
      <trkpt lat="45.33293" lon="5.4278">
        <ele>438.39999389648</ele>
        <time>2024-03-01T13:01:59.000Z</time>
      </trkpt>
      <trkpt lat="45.33289" lon="5.42782">
        <ele>438.39999389648</ele>
        <time>2024-03-01T13:02:00.000Z</time>
      </trkpt>
      <trkpt lat="45.3328" lon="5.42785">
        <ele>438.79998779297</ele>
        <time>2024-03-01T13:02:03.000Z</time>
      </trkpt>
      <trkpt lat="45.33277" lon="5.42787">
        <ele>438.79998779297</ele>
        <time>2024-03-01T13:02:04.000Z</time>
      </trkpt>
      <trkpt lat="45.33274" lon="5.42788">
        <ele>439</ele>
        <time>2024-03-01T13:02:05.000Z</time>
      </trkpt>
      <trkpt lat="45.3327" lon="5.42789">
        <ele>439</ele>
        <time>2024-03-01T13:02:06.000Z</time>
      </trkpt>
      <trkpt lat="45.33267" lon="5.4279">
        <ele>439</ele>
        <time>2024-03-01T13:02:07.000Z</time>
      </trkpt>
      <trkpt lat="45.33263" lon="5.42791">
        <ele>439.20001220703</ele>
        <time>2024-03-01T13:02:08.000Z</time>
      </trkpt>
      <trkpt lat="45.3326" lon="5.42792">
        <ele>439.20001220703</ele>
        <time>2024-03-01T13:02:09.000Z</time>
      </trkpt>
      <trkpt lat="45.33256" lon="5.42794">
        <ele>439.39999389648</ele>
        <time>2024-03-01T13:02:10.000Z</time>
      </trkpt>
      <trkpt lat="45.33253" lon="5.42796">
        <ele>439.60000610352</ele>
        <time>2024-03-01T13:02:11.000Z</time>
      </trkpt>
      <trkpt lat="45.33249" lon="5.42797">
        <ele>439.79998779297</ele>
        <time>2024-03-01T13:02:12.000Z</time>
      </trkpt>
      <trkpt lat="45.33246" lon="5.42798">
        <ele>440.20001220703</ele>
        <time>2024-03-01T13:02:13.000Z</time>
      </trkpt>
      <trkpt lat="45.33238" lon="5.428">
        <ele>440.79998779297</ele>
        <time>2024-03-01T13:02:15.000Z</time>
      </trkpt>
      <trkpt lat="45.33235" lon="5.42801">
        <ele>440.79998779297</ele>
        <time>2024-03-01T13:02:16.000Z</time>
      </trkpt>
      <trkpt lat="45.33219" lon="5.42805">
        <ele>441.39999389648</ele>
        <time>2024-03-01T13:02:20.000Z</time>
      </trkpt>
      <trkpt lat="45.33216" lon="5.42807">
        <ele>441.39999389648</ele>
        <time>2024-03-01T13:02:21.000Z</time>
      </trkpt>
      <trkpt lat="45.33213" lon="5.42811">
        <ele>441.39999389648</ele>
        <time>2024-03-01T13:02:22.000Z</time>
      </trkpt>
      <trkpt lat="45.3321" lon="5.42814">
        <ele>441.39999389648</ele>
        <time>2024-03-01T13:02:23.000Z</time>
      </trkpt>
      <trkpt lat="45.33207" lon="5.42816">
        <ele>441.60000610352</ele>
        <time>2024-03-01T13:02:24.000Z</time>
      </trkpt>
      <trkpt lat="45.33205" lon="5.42815">
        <ele>442</ele>
        <time>2024-03-01T13:02:25.000Z</time>
      </trkpt>
      <trkpt lat="45.33204" lon="5.42813">
        <ele>442.20001220703</ele>
        <time>2024-03-01T13:02:26.000Z</time>
      </trkpt>
      <trkpt lat="45.33203" lon="5.42808">
        <ele>442.39999389648</ele>
        <time>2024-03-01T13:02:27.000Z</time>
      </trkpt>
      <trkpt lat="45.33201" lon="5.42803">
        <ele>442.39999389648</ele>
        <time>2024-03-01T13:02:28.000Z</time>
      </trkpt>
      <trkpt lat="45.33198" lon="5.42785">
        <ele>442.60000610352</ele>
        <time>2024-03-01T13:02:31.000Z</time>
      </trkpt>
      <trkpt lat="45.33197" lon="5.42778">
        <ele>442.60000610352</ele>
        <time>2024-03-01T13:02:32.000Z</time>
      </trkpt>
      <trkpt lat="45.33195" lon="5.42772">
        <ele>442.60000610352</ele>
        <time>2024-03-01T13:02:33.000Z</time>
      </trkpt>
      <trkpt lat="45.33194" lon="5.42765">
        <ele>442.60000610352</ele>
        <time>2024-03-01T13:02:34.000Z</time>
      </trkpt>
      <trkpt lat="45.33192" lon="5.42758">
        <ele>442.60000610352</ele>
        <time>2024-03-01T13:02:35.000Z</time>
      </trkpt>
      <trkpt lat="45.3319" lon="5.42752">
        <ele>442.39999389648</ele>
        <time>2024-03-01T13:02:36.000Z</time>
      </trkpt>
      <trkpt lat="45.33189" lon="5.42745">
        <ele>442.39999389648</ele>
        <time>2024-03-01T13:02:37.000Z</time>
      </trkpt>
      <trkpt lat="45.33187" lon="5.42738">
        <ele>442.39999389648</ele>
        <time>2024-03-01T13:02:38.000Z</time>
      </trkpt>
      <trkpt lat="45.33185" lon="5.4273">
        <ele>442.20001220703</ele>
        <time>2024-03-01T13:02:39.000Z</time>
      </trkpt>
      <trkpt lat="45.33181" lon="5.42716">
        <ele>442.20001220703</ele>
        <time>2024-03-01T13:02:41.000Z</time>
      </trkpt>
      <trkpt lat="45.33178" lon="5.42709">
        <ele>442.20001220703</ele>
        <time>2024-03-01T13:02:42.000Z</time>
      </trkpt>
      <trkpt lat="45.33174" lon="5.42704">
        <ele>442</ele>
        <time>2024-03-01T13:02:43.000Z</time>
      </trkpt>
      <trkpt lat="45.3317" lon="5.427">
        <ele>442</ele>
        <time>2024-03-01T13:02:44.000Z</time>
      </trkpt>
      <trkpt lat="45.33165" lon="5.42697">
        <ele>441.79998779297</ele>
        <time>2024-03-01T13:02:45.000Z</time>
      </trkpt>
      <trkpt lat="45.3316" lon="5.42693">
        <ele>441.79998779297</ele>
        <time>2024-03-01T13:02:46.000Z</time>
      </trkpt>
      <trkpt lat="45.33154" lon="5.4269">
        <ele>441.79998779297</ele>
        <time>2024-03-01T13:02:47.000Z</time>
      </trkpt>
      <trkpt lat="45.33147" lon="5.42688">
        <ele>441.60000610352</ele>
        <time>2024-03-01T13:02:48.000Z</time>
      </trkpt>
      <trkpt lat="45.33141" lon="5.42686">
        <ele>441.39999389648</ele>
        <time>2024-03-01T13:02:49.000Z</time>
      </trkpt>
      <trkpt lat="45.33134" lon="5.42684">
        <ele>441</ele>
        <time>2024-03-01T13:02:50.000Z</time>
      </trkpt>
      <trkpt lat="45.33126" lon="5.42682">
        <ele>440.79998779297</ele>
        <time>2024-03-01T13:02:51.000Z</time>
      </trkpt>
      <trkpt lat="45.33118" lon="5.42681">
        <ele>440.79998779297</ele>
        <time>2024-03-01T13:02:52.000Z</time>
      </trkpt>
      <trkpt lat="45.3311" lon="5.42679">
        <ele>440.39999389648</ele>
        <time>2024-03-01T13:02:53.000Z</time>
      </trkpt>
      <trkpt lat="45.33101" lon="5.42678">
        <ele>440.39999389648</ele>
        <time>2024-03-01T13:02:54.000Z</time>
      </trkpt>
      <trkpt lat="45.33093" lon="5.42678">
        <ele>440</ele>
        <time>2024-03-01T13:02:55.000Z</time>
      </trkpt>
      <trkpt lat="45.33083" lon="5.42676">
        <ele>439.79998779297</ele>
        <time>2024-03-01T13:02:56.000Z</time>
      </trkpt>
      <trkpt lat="45.33074" lon="5.42675">
        <ele>439.20001220703</ele>
        <time>2024-03-01T13:02:57.000Z</time>
      </trkpt>
      <trkpt lat="45.33044" lon="5.42675">
        <ele>436.60000610352</ele>
        <time>2024-03-01T13:03:01.000Z</time>
      </trkpt>
      <trkpt lat="45.33037" lon="5.42676">
        <ele>436.20001220703</ele>
        <time>2024-03-01T13:03:02.000Z</time>
      </trkpt>
      <trkpt lat="45.33023" lon="5.42676">
        <ele>436.20001220703</ele>
        <time>2024-03-01T13:03:04.000Z</time>
      </trkpt>
      <trkpt lat="45.33016" lon="5.42677">
        <ele>436.20001220703</ele>
        <time>2024-03-01T13:03:05.000Z</time>
      </trkpt>
      <trkpt lat="45.3301" lon="5.42679">
        <ele>436.20001220703</ele>
        <time>2024-03-01T13:03:06.000Z</time>
      </trkpt>
      <trkpt lat="45.33003" lon="5.42681">
        <ele>436.20001220703</ele>
        <time>2024-03-01T13:03:07.000Z</time>
      </trkpt>
      <trkpt lat="45.32997" lon="5.42683">
        <ele>436.20001220703</ele>
        <time>2024-03-01T13:03:08.000Z</time>
      </trkpt>
      <trkpt lat="45.3299" lon="5.42685">
        <ele>436.39999389648</ele>
        <time>2024-03-01T13:03:09.000Z</time>
      </trkpt>
      <trkpt lat="45.32983" lon="5.42689">
        <ele>436.39999389648</ele>
        <time>2024-03-01T13:03:10.000Z</time>
      </trkpt>
      <trkpt lat="45.32977" lon="5.42693">
        <ele>436.39999389648</ele>
        <time>2024-03-01T13:03:11.000Z</time>
      </trkpt>
      <trkpt lat="45.3297" lon="5.42697">
        <ele>436.60000610352</ele>
        <time>2024-03-01T13:03:12.000Z</time>
      </trkpt>
      <trkpt lat="45.32964" lon="5.42699">
        <ele>436.60000610352</ele>
        <time>2024-03-01T13:03:13.000Z</time>
      </trkpt>
      <trkpt lat="45.32946" lon="5.42702">
        <ele>436.79998779297</ele>
        <time>2024-03-01T13:03:16.000Z</time>
      </trkpt>
      <trkpt lat="45.32934" lon="5.42702">
        <ele>436.79998779297</ele>
        <time>2024-03-01T13:03:18.000Z</time>
      </trkpt>
      <trkpt lat="45.32916" lon="5.42699">
        <ele>436.79998779297</ele>
        <time>2024-03-01T13:03:21.000Z</time>
      </trkpt>
      <trkpt lat="45.32909" lon="5.42699">
        <ele>436.60000610352</ele>
        <time>2024-03-01T13:03:22.000Z</time>
      </trkpt>
      <trkpt lat="45.32903" lon="5.42697">
        <ele>436.60000610352</ele>
        <time>2024-03-01T13:03:23.000Z</time>
      </trkpt>
      <trkpt lat="45.32896" lon="5.42695">
        <ele>436.60000610352</ele>
        <time>2024-03-01T13:03:24.000Z</time>
      </trkpt>
      <trkpt lat="45.32889" lon="5.42694">
        <ele>436.20001220703</ele>
        <time>2024-03-01T13:03:25.000Z</time>
      </trkpt>
      <trkpt lat="45.32882" lon="5.42692">
        <ele>436.20001220703</ele>
        <time>2024-03-01T13:03:26.000Z</time>
      </trkpt>
      <trkpt lat="45.32875" lon="5.42689">
        <ele>436.20001220703</ele>
        <time>2024-03-01T13:03:27.000Z</time>
      </trkpt>
      <trkpt lat="45.32863" lon="5.42681">
        <ele>435.60000610352</ele>
        <time>2024-03-01T13:03:29.000Z</time>
      </trkpt>
      <trkpt lat="45.32857" lon="5.42676">
        <ele>435.60000610352</ele>
        <time>2024-03-01T13:03:30.000Z</time>
      </trkpt>
      <trkpt lat="45.32852" lon="5.42671">
        <ele>435.39999389648</ele>
        <time>2024-03-01T13:03:31.000Z</time>
      </trkpt>
      <trkpt lat="45.32848" lon="5.42665">
        <ele>435.20001220703</ele>
        <time>2024-03-01T13:03:32.000Z</time>
      </trkpt>
      <trkpt lat="45.32843" lon="5.42659">
        <ele>434.79998779297</ele>
        <time>2024-03-01T13:03:33.000Z</time>
      </trkpt>
      <trkpt lat="45.32839" lon="5.42655">
        <ele>434.79998779297</ele>
        <time>2024-03-01T13:03:34.000Z</time>
      </trkpt>
      <trkpt lat="45.32834" lon="5.42651">
        <ele>434.60000610352</ele>
        <time>2024-03-01T13:03:35.000Z</time>
      </trkpt>
      <trkpt lat="45.32826" lon="5.42643">
        <ele>434.60000610352</ele>
        <time>2024-03-01T13:03:37.000Z</time>
      </trkpt>
      <trkpt lat="45.32822" lon="5.42638">
        <ele>434.60000610352</ele>
        <time>2024-03-01T13:03:38.000Z</time>
      </trkpt>
      <trkpt lat="45.32819" lon="5.42634">
        <ele>434.60000610352</ele>
        <time>2024-03-01T13:03:39.000Z</time>
      </trkpt>
      <trkpt lat="45.32815" lon="5.4263">
        <ele>434.60000610352</ele>
        <time>2024-03-01T13:03:40.000Z</time>
      </trkpt>
      <trkpt lat="45.32812" lon="5.42626">
        <ele>434.60000610352</ele>
        <time>2024-03-01T13:03:41.000Z</time>
      </trkpt>
      <trkpt lat="45.3281" lon="5.42622">
        <ele>434.60000610352</ele>
        <time>2024-03-01T13:03:42.000Z</time>
      </trkpt>
      <trkpt lat="45.32808" lon="5.42617">
        <ele>434.79998779297</ele>
        <time>2024-03-01T13:03:43.000Z</time>
      </trkpt>
      <trkpt lat="45.32805" lon="5.42612">
        <ele>434.79998779297</ele>
        <time>2024-03-01T13:03:44.000Z</time>
      </trkpt>
      <trkpt lat="45.32803" lon="5.42607">
        <ele>435</ele>
        <time>2024-03-01T13:03:45.000Z</time>
      </trkpt>
      <trkpt lat="45.32799" lon="5.42603">
        <ele>435.20001220703</ele>
        <time>2024-03-01T13:03:46.000Z</time>
      </trkpt>
      <trkpt lat="45.32795" lon="5.42598">
        <ele>435.39999389648</ele>
        <time>2024-03-01T13:03:47.000Z</time>
      </trkpt>
      <trkpt lat="45.3279" lon="5.42594">
        <ele>435.60000610352</ele>
        <time>2024-03-01T13:03:48.000Z</time>
      </trkpt>
      <trkpt lat="45.32786" lon="5.42591">
        <ele>435.60000610352</ele>
        <time>2024-03-01T13:03:49.000Z</time>
      </trkpt>
      <trkpt lat="45.32781" lon="5.42589">
        <ele>435.60000610352</ele>
        <time>2024-03-01T13:03:50.000Z</time>
      </trkpt>
      <trkpt lat="45.32777" lon="5.42587">
        <ele>435.79998779297</ele>
        <time>2024-03-01T13:03:51.000Z</time>
      </trkpt>
      <trkpt lat="45.32767" lon="5.42583">
        <ele>436</ele>
        <time>2024-03-01T13:03:53.000Z</time>
      </trkpt>
      <trkpt lat="45.32763" lon="5.42581">
        <ele>436.20001220703</ele>
        <time>2024-03-01T13:03:54.000Z</time>
      </trkpt>
      <trkpt lat="45.32758" lon="5.42579">
        <ele>436.39999389648</ele>
        <time>2024-03-01T13:03:55.000Z</time>
      </trkpt>
      <trkpt lat="45.32754" lon="5.42578">
        <ele>436.60000610352</ele>
        <time>2024-03-01T13:03:56.000Z</time>
      </trkpt>
      <trkpt lat="45.3275" lon="5.42578">
        <ele>436.60000610352</ele>
        <time>2024-03-01T13:03:57.000Z</time>
      </trkpt>
      <trkpt lat="45.32745" lon="5.42576">
        <ele>436.60000610352</ele>
        <time>2024-03-01T13:03:58.000Z</time>
      </trkpt>
      <trkpt lat="45.32741" lon="5.42575">
        <ele>436.79998779297</ele>
        <time>2024-03-01T13:03:59.000Z</time>
      </trkpt>
      <trkpt lat="45.32736" lon="5.42575">
        <ele>436.79998779297</ele>
        <time>2024-03-01T13:04:00.000Z</time>
      </trkpt>
      <trkpt lat="45.32728" lon="5.42573">
        <ele>437.20001220703</ele>
        <time>2024-03-01T13:04:02.000Z</time>
      </trkpt>
      <trkpt lat="45.32723" lon="5.42572">
        <ele>437.20001220703</ele>
        <time>2024-03-01T13:04:03.000Z</time>
      </trkpt>
      <trkpt lat="45.32703" lon="5.42562">
        <ele>438.20001220703</ele>
        <time>2024-03-01T13:04:08.000Z</time>
      </trkpt>
      <trkpt lat="45.32694" lon="5.42556">
        <ele>438.39999389648</ele>
        <time>2024-03-01T13:04:11.000Z</time>
      </trkpt>
      <trkpt lat="45.3269" lon="5.42555">
        <ele>438.60000610352</ele>
        <time>2024-03-01T13:04:12.000Z</time>
      </trkpt>
      <trkpt lat="45.32687" lon="5.42553">
        <ele>439</ele>
        <time>2024-03-01T13:04:13.000Z</time>
      </trkpt>
      <trkpt lat="45.32683" lon="5.42551">
        <ele>439.39999389648</ele>
        <time>2024-03-01T13:04:14.000Z</time>
      </trkpt>
      <trkpt lat="45.3268" lon="5.4255">
        <ele>439.39999389648</ele>
        <time>2024-03-01T13:04:15.000Z</time>
      </trkpt>
      <trkpt lat="45.32672" lon="5.42548">
        <ele>439.60000610352</ele>
        <time>2024-03-01T13:04:17.000Z</time>
      </trkpt>
      <trkpt lat="45.32665" lon="5.42548">
        <ele>440</ele>
        <time>2024-03-01T13:04:19.000Z</time>
      </trkpt>
      <trkpt lat="45.32662" lon="5.42547">
        <ele>440</ele>
        <time>2024-03-01T13:04:20.000Z</time>
      </trkpt>
      <trkpt lat="45.32659" lon="5.42547">
        <ele>440.20001220703</ele>
        <time>2024-03-01T13:04:21.000Z</time>
      </trkpt>
      <trkpt lat="45.32655" lon="5.42546">
        <ele>440.20001220703</ele>
        <time>2024-03-01T13:04:22.000Z</time>
      </trkpt>
      <trkpt lat="45.32652" lon="5.42545">
        <ele>440.60000610352</ele>
        <time>2024-03-01T13:04:23.000Z</time>
      </trkpt>
      <trkpt lat="45.32648" lon="5.42544">
        <ele>440.79998779297</ele>
        <time>2024-03-01T13:04:24.000Z</time>
      </trkpt>
      <trkpt lat="45.32645" lon="5.42544">
        <ele>441</ele>
        <time>2024-03-01T13:04:25.000Z</time>
      </trkpt>
      <trkpt lat="45.32642" lon="5.42543">
        <ele>441.20001220703</ele>
        <time>2024-03-01T13:04:26.000Z</time>
      </trkpt>
      <trkpt lat="45.32636" lon="5.42543">
        <ele>441.60000610352</ele>
        <time>2024-03-01T13:04:28.000Z</time>
      </trkpt>
      <trkpt lat="45.32632" lon="5.42542">
        <ele>441.60000610352</ele>
        <time>2024-03-01T13:04:29.000Z</time>
      </trkpt>
      <trkpt lat="45.32623" lon="5.42542">
        <ele>442.60000610352</ele>
        <time>2024-03-01T13:04:32.000Z</time>
      </trkpt>
      <trkpt lat="45.3262" lon="5.42543">
        <ele>443</ele>
        <time>2024-03-01T13:04:33.000Z</time>
      </trkpt>
      <trkpt lat="45.32618" lon="5.42543">
        <ele>443</ele>
        <time>2024-03-01T13:04:34.000Z</time>
      </trkpt>
      <trkpt lat="45.32615" lon="5.42545">
        <ele>443.60000610352</ele>
        <time>2024-03-01T13:04:35.000Z</time>
      </trkpt>
      <trkpt lat="45.32613" lon="5.42547">
        <ele>443.79998779297</ele>
        <time>2024-03-01T13:04:36.000Z</time>
      </trkpt>
      <trkpt lat="45.32611" lon="5.42548">
        <ele>444.39999389648</ele>
        <time>2024-03-01T13:04:37.000Z</time>
      </trkpt>
      <trkpt lat="45.32608" lon="5.42549">
        <ele>444.60000610352</ele>
        <time>2024-03-01T13:04:38.000Z</time>
      </trkpt>
      <trkpt lat="45.32606" lon="5.42551">
        <ele>444.79998779297</ele>
        <time>2024-03-01T13:04:39.000Z</time>
      </trkpt>
      <trkpt lat="45.32604" lon="5.42551">
        <ele>445</ele>
        <time>2024-03-01T13:04:40.000Z</time>
      </trkpt>
      <trkpt lat="45.32601" lon="5.42552">
        <ele>445.20001220703</ele>
        <time>2024-03-01T13:04:41.000Z</time>
      </trkpt>
      <trkpt lat="45.32598" lon="5.42551">
        <ele>445.60000610352</ele>
        <time>2024-03-01T13:04:42.000Z</time>
      </trkpt>
      <trkpt lat="45.32594" lon="5.42551">
        <ele>445.79998779297</ele>
        <time>2024-03-01T13:04:44.000Z</time>
      </trkpt>
      <trkpt lat="45.32591" lon="5.42552">
        <ele>446</ele>
        <time>2024-03-01T13:04:45.000Z</time>
      </trkpt>
      <trkpt lat="45.32588" lon="5.42552">
        <ele>446.20001220703</ele>
        <time>2024-03-01T13:04:46.000Z</time>
      </trkpt>
      <trkpt lat="45.32585" lon="5.42553">
        <ele>446.60000610352</ele>
        <time>2024-03-01T13:04:47.000Z</time>
      </trkpt>
      <trkpt lat="45.32583" lon="5.42554">
        <ele>446.60000610352</ele>
        <time>2024-03-01T13:04:48.000Z</time>
      </trkpt>
      <trkpt lat="45.3258" lon="5.42556">
        <ele>446.79998779297</ele>
        <time>2024-03-01T13:04:49.000Z</time>
      </trkpt>
      <trkpt lat="45.32577" lon="5.42557">
        <ele>446.79998779297</ele>
        <time>2024-03-01T13:04:50.000Z</time>
      </trkpt>
      <trkpt lat="45.32575" lon="5.42558">
        <ele>447</ele>
        <time>2024-03-01T13:04:51.000Z</time>
      </trkpt>
      <trkpt lat="45.32569" lon="5.42562">
        <ele>447.20001220703</ele>
        <time>2024-03-01T13:04:53.000Z</time>
      </trkpt>
      <trkpt lat="45.32566" lon="5.42563">
        <ele>447.39999389648</ele>
        <time>2024-03-01T13:04:54.000Z</time>
      </trkpt>
      <trkpt lat="45.32562" lon="5.42565">
        <ele>447.39999389648</ele>
        <time>2024-03-01T13:04:55.000Z</time>
      </trkpt>
      <trkpt lat="45.32559" lon="5.42567">
        <ele>447.60000610352</ele>
        <time>2024-03-01T13:04:56.000Z</time>
      </trkpt>
      <trkpt lat="45.32556" lon="5.42568">
        <ele>447.60000610352</ele>
        <time>2024-03-01T13:04:57.000Z</time>
      </trkpt>
      <trkpt lat="45.32554" lon="5.4257">
        <ele>447.79998779297</ele>
        <time>2024-03-01T13:04:58.000Z</time>
      </trkpt>
      <trkpt lat="45.32551" lon="5.42572">
        <ele>447.79998779297</ele>
        <time>2024-03-01T13:04:59.000Z</time>
      </trkpt>
      <trkpt lat="45.32548" lon="5.42573">
        <ele>447.79998779297</ele>
        <time>2024-03-01T13:05:00.000Z</time>
      </trkpt>
      <trkpt lat="45.32544" lon="5.42576">
        <ele>448</ele>
        <time>2024-03-01T13:05:01.000Z</time>
      </trkpt>
      <trkpt lat="45.32541" lon="5.42578">
        <ele>448</ele>
        <time>2024-03-01T13:05:02.000Z</time>
      </trkpt>
      <trkpt lat="45.32538" lon="5.42579">
        <ele>448</ele>
        <time>2024-03-01T13:05:03.000Z</time>
      </trkpt>
      <trkpt lat="45.32536" lon="5.42582">
        <ele>448</ele>
        <time>2024-03-01T13:05:04.000Z</time>
      </trkpt>
      <trkpt lat="45.32533" lon="5.42584">
        <ele>448</ele>
        <time>2024-03-01T13:05:05.000Z</time>
      </trkpt>
      <trkpt lat="45.32528" lon="5.42589">
        <ele>448.20001220703</ele>
        <time>2024-03-01T13:05:07.000Z</time>
      </trkpt>
      <trkpt lat="45.32525" lon="5.42591">
        <ele>448.39999389648</ele>
        <time>2024-03-01T13:05:08.000Z</time>
      </trkpt>
      <trkpt lat="45.32521" lon="5.42594">
        <ele>448.39999389648</ele>
        <time>2024-03-01T13:05:09.000Z</time>
      </trkpt>
      <trkpt lat="45.32515" lon="5.42598">
        <ele>448.60000610352</ele>
        <time>2024-03-01T13:05:11.000Z</time>
      </trkpt>
      <trkpt lat="45.32512" lon="5.42599">
        <ele>448.60000610352</ele>
        <time>2024-03-01T13:05:12.000Z</time>
      </trkpt>
      <trkpt lat="45.3251" lon="5.426">
        <ele>448.79998779297</ele>
        <time>2024-03-01T13:05:13.000Z</time>
      </trkpt>
      <trkpt lat="45.32507" lon="5.42602">
        <ele>449</ele>
        <time>2024-03-01T13:05:14.000Z</time>
      </trkpt>
      <trkpt lat="45.32503" lon="5.42603">
        <ele>449</ele>
        <time>2024-03-01T13:05:15.000Z</time>
      </trkpt>
      <trkpt lat="45.32499" lon="5.42605">
        <ele>449</ele>
        <time>2024-03-01T13:05:16.000Z</time>
      </trkpt>
      <trkpt lat="45.32496" lon="5.42607">
        <ele>449</ele>
        <time>2024-03-01T13:05:17.000Z</time>
      </trkpt>
      <trkpt lat="45.32488" lon="5.42613">
        <ele>449.39999389648</ele>
        <time>2024-03-01T13:05:19.000Z</time>
      </trkpt>
      <trkpt lat="45.3248" lon="5.42615">
        <ele>449.39999389648</ele>
        <time>2024-03-01T13:05:21.000Z</time>
      </trkpt>
      <trkpt lat="45.32472" lon="5.42619">
        <ele>449.60000610352</ele>
        <time>2024-03-01T13:05:23.000Z</time>
      </trkpt>
      <trkpt lat="45.32469" lon="5.42622">
        <ele>449.60000610352</ele>
        <time>2024-03-01T13:05:24.000Z</time>
      </trkpt>
      <trkpt lat="45.32466" lon="5.42624">
        <ele>449.79998779297</ele>
        <time>2024-03-01T13:05:25.000Z</time>
      </trkpt>
      <trkpt lat="45.32463" lon="5.42625">
        <ele>449.79998779297</ele>
        <time>2024-03-01T13:05:26.000Z</time>
      </trkpt>
      <trkpt lat="45.32451" lon="5.42633">
        <ele>449.79998779297</ele>
        <time>2024-03-01T13:05:30.000Z</time>
      </trkpt>
      <trkpt lat="45.32448" lon="5.42634">
        <ele>449.79998779297</ele>
        <time>2024-03-01T13:05:31.000Z</time>
      </trkpt>
      <trkpt lat="45.32442" lon="5.42638">
        <ele>450</ele>
        <time>2024-03-01T13:05:33.000Z</time>
      </trkpt>
      <trkpt lat="45.32439" lon="5.42639">
        <ele>450.20001220703</ele>
        <time>2024-03-01T13:05:34.000Z</time>
      </trkpt>
      <trkpt lat="45.32435" lon="5.42641">
        <ele>450.20001220703</ele>
        <time>2024-03-01T13:05:35.000Z</time>
      </trkpt>
      <trkpt lat="45.32431" lon="5.42642">
        <ele>450.39999389648</ele>
        <time>2024-03-01T13:05:36.000Z</time>
      </trkpt>
      <trkpt lat="45.32428" lon="5.42644">
        <ele>450.60000610352</ele>
        <time>2024-03-01T13:05:37.000Z</time>
      </trkpt>
      <trkpt lat="45.3242" lon="5.42644">
        <ele>450.79998779297</ele>
        <time>2024-03-01T13:05:39.000Z</time>
      </trkpt>
      <trkpt lat="45.32416" lon="5.42642">
        <ele>450.79998779297</ele>
        <time>2024-03-01T13:05:40.000Z</time>
      </trkpt>
      <trkpt lat="45.32412" lon="5.42641">
        <ele>451</ele>
        <time>2024-03-01T13:05:41.000Z</time>
      </trkpt>
      <trkpt lat="45.32408" lon="5.42639">
        <ele>451</ele>
        <time>2024-03-01T13:05:42.000Z</time>
      </trkpt>
      <trkpt lat="45.32401" lon="5.42639">
        <ele>451</ele>
        <time>2024-03-01T13:05:44.000Z</time>
      </trkpt>
      <trkpt lat="45.32395" lon="5.42643">
        <ele>451</ele>
        <time>2024-03-01T13:05:46.000Z</time>
      </trkpt>
      <trkpt lat="45.32393" lon="5.42646">
        <ele>451</ele>
        <time>2024-03-01T13:05:47.000Z</time>
      </trkpt>
      <trkpt lat="45.3239" lon="5.4265">
        <ele>450.79998779297</ele>
        <time>2024-03-01T13:05:48.000Z</time>
      </trkpt>
      <trkpt lat="45.32386" lon="5.42658">
        <ele>450.60000610352</ele>
        <time>2024-03-01T13:05:50.000Z</time>
      </trkpt>
      <trkpt lat="45.32384" lon="5.42661">
        <ele>450.60000610352</ele>
        <time>2024-03-01T13:05:51.000Z</time>
      </trkpt>
      <trkpt lat="45.32382" lon="5.42667">
        <ele>450.39999389648</ele>
        <time>2024-03-01T13:05:53.000Z</time>
      </trkpt>
      <trkpt lat="45.32378" lon="5.42671">
        <ele>450.60000610352</ele>
        <time>2024-03-01T13:05:55.000Z</time>
      </trkpt>
      <trkpt lat="45.32377" lon="5.42673">
        <ele>450.60000610352</ele>
        <time>2024-03-01T13:05:56.000Z</time>
      </trkpt>
      <trkpt lat="45.32375" lon="5.42675">
        <ele>450.39999389648</ele>
        <time>2024-03-01T13:05:57.000Z</time>
      </trkpt>
      <trkpt lat="45.32373" lon="5.42676">
        <ele>450.60000610352</ele>
        <time>2024-03-01T13:05:58.000Z</time>
      </trkpt>
      <trkpt lat="45.32369" lon="5.42676">
        <ele>450.79998779297</ele>
        <time>2024-03-01T13:06:00.000Z</time>
      </trkpt>
      <trkpt lat="45.32367" lon="5.42675">
        <ele>451</ele>
        <time>2024-03-01T13:06:01.000Z</time>
      </trkpt>
      <trkpt lat="45.32366" lon="5.42674">
        <ele>451.39999389648</ele>
        <time>2024-03-01T13:06:02.000Z</time>
      </trkpt>
      <trkpt lat="45.32364" lon="5.42673">
        <ele>451.79998779297</ele>
        <time>2024-03-01T13:06:03.000Z</time>
      </trkpt>
      <trkpt lat="45.32364" lon="5.42672">
        <ele>452</ele>
        <time>2024-03-01T13:06:04.000Z</time>
      </trkpt>
      <trkpt lat="45.32362" lon="5.42671">
        <ele>452.20001220703</ele>
        <time>2024-03-01T13:06:05.000Z</time>
      </trkpt>
      <trkpt lat="45.3236" lon="5.42669">
        <ele>452.79998779297</ele>
        <time>2024-03-01T13:06:07.000Z</time>
      </trkpt>
      <trkpt lat="45.32358" lon="5.42668">
        <ele>453.20001220703</ele>
        <time>2024-03-01T13:06:08.000Z</time>
      </trkpt>
      <trkpt lat="45.32355" lon="5.42665">
        <ele>453.79998779297</ele>
        <time>2024-03-01T13:06:10.000Z</time>
      </trkpt>
      <trkpt lat="45.32353" lon="5.42664">
        <ele>454</ele>
        <time>2024-03-01T13:06:11.000Z</time>
      </trkpt>
      <trkpt lat="45.32352" lon="5.42663">
        <ele>454.20001220703</ele>
        <time>2024-03-01T13:06:12.000Z</time>
      </trkpt>
      <trkpt lat="45.32348" lon="5.42661">
        <ele>454.39999389648</ele>
        <time>2024-03-01T13:06:14.000Z</time>
      </trkpt>
      <trkpt lat="45.32346" lon="5.42659">
        <ele>454.39999389648</ele>
        <time>2024-03-01T13:06:15.000Z</time>
      </trkpt>
      <trkpt lat="45.32342" lon="5.42657">
        <ele>454.79998779297</ele>
        <time>2024-03-01T13:06:17.000Z</time>
      </trkpt>
      <trkpt lat="45.32341" lon="5.42656">
        <ele>455</ele>
        <time>2024-03-01T13:06:18.000Z</time>
      </trkpt>
      <trkpt lat="45.32335" lon="5.42653">
        <ele>455.20001220703</ele>
        <time>2024-03-01T13:06:21.000Z</time>
      </trkpt>
      <trkpt lat="45.32334" lon="5.42652">
        <ele>455.39999389648</ele>
        <time>2024-03-01T13:06:22.000Z</time>
      </trkpt>
      <trkpt lat="45.3233" lon="5.4265">
        <ele>455.79998779297</ele>
        <time>2024-03-01T13:06:24.000Z</time>
      </trkpt>
      <trkpt lat="45.32327" lon="5.42647">
        <ele>456.20001220703</ele>
        <time>2024-03-01T13:06:26.000Z</time>
      </trkpt>
      <trkpt lat="45.32324" lon="5.42646">
        <ele>456.39999389648</ele>
        <time>2024-03-01T13:06:27.000Z</time>
      </trkpt>
      <trkpt lat="45.32318" lon="5.42643">
        <ele>457</ele>
        <time>2024-03-01T13:06:30.000Z</time>
      </trkpt>
      <trkpt lat="45.32316" lon="5.42643">
        <ele>457.39999389648</ele>
        <time>2024-03-01T13:06:31.000Z</time>
      </trkpt>
      <trkpt lat="45.32312" lon="5.42641">
        <ele>457.79998779297</ele>
        <time>2024-03-01T13:06:33.000Z</time>
      </trkpt>
      <trkpt lat="45.32311" lon="5.42641">
        <ele>458.20001220703</ele>
        <time>2024-03-01T13:06:34.000Z</time>
      </trkpt>
      <trkpt lat="45.32309" lon="5.4264">
        <ele>458.20001220703</ele>
        <time>2024-03-01T13:06:35.000Z</time>
      </trkpt>
      <trkpt lat="45.32308" lon="5.4264">
        <ele>458.39999389648</ele>
        <time>2024-03-01T13:06:36.000Z</time>
      </trkpt>
      <trkpt lat="45.32306" lon="5.42639">
        <ele>458.60000610352</ele>
        <time>2024-03-01T13:06:37.000Z</time>
      </trkpt>
      <trkpt lat="45.32301" lon="5.42639">
        <ele>459</ele>
        <time>2024-03-01T13:06:40.000Z</time>
      </trkpt>
      <trkpt lat="45.32299" lon="5.4264">
        <ele>459.60000610352</ele>
        <time>2024-03-01T13:06:41.000Z</time>
      </trkpt>
      <trkpt lat="45.32297" lon="5.42639">
        <ele>460</ele>
        <time>2024-03-01T13:06:42.000Z</time>
      </trkpt>
      <trkpt lat="45.32294" lon="5.42639">
        <ele>460.39999389648</ele>
        <time>2024-03-01T13:06:44.000Z</time>
      </trkpt>
      <trkpt lat="45.32293" lon="5.4264">
        <ele>460.79998779297</ele>
        <time>2024-03-01T13:06:45.000Z</time>
      </trkpt>
      <trkpt lat="45.32287" lon="5.4264">
        <ele>462</ele>
        <time>2024-03-01T13:06:48.000Z</time>
      </trkpt>
      <trkpt lat="45.32286" lon="5.42641">
        <ele>462.20001220703</ele>
        <time>2024-03-01T13:06:49.000Z</time>
      </trkpt>
      <trkpt lat="45.32273" lon="5.42641">
        <ele>465</ele>
        <time>2024-03-01T13:06:58.000Z</time>
      </trkpt>
      <trkpt lat="45.32272" lon="5.4264">
        <ele>465.39999389648</ele>
        <time>2024-03-01T13:06:59.000Z</time>
      </trkpt>
      <trkpt lat="45.32269" lon="5.4264">
        <ele>466</ele>
        <time>2024-03-01T13:07:01.000Z</time>
      </trkpt>
      <trkpt lat="45.32267" lon="5.42641">
        <ele>466.20001220703</ele>
        <time>2024-03-01T13:07:02.000Z</time>
      </trkpt>
      <trkpt lat="45.32266" lon="5.42642">
        <ele>466.39999389648</ele>
        <time>2024-03-01T13:07:03.000Z</time>
      </trkpt>
      <trkpt lat="45.32254" lon="5.42642">
        <ele>468.60000610352</ele>
        <time>2024-03-01T13:07:12.000Z</time>
      </trkpt>
      <trkpt lat="45.32253" lon="5.42641">
        <ele>468.79998779297</ele>
        <time>2024-03-01T13:07:13.000Z</time>
      </trkpt>
      <trkpt lat="45.3225" lon="5.42641">
        <ele>469.39999389648</ele>
        <time>2024-03-01T13:07:15.000Z</time>
      </trkpt>
      <trkpt lat="45.32249" lon="5.42642">
        <ele>469.60000610352</ele>
        <time>2024-03-01T13:07:16.000Z</time>
      </trkpt>
      <trkpt lat="45.32238" lon="5.42642">
        <ele>472.39999389648</ele>
        <time>2024-03-01T13:07:25.000Z</time>
      </trkpt>
      <trkpt lat="45.32237" lon="5.42643">
        <ele>472.79998779297</ele>
        <time>2024-03-01T13:07:26.000Z</time>
      </trkpt>
      <trkpt lat="45.32235" lon="5.42643">
        <ele>473.20001220703</ele>
        <time>2024-03-01T13:07:28.000Z</time>
      </trkpt>
      <trkpt lat="45.32234" lon="5.42642">
        <ele>473.79998779297</ele>
        <time>2024-03-01T13:07:30.000Z</time>
      </trkpt>
      <trkpt lat="45.32234" lon="5.42643">
        <ele>474.20001220703</ele>
        <time>2024-03-01T13:07:32.000Z</time>
      </trkpt>
      <trkpt lat="45.32233" lon="5.42643">
        <ele>474.39999389648</ele>
        <time>2024-03-01T13:07:33.000Z</time>
      </trkpt>
      <trkpt lat="45.32232" lon="5.42644">
        <ele>474.39999389648</ele>
        <time>2024-03-01T13:07:34.000Z</time>
      </trkpt>
      <trkpt lat="45.3223" lon="5.42644">
        <ele>474.79998779297</ele>
        <time>2024-03-01T13:07:36.000Z</time>
      </trkpt>
      <trkpt lat="45.32228" lon="5.42646">
        <ele>475.79998779297</ele>
        <time>2024-03-01T13:07:40.000Z</time>
      </trkpt>
      <trkpt lat="45.32227" lon="5.42645">
        <ele>476</ele>
        <time>2024-03-01T13:07:41.000Z</time>
      </trkpt>
      <trkpt lat="45.32226" lon="5.42646">
        <ele>476.39999389648</ele>
        <time>2024-03-01T13:07:42.000Z</time>
      </trkpt>
      <trkpt lat="45.32224" lon="5.42646">
        <ele>476.39999389648</ele>
        <time>2024-03-01T13:07:44.000Z</time>
      </trkpt>
      <trkpt lat="45.32224" lon="5.42647">
        <ele>476.60000610352</ele>
        <time>2024-03-01T13:07:46.000Z</time>
      </trkpt>
      <trkpt lat="45.32222" lon="5.42647">
        <ele>477.20001220703</ele>
        <time>2024-03-01T13:07:48.000Z</time>
      </trkpt>
      <trkpt lat="45.32221" lon="5.42648">
        <ele>477.60000610352</ele>
        <time>2024-03-01T13:07:49.000Z</time>
      </trkpt>
      <trkpt lat="45.32218" lon="5.42648">
        <ele>478.20001220703</ele>
        <time>2024-03-01T13:07:53.000Z</time>
      </trkpt>
      <trkpt lat="45.32214" lon="5.42652">
        <ele>479.39999389648</ele>
        <time>2024-03-01T13:07:59.000Z</time>
      </trkpt>
      <trkpt lat="45.32213" lon="5.42652">
        <ele>479.60000610352</ele>
        <time>2024-03-01T13:08:00.000Z</time>
      </trkpt>
      <trkpt lat="45.32211" lon="5.42654">
        <ele>480.20001220703</ele>
        <time>2024-03-01T13:08:02.000Z</time>
      </trkpt>
      <trkpt lat="45.32211" lon="5.42655">
        <ele>480.20001220703</ele>
        <time>2024-03-01T13:08:03.000Z</time>
      </trkpt>
      <trkpt lat="45.32209" lon="5.42657">
        <ele>480.39999389648</ele>
        <time>2024-03-01T13:08:05.000Z</time>
      </trkpt>
      <trkpt lat="45.32208" lon="5.42657">
        <ele>480.60000610352</ele>
        <time>2024-03-01T13:08:06.000Z</time>
      </trkpt>
      <trkpt lat="45.32206" lon="5.42659">
        <ele>481</ele>
        <time>2024-03-01T13:08:08.000Z</time>
      </trkpt>
      <trkpt lat="45.32204" lon="5.4266">
        <ele>481.20001220703</ele>
        <time>2024-03-01T13:08:09.000Z</time>
      </trkpt>
      <trkpt lat="45.32202" lon="5.42662">
        <ele>481.60000610352</ele>
        <time>2024-03-01T13:08:11.000Z</time>
      </trkpt>
      <trkpt lat="45.32202" lon="5.42663">
        <ele>481.60000610352</ele>
        <time>2024-03-01T13:08:12.000Z</time>
      </trkpt>
      <trkpt lat="45.32196" lon="5.42669">
        <ele>482.79998779297</ele>
        <time>2024-03-01T13:08:18.000Z</time>
      </trkpt>
      <trkpt lat="45.32194" lon="5.42669">
        <ele>483.20001220703</ele>
        <time>2024-03-01T13:08:20.000Z</time>
      </trkpt>
      <trkpt lat="45.32193" lon="5.4267">
        <ele>483.20001220703</ele>
        <time>2024-03-01T13:08:21.000Z</time>
      </trkpt>
      <trkpt lat="45.32192" lon="5.4267">
        <ele>483.39999389648</ele>
        <time>2024-03-01T13:08:22.000Z</time>
      </trkpt>
      <trkpt lat="45.32191" lon="5.42671">
        <ele>483.60000610352</ele>
        <time>2024-03-01T13:08:23.000Z</time>
      </trkpt>
      <trkpt lat="45.32191" lon="5.42672">
        <ele>485</ele>
        <time>2024-03-01T13:08:31.000Z</time>
      </trkpt>
      <trkpt lat="45.32189" lon="5.42672">
        <ele>485.20001220703</ele>
        <time>2024-03-01T13:08:34.000Z</time>
      </trkpt>
      <trkpt lat="45.32188" lon="5.42673">
        <ele>485.20001220703</ele>
        <time>2024-03-01T13:08:35.000Z</time>
      </trkpt>
      <trkpt lat="45.32186" lon="5.42674">
        <ele>485.20001220703</ele>
        <time>2024-03-01T13:08:36.000Z</time>
      </trkpt>
      <trkpt lat="45.32185" lon="5.42675">
        <ele>485.20001220703</ele>
        <time>2024-03-01T13:08:37.000Z</time>
      </trkpt>
      <trkpt lat="45.32184" lon="5.42677">
        <ele>485.20001220703</ele>
        <time>2024-03-01T13:08:38.000Z</time>
      </trkpt>
      <trkpt lat="45.32182" lon="5.42678">
        <ele>485.39999389648</ele>
        <time>2024-03-01T13:08:39.000Z</time>
      </trkpt>
      <trkpt lat="45.32181" lon="5.4268">
        <ele>485.39999389648</ele>
        <time>2024-03-01T13:08:40.000Z</time>
      </trkpt>
      <trkpt lat="45.3218" lon="5.42681">
        <ele>485.60000610352</ele>
        <time>2024-03-01T13:08:41.000Z</time>
      </trkpt>
      <trkpt lat="45.32179" lon="5.42683">
        <ele>485.60000610352</ele>
        <time>2024-03-01T13:08:42.000Z</time>
      </trkpt>
      <trkpt lat="45.32177" lon="5.42684">
        <ele>485.79998779297</ele>
        <time>2024-03-01T13:08:43.000Z</time>
      </trkpt>
      <trkpt lat="45.32176" lon="5.42685">
        <ele>485.79998779297</ele>
        <time>2024-03-01T13:08:44.000Z</time>
      </trkpt>
      <trkpt lat="45.32175" lon="5.42687">
        <ele>486</ele>
        <time>2024-03-01T13:08:45.000Z</time>
      </trkpt>
      <trkpt lat="45.32173" lon="5.42688">
        <ele>486.20001220703</ele>
        <time>2024-03-01T13:08:46.000Z</time>
      </trkpt>
      <trkpt lat="45.32172" lon="5.4269">
        <ele>486.20001220703</ele>
        <time>2024-03-01T13:08:47.000Z</time>
      </trkpt>
      <trkpt lat="45.32172" lon="5.42691">
        <ele>486.39999389648</ele>
        <time>2024-03-01T13:08:48.000Z</time>
      </trkpt>
      <trkpt lat="45.3217" lon="5.42693">
        <ele>486.60000610352</ele>
        <time>2024-03-01T13:08:49.000Z</time>
      </trkpt>
      <trkpt lat="45.32169" lon="5.42695">
        <ele>486.79998779297</ele>
        <time>2024-03-01T13:08:50.000Z</time>
      </trkpt>
      <trkpt lat="45.32167" lon="5.42696">
        <ele>487</ele>
        <time>2024-03-01T13:08:51.000Z</time>
      </trkpt>
      <trkpt lat="45.32166" lon="5.42698">
        <ele>487.20001220703</ele>
        <time>2024-03-01T13:08:52.000Z</time>
      </trkpt>
      <trkpt lat="45.32164" lon="5.42699">
        <ele>487.39999389648</ele>
        <time>2024-03-01T13:08:53.000Z</time>
      </trkpt>
      <trkpt lat="45.32163" lon="5.427">
        <ele>487.60000610352</ele>
        <time>2024-03-01T13:08:54.000Z</time>
      </trkpt>
      <trkpt lat="45.32161" lon="5.42701">
        <ele>487.79998779297</ele>
        <time>2024-03-01T13:08:55.000Z</time>
      </trkpt>
      <trkpt lat="45.3216" lon="5.42702">
        <ele>488.20001220703</ele>
        <time>2024-03-01T13:08:56.000Z</time>
      </trkpt>
      <trkpt lat="45.32156" lon="5.42704">
        <ele>488.39999389648</ele>
        <time>2024-03-01T13:08:58.000Z</time>
      </trkpt>
      <trkpt lat="45.32155" lon="5.42705">
        <ele>488.60000610352</ele>
        <time>2024-03-01T13:08:59.000Z</time>
      </trkpt>
      <trkpt lat="45.32151" lon="5.42707">
        <ele>488.79998779297</ele>
        <time>2024-03-01T13:09:01.000Z</time>
      </trkpt>
      <trkpt lat="45.32149" lon="5.42709">
        <ele>488.79998779297</ele>
        <time>2024-03-01T13:09:02.000Z</time>
      </trkpt>
      <trkpt lat="45.32147" lon="5.4271">
        <ele>489.20001220703</ele>
        <time>2024-03-01T13:09:03.000Z</time>
      </trkpt>
      <trkpt lat="45.32146" lon="5.42712">
        <ele>489.20001220703</ele>
        <time>2024-03-01T13:09:04.000Z</time>
      </trkpt>
      <trkpt lat="45.32146" lon="5.42715">
        <ele>489.39999389648</ele>
        <time>2024-03-01T13:09:05.000Z</time>
      </trkpt>
      <trkpt lat="45.32145" lon="5.42717">
        <ele>489.60000610352</ele>
        <time>2024-03-01T13:09:06.000Z</time>
      </trkpt>
      <trkpt lat="45.32141" lon="5.42721">
        <ele>490</ele>
        <time>2024-03-01T13:09:08.000Z</time>
      </trkpt>
      <trkpt lat="45.3214" lon="5.42723">
        <ele>490.20001220703</ele>
        <time>2024-03-01T13:09:09.000Z</time>
      </trkpt>
      <trkpt lat="45.32138" lon="5.42726">
        <ele>490.39999389648</ele>
        <time>2024-03-01T13:09:10.000Z</time>
      </trkpt>
      <trkpt lat="45.32137" lon="5.42728">
        <ele>490.39999389648</ele>
        <time>2024-03-01T13:09:11.000Z</time>
      </trkpt>
      <trkpt lat="45.32137" lon="5.42731">
        <ele>490.79998779297</ele>
        <time>2024-03-01T13:09:12.000Z</time>
      </trkpt>
      <trkpt lat="45.32136" lon="5.42733">
        <ele>491</ele>
        <time>2024-03-01T13:09:13.000Z</time>
      </trkpt>
      <trkpt lat="45.32134" lon="5.42736">
        <ele>491.20001220703</ele>
        <time>2024-03-01T13:09:14.000Z</time>
      </trkpt>
      <trkpt lat="45.32133" lon="5.42739">
        <ele>491.39999389648</ele>
        <time>2024-03-01T13:09:15.000Z</time>
      </trkpt>
      <trkpt lat="45.32132" lon="5.42741">
        <ele>491.60000610352</ele>
        <time>2024-03-01T13:09:16.000Z</time>
      </trkpt>
      <trkpt lat="45.3213" lon="5.42743">
        <ele>491.79998779297</ele>
        <time>2024-03-01T13:09:17.000Z</time>
      </trkpt>
      <trkpt lat="45.32129" lon="5.42746">
        <ele>491.79998779297</ele>
        <time>2024-03-01T13:09:18.000Z</time>
      </trkpt>
      <trkpt lat="45.32129" lon="5.42748">
        <ele>492</ele>
        <time>2024-03-01T13:09:19.000Z</time>
      </trkpt>
      <trkpt lat="45.32127" lon="5.42752">
        <ele>492.60000610352</ele>
        <time>2024-03-01T13:09:21.000Z</time>
      </trkpt>
      <trkpt lat="45.32126" lon="5.42753">
        <ele>492.60000610352</ele>
        <time>2024-03-01T13:09:22.000Z</time>
      </trkpt>
      <trkpt lat="45.32123" lon="5.42759">
        <ele>493</ele>
        <time>2024-03-01T13:09:25.000Z</time>
      </trkpt>
      <trkpt lat="45.32121" lon="5.4276">
        <ele>493.39999389648</ele>
        <time>2024-03-01T13:09:26.000Z</time>
      </trkpt>
      <trkpt lat="45.32121" lon="5.42762">
        <ele>493.79998779297</ele>
        <time>2024-03-01T13:09:27.000Z</time>
      </trkpt>
      <trkpt lat="45.3212" lon="5.42764">
        <ele>494</ele>
        <time>2024-03-01T13:09:28.000Z</time>
      </trkpt>
      <trkpt lat="45.32118" lon="5.42766">
        <ele>494.20001220703</ele>
        <time>2024-03-01T13:09:29.000Z</time>
      </trkpt>
      <trkpt lat="45.32116" lon="5.4277">
        <ele>494.79998779297</ele>
        <time>2024-03-01T13:09:31.000Z</time>
      </trkpt>
      <trkpt lat="45.32115" lon="5.42771">
        <ele>495</ele>
        <time>2024-03-01T13:09:32.000Z</time>
      </trkpt>
      <trkpt lat="45.32112" lon="5.42777">
        <ele>495.79998779297</ele>
        <time>2024-03-01T13:09:35.000Z</time>
      </trkpt>
      <trkpt lat="45.32111" lon="5.42778">
        <ele>496</ele>
        <time>2024-03-01T13:09:36.000Z</time>
      </trkpt>
      <trkpt lat="45.32108" lon="5.42784">
        <ele>496.79998779297</ele>
        <time>2024-03-01T13:09:39.000Z</time>
      </trkpt>
      <trkpt lat="45.32107" lon="5.42785">
        <ele>497</ele>
        <time>2024-03-01T13:09:40.000Z</time>
      </trkpt>
      <trkpt lat="45.32105" lon="5.42789">
        <ele>497.39999389648</ele>
        <time>2024-03-01T13:09:42.000Z</time>
      </trkpt>
      <trkpt lat="45.32101" lon="5.42793">
        <ele>498</ele>
        <time>2024-03-01T13:09:45.000Z</time>
      </trkpt>
      <trkpt lat="45.32101" lon="5.42794">
        <ele>498.20001220703</ele>
        <time>2024-03-01T13:09:46.000Z</time>
      </trkpt>
      <trkpt lat="45.32097" lon="5.42798">
        <ele>499</ele>
        <time>2024-03-01T13:09:49.000Z</time>
      </trkpt>
      <trkpt lat="45.32097" lon="5.428">
        <ele>499.20001220703</ele>
        <time>2024-03-01T13:09:50.000Z</time>
      </trkpt>
      <trkpt lat="45.32091" lon="5.42806">
        <ele>500.39999389648</ele>
        <time>2024-03-01T13:09:56.000Z</time>
      </trkpt>
      <trkpt lat="45.3209" lon="5.42808">
        <ele>500.79998779297</ele>
        <time>2024-03-01T13:09:57.000Z</time>
      </trkpt>
      <trkpt lat="45.32086" lon="5.42812">
        <ele>501.60000610352</ele>
        <time>2024-03-01T13:10:01.000Z</time>
      </trkpt>
      <trkpt lat="45.32085" lon="5.42814">
        <ele>501.79998779297</ele>
        <time>2024-03-01T13:10:02.000Z</time>
      </trkpt>
      <trkpt lat="45.32082" lon="5.42817">
        <ele>502.39999389648</ele>
        <time>2024-03-01T13:10:05.000Z</time>
      </trkpt>
      <trkpt lat="45.3208" lon="5.42818">
        <ele>502.39999389648</ele>
        <time>2024-03-01T13:10:06.000Z</time>
      </trkpt>
      <trkpt lat="45.32079" lon="5.4282">
        <ele>502.60000610352</ele>
        <time>2024-03-01T13:10:07.000Z</time>
      </trkpt>
      <trkpt lat="45.32077" lon="5.42822">
        <ele>503</ele>
        <time>2024-03-01T13:10:09.000Z</time>
      </trkpt>
      <trkpt lat="45.32075" lon="5.42823">
        <ele>503.20001220703</ele>
        <time>2024-03-01T13:10:10.000Z</time>
      </trkpt>
      <trkpt lat="45.32074" lon="5.42823">
        <ele>503.39999389648</ele>
        <time>2024-03-01T13:10:11.000Z</time>
      </trkpt>
      <trkpt lat="45.3207" lon="5.42827">
        <ele>504.39999389648</ele>
        <time>2024-03-01T13:10:15.000Z</time>
      </trkpt>
      <trkpt lat="45.32068" lon="5.42828">
        <ele>504.60000610352</ele>
        <time>2024-03-01T13:10:16.000Z</time>
      </trkpt>
      <trkpt lat="45.32067" lon="5.42828">
        <ele>504.79998779297</ele>
        <time>2024-03-01T13:10:17.000Z</time>
      </trkpt>
      <trkpt lat="45.32065" lon="5.4283">
        <ele>505.39999389648</ele>
        <time>2024-03-01T13:10:19.000Z</time>
      </trkpt>
      <trkpt lat="45.32063" lon="5.4283">
        <ele>505.39999389648</ele>
        <time>2024-03-01T13:10:20.000Z</time>
      </trkpt>
      <trkpt lat="45.32061" lon="5.42832">
        <ele>506</ele>
        <time>2024-03-01T13:10:22.000Z</time>
      </trkpt>
      <trkpt lat="45.3206" lon="5.42832">
        <ele>506.20001220703</ele>
        <time>2024-03-01T13:10:23.000Z</time>
      </trkpt>
      <trkpt lat="45.32058" lon="5.42833">
        <ele>506.39999389648</ele>
        <time>2024-03-01T13:10:24.000Z</time>
      </trkpt>
      <trkpt lat="45.32057" lon="5.42833">
        <ele>506.60000610352</ele>
        <time>2024-03-01T13:10:25.000Z</time>
      </trkpt>
      <trkpt lat="45.32055" lon="5.42834">
        <ele>506.79998779297</ele>
        <time>2024-03-01T13:10:26.000Z</time>
      </trkpt>
      <trkpt lat="45.32053" lon="5.42836">
        <ele>506.79998779297</ele>
        <time>2024-03-01T13:10:28.000Z</time>
      </trkpt>
      <trkpt lat="45.32051" lon="5.42837">
        <ele>507</ele>
        <time>2024-03-01T13:10:29.000Z</time>
      </trkpt>
      <trkpt lat="45.32049" lon="5.42839">
        <ele>507.39999389648</ele>
        <time>2024-03-01T13:10:31.000Z</time>
      </trkpt>
      <trkpt lat="45.32047" lon="5.42839">
        <ele>507.60000610352</ele>
        <time>2024-03-01T13:10:32.000Z</time>
      </trkpt>
      <trkpt lat="45.32046" lon="5.4284">
        <ele>507.60000610352</ele>
        <time>2024-03-01T13:10:33.000Z</time>
      </trkpt>
      <trkpt lat="45.32043" lon="5.4284">
        <ele>508</ele>
        <time>2024-03-01T13:10:35.000Z</time>
      </trkpt>
      <trkpt lat="45.32042" lon="5.42841">
        <ele>508.20001220703</ele>
        <time>2024-03-01T13:10:36.000Z</time>
      </trkpt>
      <trkpt lat="45.3204" lon="5.42842">
        <ele>508.20001220703</ele>
        <time>2024-03-01T13:10:37.000Z</time>
      </trkpt>
      <trkpt lat="45.32039" lon="5.42842">
        <ele>508.39999389648</ele>
        <time>2024-03-01T13:10:38.000Z</time>
      </trkpt>
      <trkpt lat="45.32038" lon="5.42843">
        <ele>508.60000610352</ele>
        <time>2024-03-01T13:10:39.000Z</time>
      </trkpt>
      <trkpt lat="45.32036" lon="5.42843">
        <ele>508.79998779297</ele>
        <time>2024-03-01T13:10:40.000Z</time>
      </trkpt>
      <trkpt lat="45.32035" lon="5.42844">
        <ele>508.79998779297</ele>
        <time>2024-03-01T13:10:41.000Z</time>
      </trkpt>
      <trkpt lat="45.32033" lon="5.42845">
        <ele>509.20001220703</ele>
        <time>2024-03-01T13:10:42.000Z</time>
      </trkpt>
      <trkpt lat="45.3203" lon="5.42845">
        <ele>509.39999389648</ele>
        <time>2024-03-01T13:10:44.000Z</time>
      </trkpt>
      <trkpt lat="45.32026" lon="5.42847">
        <ele>509.60000610352</ele>
        <time>2024-03-01T13:10:46.000Z</time>
      </trkpt>
      <trkpt lat="45.32025" lon="5.42847">
        <ele>509.79998779297</ele>
        <time>2024-03-01T13:10:47.000Z</time>
      </trkpt>
      <trkpt lat="45.32022" lon="5.4285">
        <ele>510.20001220703</ele>
        <time>2024-03-01T13:10:49.000Z</time>
      </trkpt>
      <trkpt lat="45.3202" lon="5.42851">
        <ele>510.20001220703</ele>
        <time>2024-03-01T13:10:50.000Z</time>
      </trkpt>
      <trkpt lat="45.32019" lon="5.42851">
        <ele>510.39999389648</ele>
        <time>2024-03-01T13:10:51.000Z</time>
      </trkpt>
      <trkpt lat="45.32015" lon="5.42853">
        <ele>510.60000610352</ele>
        <time>2024-03-01T13:10:53.000Z</time>
      </trkpt>
      <trkpt lat="45.32013" lon="5.42853">
        <ele>510.79998779297</ele>
        <time>2024-03-01T13:10:54.000Z</time>
      </trkpt>
      <trkpt lat="45.32012" lon="5.42852">
        <ele>511</ele>
        <time>2024-03-01T13:10:55.000Z</time>
      </trkpt>
      <trkpt lat="45.3201" lon="5.42851">
        <ele>511</ele>
        <time>2024-03-01T13:10:56.000Z</time>
      </trkpt>
      <trkpt lat="45.32009" lon="5.42849">
        <ele>511.20001220703</ele>
        <time>2024-03-01T13:10:57.000Z</time>
      </trkpt>
      <trkpt lat="45.32009" lon="5.42846">
        <ele>511.20001220703</ele>
        <time>2024-03-01T13:10:58.000Z</time>
      </trkpt>
      <trkpt lat="45.32006" lon="5.4284">
        <ele>511.60000610352</ele>
        <time>2024-03-01T13:11:00.000Z</time>
      </trkpt>
      <trkpt lat="45.32004" lon="5.42834">
        <ele>512.20001220703</ele>
        <time>2024-03-01T13:11:02.000Z</time>
      </trkpt>
      <trkpt lat="45.32002" lon="5.42831">
        <ele>512.20001220703</ele>
        <time>2024-03-01T13:11:03.000Z</time>
      </trkpt>
      <trkpt lat="45.32" lon="5.42823">
        <ele>512.59997558594</ele>
        <time>2024-03-01T13:11:05.000Z</time>
      </trkpt>
      <trkpt lat="45.31999" lon="5.4282">
        <ele>512.59997558594</ele>
        <time>2024-03-01T13:11:06.000Z</time>
      </trkpt>
      <trkpt lat="45.31997" lon="5.42816">
        <ele>512.79998779297</ele>
        <time>2024-03-01T13:11:07.000Z</time>
      </trkpt>
      <trkpt lat="45.31996" lon="5.42811">
        <ele>512.79998779297</ele>
        <time>2024-03-01T13:11:08.000Z</time>
      </trkpt>
      <trkpt lat="45.31994" lon="5.42807">
        <ele>513</ele>
        <time>2024-03-01T13:11:09.000Z</time>
      </trkpt>
      <trkpt lat="45.31991" lon="5.42792">
        <ele>513.20001220703</ele>
        <time>2024-03-01T13:11:12.000Z</time>
      </trkpt>
      <trkpt lat="45.3199" lon="5.42786">
        <ele>513.40002441406</ele>
        <time>2024-03-01T13:11:13.000Z</time>
      </trkpt>
      <trkpt lat="45.31989" lon="5.42781">
        <ele>513.59997558594</ele>
        <time>2024-03-01T13:11:14.000Z</time>
      </trkpt>
      <trkpt lat="45.31988" lon="5.42775">
        <ele>513.59997558594</ele>
        <time>2024-03-01T13:11:15.000Z</time>
      </trkpt>
      <trkpt lat="45.31986" lon="5.42769">
        <ele>513.59997558594</ele>
        <time>2024-03-01T13:11:16.000Z</time>
      </trkpt>
      <trkpt lat="45.31985" lon="5.42763">
        <ele>513.79998779297</ele>
        <time>2024-03-01T13:11:17.000Z</time>
      </trkpt>
      <trkpt lat="45.31983" lon="5.42756">
        <ele>513.79998779297</ele>
        <time>2024-03-01T13:11:18.000Z</time>
      </trkpt>
      <trkpt lat="45.3198" lon="5.4275">
        <ele>513.79998779297</ele>
        <time>2024-03-01T13:11:19.000Z</time>
      </trkpt>
      <trkpt lat="45.31976" lon="5.42738">
        <ele>513.79998779297</ele>
        <time>2024-03-01T13:11:21.000Z</time>
      </trkpt>
      <trkpt lat="45.31973" lon="5.42732">
        <ele>513.79998779297</ele>
        <time>2024-03-01T13:11:22.000Z</time>
      </trkpt>
      <trkpt lat="45.31971" lon="5.42726">
        <ele>513.79998779297</ele>
        <time>2024-03-01T13:11:23.000Z</time>
      </trkpt>
      <trkpt lat="45.31968" lon="5.4272">
        <ele>513.79998779297</ele>
        <time>2024-03-01T13:11:24.000Z</time>
      </trkpt>
      <trkpt lat="45.31962" lon="5.4271">
        <ele>513.79998779297</ele>
        <time>2024-03-01T13:11:26.000Z</time>
      </trkpt>
      <trkpt lat="45.31956" lon="5.42698">
        <ele>513.79998779297</ele>
        <time>2024-03-01T13:11:28.000Z</time>
      </trkpt>
      <trkpt lat="45.31953" lon="5.42693">
        <ele>513.59997558594</ele>
        <time>2024-03-01T13:11:29.000Z</time>
      </trkpt>
      <trkpt lat="45.31951" lon="5.42686">
        <ele>513.59997558594</ele>
        <time>2024-03-01T13:11:30.000Z</time>
      </trkpt>
      <trkpt lat="45.31948" lon="5.4268">
        <ele>513.59997558594</ele>
        <time>2024-03-01T13:11:31.000Z</time>
      </trkpt>
      <trkpt lat="45.31946" lon="5.42674">
        <ele>513.59997558594</ele>
        <time>2024-03-01T13:11:32.000Z</time>
      </trkpt>
      <trkpt lat="45.31943" lon="5.42668">
        <ele>513.59997558594</ele>
        <time>2024-03-01T13:11:33.000Z</time>
      </trkpt>
      <trkpt lat="45.31941" lon="5.42663">
        <ele>513.59997558594</ele>
        <time>2024-03-01T13:11:34.000Z</time>
      </trkpt>
      <trkpt lat="45.31938" lon="5.42658">
        <ele>513.40002441406</ele>
        <time>2024-03-01T13:11:35.000Z</time>
      </trkpt>
      <trkpt lat="45.31935" lon="5.42652">
        <ele>513.59997558594</ele>
        <time>2024-03-01T13:11:36.000Z</time>
      </trkpt>
      <trkpt lat="45.31931" lon="5.42642">
        <ele>513.59997558594</ele>
        <time>2024-03-01T13:11:38.000Z</time>
      </trkpt>
      <trkpt lat="45.31929" lon="5.42636">
        <ele>513.79998779297</ele>
        <time>2024-03-01T13:11:39.000Z</time>
      </trkpt>
      <trkpt lat="45.31927" lon="5.42631">
        <ele>513.79998779297</ele>
        <time>2024-03-01T13:11:40.000Z</time>
      </trkpt>
      <trkpt lat="45.31924" lon="5.42625">
        <ele>513.79998779297</ele>
        <time>2024-03-01T13:11:41.000Z</time>
      </trkpt>
      <trkpt lat="45.3192" lon="5.42613">
        <ele>514</ele>
        <time>2024-03-01T13:11:43.000Z</time>
      </trkpt>
      <trkpt lat="45.31917" lon="5.42607">
        <ele>514</ele>
        <time>2024-03-01T13:11:44.000Z</time>
      </trkpt>
      <trkpt lat="45.31911" lon="5.42589">
        <ele>514.20001220703</ele>
        <time>2024-03-01T13:11:47.000Z</time>
      </trkpt>
      <trkpt lat="45.31905" lon="5.42568">
        <ele>514.20001220703</ele>
        <time>2024-03-01T13:11:50.000Z</time>
      </trkpt>
      <trkpt lat="45.31904" lon="5.42561">
        <ele>514.20001220703</ele>
        <time>2024-03-01T13:11:51.000Z</time>
      </trkpt>
      <trkpt lat="45.31901" lon="5.42553">
        <ele>514</ele>
        <time>2024-03-01T13:11:52.000Z</time>
      </trkpt>
      <trkpt lat="45.31899" lon="5.42546">
        <ele>514</ele>
        <time>2024-03-01T13:11:53.000Z</time>
      </trkpt>
      <trkpt lat="45.31896" lon="5.42539">
        <ele>514</ele>
        <time>2024-03-01T13:11:54.000Z</time>
      </trkpt>
      <trkpt lat="45.31893" lon="5.42533">
        <ele>514</ele>
        <time>2024-03-01T13:11:55.000Z</time>
      </trkpt>
      <trkpt lat="45.31889" lon="5.42527">
        <ele>514</ele>
        <time>2024-03-01T13:11:56.000Z</time>
      </trkpt>
      <trkpt lat="45.31881" lon="5.42517">
        <ele>514</ele>
        <time>2024-03-01T13:11:58.000Z</time>
      </trkpt>
      <trkpt lat="45.31876" lon="5.42513">
        <ele>513.79998779297</ele>
        <time>2024-03-01T13:11:59.000Z</time>
      </trkpt>
      <trkpt lat="45.31866" lon="5.42509">
        <ele>513.59997558594</ele>
        <time>2024-03-01T13:12:01.000Z</time>
      </trkpt>
      <trkpt lat="45.31856" lon="5.42507">
        <ele>513.40002441406</ele>
        <time>2024-03-01T13:12:03.000Z</time>
      </trkpt>
      <trkpt lat="45.3185" lon="5.42506">
        <ele>513.40002441406</ele>
        <time>2024-03-01T13:12:04.000Z</time>
      </trkpt>
      <trkpt lat="45.31845" lon="5.42505">
        <ele>513.40002441406</ele>
        <time>2024-03-01T13:12:05.000Z</time>
      </trkpt>
      <trkpt lat="45.31839" lon="5.42505">
        <ele>513.40002441406</ele>
        <time>2024-03-01T13:12:06.000Z</time>
      </trkpt>
      <trkpt lat="45.31834" lon="5.42504">
        <ele>513.40002441406</ele>
        <time>2024-03-01T13:12:07.000Z</time>
      </trkpt>
      <trkpt lat="45.31824" lon="5.425">
        <ele>513.40002441406</ele>
        <time>2024-03-01T13:12:09.000Z</time>
      </trkpt>
      <trkpt lat="45.31816" lon="5.42494">
        <ele>513.40002441406</ele>
        <time>2024-03-01T13:12:11.000Z</time>
      </trkpt>
      <trkpt lat="45.31809" lon="5.42487">
        <ele>513.40002441406</ele>
        <time>2024-03-01T13:12:13.000Z</time>
      </trkpt>
      <trkpt lat="45.31803" lon="5.42478">
        <ele>513.40002441406</ele>
        <time>2024-03-01T13:12:16.000Z</time>
      </trkpt>
      <trkpt lat="45.31802" lon="5.42475">
        <ele>513.59997558594</ele>
        <time>2024-03-01T13:12:17.000Z</time>
      </trkpt>
      <trkpt lat="45.31801" lon="5.42473">
        <ele>514</ele>
        <time>2024-03-01T13:12:18.000Z</time>
      </trkpt>
      <trkpt lat="45.31799" lon="5.4247">
        <ele>514</ele>
        <time>2024-03-01T13:12:19.000Z</time>
      </trkpt>
      <trkpt lat="45.31798" lon="5.42467">
        <ele>514.40002441406</ele>
        <time>2024-03-01T13:12:20.000Z</time>
      </trkpt>
      <trkpt lat="45.31796" lon="5.42464">
        <ele>514.59997558594</ele>
        <time>2024-03-01T13:12:21.000Z</time>
      </trkpt>
      <trkpt lat="45.31795" lon="5.42462">
        <ele>515</ele>
        <time>2024-03-01T13:12:22.000Z</time>
      </trkpt>
      <trkpt lat="45.31791" lon="5.42456">
        <ele>515.59997558594</ele>
        <time>2024-03-01T13:12:24.000Z</time>
      </trkpt>
      <trkpt lat="45.3179" lon="5.42454">
        <ele>516</ele>
        <time>2024-03-01T13:12:25.000Z</time>
      </trkpt>
      <trkpt lat="45.31788" lon="5.42451">
        <ele>516.20001220703</ele>
        <time>2024-03-01T13:12:26.000Z</time>
      </trkpt>
      <trkpt lat="45.31786" lon="5.42449">
        <ele>516.79998779297</ele>
        <time>2024-03-01T13:12:27.000Z</time>
      </trkpt>
      <trkpt lat="45.31783" lon="5.42447">
        <ele>517</ele>
        <time>2024-03-01T13:12:28.000Z</time>
      </trkpt>
      <trkpt lat="45.31781" lon="5.42444">
        <ele>517.20001220703</ele>
        <time>2024-03-01T13:12:29.000Z</time>
      </trkpt>
      <trkpt lat="45.31777" lon="5.4244">
        <ele>517.79998779297</ele>
        <time>2024-03-01T13:12:31.000Z</time>
      </trkpt>
      <trkpt lat="45.31774" lon="5.42438">
        <ele>518.20001220703</ele>
        <time>2024-03-01T13:12:32.000Z</time>
      </trkpt>
      <trkpt lat="45.31772" lon="5.42435">
        <ele>518.20001220703</ele>
        <time>2024-03-01T13:12:33.000Z</time>
      </trkpt>
      <trkpt lat="45.31768" lon="5.42431">
        <ele>518.59997558594</ele>
        <time>2024-03-01T13:12:35.000Z</time>
      </trkpt>
      <trkpt lat="45.31765" lon="5.42429">
        <ele>519</ele>
        <time>2024-03-01T13:12:36.000Z</time>
      </trkpt>
      <trkpt lat="45.31763" lon="5.42428">
        <ele>519.20001220703</ele>
        <time>2024-03-01T13:12:37.000Z</time>
      </trkpt>
      <trkpt lat="45.31747" lon="5.42412">
        <ele>520.79998779297</ele>
        <time>2024-03-01T13:12:45.000Z</time>
      </trkpt>
      <trkpt lat="45.31744" lon="5.42411">
        <ele>521.20001220703</ele>
        <time>2024-03-01T13:12:46.000Z</time>
      </trkpt>
      <trkpt lat="45.31736" lon="5.42403">
        <ele>522</ele>
        <time>2024-03-01T13:12:50.000Z</time>
      </trkpt>
      <trkpt lat="45.31734" lon="5.42402">
        <ele>522.20001220703</ele>
        <time>2024-03-01T13:12:51.000Z</time>
      </trkpt>
      <trkpt lat="45.31732" lon="5.424">
        <ele>522.40002441406</ele>
        <time>2024-03-01T13:12:52.000Z</time>
      </trkpt>
      <trkpt lat="45.31728" lon="5.42398">
        <ele>522.59997558594</ele>
        <time>2024-03-01T13:12:54.000Z</time>
      </trkpt>
      <trkpt lat="45.31725" lon="5.42397">
        <ele>523</ele>
        <time>2024-03-01T13:12:55.000Z</time>
      </trkpt>
      <trkpt lat="45.31719" lon="5.42394">
        <ele>523.79998779297</ele>
        <time>2024-03-01T13:12:58.000Z</time>
      </trkpt>
      <trkpt lat="45.31716" lon="5.42393">
        <ele>524</ele>
        <time>2024-03-01T13:12:59.000Z</time>
      </trkpt>
      <trkpt lat="45.31714" lon="5.42392">
        <ele>524.20001220703</ele>
        <time>2024-03-01T13:13:00.000Z</time>
      </trkpt>
      <trkpt lat="45.31712" lon="5.42392">
        <ele>524.20001220703</ele>
        <time>2024-03-01T13:13:01.000Z</time>
      </trkpt>
      <trkpt lat="45.31709" lon="5.42393">
        <ele>524.59997558594</ele>
        <time>2024-03-01T13:13:02.000Z</time>
      </trkpt>
      <trkpt lat="45.317" lon="5.42393">
        <ele>525.40002441406</ele>
        <time>2024-03-01T13:13:06.000Z</time>
      </trkpt>
      <trkpt lat="45.31698" lon="5.42394">
        <ele>525.59997558594</ele>
        <time>2024-03-01T13:13:07.000Z</time>
      </trkpt>
      <trkpt lat="45.31693" lon="5.42394">
        <ele>525.79998779297</ele>
        <time>2024-03-01T13:13:09.000Z</time>
      </trkpt>
      <trkpt lat="45.3169" lon="5.42395">
        <ele>526</ele>
        <time>2024-03-01T13:13:10.000Z</time>
      </trkpt>
      <trkpt lat="45.31685" lon="5.42395">
        <ele>526.20001220703</ele>
        <time>2024-03-01T13:13:12.000Z</time>
      </trkpt>
      <trkpt lat="45.31683" lon="5.42396">
        <ele>526.20001220703</ele>
        <time>2024-03-01T13:13:13.000Z</time>
      </trkpt>
      <trkpt lat="45.3168" lon="5.42396">
        <ele>526.40002441406</ele>
        <time>2024-03-01T13:13:14.000Z</time>
      </trkpt>
      <trkpt lat="45.31676" lon="5.42398">
        <ele>526.79998779297</ele>
        <time>2024-03-01T13:13:16.000Z</time>
      </trkpt>
      <trkpt lat="45.31672" lon="5.42402">
        <ele>526.79998779297</ele>
        <time>2024-03-01T13:13:18.000Z</time>
      </trkpt>
      <trkpt lat="45.3167" lon="5.42405">
        <ele>526.79998779297</ele>
        <time>2024-03-01T13:13:19.000Z</time>
      </trkpt>
      <trkpt lat="45.3167" lon="5.42409">
        <ele>527</ele>
        <time>2024-03-01T13:13:20.000Z</time>
      </trkpt>
      <trkpt lat="45.31669" lon="5.42413">
        <ele>527</ele>
        <time>2024-03-01T13:13:21.000Z</time>
      </trkpt>
      <trkpt lat="45.31669" lon="5.42417">
        <ele>527</ele>
        <time>2024-03-01T13:13:22.000Z</time>
      </trkpt>
      <trkpt lat="45.31668" lon="5.42421">
        <ele>527.20001220703</ele>
        <time>2024-03-01T13:13:23.000Z</time>
      </trkpt>
      <trkpt lat="45.31668" lon="5.42453">
        <ele>528.20001220703</ele>
        <time>2024-03-01T13:13:30.000Z</time>
      </trkpt>
      <trkpt lat="45.31667" lon="5.42458">
        <ele>528.20001220703</ele>
        <time>2024-03-01T13:13:31.000Z</time>
      </trkpt>
      <trkpt lat="45.31666" lon="5.42462">
        <ele>528.20001220703</ele>
        <time>2024-03-01T13:13:32.000Z</time>
      </trkpt>
      <trkpt lat="45.31666" lon="5.42467">
        <ele>528.40002441406</ele>
        <time>2024-03-01T13:13:33.000Z</time>
      </trkpt>
      <trkpt lat="45.31665" lon="5.42471">
        <ele>528.40002441406</ele>
        <time>2024-03-01T13:13:34.000Z</time>
      </trkpt>
      <trkpt lat="45.31664" lon="5.42476">
        <ele>528.59997558594</ele>
        <time>2024-03-01T13:13:35.000Z</time>
      </trkpt>
      <trkpt lat="45.31664" lon="5.42481">
        <ele>528.59997558594</ele>
        <time>2024-03-01T13:13:36.000Z</time>
      </trkpt>
      <trkpt lat="45.31663" lon="5.42487">
        <ele>528.59997558594</ele>
        <time>2024-03-01T13:13:37.000Z</time>
      </trkpt>
      <trkpt lat="45.31662" lon="5.42492">
        <ele>528.79998779297</ele>
        <time>2024-03-01T13:13:38.000Z</time>
      </trkpt>
      <trkpt lat="45.31661" lon="5.42496">
        <ele>528.79998779297</ele>
        <time>2024-03-01T13:13:39.000Z</time>
      </trkpt>
      <trkpt lat="45.31661" lon="5.42501">
        <ele>529</ele>
        <time>2024-03-01T13:13:40.000Z</time>
      </trkpt>
      <trkpt lat="45.31659" lon="5.42506">
        <ele>529</ele>
        <time>2024-03-01T13:13:41.000Z</time>
      </trkpt>
      <trkpt lat="45.31658" lon="5.4251">
        <ele>529.20001220703</ele>
        <time>2024-03-01T13:13:42.000Z</time>
      </trkpt>
      <trkpt lat="45.31656" lon="5.42515">
        <ele>529.20001220703</ele>
        <time>2024-03-01T13:13:43.000Z</time>
      </trkpt>
      <trkpt lat="45.31655" lon="5.42519">
        <ele>529.20001220703</ele>
        <time>2024-03-01T13:13:44.000Z</time>
      </trkpt>
      <trkpt lat="45.31654" lon="5.42524">
        <ele>529.59997558594</ele>
        <time>2024-03-01T13:13:45.000Z</time>
      </trkpt>
      <trkpt lat="45.31652" lon="5.42529">
        <ele>529.59997558594</ele>
        <time>2024-03-01T13:13:46.000Z</time>
      </trkpt>
      <trkpt lat="45.31651" lon="5.42533">
        <ele>529.79998779297</ele>
        <time>2024-03-01T13:13:47.000Z</time>
      </trkpt>
      <trkpt lat="45.3165" lon="5.42538">
        <ele>529.59997558594</ele>
        <time>2024-03-01T13:13:48.000Z</time>
      </trkpt>
      <trkpt lat="45.31648" lon="5.42543">
        <ele>529.59997558594</ele>
        <time>2024-03-01T13:13:49.000Z</time>
      </trkpt>
      <trkpt lat="45.31646" lon="5.42553">
        <ele>529.79998779297</ele>
        <time>2024-03-01T13:13:51.000Z</time>
      </trkpt>
      <trkpt lat="45.31645" lon="5.42557">
        <ele>530</ele>
        <time>2024-03-01T13:13:52.000Z</time>
      </trkpt>
      <trkpt lat="45.31644" lon="5.42562">
        <ele>530.20001220703</ele>
        <time>2024-03-01T13:13:53.000Z</time>
      </trkpt>
      <trkpt lat="45.31644" lon="5.42567">
        <ele>530.40002441406</ele>
        <time>2024-03-01T13:13:54.000Z</time>
      </trkpt>
      <trkpt lat="45.31643" lon="5.42572">
        <ele>530.59997558594</ele>
        <time>2024-03-01T13:13:55.000Z</time>
      </trkpt>
      <trkpt lat="45.31641" lon="5.4258">
        <ele>531</ele>
        <time>2024-03-01T13:13:57.000Z</time>
      </trkpt>
      <trkpt lat="45.31641" lon="5.42584">
        <ele>531</ele>
        <time>2024-03-01T13:13:58.000Z</time>
      </trkpt>
      <trkpt lat="45.3164" lon="5.42589">
        <ele>531.20001220703</ele>
        <time>2024-03-01T13:13:59.000Z</time>
      </trkpt>
      <trkpt lat="45.31639" lon="5.42592">
        <ele>531.40002441406</ele>
        <time>2024-03-01T13:14:00.000Z</time>
      </trkpt>
      <trkpt lat="45.31638" lon="5.42596">
        <ele>531.59997558594</ele>
        <time>2024-03-01T13:14:01.000Z</time>
      </trkpt>
      <trkpt lat="45.31637" lon="5.42599">
        <ele>531.79998779297</ele>
        <time>2024-03-01T13:14:02.000Z</time>
      </trkpt>
      <trkpt lat="45.31635" lon="5.42603">
        <ele>532</ele>
        <time>2024-03-01T13:14:03.000Z</time>
      </trkpt>
      <trkpt lat="45.31632" lon="5.42612">
        <ele>532.59997558594</ele>
        <time>2024-03-01T13:14:06.000Z</time>
      </trkpt>
      <trkpt lat="45.3163" lon="5.42616">
        <ele>532.59997558594</ele>
        <time>2024-03-01T13:14:07.000Z</time>
      </trkpt>
      <trkpt lat="45.31629" lon="5.42619">
        <ele>533</ele>
        <time>2024-03-01T13:14:08.000Z</time>
      </trkpt>
      <trkpt lat="45.31627" lon="5.42622">
        <ele>533.20001220703</ele>
        <time>2024-03-01T13:14:09.000Z</time>
      </trkpt>
      <trkpt lat="45.31626" lon="5.42625">
        <ele>533.40002441406</ele>
        <time>2024-03-01T13:14:10.000Z</time>
      </trkpt>
      <trkpt lat="45.31625" lon="5.42627">
        <ele>533.59997558594</ele>
        <time>2024-03-01T13:14:11.000Z</time>
      </trkpt>
      <trkpt lat="45.31623" lon="5.42629">
        <ele>533.79998779297</ele>
        <time>2024-03-01T13:14:12.000Z</time>
      </trkpt>
      <trkpt lat="45.31622" lon="5.42632">
        <ele>534.20001220703</ele>
        <time>2024-03-01T13:14:13.000Z</time>
      </trkpt>
      <trkpt lat="45.31621" lon="5.42634">
        <ele>534.79998779297</ele>
        <time>2024-03-01T13:14:14.000Z</time>
      </trkpt>
      <trkpt lat="45.31619" lon="5.42636">
        <ele>535.20001220703</ele>
        <time>2024-03-01T13:14:15.000Z</time>
      </trkpt>
      <trkpt lat="45.31615" lon="5.42644">
        <ele>536</ele>
        <time>2024-03-01T13:14:19.000Z</time>
      </trkpt>
      <trkpt lat="45.31614" lon="5.42647">
        <ele>536.59997558594</ele>
        <time>2024-03-01T13:14:20.000Z</time>
      </trkpt>
      <trkpt lat="45.31613" lon="5.42649">
        <ele>537</ele>
        <time>2024-03-01T13:14:21.000Z</time>
      </trkpt>
      <trkpt lat="45.31613" lon="5.42651">
        <ele>537</ele>
        <time>2024-03-01T13:14:22.000Z</time>
      </trkpt>
      <trkpt lat="45.31612" lon="5.42654">
        <ele>537.59997558594</ele>
        <time>2024-03-01T13:14:23.000Z</time>
      </trkpt>
      <trkpt lat="45.31612" lon="5.42656">
        <ele>538</ele>
        <time>2024-03-01T13:14:24.000Z</time>
      </trkpt>
      <trkpt lat="45.31611" lon="5.42659">
        <ele>538.20001220703</ele>
        <time>2024-03-01T13:14:25.000Z</time>
      </trkpt>
      <trkpt lat="45.31611" lon="5.42661">
        <ele>538.40002441406</ele>
        <time>2024-03-01T13:14:26.000Z</time>
      </trkpt>
      <trkpt lat="45.3161" lon="5.42664">
        <ele>538.59997558594</ele>
        <time>2024-03-01T13:14:27.000Z</time>
      </trkpt>
      <trkpt lat="45.3161" lon="5.42669">
        <ele>539</ele>
        <time>2024-03-01T13:14:29.000Z</time>
      </trkpt>
      <trkpt lat="45.31609" lon="5.42672">
        <ele>539.20001220703</ele>
        <time>2024-03-01T13:14:30.000Z</time>
      </trkpt>
      <trkpt lat="45.31609" lon="5.42675">
        <ele>539.40002441406</ele>
        <time>2024-03-01T13:14:31.000Z</time>
      </trkpt>
      <trkpt lat="45.31608" lon="5.42678">
        <ele>539.59997558594</ele>
        <time>2024-03-01T13:14:32.000Z</time>
      </trkpt>
      <trkpt lat="45.31608" lon="5.42683">
        <ele>540.20001220703</ele>
        <time>2024-03-01T13:14:34.000Z</time>
      </trkpt>
      <trkpt lat="45.31607" lon="5.42685">
        <ele>540.40002441406</ele>
        <time>2024-03-01T13:14:35.000Z</time>
      </trkpt>
      <trkpt lat="45.31607" lon="5.42691">
        <ele>541</ele>
        <time>2024-03-01T13:14:37.000Z</time>
      </trkpt>
      <trkpt lat="45.31606" lon="5.42693">
        <ele>541</ele>
        <time>2024-03-01T13:14:38.000Z</time>
      </trkpt>
      <trkpt lat="45.31606" lon="5.42715">
        <ele>543</ele>
        <time>2024-03-01T13:14:46.000Z</time>
      </trkpt>
      <trkpt lat="45.31607" lon="5.42719">
        <ele>543.20001220703</ele>
        <time>2024-03-01T13:14:47.000Z</time>
      </trkpt>
      <trkpt lat="45.31607" lon="5.42721">
        <ele>543.40002441406</ele>
        <time>2024-03-01T13:14:48.000Z</time>
      </trkpt>
      <trkpt lat="45.31608" lon="5.42724">
        <ele>543.59997558594</ele>
        <time>2024-03-01T13:14:49.000Z</time>
      </trkpt>
      <trkpt lat="45.31608" lon="5.42727">
        <ele>543.59997558594</ele>
        <time>2024-03-01T13:14:50.000Z</time>
      </trkpt>
      <trkpt lat="45.31609" lon="5.4273">
        <ele>544</ele>
        <time>2024-03-01T13:14:51.000Z</time>
      </trkpt>
      <trkpt lat="45.31609" lon="5.42733">
        <ele>544</ele>
        <time>2024-03-01T13:14:52.000Z</time>
      </trkpt>
      <trkpt lat="45.3161" lon="5.42736">
        <ele>544.40002441406</ele>
        <time>2024-03-01T13:14:53.000Z</time>
      </trkpt>
      <trkpt lat="45.31612" lon="5.42739">
        <ele>544.59997558594</ele>
        <time>2024-03-01T13:14:54.000Z</time>
      </trkpt>
      <trkpt lat="45.31616" lon="5.42751">
        <ele>545.20001220703</ele>
        <time>2024-03-01T13:14:58.000Z</time>
      </trkpt>
      <trkpt lat="45.31617" lon="5.42753">
        <ele>545.59997558594</ele>
        <time>2024-03-01T13:14:59.000Z</time>
      </trkpt>
      <trkpt lat="45.31621" lon="5.42759">
        <ele>545.79998779297</ele>
        <time>2024-03-01T13:15:01.000Z</time>
      </trkpt>
      <trkpt lat="45.31624" lon="5.42768">
        <ele>546.40002441406</ele>
        <time>2024-03-01T13:15:04.000Z</time>
      </trkpt>
      <trkpt lat="45.31626" lon="5.42771">
        <ele>546.59997558594</ele>
        <time>2024-03-01T13:15:05.000Z</time>
      </trkpt>
      <trkpt lat="45.31628" lon="5.42773">
        <ele>546.79998779297</ele>
        <time>2024-03-01T13:15:06.000Z</time>
      </trkpt>
      <trkpt lat="45.31629" lon="5.42775">
        <ele>547</ele>
        <time>2024-03-01T13:15:07.000Z</time>
      </trkpt>
      <trkpt lat="45.3163" lon="5.42778">
        <ele>547.40002441406</ele>
        <time>2024-03-01T13:15:08.000Z</time>
      </trkpt>
      <trkpt lat="45.3163" lon="5.42781">
        <ele>547.40002441406</ele>
        <time>2024-03-01T13:15:09.000Z</time>
      </trkpt>
      <trkpt lat="45.31631" lon="5.42783">
        <ele>547.59997558594</ele>
        <time>2024-03-01T13:15:10.000Z</time>
      </trkpt>
      <trkpt lat="45.31631" lon="5.42785">
        <ele>547.79998779297</ele>
        <time>2024-03-01T13:15:11.000Z</time>
      </trkpt>
      <trkpt lat="45.31632" lon="5.42787">
        <ele>548</ele>
        <time>2024-03-01T13:15:12.000Z</time>
      </trkpt>
      <trkpt lat="45.31631" lon="5.4279">
        <ele>548.20001220703</ele>
        <time>2024-03-01T13:15:13.000Z</time>
      </trkpt>
      <trkpt lat="45.31631" lon="5.42801">
        <ele>549.20001220703</ele>
        <time>2024-03-01T13:15:17.000Z</time>
      </trkpt>
      <trkpt lat="45.31633" lon="5.42805">
        <ele>549.59997558594</ele>
        <time>2024-03-01T13:15:19.000Z</time>
      </trkpt>
      <trkpt lat="45.31634" lon="5.42808">
        <ele>550</ele>
        <time>2024-03-01T13:15:20.000Z</time>
      </trkpt>
      <trkpt lat="45.31636" lon="5.4281">
        <ele>550.20001220703</ele>
        <time>2024-03-01T13:15:21.000Z</time>
      </trkpt>
      <trkpt lat="45.31638" lon="5.42816">
        <ele>550.59997558594</ele>
        <time>2024-03-01T13:15:23.000Z</time>
      </trkpt>
      <trkpt lat="45.3164" lon="5.42819">
        <ele>550.59997558594</ele>
        <time>2024-03-01T13:15:24.000Z</time>
      </trkpt>
      <trkpt lat="45.31641" lon="5.42822">
        <ele>550.79998779297</ele>
        <time>2024-03-01T13:15:25.000Z</time>
      </trkpt>
      <trkpt lat="45.31642" lon="5.42826">
        <ele>550.79998779297</ele>
        <time>2024-03-01T13:15:26.000Z</time>
      </trkpt>
      <trkpt lat="45.31644" lon="5.42832">
        <ele>551.20001220703</ele>
        <time>2024-03-01T13:15:28.000Z</time>
      </trkpt>
      <trkpt lat="45.31648" lon="5.4284">
        <ele>551.40002441406</ele>
        <time>2024-03-01T13:15:30.000Z</time>
      </trkpt>
      <trkpt lat="45.31649" lon="5.42844">
        <ele>551.59997558594</ele>
        <time>2024-03-01T13:15:31.000Z</time>
      </trkpt>
      <trkpt lat="45.31651" lon="5.42848">
        <ele>551.59997558594</ele>
        <time>2024-03-01T13:15:32.000Z</time>
      </trkpt>
      <trkpt lat="45.31652" lon="5.42852">
        <ele>551.79998779297</ele>
        <time>2024-03-01T13:15:33.000Z</time>
      </trkpt>
      <trkpt lat="45.31654" lon="5.42856">
        <ele>551.79998779297</ele>
        <time>2024-03-01T13:15:34.000Z</time>
      </trkpt>
      <trkpt lat="45.31655" lon="5.4286">
        <ele>552</ele>
        <time>2024-03-01T13:15:35.000Z</time>
      </trkpt>
      <trkpt lat="45.31657" lon="5.4287">
        <ele>552.40002441406</ele>
        <time>2024-03-01T13:15:37.000Z</time>
      </trkpt>
      <trkpt lat="45.31656" lon="5.42875">
        <ele>552.40002441406</ele>
        <time>2024-03-01T13:15:38.000Z</time>
      </trkpt>
      <trkpt lat="45.31654" lon="5.4288">
        <ele>552.59997558594</ele>
        <time>2024-03-01T13:15:39.000Z</time>
      </trkpt>
      <trkpt lat="45.31653" lon="5.42885">
        <ele>552.59997558594</ele>
        <time>2024-03-01T13:15:40.000Z</time>
      </trkpt>
      <trkpt lat="45.31651" lon="5.42889">
        <ele>552.79998779297</ele>
        <time>2024-03-01T13:15:41.000Z</time>
      </trkpt>
      <trkpt lat="45.31649" lon="5.42892">
        <ele>552.79998779297</ele>
        <time>2024-03-01T13:15:42.000Z</time>
      </trkpt>
      <trkpt lat="45.31646" lon="5.42895">
        <ele>552.79998779297</ele>
        <time>2024-03-01T13:15:43.000Z</time>
      </trkpt>
      <trkpt lat="45.31644" lon="5.42899">
        <ele>553</ele>
        <time>2024-03-01T13:15:44.000Z</time>
      </trkpt>
      <trkpt lat="45.31642" lon="5.42902">
        <ele>553</ele>
        <time>2024-03-01T13:15:45.000Z</time>
      </trkpt>
      <trkpt lat="45.31641" lon="5.42905">
        <ele>553.40002441406</ele>
        <time>2024-03-01T13:15:46.000Z</time>
      </trkpt>
      <trkpt lat="45.3164" lon="5.42909">
        <ele>553.40002441406</ele>
        <time>2024-03-01T13:15:47.000Z</time>
      </trkpt>
      <trkpt lat="45.31638" lon="5.42913">
        <ele>553.79998779297</ele>
        <time>2024-03-01T13:15:48.000Z</time>
      </trkpt>
      <trkpt lat="45.31638" lon="5.42922">
        <ele>554</ele>
        <time>2024-03-01T13:15:50.000Z</time>
      </trkpt>
      <trkpt lat="45.31637" lon="5.42928">
        <ele>554</ele>
        <time>2024-03-01T13:15:51.000Z</time>
      </trkpt>
      <trkpt lat="45.31637" lon="5.4294">
        <ele>554</ele>
        <time>2024-03-01T13:15:53.000Z</time>
      </trkpt>
      <trkpt lat="45.31636" lon="5.42946">
        <ele>554</ele>
        <time>2024-03-01T13:15:54.000Z</time>
      </trkpt>
      <trkpt lat="45.31636" lon="5.42952">
        <ele>554</ele>
        <time>2024-03-01T13:15:55.000Z</time>
      </trkpt>
      <trkpt lat="45.31634" lon="5.42959">
        <ele>554.20001220703</ele>
        <time>2024-03-01T13:15:56.000Z</time>
      </trkpt>
      <trkpt lat="45.31633" lon="5.42966">
        <ele>554.20001220703</ele>
        <time>2024-03-01T13:15:57.000Z</time>
      </trkpt>
      <trkpt lat="45.31624" lon="5.4299">
        <ele>554</ele>
        <time>2024-03-01T13:16:00.000Z</time>
      </trkpt>
      <trkpt lat="45.31621" lon="5.42999">
        <ele>553.79998779297</ele>
        <time>2024-03-01T13:16:01.000Z</time>
      </trkpt>
      <trkpt lat="45.31613" lon="5.43017">
        <ele>553.40002441406</ele>
        <time>2024-03-01T13:16:03.000Z</time>
      </trkpt>
      <trkpt lat="45.31601" lon="5.43041">
        <ele>552.40002441406</ele>
        <time>2024-03-01T13:16:06.000Z</time>
      </trkpt>
      <trkpt lat="45.31596" lon="5.43048">
        <ele>552.20001220703</ele>
        <time>2024-03-01T13:16:07.000Z</time>
      </trkpt>
      <trkpt lat="45.31591" lon="5.43056">
        <ele>552</ele>
        <time>2024-03-01T13:16:08.000Z</time>
      </trkpt>
      <trkpt lat="45.31579" lon="5.43068">
        <ele>551.40002441406</ele>
        <time>2024-03-01T13:16:10.000Z</time>
      </trkpt>
      <trkpt lat="45.31573" lon="5.43073">
        <ele>551.20001220703</ele>
        <time>2024-03-01T13:16:11.000Z</time>
      </trkpt>
      <trkpt lat="45.31566" lon="5.43076">
        <ele>550.79998779297</ele>
        <time>2024-03-01T13:16:12.000Z</time>
      </trkpt>
      <trkpt lat="45.31558" lon="5.43079">
        <ele>550.59997558594</ele>
        <time>2024-03-01T13:16:13.000Z</time>
      </trkpt>
      <trkpt lat="45.31551" lon="5.43081">
        <ele>550.20001220703</ele>
        <time>2024-03-01T13:16:14.000Z</time>
      </trkpt>
      <trkpt lat="45.31542" lon="5.43082">
        <ele>549.79998779297</ele>
        <time>2024-03-01T13:16:15.000Z</time>
      </trkpt>
      <trkpt lat="45.31506" lon="5.4309">
        <ele>548.20001220703</ele>
        <time>2024-03-01T13:16:19.000Z</time>
      </trkpt>
      <trkpt lat="45.31497" lon="5.43094">
        <ele>548</ele>
        <time>2024-03-01T13:16:20.000Z</time>
      </trkpt>
      <trkpt lat="45.31479" lon="5.43104">
        <ele>546.59997558594</ele>
        <time>2024-03-01T13:16:22.000Z</time>
      </trkpt>
      <trkpt lat="45.3147" lon="5.43108">
        <ele>546</ele>
        <time>2024-03-01T13:16:23.000Z</time>
      </trkpt>
      <trkpt lat="45.31454" lon="5.43116">
        <ele>545.20001220703</ele>
        <time>2024-03-01T13:16:25.000Z</time>
      </trkpt>
      <trkpt lat="45.31448" lon="5.43123">
        <ele>544.40002441406</ele>
        <time>2024-03-01T13:16:26.000Z</time>
      </trkpt>
      <trkpt lat="45.31443" lon="5.43132">
        <ele>544</ele>
        <time>2024-03-01T13:16:27.000Z</time>
      </trkpt>
      <trkpt lat="45.31441" lon="5.43142">
        <ele>543.59997558594</ele>
        <time>2024-03-01T13:16:28.000Z</time>
      </trkpt>
      <trkpt lat="45.31443" lon="5.43152">
        <ele>542.79998779297</ele>
        <time>2024-03-01T13:16:29.000Z</time>
      </trkpt>
      <trkpt lat="45.31448" lon="5.4316">
        <ele>542.20001220703</ele>
        <time>2024-03-01T13:16:30.000Z</time>
      </trkpt>
      <trkpt lat="45.31454" lon="5.43165">
        <ele>541.40002441406</ele>
        <time>2024-03-01T13:16:31.000Z</time>
      </trkpt>
      <trkpt lat="45.3147" lon="5.43171">
        <ele>540.59997558594</ele>
        <time>2024-03-01T13:16:33.000Z</time>
      </trkpt>
      <trkpt lat="45.31478" lon="5.43175">
        <ele>540</ele>
        <time>2024-03-01T13:16:34.000Z</time>
      </trkpt>
      <trkpt lat="45.31487" lon="5.43178">
        <ele>539.59997558594</ele>
        <time>2024-03-01T13:16:35.000Z</time>
      </trkpt>
      <trkpt lat="45.31505" lon="5.43186">
        <ele>539</ele>
        <time>2024-03-01T13:16:37.000Z</time>
      </trkpt>
      <trkpt lat="45.31514" lon="5.43191">
        <ele>538.20001220703</ele>
        <time>2024-03-01T13:16:38.000Z</time>
      </trkpt>
      <trkpt lat="45.31523" lon="5.43197">
        <ele>537.79998779297</ele>
        <time>2024-03-01T13:16:39.000Z</time>
      </trkpt>
      <trkpt lat="45.31533" lon="5.43203">
        <ele>537</ele>
        <time>2024-03-01T13:16:40.000Z</time>
      </trkpt>
      <trkpt lat="45.31541" lon="5.4321">
        <ele>536.20001220703</ele>
        <time>2024-03-01T13:16:41.000Z</time>
      </trkpt>
      <trkpt lat="45.31549" lon="5.43219">
        <ele>535.59997558594</ele>
        <time>2024-03-01T13:16:42.000Z</time>
      </trkpt>
      <trkpt lat="45.31556" lon="5.43228">
        <ele>534.59997558594</ele>
        <time>2024-03-01T13:16:43.000Z</time>
      </trkpt>
      <trkpt lat="45.31563" lon="5.43239">
        <ele>534.40002441406</ele>
        <time>2024-03-01T13:16:44.000Z</time>
      </trkpt>
      <trkpt lat="45.31568" lon="5.43248">
        <ele>534</ele>
        <time>2024-03-01T13:16:45.000Z</time>
      </trkpt>
      <trkpt lat="45.3157" lon="5.43261">
        <ele>533</ele>
        <time>2024-03-01T13:16:46.000Z</time>
      </trkpt>
      <trkpt lat="45.31569" lon="5.43276">
        <ele>532.59997558594</ele>
        <time>2024-03-01T13:16:47.000Z</time>
      </trkpt>
      <trkpt lat="45.31565" lon="5.43302">
        <ele>531.40002441406</ele>
        <time>2024-03-01T13:16:49.000Z</time>
      </trkpt>
      <trkpt lat="45.31558" lon="5.43314">
        <ele>530.40002441406</ele>
        <time>2024-03-01T13:16:50.000Z</time>
      </trkpt>
      <trkpt lat="45.3155" lon="5.43322">
        <ele>530</ele>
        <time>2024-03-01T13:16:51.000Z</time>
      </trkpt>
      <trkpt lat="45.31541" lon="5.43329">
        <ele>528.59997558594</ele>
        <time>2024-03-01T13:16:52.000Z</time>
      </trkpt>
      <trkpt lat="45.3153" lon="5.43337">
        <ele>527.79998779297</ele>
        <time>2024-03-01T13:16:53.000Z</time>
      </trkpt>
      <trkpt lat="45.3152" lon="5.43345">
        <ele>527.59997558594</ele>
        <time>2024-03-01T13:16:54.000Z</time>
      </trkpt>
      <trkpt lat="45.31511" lon="5.43354">
        <ele>526.20001220703</ele>
        <time>2024-03-01T13:16:55.000Z</time>
      </trkpt>
      <trkpt lat="45.31502" lon="5.43364">
        <ele>525.79998779297</ele>
        <time>2024-03-01T13:16:56.000Z</time>
      </trkpt>
      <trkpt lat="45.31492" lon="5.43374">
        <ele>524.40002441406</ele>
        <time>2024-03-01T13:16:57.000Z</time>
      </trkpt>
      <trkpt lat="45.31483" lon="5.43384">
        <ele>523.79998779297</ele>
        <time>2024-03-01T13:16:58.000Z</time>
      </trkpt>
      <trkpt lat="45.31473" lon="5.43393">
        <ele>523</ele>
        <time>2024-03-01T13:16:59.000Z</time>
      </trkpt>
      <trkpt lat="45.31464" lon="5.43404">
        <ele>522.20001220703</ele>
        <time>2024-03-01T13:17:00.000Z</time>
      </trkpt>
      <trkpt lat="45.31455" lon="5.43414">
        <ele>521.59997558594</ele>
        <time>2024-03-01T13:17:01.000Z</time>
      </trkpt>
      <trkpt lat="45.3142" lon="5.43449">
        <ele>518.59997558594</ele>
        <time>2024-03-01T13:17:05.000Z</time>
      </trkpt>
      <trkpt lat="45.31413" lon="5.43457">
        <ele>518.40002441406</ele>
        <time>2024-03-01T13:17:06.000Z</time>
      </trkpt>
      <trkpt lat="45.31405" lon="5.43465">
        <ele>518</ele>
        <time>2024-03-01T13:17:07.000Z</time>
      </trkpt>
      <trkpt lat="45.31398" lon="5.43473">
        <ele>517.79998779297</ele>
        <time>2024-03-01T13:17:08.000Z</time>
      </trkpt>
      <trkpt lat="45.31391" lon="5.43482">
        <ele>517.40002441406</ele>
        <time>2024-03-01T13:17:09.000Z</time>
      </trkpt>
      <trkpt lat="45.31384" lon="5.4349">
        <ele>517.40002441406</ele>
        <time>2024-03-01T13:17:10.000Z</time>
      </trkpt>
      <trkpt lat="45.31378" lon="5.43498">
        <ele>517.20001220703</ele>
        <time>2024-03-01T13:17:11.000Z</time>
      </trkpt>
      <trkpt lat="45.31373" lon="5.43505">
        <ele>517.20001220703</ele>
        <time>2024-03-01T13:17:12.000Z</time>
      </trkpt>
      <trkpt lat="45.31367" lon="5.43512">
        <ele>517</ele>
        <time>2024-03-01T13:17:13.000Z</time>
      </trkpt>
      <trkpt lat="45.31357" lon="5.43526">
        <ele>517</ele>
        <time>2024-03-01T13:17:15.000Z</time>
      </trkpt>
      <trkpt lat="45.31352" lon="5.43532">
        <ele>517</ele>
        <time>2024-03-01T13:17:16.000Z</time>
      </trkpt>
      <trkpt lat="45.31342" lon="5.43546">
        <ele>517</ele>
        <time>2024-03-01T13:17:18.000Z</time>
      </trkpt>
      <trkpt lat="45.31338" lon="5.43553">
        <ele>517.20001220703</ele>
        <time>2024-03-01T13:17:19.000Z</time>
      </trkpt>
      <trkpt lat="45.31335" lon="5.4356">
        <ele>517.20001220703</ele>
        <time>2024-03-01T13:17:20.000Z</time>
      </trkpt>
      <trkpt lat="45.31332" lon="5.43568">
        <ele>517.20001220703</ele>
        <time>2024-03-01T13:17:21.000Z</time>
      </trkpt>
      <trkpt lat="45.31329" lon="5.43575">
        <ele>517.40002441406</ele>
        <time>2024-03-01T13:17:22.000Z</time>
      </trkpt>
      <trkpt lat="45.31326" lon="5.43583">
        <ele>517.40002441406</ele>
        <time>2024-03-01T13:17:23.000Z</time>
      </trkpt>
      <trkpt lat="45.31324" lon="5.43591">
        <ele>517.40002441406</ele>
        <time>2024-03-01T13:17:24.000Z</time>
      </trkpt>
      <trkpt lat="45.31321" lon="5.43599">
        <ele>517.40002441406</ele>
        <time>2024-03-01T13:17:25.000Z</time>
      </trkpt>
      <trkpt lat="45.31319" lon="5.43606">
        <ele>517.40002441406</ele>
        <time>2024-03-01T13:17:26.000Z</time>
      </trkpt>
      <trkpt lat="45.31316" lon="5.43615">
        <ele>517.20001220703</ele>
        <time>2024-03-01T13:17:27.000Z</time>
      </trkpt>
      <trkpt lat="45.31313" lon="5.43623">
        <ele>517.20001220703</ele>
        <time>2024-03-01T13:17:28.000Z</time>
      </trkpt>
      <trkpt lat="45.31309" lon="5.43629">
        <ele>517.20001220703</ele>
        <time>2024-03-01T13:17:29.000Z</time>
      </trkpt>
      <trkpt lat="45.31304" lon="5.43636">
        <ele>517</ele>
        <time>2024-03-01T13:17:30.000Z</time>
      </trkpt>
      <trkpt lat="45.31293" lon="5.43647">
        <ele>516.79998779297</ele>
        <time>2024-03-01T13:17:32.000Z</time>
      </trkpt>
      <trkpt lat="45.31287" lon="5.43652">
        <ele>516.79998779297</ele>
        <time>2024-03-01T13:17:33.000Z</time>
      </trkpt>
      <trkpt lat="45.31275" lon="5.43664">
        <ele>516.20001220703</ele>
        <time>2024-03-01T13:17:35.000Z</time>
      </trkpt>
      <trkpt lat="45.3127" lon="5.43668">
        <ele>516.20001220703</ele>
        <time>2024-03-01T13:17:36.000Z</time>
      </trkpt>
      <trkpt lat="45.31264" lon="5.43672">
        <ele>516</ele>
        <time>2024-03-01T13:17:37.000Z</time>
      </trkpt>
      <trkpt lat="45.31254" lon="5.43678">
        <ele>515.79998779297</ele>
        <time>2024-03-01T13:17:39.000Z</time>
      </trkpt>
      <trkpt lat="45.31248" lon="5.43681">
        <ele>515.79998779297</ele>
        <time>2024-03-01T13:17:40.000Z</time>
      </trkpt>
      <trkpt lat="45.31242" lon="5.43686">
        <ele>515.59997558594</ele>
        <time>2024-03-01T13:17:41.000Z</time>
      </trkpt>
      <trkpt lat="45.31237" lon="5.43693">
        <ele>515.59997558594</ele>
        <time>2024-03-01T13:17:42.000Z</time>
      </trkpt>
      <trkpt lat="45.31233" lon="5.43701">
        <ele>515.59997558594</ele>
        <time>2024-03-01T13:17:43.000Z</time>
      </trkpt>
      <trkpt lat="45.3123" lon="5.4371">
        <ele>515.40002441406</ele>
        <time>2024-03-01T13:17:44.000Z</time>
      </trkpt>
      <trkpt lat="45.3123" lon="5.43721">
        <ele>515.40002441406</ele>
        <time>2024-03-01T13:17:45.000Z</time>
      </trkpt>
      <trkpt lat="45.31229" lon="5.43729">
        <ele>515.40002441406</ele>
        <time>2024-03-01T13:17:46.000Z</time>
      </trkpt>
      <trkpt lat="45.31229" lon="5.43745">
        <ele>515.59997558594</ele>
        <time>2024-03-01T13:17:48.000Z</time>
      </trkpt>
      <trkpt lat="45.3123" lon="5.43752">
        <ele>515.59997558594</ele>
        <time>2024-03-01T13:17:49.000Z</time>
      </trkpt>
      <trkpt lat="45.3123" lon="5.43758">
        <ele>515.79998779297</ele>
        <time>2024-03-01T13:17:50.000Z</time>
      </trkpt>
      <trkpt lat="45.31232" lon="5.43764">
        <ele>515.79998779297</ele>
        <time>2024-03-01T13:17:51.000Z</time>
      </trkpt>
      <trkpt lat="45.31232" lon="5.4377">
        <ele>516</ele>
        <time>2024-03-01T13:17:52.000Z</time>
      </trkpt>
      <trkpt lat="45.31234" lon="5.43782">
        <ele>516.20001220703</ele>
        <time>2024-03-01T13:17:54.000Z</time>
      </trkpt>
      <trkpt lat="45.31235" lon="5.43789">
        <ele>516.40002441406</ele>
        <time>2024-03-01T13:17:55.000Z</time>
      </trkpt>
      <trkpt lat="45.31235" lon="5.43808">
        <ele>517.40002441406</ele>
        <time>2024-03-01T13:18:00.000Z</time>
      </trkpt>
      <trkpt lat="45.31233" lon="5.43818">
        <ele>525.20001220703</ele>
        <time>2024-03-01T13:22:49.000Z</time>
      </trkpt>
      <trkpt lat="45.31234" lon="5.43821">
        <ele>517.79998779297</ele>
        <time>2024-03-01T13:22:50.000Z</time>
      </trkpt>
      <trkpt lat="45.31234" lon="5.43824">
        <ele>517.79998779297</ele>
        <time>2024-03-01T13:22:51.000Z</time>
      </trkpt>
      <trkpt lat="45.31235" lon="5.43827">
        <ele>518</ele>
        <time>2024-03-01T13:22:52.000Z</time>
      </trkpt>
      <trkpt lat="45.31236" lon="5.43832">
        <ele>518</ele>
        <time>2024-03-01T13:22:53.000Z</time>
      </trkpt>
      <trkpt lat="45.31234" lon="5.43842">
        <ele>517.79998779297</ele>
        <time>2024-03-01T13:22:55.000Z</time>
      </trkpt>
      <trkpt lat="45.31234" lon="5.43848">
        <ele>518</ele>
        <time>2024-03-01T13:22:56.000Z</time>
      </trkpt>
      <trkpt lat="45.31233" lon="5.43853">
        <ele>518.20001220703</ele>
        <time>2024-03-01T13:22:57.000Z</time>
      </trkpt>
      <trkpt lat="45.31233" lon="5.43865">
        <ele>518.40002441406</ele>
        <time>2024-03-01T13:22:59.000Z</time>
      </trkpt>
      <trkpt lat="45.31232" lon="5.43871">
        <ele>518.59997558594</ele>
        <time>2024-03-01T13:23:00.000Z</time>
      </trkpt>
      <trkpt lat="45.31232" lon="5.43877">
        <ele>518.59997558594</ele>
        <time>2024-03-01T13:23:01.000Z</time>
      </trkpt>
      <trkpt lat="45.3123" lon="5.43883">
        <ele>518.79998779297</ele>
        <time>2024-03-01T13:23:02.000Z</time>
      </trkpt>
      <trkpt lat="45.31229" lon="5.4389">
        <ele>518.79998779297</ele>
        <time>2024-03-01T13:23:03.000Z</time>
      </trkpt>
      <trkpt lat="45.31229" lon="5.43896">
        <ele>519</ele>
        <time>2024-03-01T13:23:04.000Z</time>
      </trkpt>
      <trkpt lat="45.31228" lon="5.43904">
        <ele>519</ele>
        <time>2024-03-01T13:23:05.000Z</time>
      </trkpt>
      <trkpt lat="45.31224" lon="5.43932">
        <ele>519.20001220703</ele>
        <time>2024-03-01T13:23:09.000Z</time>
      </trkpt>
      <trkpt lat="45.31224" lon="5.43938">
        <ele>519.40002441406</ele>
        <time>2024-03-01T13:23:10.000Z</time>
      </trkpt>
      <trkpt lat="45.31223" lon="5.43945">
        <ele>519.40002441406</ele>
        <time>2024-03-01T13:23:11.000Z</time>
      </trkpt>
      <trkpt lat="45.31224" lon="5.43952">
        <ele>519.40002441406</ele>
        <time>2024-03-01T13:23:12.000Z</time>
      </trkpt>
      <trkpt lat="45.31226" lon="5.43959">
        <ele>519.59997558594</ele>
        <time>2024-03-01T13:23:13.000Z</time>
      </trkpt>
      <trkpt lat="45.31226" lon="5.43971">
        <ele>519.79998779297</ele>
        <time>2024-03-01T13:23:15.000Z</time>
      </trkpt>
      <trkpt lat="45.31227" lon="5.43977">
        <ele>519.79998779297</ele>
        <time>2024-03-01T13:23:16.000Z</time>
      </trkpt>
      <trkpt lat="45.31229" lon="5.43983">
        <ele>519.79998779297</ele>
        <time>2024-03-01T13:23:17.000Z</time>
      </trkpt>
      <trkpt lat="45.3123" lon="5.43989">
        <ele>519.79998779297</ele>
        <time>2024-03-01T13:23:18.000Z</time>
      </trkpt>
      <trkpt lat="45.3123" lon="5.43994">
        <ele>520</ele>
        <time>2024-03-01T13:23:19.000Z</time>
      </trkpt>
      <trkpt lat="45.31231" lon="5.43999">
        <ele>520.20001220703</ele>
        <time>2024-03-01T13:23:20.000Z</time>
      </trkpt>
      <trkpt lat="45.31232" lon="5.44005">
        <ele>520.20001220703</ele>
        <time>2024-03-01T13:23:21.000Z</time>
      </trkpt>
      <trkpt lat="45.31231" lon="5.4401">
        <ele>520.59997558594</ele>
        <time>2024-03-01T13:23:22.000Z</time>
      </trkpt>
      <trkpt lat="45.31231" lon="5.44015">
        <ele>521</ele>
        <time>2024-03-01T13:23:23.000Z</time>
      </trkpt>
      <trkpt lat="45.31233" lon="5.4402">
        <ele>521.20001220703</ele>
        <time>2024-03-01T13:23:24.000Z</time>
      </trkpt>
      <trkpt lat="45.31234" lon="5.44025">
        <ele>521.40002441406</ele>
        <time>2024-03-01T13:23:25.000Z</time>
      </trkpt>
      <trkpt lat="45.31236" lon="5.4403">
        <ele>521.40002441406</ele>
        <time>2024-03-01T13:23:26.000Z</time>
      </trkpt>
      <trkpt lat="45.31236" lon="5.44036">
        <ele>521.79998779297</ele>
        <time>2024-03-01T13:23:27.000Z</time>
      </trkpt>
      <trkpt lat="45.31235" lon="5.44041">
        <ele>521.79998779297</ele>
        <time>2024-03-01T13:23:28.000Z</time>
      </trkpt>
      <trkpt lat="45.31235" lon="5.4405">
        <ele>522.59997558594</ele>
        <time>2024-03-01T13:23:30.000Z</time>
      </trkpt>
      <trkpt lat="45.31236" lon="5.44055">
        <ele>522.79998779297</ele>
        <time>2024-03-01T13:23:31.000Z</time>
      </trkpt>
      <trkpt lat="45.31236" lon="5.4406">
        <ele>522.79998779297</ele>
        <time>2024-03-01T13:23:32.000Z</time>
      </trkpt>
      <trkpt lat="45.31238" lon="5.44065">
        <ele>523</ele>
        <time>2024-03-01T13:23:33.000Z</time>
      </trkpt>
      <trkpt lat="45.3124" lon="5.44075">
        <ele>523.40002441406</ele>
        <time>2024-03-01T13:23:35.000Z</time>
      </trkpt>
      <trkpt lat="45.3124" lon="5.4408">
        <ele>523.59997558594</ele>
        <time>2024-03-01T13:23:36.000Z</time>
      </trkpt>
      <trkpt lat="45.31241" lon="5.44086">
        <ele>524</ele>
        <time>2024-03-01T13:23:37.000Z</time>
      </trkpt>
      <trkpt lat="45.31241" lon="5.4409">
        <ele>524</ele>
        <time>2024-03-01T13:23:38.000Z</time>
      </trkpt>
      <trkpt lat="45.31242" lon="5.44094">
        <ele>524.20001220703</ele>
        <time>2024-03-01T13:23:39.000Z</time>
      </trkpt>
      <trkpt lat="45.31242" lon="5.441">
        <ele>524.20001220703</ele>
        <time>2024-03-01T13:23:40.000Z</time>
      </trkpt>
      <trkpt lat="45.31243" lon="5.44105">
        <ele>524.59997558594</ele>
        <time>2024-03-01T13:23:41.000Z</time>
      </trkpt>
      <trkpt lat="45.31243" lon="5.44115">
        <ele>524.79998779297</ele>
        <time>2024-03-01T13:23:43.000Z</time>
      </trkpt>
      <trkpt lat="45.31244" lon="5.44119">
        <ele>525</ele>
        <time>2024-03-01T13:23:44.000Z</time>
      </trkpt>
      <trkpt lat="45.31243" lon="5.44125">
        <ele>525</ele>
        <time>2024-03-01T13:23:45.000Z</time>
      </trkpt>
      <trkpt lat="45.31243" lon="5.44131">
        <ele>525.20001220703</ele>
        <time>2024-03-01T13:23:46.000Z</time>
      </trkpt>
      <trkpt lat="45.31244" lon="5.44137">
        <ele>525.40002441406</ele>
        <time>2024-03-01T13:23:47.000Z</time>
      </trkpt>
      <trkpt lat="45.31244" lon="5.44141">
        <ele>525.40002441406</ele>
        <time>2024-03-01T13:23:48.000Z</time>
      </trkpt>
      <trkpt lat="45.31245" lon="5.44146">
        <ele>525.59997558594</ele>
        <time>2024-03-01T13:23:49.000Z</time>
      </trkpt>
      <trkpt lat="45.31245" lon="5.44188">
        <ele>526.59997558594</ele>
        <time>2024-03-01T13:23:57.000Z</time>
      </trkpt>
      <trkpt lat="45.31244" lon="5.44193">
        <ele>526.79998779297</ele>
        <time>2024-03-01T13:23:58.000Z</time>
      </trkpt>
      <trkpt lat="45.31244" lon="5.44215">
        <ele>527.40002441406</ele>
        <time>2024-03-01T13:24:03.000Z</time>
      </trkpt>
      <trkpt lat="45.31243" lon="5.44219">
        <ele>527.59997558594</ele>
        <time>2024-03-01T13:24:04.000Z</time>
      </trkpt>
      <trkpt lat="45.31243" lon="5.44223">
        <ele>527.59997558594</ele>
        <time>2024-03-01T13:24:05.000Z</time>
      </trkpt>
      <trkpt lat="45.31242" lon="5.44227">
        <ele>527.79998779297</ele>
        <time>2024-03-01T13:24:06.000Z</time>
      </trkpt>
      <trkpt lat="45.31242" lon="5.44233">
        <ele>527.79998779297</ele>
        <time>2024-03-01T13:24:07.000Z</time>
      </trkpt>
      <trkpt lat="45.31244" lon="5.4424">
        <ele>527.79998779297</ele>
        <time>2024-03-01T13:24:08.000Z</time>
      </trkpt>
      <trkpt lat="45.31246" lon="5.44245">
        <ele>527.79998779297</ele>
        <time>2024-03-01T13:24:09.000Z</time>
      </trkpt>
      <trkpt lat="45.31251" lon="5.44249">
        <ele>527.79998779297</ele>
        <time>2024-03-01T13:24:10.000Z</time>
      </trkpt>
      <trkpt lat="45.31257" lon="5.44251">
        <ele>527.79998779297</ele>
        <time>2024-03-01T13:24:11.000Z</time>
      </trkpt>
      <trkpt lat="45.31265" lon="5.44255">
        <ele>527.59997558594</ele>
        <time>2024-03-01T13:24:12.000Z</time>
      </trkpt>
      <trkpt lat="45.31273" lon="5.4426">
        <ele>527.40002441406</ele>
        <time>2024-03-01T13:24:13.000Z</time>
      </trkpt>
      <trkpt lat="45.3128" lon="5.44264">
        <ele>527</ele>
        <time>2024-03-01T13:24:14.000Z</time>
      </trkpt>
      <trkpt lat="45.31288" lon="5.44266">
        <ele>526.59997558594</ele>
        <time>2024-03-01T13:24:15.000Z</time>
      </trkpt>
      <trkpt lat="45.31294" lon="5.44265">
        <ele>526</ele>
        <time>2024-03-01T13:24:16.000Z</time>
      </trkpt>
      <trkpt lat="45.313" lon="5.44262">
        <ele>525.59997558594</ele>
        <time>2024-03-01T13:24:17.000Z</time>
      </trkpt>
      <trkpt lat="45.31303" lon="5.44259">
        <ele>525.59997558594</ele>
        <time>2024-03-01T13:24:18.000Z</time>
      </trkpt>
      <trkpt lat="45.31304" lon="5.44256">
        <ele>525.40002441406</ele>
        <time>2024-03-01T13:24:19.000Z</time>
      </trkpt>
      <trkpt lat="45.31304" lon="5.44249">
        <ele>525.40002441406</ele>
        <time>2024-03-01T13:24:21.000Z</time>
      </trkpt>
      <trkpt lat="45.31303" lon="5.44246">
        <ele>525.40002441406</ele>
        <time>2024-03-01T13:24:22.000Z</time>
      </trkpt>
      <trkpt lat="45.31304" lon="5.44244">
        <ele>525.40002441406</ele>
        <time>2024-03-01T13:24:23.000Z</time>
      </trkpt>
      <trkpt lat="45.31304" lon="5.44234">
        <ele>526.40002441406</ele>
        <time>2024-03-01T13:24:27.000Z</time>
      </trkpt>
      <trkpt lat="45.31305" lon="5.44233">
        <ele>526.79998779297</ele>
        <time>2024-03-01T13:24:28.000Z</time>
      </trkpt>
      <trkpt lat="45.31305" lon="5.44224">
        <ele>528</ele>
        <time>2024-03-01T13:24:33.000Z</time>
      </trkpt>
      <trkpt lat="45.31306" lon="5.44222">
        <ele>528.20001220703</ele>
        <time>2024-03-01T13:24:34.000Z</time>
      </trkpt>
      <trkpt lat="45.31306" lon="5.4422">
        <ele>528.40002441406</ele>
        <time>2024-03-01T13:24:35.000Z</time>
      </trkpt>
      <trkpt lat="45.31307" lon="5.44219">
        <ele>528.79998779297</ele>
        <time>2024-03-01T13:24:36.000Z</time>
      </trkpt>
      <trkpt lat="45.31307" lon="5.44215">
        <ele>529.20001220703</ele>
        <time>2024-03-01T13:24:38.000Z</time>
      </trkpt>
      <trkpt lat="45.31308" lon="5.44213">
        <ele>529.40002441406</ele>
        <time>2024-03-01T13:24:39.000Z</time>
      </trkpt>
      <trkpt lat="45.31308" lon="5.44211">
        <ele>529.59997558594</ele>
        <time>2024-03-01T13:24:40.000Z</time>
      </trkpt>
      <trkpt lat="45.31309" lon="5.4421">
        <ele>530.20001220703</ele>
        <time>2024-03-01T13:24:41.000Z</time>
      </trkpt>
      <trkpt lat="45.31311" lon="5.44206">
        <ele>530.59997558594</ele>
        <time>2024-03-01T13:24:43.000Z</time>
      </trkpt>
      <trkpt lat="45.31311" lon="5.44204">
        <ele>530.79998779297</ele>
        <time>2024-03-01T13:24:44.000Z</time>
      </trkpt>
      <trkpt lat="45.31312" lon="5.44203">
        <ele>531.20001220703</ele>
        <time>2024-03-01T13:24:45.000Z</time>
      </trkpt>
      <trkpt lat="45.31312" lon="5.44201">
        <ele>531.79998779297</ele>
        <time>2024-03-01T13:24:46.000Z</time>
      </trkpt>
      <trkpt lat="45.31313" lon="5.442">
        <ele>532.20001220703</ele>
        <time>2024-03-01T13:24:47.000Z</time>
      </trkpt>
      <trkpt lat="45.31313" lon="5.44198">
        <ele>532.59997558594</ele>
        <time>2024-03-01T13:24:48.000Z</time>
      </trkpt>
      <trkpt lat="45.31314" lon="5.44196">
        <ele>532.79998779297</ele>
        <time>2024-03-01T13:24:49.000Z</time>
      </trkpt>
      <trkpt lat="45.31315" lon="5.44193">
        <ele>533</ele>
        <time>2024-03-01T13:24:50.000Z</time>
      </trkpt>
      <trkpt lat="45.31316" lon="5.44192">
        <ele>533.20001220703</ele>
        <time>2024-03-01T13:24:51.000Z</time>
      </trkpt>
      <trkpt lat="45.31316" lon="5.4419">
        <ele>533.40002441406</ele>
        <time>2024-03-01T13:24:52.000Z</time>
      </trkpt>
      <trkpt lat="45.31318" lon="5.44186">
        <ele>533.79998779297</ele>
        <time>2024-03-01T13:24:54.000Z</time>
      </trkpt>
      <trkpt lat="45.31319" lon="5.44185">
        <ele>534</ele>
        <time>2024-03-01T13:24:55.000Z</time>
      </trkpt>
      <trkpt lat="45.3132" lon="5.44183">
        <ele>534</ele>
        <time>2024-03-01T13:24:56.000Z</time>
      </trkpt>
      <trkpt lat="45.3132" lon="5.44181">
        <ele>534.40002441406</ele>
        <time>2024-03-01T13:24:57.000Z</time>
      </trkpt>
      <trkpt lat="45.31321" lon="5.44179">
        <ele>534.79998779297</ele>
        <time>2024-03-01T13:24:58.000Z</time>
      </trkpt>
      <trkpt lat="45.31321" lon="5.44178">
        <ele>534.79998779297</ele>
        <time>2024-03-01T13:24:59.000Z</time>
      </trkpt>
      <trkpt lat="45.31322" lon="5.44176">
        <ele>535.20001220703</ele>
        <time>2024-03-01T13:25:00.000Z</time>
      </trkpt>
      <trkpt lat="45.31324" lon="5.44174">
        <ele>535.79998779297</ele>
        <time>2024-03-01T13:25:02.000Z</time>
      </trkpt>
      <trkpt lat="45.31324" lon="5.44172">
        <ele>536</ele>
        <time>2024-03-01T13:25:03.000Z</time>
      </trkpt>
      <trkpt lat="45.31325" lon="5.44171">
        <ele>536.20001220703</ele>
        <time>2024-03-01T13:25:04.000Z</time>
      </trkpt>
      <trkpt lat="45.31325" lon="5.4417">
        <ele>536.59997558594</ele>
        <time>2024-03-01T13:25:05.000Z</time>
      </trkpt>
      <trkpt lat="45.31326" lon="5.44169">
        <ele>536.79998779297</ele>
        <time>2024-03-01T13:25:06.000Z</time>
      </trkpt>
      <trkpt lat="45.31326" lon="5.44167">
        <ele>537</ele>
        <time>2024-03-01T13:25:07.000Z</time>
      </trkpt>
      <trkpt lat="45.31327" lon="5.44166">
        <ele>537.20001220703</ele>
        <time>2024-03-01T13:25:08.000Z</time>
      </trkpt>
      <trkpt lat="45.31327" lon="5.44161">
        <ele>538.40002441406</ele>
        <time>2024-03-01T13:25:13.000Z</time>
      </trkpt>
      <trkpt lat="45.31328" lon="5.4416">
        <ele>538.79998779297</ele>
        <time>2024-03-01T13:25:14.000Z</time>
      </trkpt>
      <trkpt lat="45.31328" lon="5.44159">
        <ele>539</ele>
        <time>2024-03-01T13:25:15.000Z</time>
      </trkpt>
      <trkpt lat="45.31329" lon="5.44156">
        <ele>539.40002441406</ele>
        <time>2024-03-01T13:25:16.000Z</time>
      </trkpt>
      <trkpt lat="45.31329" lon="5.44152">
        <ele>540.20001220703</ele>
        <time>2024-03-01T13:25:19.000Z</time>
      </trkpt>
      <trkpt lat="45.3133" lon="5.44151">
        <ele>540.59997558594</ele>
        <time>2024-03-01T13:25:21.000Z</time>
      </trkpt>
      <trkpt lat="45.31329" lon="5.4415">
        <ele>540.79998779297</ele>
        <time>2024-03-01T13:25:22.000Z</time>
      </trkpt>
      <trkpt lat="45.31331" lon="5.44146">
        <ele>541.20001220703</ele>
        <time>2024-03-01T13:25:24.000Z</time>
      </trkpt>
      <trkpt lat="45.31331" lon="5.44145">
        <ele>541.40002441406</ele>
        <time>2024-03-01T13:25:25.000Z</time>
      </trkpt>
      <trkpt lat="45.31333" lon="5.44141">
        <ele>541.79998779297</ele>
        <time>2024-03-01T13:25:27.000Z</time>
      </trkpt>
      <trkpt lat="45.31333" lon="5.4414">
        <ele>542.20001220703</ele>
        <time>2024-03-01T13:25:28.000Z</time>
      </trkpt>
      <trkpt lat="45.31334" lon="5.44138">
        <ele>542.59997558594</ele>
        <time>2024-03-01T13:25:29.000Z</time>
      </trkpt>
      <trkpt lat="45.31334" lon="5.44137">
        <ele>542.40002441406</ele>
        <time>2024-03-01T13:25:30.000Z</time>
      </trkpt>
      <trkpt lat="45.31335" lon="5.44136">
        <ele>542.79998779297</ele>
        <time>2024-03-01T13:25:31.000Z</time>
      </trkpt>
      <trkpt lat="45.31335" lon="5.44135">
        <ele>542.79998779297</ele>
        <time>2024-03-01T13:25:32.000Z</time>
      </trkpt>
      <trkpt lat="45.31336" lon="5.44133">
        <ele>543</ele>
        <time>2024-03-01T13:25:33.000Z</time>
      </trkpt>
      <trkpt lat="45.31336" lon="5.44126">
        <ele>543.79998779297</ele>
        <time>2024-03-01T13:25:37.000Z</time>
      </trkpt>
      <trkpt lat="45.31337" lon="5.44124">
        <ele>544</ele>
        <time>2024-03-01T13:25:38.000Z</time>
      </trkpt>
      <trkpt lat="45.31337" lon="5.44117">
        <ele>545.20001220703</ele>
        <time>2024-03-01T13:25:43.000Z</time>
      </trkpt>
      <trkpt lat="45.31338" lon="5.44116">
        <ele>545.20001220703</ele>
        <time>2024-03-01T13:25:44.000Z</time>
      </trkpt>
      <trkpt lat="45.31338" lon="5.44114">
        <ele>545.40002441406</ele>
        <time>2024-03-01T13:25:45.000Z</time>
      </trkpt>
      <trkpt lat="45.31341" lon="5.44108">
        <ele>546</ele>
        <time>2024-03-01T13:25:48.000Z</time>
      </trkpt>
      <trkpt lat="45.31341" lon="5.44095">
        <ele>546.59997558594</ele>
        <time>2024-03-01T13:25:53.000Z</time>
      </trkpt>
      <trkpt lat="45.31342" lon="5.44093">
        <ele>546.79998779297</ele>
        <time>2024-03-01T13:25:54.000Z</time>
      </trkpt>
      <trkpt lat="45.31342" lon="5.44091">
        <ele>547</ele>
        <time>2024-03-01T13:25:55.000Z</time>
      </trkpt>
      <trkpt lat="45.31343" lon="5.44089">
        <ele>547</ele>
        <time>2024-03-01T13:25:56.000Z</time>
      </trkpt>
      <trkpt lat="45.31343" lon="5.44082">
        <ele>547.40002441406</ele>
        <time>2024-03-01T13:25:59.000Z</time>
      </trkpt>
      <trkpt lat="45.31344" lon="5.4408">
        <ele>547.59997558594</ele>
        <time>2024-03-01T13:26:00.000Z</time>
      </trkpt>
      <trkpt lat="45.31344" lon="5.44069">
        <ele>548.40002441406</ele>
        <time>2024-03-01T13:26:04.000Z</time>
      </trkpt>
      <trkpt lat="45.31345" lon="5.44067">
        <ele>548.40002441406</ele>
        <time>2024-03-01T13:26:05.000Z</time>
      </trkpt>
      <trkpt lat="45.31345" lon="5.44064">
        <ele>548.59997558594</ele>
        <time>2024-03-01T13:26:06.000Z</time>
      </trkpt>
      <trkpt lat="45.31346" lon="5.44062">
        <ele>548.59997558594</ele>
        <time>2024-03-01T13:26:07.000Z</time>
      </trkpt>
      <trkpt lat="45.31347" lon="5.44061">
        <ele>548.59997558594</ele>
        <time>2024-03-01T13:26:08.000Z</time>
      </trkpt>
      <trkpt lat="45.31348" lon="5.44059">
        <ele>549</ele>
        <time>2024-03-01T13:26:09.000Z</time>
      </trkpt>
      <trkpt lat="45.31349" lon="5.44056">
        <ele>549</ele>
        <time>2024-03-01T13:26:10.000Z</time>
      </trkpt>
      <trkpt lat="45.3135" lon="5.44054">
        <ele>549.20001220703</ele>
        <time>2024-03-01T13:26:11.000Z</time>
      </trkpt>
      <trkpt lat="45.3135" lon="5.44053">
        <ele>549.40002441406</ele>
        <time>2024-03-01T13:26:12.000Z</time>
      </trkpt>
      <trkpt lat="45.31355" lon="5.44048">
        <ele>550.40002441406</ele>
        <time>2024-03-01T13:26:16.000Z</time>
      </trkpt>
      <trkpt lat="45.31357" lon="5.44047">
        <ele>550.40002441406</ele>
        <time>2024-03-01T13:26:17.000Z</time>
      </trkpt>
      <trkpt lat="45.31358" lon="5.44046">
        <ele>550.59997558594</ele>
        <time>2024-03-01T13:26:18.000Z</time>
      </trkpt>
      <trkpt lat="45.3136" lon="5.44046">
        <ele>550.79998779297</ele>
        <time>2024-03-01T13:26:19.000Z</time>
      </trkpt>
      <trkpt lat="45.31361" lon="5.44045">
        <ele>551</ele>
        <time>2024-03-01T13:26:20.000Z</time>
      </trkpt>
      <trkpt lat="45.31364" lon="5.44045">
        <ele>551.20001220703</ele>
        <time>2024-03-01T13:26:22.000Z</time>
      </trkpt>
      <trkpt lat="45.31365" lon="5.44044">
        <ele>551.40002441406</ele>
        <time>2024-03-01T13:26:23.000Z</time>
      </trkpt>
      <trkpt lat="45.31367" lon="5.44044">
        <ele>551.40002441406</ele>
        <time>2024-03-01T13:26:24.000Z</time>
      </trkpt>
      <trkpt lat="45.31368" lon="5.44045">
        <ele>551.59997558594</ele>
        <time>2024-03-01T13:26:25.000Z</time>
      </trkpt>
      <trkpt lat="45.31369" lon="5.44044">
        <ele>551.79998779297</ele>
        <time>2024-03-01T13:26:26.000Z</time>
      </trkpt>
      <trkpt lat="45.31371" lon="5.44044">
        <ele>552</ele>
        <time>2024-03-01T13:26:27.000Z</time>
      </trkpt>
      <trkpt lat="45.31372" lon="5.44043">
        <ele>552.20001220703</ele>
        <time>2024-03-01T13:26:28.000Z</time>
      </trkpt>
      <trkpt lat="45.31374" lon="5.44042">
        <ele>552.40002441406</ele>
        <time>2024-03-01T13:26:29.000Z</time>
      </trkpt>
      <trkpt lat="45.31377" lon="5.44042">
        <ele>552.79998779297</ele>
        <time>2024-03-01T13:26:31.000Z</time>
      </trkpt>
      <trkpt lat="45.31378" lon="5.44041">
        <ele>553.20001220703</ele>
        <time>2024-03-01T13:26:32.000Z</time>
      </trkpt>
      <trkpt lat="45.31378" lon="5.44042">
        <ele>553.79998779297</ele>
        <time>2024-03-01T13:26:33.000Z</time>
      </trkpt>
      <trkpt lat="45.3138" lon="5.44042">
        <ele>554</ele>
        <time>2024-03-01T13:26:34.000Z</time>
      </trkpt>
      <trkpt lat="45.31382" lon="5.44041">
        <ele>554.20001220703</ele>
        <time>2024-03-01T13:26:35.000Z</time>
      </trkpt>
      <trkpt lat="45.31383" lon="5.44042">
        <ele>554.40002441406</ele>
        <time>2024-03-01T13:26:36.000Z</time>
      </trkpt>
      <trkpt lat="45.31388" lon="5.44042">
        <ele>554.79998779297</ele>
        <time>2024-03-01T13:26:40.000Z</time>
      </trkpt>
      <trkpt lat="45.3139" lon="5.44043">
        <ele>555.20001220703</ele>
        <time>2024-03-01T13:26:42.000Z</time>
      </trkpt>
      <trkpt lat="45.31391" lon="5.44042">
        <ele>555.20001220703</ele>
        <time>2024-03-01T13:26:43.000Z</time>
      </trkpt>
      <trkpt lat="45.31394" lon="5.44042">
        <ele>555.40002441406</ele>
        <time>2024-03-01T13:26:45.000Z</time>
      </trkpt>
      <trkpt lat="45.31395" lon="5.44043">
        <ele>555.40002441406</ele>
        <time>2024-03-01T13:26:46.000Z</time>
      </trkpt>
      <trkpt lat="45.314" lon="5.44043">
        <ele>556.20001220703</ele>
        <time>2024-03-01T13:26:50.000Z</time>
      </trkpt>
      <trkpt lat="45.31401" lon="5.44044">
        <ele>556.40002441406</ele>
        <time>2024-03-01T13:26:51.000Z</time>
      </trkpt>
      <trkpt lat="45.31402" lon="5.44044">
        <ele>556.79998779297</ele>
        <time>2024-03-01T13:26:52.000Z</time>
      </trkpt>
      <trkpt lat="45.31403" lon="5.44045">
        <ele>556.79998779297</ele>
        <time>2024-03-01T13:26:53.000Z</time>
      </trkpt>
      <trkpt lat="45.31405" lon="5.44045">
        <ele>557.20001220703</ele>
        <time>2024-03-01T13:26:55.000Z</time>
      </trkpt>
      <trkpt lat="45.31406" lon="5.44046">
        <ele>557.40002441406</ele>
        <time>2024-03-01T13:26:56.000Z</time>
      </trkpt>
      <trkpt lat="45.31408" lon="5.44047">
        <ele>557.59997558594</ele>
        <time>2024-03-01T13:26:57.000Z</time>
      </trkpt>
      <trkpt lat="45.3141" lon="5.44049">
        <ele>558.20001220703</ele>
        <time>2024-03-01T13:26:59.000Z</time>
      </trkpt>
      <trkpt lat="45.31411" lon="5.44051">
        <ele>558.20001220703</ele>
        <time>2024-03-01T13:27:00.000Z</time>
      </trkpt>
      <trkpt lat="45.31413" lon="5.44052">
        <ele>558.40002441406</ele>
        <time>2024-03-01T13:27:01.000Z</time>
      </trkpt>
      <trkpt lat="45.31414" lon="5.44054">
        <ele>558.59997558594</ele>
        <time>2024-03-01T13:27:02.000Z</time>
      </trkpt>
      <trkpt lat="45.31414" lon="5.44055">
        <ele>558.79998779297</ele>
        <time>2024-03-01T13:27:03.000Z</time>
      </trkpt>
      <trkpt lat="45.31418" lon="5.44063">
        <ele>559.59997558594</ele>
        <time>2024-03-01T13:27:07.000Z</time>
      </trkpt>
      <trkpt lat="45.3142" lon="5.44064">
        <ele>560</ele>
        <time>2024-03-01T13:27:08.000Z</time>
      </trkpt>
      <trkpt lat="45.3142" lon="5.44066">
        <ele>560.20001220703</ele>
        <time>2024-03-01T13:27:09.000Z</time>
      </trkpt>
      <trkpt lat="45.31423" lon="5.44072">
        <ele>561</ele>
        <time>2024-03-01T13:27:12.000Z</time>
      </trkpt>
      <trkpt lat="45.31424" lon="5.44075">
        <ele>561.40002441406</ele>
        <time>2024-03-01T13:27:13.000Z</time>
      </trkpt>
      <trkpt lat="45.31425" lon="5.44076">
        <ele>561.79998779297</ele>
        <time>2024-03-01T13:27:14.000Z</time>
      </trkpt>
      <trkpt lat="45.31427" lon="5.4408">
        <ele>562.40002441406</ele>
        <time>2024-03-01T13:27:16.000Z</time>
      </trkpt>
      <trkpt lat="45.3143" lon="5.44083">
        <ele>562.79998779297</ele>
        <time>2024-03-01T13:27:19.000Z</time>
      </trkpt>
      <trkpt lat="45.31431" lon="5.44085">
        <ele>563</ele>
        <time>2024-03-01T13:27:20.000Z</time>
      </trkpt>
      <trkpt lat="45.31431" lon="5.44086">
        <ele>563</ele>
        <time>2024-03-01T13:27:21.000Z</time>
      </trkpt>
      <trkpt lat="45.31432" lon="5.44088">
        <ele>563.40002441406</ele>
        <time>2024-03-01T13:27:22.000Z</time>
      </trkpt>
      <trkpt lat="45.31432" lon="5.4409">
        <ele>563.59997558594</ele>
        <time>2024-03-01T13:27:23.000Z</time>
      </trkpt>
      <trkpt lat="45.31433" lon="5.44092">
        <ele>563.79998779297</ele>
        <time>2024-03-01T13:27:24.000Z</time>
      </trkpt>
      <trkpt lat="45.31433" lon="5.44093">
        <ele>564</ele>
        <time>2024-03-01T13:27:25.000Z</time>
      </trkpt>
      <trkpt lat="45.31434" lon="5.44095">
        <ele>564.20001220703</ele>
        <time>2024-03-01T13:27:26.000Z</time>
      </trkpt>
      <trkpt lat="45.31435" lon="5.44096">
        <ele>564.59997558594</ele>
        <time>2024-03-01T13:27:27.000Z</time>
      </trkpt>
      <trkpt lat="45.31435" lon="5.44098">
        <ele>564.79998779297</ele>
        <time>2024-03-01T13:27:28.000Z</time>
      </trkpt>
      <trkpt lat="45.31438" lon="5.44101">
        <ele>565.40002441406</ele>
        <time>2024-03-01T13:27:31.000Z</time>
      </trkpt>
      <trkpt lat="45.31438" lon="5.44102">
        <ele>566</ele>
        <time>2024-03-01T13:27:32.000Z</time>
      </trkpt>
      <trkpt lat="45.31439" lon="5.44104">
        <ele>566</ele>
        <time>2024-03-01T13:27:33.000Z</time>
      </trkpt>
      <trkpt lat="45.31443" lon="5.44108">
        <ele>567</ele>
        <time>2024-03-01T13:27:37.000Z</time>
      </trkpt>
      <trkpt lat="45.31443" lon="5.44109">
        <ele>567.20001220703</ele>
        <time>2024-03-01T13:27:38.000Z</time>
      </trkpt>
      <trkpt lat="45.31444" lon="5.4411">
        <ele>567.59997558594</ele>
        <time>2024-03-01T13:27:39.000Z</time>
      </trkpt>
      <trkpt lat="45.31445" lon="5.44112">
        <ele>568</ele>
        <time>2024-03-01T13:27:40.000Z</time>
      </trkpt>
      <trkpt lat="45.31445" lon="5.44113">
        <ele>568.20001220703</ele>
        <time>2024-03-01T13:27:41.000Z</time>
      </trkpt>
      <trkpt lat="45.31446" lon="5.44114">
        <ele>568.40002441406</ele>
        <time>2024-03-01T13:27:42.000Z</time>
      </trkpt>
      <trkpt lat="45.31447" lon="5.44116">
        <ele>568.59997558594</ele>
        <time>2024-03-01T13:27:43.000Z</time>
      </trkpt>
      <trkpt lat="45.31448" lon="5.44116">
        <ele>569</ele>
        <time>2024-03-01T13:27:44.000Z</time>
      </trkpt>
      <trkpt lat="45.31449" lon="5.44117">
        <ele>569</ele>
        <time>2024-03-01T13:27:45.000Z</time>
      </trkpt>
      <trkpt lat="45.31449" lon="5.44118">
        <ele>569.40002441406</ele>
        <time>2024-03-01T13:27:46.000Z</time>
      </trkpt>
      <trkpt lat="45.31451" lon="5.4412">
        <ele>569.79998779297</ele>
        <time>2024-03-01T13:27:48.000Z</time>
      </trkpt>
      <trkpt lat="45.31453" lon="5.44124">
        <ele>570.40002441406</ele>
        <time>2024-03-01T13:27:50.000Z</time>
      </trkpt>
      <trkpt lat="45.31454" lon="5.44125">
        <ele>571</ele>
        <time>2024-03-01T13:27:51.000Z</time>
      </trkpt>
      <trkpt lat="45.31455" lon="5.44127">
        <ele>571.20001220703</ele>
        <time>2024-03-01T13:27:52.000Z</time>
      </trkpt>
      <trkpt lat="45.31459" lon="5.44131">
        <ele>572.40002441406</ele>
        <time>2024-03-01T13:27:56.000Z</time>
      </trkpt>
      <trkpt lat="45.31462" lon="5.44137">
        <ele>572.79998779297</ele>
        <time>2024-03-01T13:27:59.000Z</time>
      </trkpt>
      <trkpt lat="45.31464" lon="5.44138">
        <ele>573.20001220703</ele>
        <time>2024-03-01T13:28:00.000Z</time>
      </trkpt>
      <trkpt lat="45.31465" lon="5.44139">
        <ele>573.40002441406</ele>
        <time>2024-03-01T13:28:01.000Z</time>
      </trkpt>
      <trkpt lat="45.31466" lon="5.44141">
        <ele>573.59997558594</ele>
        <time>2024-03-01T13:28:02.000Z</time>
      </trkpt>
      <trkpt lat="45.31466" lon="5.44143">
        <ele>574</ele>
        <time>2024-03-01T13:28:03.000Z</time>
      </trkpt>
      <trkpt lat="45.31468" lon="5.44145">
        <ele>574.40002441406</ele>
        <time>2024-03-01T13:28:05.000Z</time>
      </trkpt>
      <trkpt lat="45.31469" lon="5.44147">
        <ele>574.79998779297</ele>
        <time>2024-03-01T13:28:06.000Z</time>
      </trkpt>
      <trkpt lat="45.3147" lon="5.44148">
        <ele>575</ele>
        <time>2024-03-01T13:28:07.000Z</time>
      </trkpt>
      <trkpt lat="45.31472" lon="5.44147">
        <ele>575.59997558594</ele>
        <time>2024-03-01T13:28:09.000Z</time>
      </trkpt>
      <trkpt lat="45.31475" lon="5.4415">
        <ele>576.20001220703</ele>
        <time>2024-03-01T13:28:12.000Z</time>
      </trkpt>
      <trkpt lat="45.31476" lon="5.44152">
        <ele>576.59997558594</ele>
        <time>2024-03-01T13:28:13.000Z</time>
      </trkpt>
      <trkpt lat="45.31476" lon="5.44153">
        <ele>576.59997558594</ele>
        <time>2024-03-01T13:28:14.000Z</time>
      </trkpt>
      <trkpt lat="45.31477" lon="5.44154">
        <ele>577</ele>
        <time>2024-03-01T13:28:15.000Z</time>
      </trkpt>
      <trkpt lat="45.31479" lon="5.44155">
        <ele>577.20001220703</ele>
        <time>2024-03-01T13:28:16.000Z</time>
      </trkpt>
      <trkpt lat="45.31481" lon="5.44157">
        <ele>577.59997558594</ele>
        <time>2024-03-01T13:28:18.000Z</time>
      </trkpt>
      <trkpt lat="45.31482" lon="5.44159">
        <ele>578</ele>
        <time>2024-03-01T13:28:19.000Z</time>
      </trkpt>
      <trkpt lat="45.31483" lon="5.4416">
        <ele>578.40002441406</ele>
        <time>2024-03-01T13:28:21.000Z</time>
      </trkpt>
      <trkpt lat="45.31484" lon="5.4416">
        <ele>578.79998779297</ele>
        <time>2024-03-01T13:28:22.000Z</time>
      </trkpt>
      <trkpt lat="45.31488" lon="5.44164">
        <ele>579.79998779297</ele>
        <time>2024-03-01T13:28:26.000Z</time>
      </trkpt>
      <trkpt lat="45.31488" lon="5.44165">
        <ele>580.20001220703</ele>
        <time>2024-03-01T13:28:27.000Z</time>
      </trkpt>
      <trkpt lat="45.3149" lon="5.44167">
        <ele>581</ele>
        <time>2024-03-01T13:28:29.000Z</time>
      </trkpt>
      <trkpt lat="45.31492" lon="5.44168">
        <ele>581.20001220703</ele>
        <time>2024-03-01T13:28:30.000Z</time>
      </trkpt>
      <trkpt lat="45.31493" lon="5.44168">
        <ele>581.40002441406</ele>
        <time>2024-03-01T13:28:31.000Z</time>
      </trkpt>
      <trkpt lat="45.31495" lon="5.4417">
        <ele>581.79998779297</ele>
        <time>2024-03-01T13:28:34.000Z</time>
      </trkpt>
      <trkpt lat="45.31495" lon="5.44171">
        <ele>582</ele>
        <time>2024-03-01T13:28:35.000Z</time>
      </trkpt>
      <trkpt lat="45.315" lon="5.44176">
        <ele>583.40002441406</ele>
        <time>2024-03-01T13:28:40.000Z</time>
      </trkpt>
      <trkpt lat="45.31502" lon="5.44177">
        <ele>583.79998779297</ele>
        <time>2024-03-01T13:28:41.000Z</time>
      </trkpt>
      <trkpt lat="45.31504" lon="5.44179">
        <ele>584.20001220703</ele>
        <time>2024-03-01T13:28:43.000Z</time>
      </trkpt>
      <trkpt lat="45.31504" lon="5.4418">
        <ele>584.40002441406</ele>
        <time>2024-03-01T13:28:44.000Z</time>
      </trkpt>
      <trkpt lat="45.31505" lon="5.44181">
        <ele>584.79998779297</ele>
        <time>2024-03-01T13:28:45.000Z</time>
      </trkpt>
      <trkpt lat="45.31507" lon="5.44185">
        <ele>585.40002441406</ele>
        <time>2024-03-01T13:28:47.000Z</time>
      </trkpt>
      <trkpt lat="45.31508" lon="5.44186">
        <ele>585.59997558594</ele>
        <time>2024-03-01T13:28:48.000Z</time>
      </trkpt>
      <trkpt lat="45.31509" lon="5.44188">
        <ele>585.59997558594</ele>
        <time>2024-03-01T13:28:49.000Z</time>
      </trkpt>
      <trkpt lat="45.31511" lon="5.4419">
        <ele>586</ele>
        <time>2024-03-01T13:28:50.000Z</time>
      </trkpt>
      <trkpt lat="45.31515" lon="5.44198">
        <ele>587</ele>
        <time>2024-03-01T13:28:54.000Z</time>
      </trkpt>
      <trkpt lat="45.31514" lon="5.442">
        <ele>587.40002441406</ele>
        <time>2024-03-01T13:28:55.000Z</time>
      </trkpt>
      <trkpt lat="45.31515" lon="5.442">
        <ele>587.59997558594</ele>
        <time>2024-03-01T13:28:57.000Z</time>
      </trkpt>
      <trkpt lat="45.31515" lon="5.44202">
        <ele>588</ele>
        <time>2024-03-01T13:28:58.000Z</time>
      </trkpt>
      <trkpt lat="45.31517" lon="5.44204">
        <ele>588.79998779297</ele>
        <time>2024-03-01T13:29:00.000Z</time>
      </trkpt>
      <trkpt lat="45.31517" lon="5.44205">
        <ele>589.40002441406</ele>
        <time>2024-03-01T13:29:02.000Z</time>
      </trkpt>
      <trkpt lat="45.31518" lon="5.44205">
        <ele>589.59997558594</ele>
        <time>2024-03-01T13:29:03.000Z</time>
      </trkpt>
      <trkpt lat="45.31518" lon="5.44206">
        <ele>590</ele>
        <time>2024-03-01T13:29:05.000Z</time>
      </trkpt>
      <trkpt lat="45.31522" lon="5.4421">
        <ele>592</ele>
        <time>2024-03-01T13:29:14.000Z</time>
      </trkpt>
      <trkpt lat="45.31523" lon="5.44212">
        <ele>592.20001220703</ele>
        <time>2024-03-01T13:29:15.000Z</time>
      </trkpt>
      <trkpt lat="45.31524" lon="5.44213">
        <ele>592.59997558594</ele>
        <time>2024-03-01T13:29:17.000Z</time>
      </trkpt>
      <trkpt lat="45.31524" lon="5.44214">
        <ele>593.20001220703</ele>
        <time>2024-03-01T13:29:19.000Z</time>
      </trkpt>
      <trkpt lat="45.31525" lon="5.44215">
        <ele>593.40002441406</ele>
        <time>2024-03-01T13:29:20.000Z</time>
      </trkpt>
      <trkpt lat="45.31526" lon="5.44217">
        <ele>593.59997558594</ele>
        <time>2024-03-01T13:29:21.000Z</time>
      </trkpt>
      <trkpt lat="45.3153" lon="5.44221">
        <ele>595.79998779297</ele>
        <time>2024-03-01T13:29:29.000Z</time>
      </trkpt>
      <trkpt lat="45.31532" lon="5.44225">
        <ele>596.40002441406</ele>
        <time>2024-03-01T13:29:31.000Z</time>
      </trkpt>
      <trkpt lat="45.31534" lon="5.44227">
        <ele>597</ele>
        <time>2024-03-01T13:29:33.000Z</time>
      </trkpt>
      <trkpt lat="45.31536" lon="5.44228">
        <ele>597.20001220703</ele>
        <time>2024-03-01T13:29:34.000Z</time>
      </trkpt>
      <trkpt lat="45.31539" lon="5.44231">
        <ele>597.79998779297</ele>
        <time>2024-03-01T13:29:36.000Z</time>
      </trkpt>
      <trkpt lat="45.31541" lon="5.44232">
        <ele>598</ele>
        <time>2024-03-01T13:29:37.000Z</time>
      </trkpt>
      <trkpt lat="45.31542" lon="5.44234">
        <ele>598.40002441406</ele>
        <time>2024-03-01T13:29:39.000Z</time>
      </trkpt>
      <trkpt lat="45.31544" lon="5.44235">
        <ele>598.79998779297</ele>
        <time>2024-03-01T13:29:40.000Z</time>
      </trkpt>
      <trkpt lat="45.31544" lon="5.44237">
        <ele>599.20001220703</ele>
        <time>2024-03-01T13:29:41.000Z</time>
      </trkpt>
      <trkpt lat="45.31545" lon="5.44237">
        <ele>599.40002441406</ele>
        <time>2024-03-01T13:29:42.000Z</time>
      </trkpt>
      <trkpt lat="45.31545" lon="5.44238">
        <ele>599.79998779297</ele>
        <time>2024-03-01T13:29:43.000Z</time>
      </trkpt>
      <trkpt lat="45.31546" lon="5.4424">
        <ele>600</ele>
        <time>2024-03-01T13:29:44.000Z</time>
      </trkpt>
      <trkpt lat="45.31554" lon="5.44248">
        <ele>603.40002441406</ele>
        <time>2024-03-01T13:29:56.000Z</time>
      </trkpt>
      <trkpt lat="45.31554" lon="5.44249">
        <ele>603.59997558594</ele>
        <time>2024-03-01T13:29:57.000Z</time>
      </trkpt>
      <trkpt lat="45.31556" lon="5.44251">
        <ele>604.59997558594</ele>
        <time>2024-03-01T13:30:01.000Z</time>
      </trkpt>
      <trkpt lat="45.31556" lon="5.44252">
        <ele>605</ele>
        <time>2024-03-01T13:30:03.000Z</time>
      </trkpt>
      <trkpt lat="45.31557" lon="5.44253">
        <ele>605.40002441406</ele>
        <time>2024-03-01T13:30:04.000Z</time>
      </trkpt>
      <trkpt lat="45.3156" lon="5.44259">
        <ele>606</ele>
        <time>2024-03-01T13:30:06.000Z</time>
      </trkpt>
      <trkpt lat="45.31561" lon="5.44259">
        <ele>606.20001220703</ele>
        <time>2024-03-01T13:30:07.000Z</time>
      </trkpt>
      <trkpt lat="45.31561" lon="5.44261">
        <ele>606.59997558594</ele>
        <time>2024-03-01T13:30:09.000Z</time>
      </trkpt>
      <trkpt lat="45.31563" lon="5.44262">
        <ele>606.79998779297</ele>
        <time>2024-03-01T13:30:10.000Z</time>
      </trkpt>
      <trkpt lat="45.31564" lon="5.44264">
        <ele>607.20001220703</ele>
        <time>2024-03-01T13:30:11.000Z</time>
      </trkpt>
      <trkpt lat="45.31564" lon="5.44266">
        <ele>607.40002441406</ele>
        <time>2024-03-01T13:30:12.000Z</time>
      </trkpt>
      <trkpt lat="45.31565" lon="5.44268">
        <ele>607.79998779297</ele>
        <time>2024-03-01T13:30:13.000Z</time>
      </trkpt>
      <trkpt lat="45.31566" lon="5.44269">
        <ele>608.40002441406</ele>
        <time>2024-03-01T13:30:14.000Z</time>
      </trkpt>
      <trkpt lat="45.31566" lon="5.44271">
        <ele>608.59997558594</ele>
        <time>2024-03-01T13:30:15.000Z</time>
      </trkpt>
      <trkpt lat="45.31567" lon="5.44272">
        <ele>608.79998779297</ele>
        <time>2024-03-01T13:30:16.000Z</time>
      </trkpt>
      <trkpt lat="45.31569" lon="5.44276">
        <ele>609</ele>
        <time>2024-03-01T13:30:17.000Z</time>
      </trkpt>
      <trkpt lat="45.3157" lon="5.44279">
        <ele>609.79998779297</ele>
        <time>2024-03-01T13:30:19.000Z</time>
      </trkpt>
      <trkpt lat="45.31571" lon="5.4428">
        <ele>610</ele>
        <time>2024-03-01T13:30:20.000Z</time>
      </trkpt>
      <trkpt lat="45.31571" lon="5.44282">
        <ele>610.40002441406</ele>
        <time>2024-03-01T13:30:21.000Z</time>
      </trkpt>
      <trkpt lat="45.31572" lon="5.44284">
        <ele>610.59997558594</ele>
        <time>2024-03-01T13:30:22.000Z</time>
      </trkpt>
      <trkpt lat="45.31573" lon="5.44287">
        <ele>610.79998779297</ele>
        <time>2024-03-01T13:30:23.000Z</time>
      </trkpt>
      <trkpt lat="45.31576" lon="5.44293">
        <ele>611.79998779297</ele>
        <time>2024-03-01T13:30:27.000Z</time>
      </trkpt>
      <trkpt lat="45.31577" lon="5.44294">
        <ele>612.40002441406</ele>
        <time>2024-03-01T13:30:30.000Z</time>
      </trkpt>
      <trkpt lat="45.31577" lon="5.44297">
        <ele>612.79998779297</ele>
        <time>2024-03-01T13:30:32.000Z</time>
      </trkpt>
      <trkpt lat="45.31578" lon="5.44299">
        <ele>613.20001220703</ele>
        <time>2024-03-01T13:30:33.000Z</time>
      </trkpt>
      <trkpt lat="45.31578" lon="5.44301">
        <ele>613.20001220703</ele>
        <time>2024-03-01T13:30:34.000Z</time>
      </trkpt>
      <trkpt lat="45.3158" lon="5.44303">
        <ele>613.59997558594</ele>
        <time>2024-03-01T13:30:37.000Z</time>
      </trkpt>
      <trkpt lat="45.3158" lon="5.44304">
        <ele>613.79998779297</ele>
        <time>2024-03-01T13:30:38.000Z</time>
      </trkpt>
      <trkpt lat="45.31581" lon="5.44306">
        <ele>614</ele>
        <time>2024-03-01T13:30:39.000Z</time>
      </trkpt>
      <trkpt lat="45.31581" lon="5.4431">
        <ele>614.40002441406</ele>
        <time>2024-03-01T13:30:41.000Z</time>
      </trkpt>
      <trkpt lat="45.31582" lon="5.44312">
        <ele>614.59997558594</ele>
        <time>2024-03-01T13:30:42.000Z</time>
      </trkpt>
      <trkpt lat="45.31582" lon="5.44313">
        <ele>614.59997558594</ele>
        <time>2024-03-01T13:30:43.000Z</time>
      </trkpt>
      <trkpt lat="45.31583" lon="5.44315">
        <ele>614.79998779297</ele>
        <time>2024-03-01T13:30:44.000Z</time>
      </trkpt>
      <trkpt lat="45.31583" lon="5.44318">
        <ele>615.59997558594</ele>
        <time>2024-03-01T13:30:47.000Z</time>
      </trkpt>
      <trkpt lat="45.31584" lon="5.4432">
        <ele>617.20001220703</ele>
        <time>2024-03-01T13:31:03.000Z</time>
      </trkpt>
      <trkpt lat="45.31584" lon="5.44325">
        <ele>617.20001220703</ele>
        <time>2024-03-01T13:31:14.000Z</time>
      </trkpt>
      <trkpt lat="45.31583" lon="5.44327">
        <ele>617.20001220703</ele>
        <time>2024-03-01T13:31:15.000Z</time>
      </trkpt>
      <trkpt lat="45.31583" lon="5.44332">
        <ele>617.40002441406</ele>
        <time>2024-03-01T13:31:18.000Z</time>
      </trkpt>
      <trkpt lat="45.31582" lon="5.44334">
        <ele>617.59997558594</ele>
        <time>2024-03-01T13:31:19.000Z</time>
      </trkpt>
      <trkpt lat="45.31582" lon="5.44338">
        <ele>618.79998779297</ele>
        <time>2024-03-01T13:31:24.000Z</time>
      </trkpt>
      <trkpt lat="45.31581" lon="5.4434">
        <ele>619</ele>
        <time>2024-03-01T13:31:25.000Z</time>
      </trkpt>
      <trkpt lat="45.31581" lon="5.4435">
        <ele>620.20001220703</ele>
        <time>2024-03-01T13:31:31.000Z</time>
      </trkpt>
      <trkpt lat="45.31582" lon="5.44352">
        <ele>620.79998779297</ele>
        <time>2024-03-01T13:31:33.000Z</time>
      </trkpt>
      <trkpt lat="45.31582" lon="5.44355">
        <ele>621.59997558594</ele>
        <time>2024-03-01T13:31:36.000Z</time>
      </trkpt>
      <trkpt lat="45.31583" lon="5.44357">
        <ele>621.79998779297</ele>
        <time>2024-03-01T13:31:37.000Z</time>
      </trkpt>
      <trkpt lat="45.31583" lon="5.4436">
        <ele>622</ele>
        <time>2024-03-01T13:31:39.000Z</time>
      </trkpt>
      <trkpt lat="45.31584" lon="5.44362">
        <ele>622.20001220703</ele>
        <time>2024-03-01T13:31:40.000Z</time>
      </trkpt>
      <trkpt lat="45.31584" lon="5.44364">
        <ele>622.40002441406</ele>
        <time>2024-03-01T13:31:41.000Z</time>
      </trkpt>
      <trkpt lat="45.31583" lon="5.44365">
        <ele>622.59997558594</ele>
        <time>2024-03-01T13:31:42.000Z</time>
      </trkpt>
      <trkpt lat="45.31583" lon="5.44369">
        <ele>623</ele>
        <time>2024-03-01T13:31:44.000Z</time>
      </trkpt>
      <trkpt lat="45.31584" lon="5.4437">
        <ele>623.20001220703</ele>
        <time>2024-03-01T13:31:45.000Z</time>
      </trkpt>
      <trkpt lat="45.31584" lon="5.44371">
        <ele>623.59997558594</ele>
        <time>2024-03-01T13:31:46.000Z</time>
      </trkpt>
      <trkpt lat="45.31585" lon="5.44373">
        <ele>623.79998779297</ele>
        <time>2024-03-01T13:31:47.000Z</time>
      </trkpt>
      <trkpt lat="45.31585" lon="5.44376">
        <ele>624</ele>
        <time>2024-03-01T13:31:50.000Z</time>
      </trkpt>
      <trkpt lat="45.31586" lon="5.44378">
        <ele>624.20001220703</ele>
        <time>2024-03-01T13:31:51.000Z</time>
      </trkpt>
      <trkpt lat="45.31586" lon="5.44379">
        <ele>624.40002441406</ele>
        <time>2024-03-01T13:31:52.000Z</time>
      </trkpt>
      <trkpt lat="45.31587" lon="5.44381">
        <ele>624.59997558594</ele>
        <time>2024-03-01T13:31:53.000Z</time>
      </trkpt>
      <trkpt lat="45.31587" lon="5.44383">
        <ele>625</ele>
        <time>2024-03-01T13:31:55.000Z</time>
      </trkpt>
      <trkpt lat="45.31588" lon="5.44385">
        <ele>625.40002441406</ele>
        <time>2024-03-01T13:31:56.000Z</time>
      </trkpt>
      <trkpt lat="45.31588" lon="5.44387">
        <ele>625.79998779297</ele>
        <time>2024-03-01T13:31:58.000Z</time>
      </trkpt>
      <trkpt lat="45.31589" lon="5.44388">
        <ele>625.79998779297</ele>
        <time>2024-03-01T13:31:59.000Z</time>
      </trkpt>
      <trkpt lat="45.31589" lon="5.44392">
        <ele>626.40002441406</ele>
        <time>2024-03-01T13:32:02.000Z</time>
      </trkpt>
      <trkpt lat="45.3159" lon="5.44394">
        <ele>626.79998779297</ele>
        <time>2024-03-01T13:32:03.000Z</time>
      </trkpt>
      <trkpt lat="45.3159" lon="5.4441">
        <ele>629.79998779297</ele>
        <time>2024-03-01T13:32:18.000Z</time>
      </trkpt>
      <trkpt lat="45.31589" lon="5.44411">
        <ele>630</ele>
        <time>2024-03-01T13:32:19.000Z</time>
      </trkpt>
      <trkpt lat="45.31589" lon="5.44419">
        <ele>631.40002441406</ele>
        <time>2024-03-01T13:32:27.000Z</time>
      </trkpt>
      <trkpt lat="45.31588" lon="5.4442">
        <ele>631.79998779297</ele>
        <time>2024-03-01T13:32:29.000Z</time>
      </trkpt>
      <trkpt lat="45.31589" lon="5.4442">
        <ele>632</ele>
        <time>2024-03-01T13:32:30.000Z</time>
      </trkpt>
      <trkpt lat="45.31589" lon="5.4444">
        <ele>636.20001220703</ele>
        <time>2024-03-01T13:32:54.000Z</time>
      </trkpt>
      <trkpt lat="45.31591" lon="5.44444">
        <ele>636.40002441406</ele>
        <time>2024-03-01T13:32:56.000Z</time>
      </trkpt>
      <trkpt lat="45.31591" lon="5.44449">
        <ele>636.59997558594</ele>
        <time>2024-03-01T13:32:58.000Z</time>
      </trkpt>
      <trkpt lat="45.31592" lon="5.44451">
        <ele>636.59997558594</ele>
        <time>2024-03-01T13:32:59.000Z</time>
      </trkpt>
      <trkpt lat="45.31592" lon="5.44456">
        <ele>637</ele>
        <time>2024-03-01T13:33:01.000Z</time>
      </trkpt>
      <trkpt lat="45.31593" lon="5.44459">
        <ele>637.20001220703</ele>
        <time>2024-03-01T13:33:02.000Z</time>
      </trkpt>
      <trkpt lat="45.31593" lon="5.44462">
        <ele>637.59997558594</ele>
        <time>2024-03-01T13:33:03.000Z</time>
      </trkpt>
      <trkpt lat="45.31594" lon="5.44466">
        <ele>637.79998779297</ele>
        <time>2024-03-01T13:33:04.000Z</time>
      </trkpt>
      <trkpt lat="45.31594" lon="5.44469">
        <ele>638</ele>
        <time>2024-03-01T13:33:05.000Z</time>
      </trkpt>
      <trkpt lat="45.31595" lon="5.44472">
        <ele>638</ele>
        <time>2024-03-01T13:33:06.000Z</time>
      </trkpt>
      <trkpt lat="45.31595" lon="5.44474">
        <ele>638.20001220703</ele>
        <time>2024-03-01T13:33:07.000Z</time>
      </trkpt>
      <trkpt lat="45.31596" lon="5.44477">
        <ele>638.20001220703</ele>
        <time>2024-03-01T13:33:08.000Z</time>
      </trkpt>
      <trkpt lat="45.31596" lon="5.44481">
        <ele>638.40002441406</ele>
        <time>2024-03-01T13:33:09.000Z</time>
      </trkpt>
      <trkpt lat="45.31597" lon="5.44484">
        <ele>638.59997558594</ele>
        <time>2024-03-01T13:33:10.000Z</time>
      </trkpt>
      <trkpt lat="45.31597" lon="5.44487">
        <ele>638.59997558594</ele>
        <time>2024-03-01T13:33:11.000Z</time>
      </trkpt>
      <trkpt lat="45.31598" lon="5.44489">
        <ele>638.79998779297</ele>
        <time>2024-03-01T13:33:12.000Z</time>
      </trkpt>
      <trkpt lat="45.31598" lon="5.44509">
        <ele>641.40002441406</ele>
        <time>2024-03-01T13:33:22.000Z</time>
      </trkpt>
      <trkpt lat="45.31597" lon="5.44511">
        <ele>641.79998779297</ele>
        <time>2024-03-01T13:33:24.000Z</time>
      </trkpt>
      <trkpt lat="45.31597" lon="5.44512">
        <ele>642</ele>
        <time>2024-03-01T13:33:25.000Z</time>
      </trkpt>
      <trkpt lat="45.31596" lon="5.44515">
        <ele>642.20001220703</ele>
        <time>2024-03-01T13:33:26.000Z</time>
      </trkpt>
      <trkpt lat="45.31596" lon="5.44517">
        <ele>642.20001220703</ele>
        <time>2024-03-01T13:33:27.000Z</time>
      </trkpt>
      <trkpt lat="45.31595" lon="5.44519">
        <ele>642.59997558594</ele>
        <time>2024-03-01T13:33:28.000Z</time>
      </trkpt>
      <trkpt lat="45.31595" lon="5.44521">
        <ele>642.79998779297</ele>
        <time>2024-03-01T13:33:29.000Z</time>
      </trkpt>
      <trkpt lat="45.31593" lon="5.44525">
        <ele>643.20001220703</ele>
        <time>2024-03-01T13:33:31.000Z</time>
      </trkpt>
      <trkpt lat="45.31593" lon="5.44528">
        <ele>643.20001220703</ele>
        <time>2024-03-01T13:33:32.000Z</time>
      </trkpt>
      <trkpt lat="45.31591" lon="5.44533">
        <ele>643.20001220703</ele>
        <time>2024-03-01T13:33:33.000Z</time>
      </trkpt>
      <trkpt lat="45.31589" lon="5.44537">
        <ele>643.20001220703</ele>
        <time>2024-03-01T13:33:34.000Z</time>
      </trkpt>
      <trkpt lat="45.31588" lon="5.4454">
        <ele>643.20001220703</ele>
        <time>2024-03-01T13:33:35.000Z</time>
      </trkpt>
      <trkpt lat="45.31586" lon="5.44544">
        <ele>643.40002441406</ele>
        <time>2024-03-01T13:33:36.000Z</time>
      </trkpt>
      <trkpt lat="45.31586" lon="5.44548">
        <ele>643.40002441406</ele>
        <time>2024-03-01T13:33:37.000Z</time>
      </trkpt>
      <trkpt lat="45.31585" lon="5.44551">
        <ele>643.59997558594</ele>
        <time>2024-03-01T13:33:38.000Z</time>
      </trkpt>
      <trkpt lat="45.31583" lon="5.44561">
        <ele>643.59997558594</ele>
        <time>2024-03-01T13:33:40.000Z</time>
      </trkpt>
      <trkpt lat="45.31581" lon="5.44565">
        <ele>643.59997558594</ele>
        <time>2024-03-01T13:33:41.000Z</time>
      </trkpt>
      <trkpt lat="45.31579" lon="5.4457">
        <ele>643.59997558594</ele>
        <time>2024-03-01T13:33:42.000Z</time>
      </trkpt>
      <trkpt lat="45.31577" lon="5.44579">
        <ele>643.79998779297</ele>
        <time>2024-03-01T13:33:43.000Z</time>
      </trkpt>
      <trkpt lat="45.31575" lon="5.44587">
        <ele>643.79998779297</ele>
        <time>2024-03-01T13:33:44.000Z</time>
      </trkpt>
      <trkpt lat="45.31575" lon="5.44595">
        <ele>643.79998779297</ele>
        <time>2024-03-01T13:33:45.000Z</time>
      </trkpt>
      <trkpt lat="45.31576" lon="5.44603">
        <ele>643.79998779297</ele>
        <time>2024-03-01T13:33:46.000Z</time>
      </trkpt>
      <trkpt lat="45.31577" lon="5.44612">
        <ele>643.79998779297</ele>
        <time>2024-03-01T13:33:47.000Z</time>
      </trkpt>
      <trkpt lat="45.31577" lon="5.44621">
        <ele>643.59997558594</ele>
        <time>2024-03-01T13:33:48.000Z</time>
      </trkpt>
      <trkpt lat="45.31576" lon="5.44631">
        <ele>643.59997558594</ele>
        <time>2024-03-01T13:33:49.000Z</time>
      </trkpt>
      <trkpt lat="45.31575" lon="5.44643">
        <ele>643.40002441406</ele>
        <time>2024-03-01T13:33:50.000Z</time>
      </trkpt>
      <trkpt lat="45.31574" lon="5.44652">
        <ele>643.20001220703</ele>
        <time>2024-03-01T13:33:51.000Z</time>
      </trkpt>
      <trkpt lat="45.31574" lon="5.44661">
        <ele>642.40002441406</ele>
        <time>2024-03-01T13:33:52.000Z</time>
      </trkpt>
      <trkpt lat="45.31573" lon="5.44671">
        <ele>642</ele>
        <time>2024-03-01T13:33:53.000Z</time>
      </trkpt>
      <trkpt lat="45.31571" lon="5.44681">
        <ele>641.79998779297</ele>
        <time>2024-03-01T13:33:54.000Z</time>
      </trkpt>
      <trkpt lat="45.31568" lon="5.44691">
        <ele>641.40002441406</ele>
        <time>2024-03-01T13:33:55.000Z</time>
      </trkpt>
      <trkpt lat="45.31566" lon="5.447">
        <ele>641</ele>
        <time>2024-03-01T13:33:56.000Z</time>
      </trkpt>
      <trkpt lat="45.31564" lon="5.44708">
        <ele>640.40002441406</ele>
        <time>2024-03-01T13:33:57.000Z</time>
      </trkpt>
      <trkpt lat="45.31562" lon="5.44722">
        <ele>639.79998779297</ele>
        <time>2024-03-01T13:33:59.000Z</time>
      </trkpt>
      <trkpt lat="45.31559" lon="5.44729">
        <ele>639.59997558594</ele>
        <time>2024-03-01T13:34:00.000Z</time>
      </trkpt>
      <trkpt lat="45.31558" lon="5.44737">
        <ele>639.59997558594</ele>
        <time>2024-03-01T13:34:01.000Z</time>
      </trkpt>
      <trkpt lat="45.31557" lon="5.44743">
        <ele>639.59997558594</ele>
        <time>2024-03-01T13:34:02.000Z</time>
      </trkpt>
      <trkpt lat="45.31554" lon="5.44749">
        <ele>639.59997558594</ele>
        <time>2024-03-01T13:34:03.000Z</time>
      </trkpt>
      <trkpt lat="45.31552" lon="5.44755">
        <ele>639.59997558594</ele>
        <time>2024-03-01T13:34:04.000Z</time>
      </trkpt>
      <trkpt lat="45.31552" lon="5.44769">
        <ele>639.79998779297</ele>
        <time>2024-03-01T13:34:06.000Z</time>
      </trkpt>
      <trkpt lat="45.31553" lon="5.44772">
        <ele>640.40002441406</ele>
        <time>2024-03-01T13:34:07.000Z</time>
      </trkpt>
      <trkpt lat="45.31554" lon="5.44776">
        <ele>640.59997558594</ele>
        <time>2024-03-01T13:34:08.000Z</time>
      </trkpt>
      <trkpt lat="45.31556" lon="5.4478">
        <ele>640.79998779297</ele>
        <time>2024-03-01T13:34:09.000Z</time>
      </trkpt>
      <trkpt lat="45.31558" lon="5.44788">
        <ele>640.79998779297</ele>
        <time>2024-03-01T13:34:11.000Z</time>
      </trkpt>
      <trkpt lat="45.31562" lon="5.44798">
        <ele>641</ele>
        <time>2024-03-01T13:34:13.000Z</time>
      </trkpt>
      <trkpt lat="45.31563" lon="5.44803">
        <ele>641.20001220703</ele>
        <time>2024-03-01T13:34:14.000Z</time>
      </trkpt>
      <trkpt lat="45.31564" lon="5.44807">
        <ele>641.20001220703</ele>
        <time>2024-03-01T13:34:15.000Z</time>
      </trkpt>
      <trkpt lat="45.31566" lon="5.44813">
        <ele>641.20001220703</ele>
        <time>2024-03-01T13:34:16.000Z</time>
      </trkpt>
      <trkpt lat="45.31567" lon="5.44817">
        <ele>641.40002441406</ele>
        <time>2024-03-01T13:34:17.000Z</time>
      </trkpt>
      <trkpt lat="45.31567" lon="5.44821">
        <ele>641.40002441406</ele>
        <time>2024-03-01T13:34:18.000Z</time>
      </trkpt>
      <trkpt lat="45.31569" lon="5.44829">
        <ele>641.79998779297</ele>
        <time>2024-03-01T13:34:20.000Z</time>
      </trkpt>
      <trkpt lat="45.31571" lon="5.44833">
        <ele>642</ele>
        <time>2024-03-01T13:34:21.000Z</time>
      </trkpt>
      <trkpt lat="45.31573" lon="5.44841">
        <ele>642.20001220703</ele>
        <time>2024-03-01T13:34:23.000Z</time>
      </trkpt>
      <trkpt lat="45.31574" lon="5.44846">
        <ele>642.59997558594</ele>
        <time>2024-03-01T13:34:24.000Z</time>
      </trkpt>
      <trkpt lat="45.31576" lon="5.44852">
        <ele>642.79998779297</ele>
        <time>2024-03-01T13:34:25.000Z</time>
      </trkpt>
      <trkpt lat="45.31577" lon="5.44857">
        <ele>643</ele>
        <time>2024-03-01T13:34:26.000Z</time>
      </trkpt>
      <trkpt lat="45.31578" lon="5.4486">
        <ele>643</ele>
        <time>2024-03-01T13:34:27.000Z</time>
      </trkpt>
      <trkpt lat="45.3158" lon="5.44868">
        <ele>643.40002441406</ele>
        <time>2024-03-01T13:34:29.000Z</time>
      </trkpt>
      <trkpt lat="45.31579" lon="5.44872">
        <ele>643.40002441406</ele>
        <time>2024-03-01T13:34:30.000Z</time>
      </trkpt>
      <trkpt lat="45.3158" lon="5.44875">
        <ele>643.59997558594</ele>
        <time>2024-03-01T13:34:31.000Z</time>
      </trkpt>
      <trkpt lat="45.3158" lon="5.44879">
        <ele>643.79998779297</ele>
        <time>2024-03-01T13:34:32.000Z</time>
      </trkpt>
      <trkpt lat="45.31581" lon="5.44882">
        <ele>644</ele>
        <time>2024-03-01T13:34:33.000Z</time>
      </trkpt>
      <trkpt lat="45.31582" lon="5.44886">
        <ele>644</ele>
        <time>2024-03-01T13:34:34.000Z</time>
      </trkpt>
      <trkpt lat="45.31582" lon="5.4489">
        <ele>644.40002441406</ele>
        <time>2024-03-01T13:34:35.000Z</time>
      </trkpt>
      <trkpt lat="45.31583" lon="5.44895">
        <ele>644.59997558594</ele>
        <time>2024-03-01T13:34:36.000Z</time>
      </trkpt>
      <trkpt lat="45.31583" lon="5.44908">
        <ele>645.59997558594</ele>
        <time>2024-03-01T13:34:39.000Z</time>
      </trkpt>
      <trkpt lat="45.31584" lon="5.44913">
        <ele>646</ele>
        <time>2024-03-01T13:34:40.000Z</time>
      </trkpt>
      <trkpt lat="45.31584" lon="5.44923">
        <ele>646.40002441406</ele>
        <time>2024-03-01T13:34:42.000Z</time>
      </trkpt>
      <trkpt lat="45.31582" lon="5.44929">
        <ele>646.59997558594</ele>
        <time>2024-03-01T13:34:43.000Z</time>
      </trkpt>
      <trkpt lat="45.31582" lon="5.44933">
        <ele>647</ele>
        <time>2024-03-01T13:34:44.000Z</time>
      </trkpt>
      <trkpt lat="45.31581" lon="5.44937">
        <ele>647.20001220703</ele>
        <time>2024-03-01T13:34:45.000Z</time>
      </trkpt>
      <trkpt lat="45.31581" lon="5.44945">
        <ele>647.59997558594</ele>
        <time>2024-03-01T13:34:47.000Z</time>
      </trkpt>
      <trkpt lat="45.3158" lon="5.4495">
        <ele>647.59997558594</ele>
        <time>2024-03-01T13:34:48.000Z</time>
      </trkpt>
      <trkpt lat="45.3158" lon="5.44955">
        <ele>647.79998779297</ele>
        <time>2024-03-01T13:34:49.000Z</time>
      </trkpt>
      <trkpt lat="45.31579" lon="5.4496">
        <ele>647.79998779297</ele>
        <time>2024-03-01T13:34:50.000Z</time>
      </trkpt>
      <trkpt lat="45.31579" lon="5.44962">
        <ele>648</ele>
        <time>2024-03-01T13:34:51.000Z</time>
      </trkpt>
      <trkpt lat="45.31578" lon="5.44966">
        <ele>647.79998779297</ele>
        <time>2024-03-01T13:34:52.000Z</time>
      </trkpt>
      <trkpt lat="45.31577" lon="5.44971">
        <ele>648</ele>
        <time>2024-03-01T13:34:53.000Z</time>
      </trkpt>
      <trkpt lat="45.31576" lon="5.44975">
        <ele>648</ele>
        <time>2024-03-01T13:34:54.000Z</time>
      </trkpt>
      <trkpt lat="45.31576" lon="5.44986">
        <ele>648</ele>
        <time>2024-03-01T13:34:57.000Z</time>
      </trkpt>
      <trkpt lat="45.31575" lon="5.44993">
        <ele>648.20001220703</ele>
        <time>2024-03-01T13:34:58.000Z</time>
      </trkpt>
      <trkpt lat="45.31574" lon="5.44998">
        <ele>648.20001220703</ele>
        <time>2024-03-01T13:34:59.000Z</time>
      </trkpt>
      <trkpt lat="45.31574" lon="5.45008">
        <ele>648.40002441406</ele>
        <time>2024-03-01T13:35:01.000Z</time>
      </trkpt>
      <trkpt lat="45.31573" lon="5.45011">
        <ele>648.40002441406</ele>
        <time>2024-03-01T13:35:02.000Z</time>
      </trkpt>
      <trkpt lat="45.31571" lon="5.45015">
        <ele>648.59997558594</ele>
        <time>2024-03-01T13:35:03.000Z</time>
      </trkpt>
      <trkpt lat="45.31567" lon="5.45021">
        <ele>648.59997558594</ele>
        <time>2024-03-01T13:35:05.000Z</time>
      </trkpt>
      <trkpt lat="45.31566" lon="5.45025">
        <ele>648.79998779297</ele>
        <time>2024-03-01T13:35:06.000Z</time>
      </trkpt>
      <trkpt lat="45.31564" lon="5.45029">
        <ele>649.40002441406</ele>
        <time>2024-03-01T13:35:08.000Z</time>
      </trkpt>
      <trkpt lat="45.31564" lon="5.45031">
        <ele>649.59997558594</ele>
        <time>2024-03-01T13:35:09.000Z</time>
      </trkpt>
      <trkpt lat="45.31563" lon="5.45037">
        <ele>650</ele>
        <time>2024-03-01T13:35:10.000Z</time>
      </trkpt>
      <trkpt lat="45.3156" lon="5.45046">
        <ele>650.40002441406</ele>
        <time>2024-03-01T13:35:13.000Z</time>
      </trkpt>
      <trkpt lat="45.3156" lon="5.45049">
        <ele>650.59997558594</ele>
        <time>2024-03-01T13:35:14.000Z</time>
      </trkpt>
      <trkpt lat="45.31558" lon="5.45055">
        <ele>651</ele>
        <time>2024-03-01T13:35:16.000Z</time>
      </trkpt>
      <trkpt lat="45.31557" lon="5.45059">
        <ele>651.20001220703</ele>
        <time>2024-03-01T13:35:17.000Z</time>
      </trkpt>
      <trkpt lat="45.31555" lon="5.45062">
        <ele>651.40002441406</ele>
        <time>2024-03-01T13:35:18.000Z</time>
      </trkpt>
      <trkpt lat="45.31553" lon="5.45066">
        <ele>651.59997558594</ele>
        <time>2024-03-01T13:35:20.000Z</time>
      </trkpt>
      <trkpt lat="45.31551" lon="5.45069">
        <ele>651.59997558594</ele>
        <time>2024-03-01T13:35:21.000Z</time>
      </trkpt>
      <trkpt lat="45.31549" lon="5.45074">
        <ele>651.79998779297</ele>
        <time>2024-03-01T13:35:22.000Z</time>
      </trkpt>
      <trkpt lat="45.31547" lon="5.45078">
        <ele>652</ele>
        <time>2024-03-01T13:35:23.000Z</time>
      </trkpt>
      <trkpt lat="45.31546" lon="5.45082">
        <ele>652</ele>
        <time>2024-03-01T13:35:24.000Z</time>
      </trkpt>
      <trkpt lat="45.31544" lon="5.45087">
        <ele>652</ele>
        <time>2024-03-01T13:35:25.000Z</time>
      </trkpt>
      <trkpt lat="45.31541" lon="5.45091">
        <ele>652</ele>
        <time>2024-03-01T13:35:26.000Z</time>
      </trkpt>
      <trkpt lat="45.31538" lon="5.45096">
        <ele>652</ele>
        <time>2024-03-01T13:35:27.000Z</time>
      </trkpt>
      <trkpt lat="45.31536" lon="5.45099">
        <ele>652</ele>
        <time>2024-03-01T13:35:28.000Z</time>
      </trkpt>
      <trkpt lat="45.31534" lon="5.45103">
        <ele>652</ele>
        <time>2024-03-01T13:35:29.000Z</time>
      </trkpt>
      <trkpt lat="45.31531" lon="5.45108">
        <ele>651.59997558594</ele>
        <time>2024-03-01T13:35:30.000Z</time>
      </trkpt>
      <trkpt lat="45.31528" lon="5.45112">
        <ele>651.59997558594</ele>
        <time>2024-03-01T13:35:31.000Z</time>
      </trkpt>
      <trkpt lat="45.31522" lon="5.45118">
        <ele>651.40002441406</ele>
        <time>2024-03-01T13:35:33.000Z</time>
      </trkpt>
      <trkpt lat="45.31519" lon="5.4512">
        <ele>651.40002441406</ele>
        <time>2024-03-01T13:35:34.000Z</time>
      </trkpt>
      <trkpt lat="45.31514" lon="5.45122">
        <ele>651.40002441406</ele>
        <time>2024-03-01T13:35:35.000Z</time>
      </trkpt>
      <trkpt lat="45.31509" lon="5.45125">
        <ele>651.20001220703</ele>
        <time>2024-03-01T13:35:36.000Z</time>
      </trkpt>
      <trkpt lat="45.31506" lon="5.45125">
        <ele>651</ele>
        <time>2024-03-01T13:35:37.000Z</time>
      </trkpt>
      <trkpt lat="45.31503" lon="5.45124">
        <ele>651</ele>
        <time>2024-03-01T13:35:38.000Z</time>
      </trkpt>
      <trkpt lat="45.31501" lon="5.45121">
        <ele>650.79998779297</ele>
        <time>2024-03-01T13:35:39.000Z</time>
      </trkpt>
      <trkpt lat="45.31497" lon="5.45111">
        <ele>650.79998779297</ele>
        <time>2024-03-01T13:35:41.000Z</time>
      </trkpt>
      <trkpt lat="45.31494" lon="5.45107">
        <ele>650.40002441406</ele>
        <time>2024-03-01T13:35:42.000Z</time>
      </trkpt>
      <trkpt lat="45.31492" lon="5.45104">
        <ele>650.40002441406</ele>
        <time>2024-03-01T13:35:43.000Z</time>
      </trkpt>
      <trkpt lat="45.31488" lon="5.45096">
        <ele>650.40002441406</ele>
        <time>2024-03-01T13:35:45.000Z</time>
      </trkpt>
      <trkpt lat="45.31486" lon="5.45095">
        <ele>650.40002441406</ele>
        <time>2024-03-01T13:35:46.000Z</time>
      </trkpt>
      <trkpt lat="45.31482" lon="5.45087">
        <ele>650.40002441406</ele>
        <time>2024-03-01T13:35:48.000Z</time>
      </trkpt>
      <trkpt lat="45.31478" lon="5.45081">
        <ele>650.59997558594</ele>
        <time>2024-03-01T13:35:50.000Z</time>
      </trkpt>
      <trkpt lat="45.31475" lon="5.45079">
        <ele>650.79998779297</ele>
        <time>2024-03-01T13:35:51.000Z</time>
      </trkpt>
      <trkpt lat="45.31471" lon="5.45073">
        <ele>651</ele>
        <time>2024-03-01T13:35:53.000Z</time>
      </trkpt>
      <trkpt lat="45.31465" lon="5.45071">
        <ele>651.40002441406</ele>
        <time>2024-03-01T13:35:55.000Z</time>
      </trkpt>
      <trkpt lat="45.31463" lon="5.45067">
        <ele>652</ele>
        <time>2024-03-01T13:35:57.000Z</time>
      </trkpt>
      <trkpt lat="45.31462" lon="5.45066">
        <ele>652.20001220703</ele>
        <time>2024-03-01T13:35:58.000Z</time>
      </trkpt>
      <trkpt lat="45.31461" lon="5.45064">
        <ele>652.40002441406</ele>
        <time>2024-03-01T13:35:59.000Z</time>
      </trkpt>
      <trkpt lat="45.31459" lon="5.45061">
        <ele>652.59997558594</ele>
        <time>2024-03-01T13:36:00.000Z</time>
      </trkpt>
      <trkpt lat="45.31458" lon="5.45059">
        <ele>653.20001220703</ele>
        <time>2024-03-01T13:36:01.000Z</time>
      </trkpt>
      <trkpt lat="45.31456" lon="5.45057">
        <ele>653.40002441406</ele>
        <time>2024-03-01T13:36:02.000Z</time>
      </trkpt>
      <trkpt lat="45.31452" lon="5.45052">
        <ele>653.79998779297</ele>
        <time>2024-03-01T13:36:03.000Z</time>
      </trkpt>
      <trkpt lat="45.3145" lon="5.4505">
        <ele>654</ele>
        <time>2024-03-01T13:36:04.000Z</time>
      </trkpt>
      <trkpt lat="45.31447" lon="5.45048">
        <ele>654.20001220703</ele>
        <time>2024-03-01T13:36:05.000Z</time>
      </trkpt>
      <trkpt lat="45.31446" lon="5.45046">
        <ele>654.40002441406</ele>
        <time>2024-03-01T13:36:06.000Z</time>
      </trkpt>
      <trkpt lat="45.31444" lon="5.45045">
        <ele>654.59997558594</ele>
        <time>2024-03-01T13:36:07.000Z</time>
      </trkpt>
      <trkpt lat="45.31442" lon="5.45043">
        <ele>654.79998779297</ele>
        <time>2024-03-01T13:36:08.000Z</time>
      </trkpt>
      <trkpt lat="45.31441" lon="5.45041">
        <ele>654.79998779297</ele>
        <time>2024-03-01T13:36:09.000Z</time>
      </trkpt>
      <trkpt lat="45.31437" lon="5.45035">
        <ele>655</ele>
        <time>2024-03-01T13:36:11.000Z</time>
      </trkpt>
      <trkpt lat="45.31433" lon="5.45031">
        <ele>655</ele>
        <time>2024-03-01T13:36:12.000Z</time>
      </trkpt>
      <trkpt lat="45.31427" lon="5.45021">
        <ele>655</ele>
        <time>2024-03-01T13:36:14.000Z</time>
      </trkpt>
      <trkpt lat="45.31421" lon="5.45015">
        <ele>655</ele>
        <time>2024-03-01T13:36:15.000Z</time>
      </trkpt>
      <trkpt lat="45.31414" lon="5.45005">
        <ele>655</ele>
        <time>2024-03-01T13:36:16.000Z</time>
      </trkpt>
      <trkpt lat="45.31407" lon="5.44997">
        <ele>654.79998779297</ele>
        <time>2024-03-01T13:36:17.000Z</time>
      </trkpt>
      <trkpt lat="45.31401" lon="5.44988">
        <ele>654.79998779297</ele>
        <time>2024-03-01T13:36:18.000Z</time>
      </trkpt>
      <trkpt lat="45.31395" lon="5.44977">
        <ele>654.40002441406</ele>
        <time>2024-03-01T13:36:19.000Z</time>
      </trkpt>
      <trkpt lat="45.31388" lon="5.44971">
        <ele>653.79998779297</ele>
        <time>2024-03-01T13:36:20.000Z</time>
      </trkpt>
      <trkpt lat="45.31384" lon="5.44968">
        <ele>653.59997558594</ele>
        <time>2024-03-01T13:36:21.000Z</time>
      </trkpt>
      <trkpt lat="45.31379" lon="5.44969">
        <ele>653.40002441406</ele>
        <time>2024-03-01T13:36:22.000Z</time>
      </trkpt>
      <trkpt lat="45.31371" lon="5.44961">
        <ele>652.40002441406</ele>
        <time>2024-03-01T13:36:24.000Z</time>
      </trkpt>
      <trkpt lat="45.31365" lon="5.44951">
        <ele>652</ele>
        <time>2024-03-01T13:36:26.000Z</time>
      </trkpt>
      <trkpt lat="45.31363" lon="5.44951">
        <ele>651.79998779297</ele>
        <time>2024-03-01T13:36:27.000Z</time>
      </trkpt>
      <trkpt lat="45.31361" lon="5.44949">
        <ele>651.40002441406</ele>
        <time>2024-03-01T13:36:29.000Z</time>
      </trkpt>
      <trkpt lat="45.31358" lon="5.44945">
        <ele>651.40002441406</ele>
        <time>2024-03-01T13:36:30.000Z</time>
      </trkpt>
      <trkpt lat="45.31354" lon="5.44941">
        <ele>651</ele>
        <time>2024-03-01T13:36:31.000Z</time>
      </trkpt>
      <trkpt lat="45.3135" lon="5.44938">
        <ele>650.79998779297</ele>
        <time>2024-03-01T13:36:32.000Z</time>
      </trkpt>
      <trkpt lat="45.31345" lon="5.44934">
        <ele>650.59997558594</ele>
        <time>2024-03-01T13:36:33.000Z</time>
      </trkpt>
      <trkpt lat="45.3134" lon="5.44933">
        <ele>650.40002441406</ele>
        <time>2024-03-01T13:36:34.000Z</time>
      </trkpt>
      <trkpt lat="45.31335" lon="5.44933">
        <ele>650.20001220703</ele>
        <time>2024-03-01T13:36:35.000Z</time>
      </trkpt>
      <trkpt lat="45.31331" lon="5.44934">
        <ele>650</ele>
        <time>2024-03-01T13:36:36.000Z</time>
      </trkpt>
      <trkpt lat="45.31327" lon="5.44937">
        <ele>650</ele>
        <time>2024-03-01T13:36:37.000Z</time>
      </trkpt>
      <trkpt lat="45.31321" lon="5.44943">
        <ele>649.40002441406</ele>
        <time>2024-03-01T13:36:39.000Z</time>
      </trkpt>
      <trkpt lat="45.31318" lon="5.44945">
        <ele>649.20001220703</ele>
        <time>2024-03-01T13:36:40.000Z</time>
      </trkpt>
      <trkpt lat="45.31317" lon="5.44947">
        <ele>648.79998779297</ele>
        <time>2024-03-01T13:36:41.000Z</time>
      </trkpt>
      <trkpt lat="45.31315" lon="5.44949">
        <ele>648.79998779297</ele>
        <time>2024-03-01T13:36:42.000Z</time>
      </trkpt>
      <trkpt lat="45.31312" lon="5.44954">
        <ele>648.59997558594</ele>
        <time>2024-03-01T13:36:43.000Z</time>
      </trkpt>
      <trkpt lat="45.3131" lon="5.44959">
        <ele>648.40002441406</ele>
        <time>2024-03-01T13:36:44.000Z</time>
      </trkpt>
      <trkpt lat="45.31307" lon="5.44964">
        <ele>648.20001220703</ele>
        <time>2024-03-01T13:36:45.000Z</time>
      </trkpt>
      <trkpt lat="45.31304" lon="5.4497">
        <ele>648</ele>
        <time>2024-03-01T13:36:46.000Z</time>
      </trkpt>
      <trkpt lat="45.31301" lon="5.44974">
        <ele>648</ele>
        <time>2024-03-01T13:36:47.000Z</time>
      </trkpt>
      <trkpt lat="45.31298" lon="5.44977">
        <ele>648</ele>
        <time>2024-03-01T13:36:48.000Z</time>
      </trkpt>
      <trkpt lat="45.3129" lon="5.44991">
        <ele>648.20001220703</ele>
        <time>2024-03-01T13:36:50.000Z</time>
      </trkpt>
      <trkpt lat="45.31287" lon="5.44997">
        <ele>648.20001220703</ele>
        <time>2024-03-01T13:36:51.000Z</time>
      </trkpt>
      <trkpt lat="45.31283" lon="5.45001">
        <ele>648.20001220703</ele>
        <time>2024-03-01T13:36:52.000Z</time>
      </trkpt>
      <trkpt lat="45.3128" lon="5.45007">
        <ele>648.20001220703</ele>
        <time>2024-03-01T13:36:53.000Z</time>
      </trkpt>
      <trkpt lat="45.31277" lon="5.45012">
        <ele>648.20001220703</ele>
        <time>2024-03-01T13:36:54.000Z</time>
      </trkpt>
      <trkpt lat="45.31275" lon="5.45017">
        <ele>648.20001220703</ele>
        <time>2024-03-01T13:36:55.000Z</time>
      </trkpt>
      <trkpt lat="45.31273" lon="5.45024">
        <ele>648.20001220703</ele>
        <time>2024-03-01T13:36:56.000Z</time>
      </trkpt>
      <trkpt lat="45.31271" lon="5.45032">
        <ele>648.20001220703</ele>
        <time>2024-03-01T13:36:57.000Z</time>
      </trkpt>
      <trkpt lat="45.31269" lon="5.45039">
        <ele>648.20001220703</ele>
        <time>2024-03-01T13:36:58.000Z</time>
      </trkpt>
      <trkpt lat="45.31267" lon="5.45047">
        <ele>648</ele>
        <time>2024-03-01T13:36:59.000Z</time>
      </trkpt>
      <trkpt lat="45.31266" lon="5.45054">
        <ele>648</ele>
        <time>2024-03-01T13:37:00.000Z</time>
      </trkpt>
      <trkpt lat="45.31265" lon="5.4506">
        <ele>648</ele>
        <time>2024-03-01T13:37:01.000Z</time>
      </trkpt>
      <trkpt lat="45.31264" lon="5.45067">
        <ele>647.59997558594</ele>
        <time>2024-03-01T13:37:02.000Z</time>
      </trkpt>
      <trkpt lat="45.31264" lon="5.45076">
        <ele>647.40002441406</ele>
        <time>2024-03-01T13:37:04.000Z</time>
      </trkpt>
      <trkpt lat="45.31263" lon="5.45078">
        <ele>647.40002441406</ele>
        <time>2024-03-01T13:37:05.000Z</time>
      </trkpt>
      <trkpt lat="45.31263" lon="5.45081">
        <ele>647.40002441406</ele>
        <time>2024-03-01T13:37:06.000Z</time>
      </trkpt>
      <trkpt lat="45.31262" lon="5.45082">
        <ele>647.40002441406</ele>
        <time>2024-03-01T13:37:07.000Z</time>
      </trkpt>
      <trkpt lat="45.31262" lon="5.45084">
        <ele>647.59997558594</ele>
        <time>2024-03-01T13:37:08.000Z</time>
      </trkpt>
      <trkpt lat="45.31261" lon="5.45087">
        <ele>647.59997558594</ele>
        <time>2024-03-01T13:37:09.000Z</time>
      </trkpt>
      <trkpt lat="45.31262" lon="5.4509">
        <ele>647.59997558594</ele>
        <time>2024-03-01T13:37:10.000Z</time>
      </trkpt>
      <trkpt lat="45.31262" lon="5.45098">
        <ele>647.59997558594</ele>
        <time>2024-03-01T13:37:13.000Z</time>
      </trkpt>
      <trkpt lat="45.31261" lon="5.451">
        <ele>647.79998779297</ele>
        <time>2024-03-01T13:37:14.000Z</time>
      </trkpt>
      <trkpt lat="45.31261" lon="5.45103">
        <ele>647.79998779297</ele>
        <time>2024-03-01T13:37:15.000Z</time>
      </trkpt>
      <trkpt lat="45.3126" lon="5.45106">
        <ele>647.79998779297</ele>
        <time>2024-03-01T13:37:16.000Z</time>
      </trkpt>
      <trkpt lat="45.3126" lon="5.45112">
        <ele>648</ele>
        <time>2024-03-01T13:37:19.000Z</time>
      </trkpt>
      <trkpt lat="45.31259" lon="5.45114">
        <ele>648</ele>
        <time>2024-03-01T13:37:20.000Z</time>
      </trkpt>
      <trkpt lat="45.31259" lon="5.45115">
        <ele>648</ele>
        <time>2024-03-01T13:37:21.000Z</time>
      </trkpt>
      <trkpt lat="45.3126" lon="5.45117">
        <ele>648</ele>
        <time>2024-03-01T13:37:22.000Z</time>
      </trkpt>
      <trkpt lat="45.3126" lon="5.45125">
        <ele>648.20001220703</ele>
        <time>2024-03-01T13:37:25.000Z</time>
      </trkpt>
      <trkpt lat="45.31261" lon="5.45128">
        <ele>648.20001220703</ele>
        <time>2024-03-01T13:37:26.000Z</time>
      </trkpt>
      <trkpt lat="45.31261" lon="5.45134">
        <ele>648.40002441406</ele>
        <time>2024-03-01T13:37:28.000Z</time>
      </trkpt>
      <trkpt lat="45.3126" lon="5.45137">
        <ele>648.40002441406</ele>
        <time>2024-03-01T13:37:29.000Z</time>
      </trkpt>
      <trkpt lat="45.3126" lon="5.4514">
        <ele>648.79998779297</ele>
        <time>2024-03-01T13:37:30.000Z</time>
      </trkpt>
      <trkpt lat="45.31259" lon="5.45143">
        <ele>649</ele>
        <time>2024-03-01T13:37:31.000Z</time>
      </trkpt>
      <trkpt lat="45.3126" lon="5.45145">
        <ele>649.20001220703</ele>
        <time>2024-03-01T13:37:32.000Z</time>
      </trkpt>
      <trkpt lat="45.31261" lon="5.45148">
        <ele>649.40002441406</ele>
        <time>2024-03-01T13:37:33.000Z</time>
      </trkpt>
      <trkpt lat="45.31261" lon="5.45151">
        <ele>649.40002441406</ele>
        <time>2024-03-01T13:37:34.000Z</time>
      </trkpt>
      <trkpt lat="45.31262" lon="5.45153">
        <ele>649.59997558594</ele>
        <time>2024-03-01T13:37:35.000Z</time>
      </trkpt>
      <trkpt lat="45.31263" lon="5.45156">
        <ele>649.59997558594</ele>
        <time>2024-03-01T13:37:36.000Z</time>
      </trkpt>
      <trkpt lat="45.31263" lon="5.45161">
        <ele>650</ele>
        <time>2024-03-01T13:37:38.000Z</time>
      </trkpt>
      <trkpt lat="45.31264" lon="5.45163">
        <ele>650.20001220703</ele>
        <time>2024-03-01T13:37:39.000Z</time>
      </trkpt>
      <trkpt lat="45.31264" lon="5.45165">
        <ele>650.40002441406</ele>
        <time>2024-03-01T13:37:40.000Z</time>
      </trkpt>
      <trkpt lat="45.31265" lon="5.45168">
        <ele>650.40002441406</ele>
        <time>2024-03-01T13:37:41.000Z</time>
      </trkpt>
      <trkpt lat="45.31265" lon="5.45171">
        <ele>650.79998779297</ele>
        <time>2024-03-01T13:37:42.000Z</time>
      </trkpt>
      <trkpt lat="45.31266" lon="5.45173">
        <ele>651</ele>
        <time>2024-03-01T13:37:43.000Z</time>
      </trkpt>
      <trkpt lat="45.31266" lon="5.45187">
        <ele>652</ele>
        <time>2024-03-01T13:37:49.000Z</time>
      </trkpt>
      <trkpt lat="45.31267" lon="5.4519">
        <ele>652.20001220703</ele>
        <time>2024-03-01T13:37:50.000Z</time>
      </trkpt>
      <trkpt lat="45.31267" lon="5.45199">
        <ele>652.59997558594</ele>
        <time>2024-03-01T13:37:53.000Z</time>
      </trkpt>
      <trkpt lat="45.31268" lon="5.45203">
        <ele>652.79998779297</ele>
        <time>2024-03-01T13:37:54.000Z</time>
      </trkpt>
      <trkpt lat="45.31267" lon="5.45207">
        <ele>652.79998779297</ele>
        <time>2024-03-01T13:37:55.000Z</time>
      </trkpt>
      <trkpt lat="45.31266" lon="5.45212">
        <ele>653</ele>
        <time>2024-03-01T13:37:56.000Z</time>
      </trkpt>
      <trkpt lat="45.31264" lon="5.45216">
        <ele>653.20001220703</ele>
        <time>2024-03-01T13:37:57.000Z</time>
      </trkpt>
      <trkpt lat="45.31262" lon="5.45224">
        <ele>653.20001220703</ele>
        <time>2024-03-01T13:37:59.000Z</time>
      </trkpt>
      <trkpt lat="45.31261" lon="5.45229">
        <ele>653.20001220703</ele>
        <time>2024-03-01T13:38:00.000Z</time>
      </trkpt>
      <trkpt lat="45.31259" lon="5.45234">
        <ele>653.20001220703</ele>
        <time>2024-03-01T13:38:01.000Z</time>
      </trkpt>
      <trkpt lat="45.31259" lon="5.45239">
        <ele>653.40002441406</ele>
        <time>2024-03-01T13:38:02.000Z</time>
      </trkpt>
      <trkpt lat="45.31258" lon="5.45245">
        <ele>653.40002441406</ele>
        <time>2024-03-01T13:38:03.000Z</time>
      </trkpt>
      <trkpt lat="45.31257" lon="5.45252">
        <ele>653.20001220703</ele>
        <time>2024-03-01T13:38:04.000Z</time>
      </trkpt>
      <trkpt lat="45.31255" lon="5.45258">
        <ele>653.20001220703</ele>
        <time>2024-03-01T13:38:05.000Z</time>
      </trkpt>
      <trkpt lat="45.31254" lon="5.45264">
        <ele>653.20001220703</ele>
        <time>2024-03-01T13:38:06.000Z</time>
      </trkpt>
      <trkpt lat="45.31252" lon="5.45274">
        <ele>653</ele>
        <time>2024-03-01T13:38:08.000Z</time>
      </trkpt>
      <trkpt lat="45.31252" lon="5.45293">
        <ele>652.79998779297</ele>
        <time>2024-03-01T13:38:12.000Z</time>
      </trkpt>
      <trkpt lat="45.31251" lon="5.45301">
        <ele>652.79998779297</ele>
        <time>2024-03-01T13:38:13.000Z</time>
      </trkpt>
      <trkpt lat="45.3125" lon="5.45306">
        <ele>652.79998779297</ele>
        <time>2024-03-01T13:38:14.000Z</time>
      </trkpt>
      <trkpt lat="45.3125" lon="5.4531">
        <ele>652.79998779297</ele>
        <time>2024-03-01T13:38:15.000Z</time>
      </trkpt>
      <trkpt lat="45.31249" lon="5.45315">
        <ele>653</ele>
        <time>2024-03-01T13:38:16.000Z</time>
      </trkpt>
      <trkpt lat="45.31248" lon="5.45322">
        <ele>653</ele>
        <time>2024-03-01T13:38:17.000Z</time>
      </trkpt>
      <trkpt lat="45.31247" lon="5.45328">
        <ele>653.20001220703</ele>
        <time>2024-03-01T13:38:18.000Z</time>
      </trkpt>
      <trkpt lat="45.31246" lon="5.45335">
        <ele>653.20001220703</ele>
        <time>2024-03-01T13:38:19.000Z</time>
      </trkpt>
      <trkpt lat="45.31245" lon="5.4534">
        <ele>653.20001220703</ele>
        <time>2024-03-01T13:38:20.000Z</time>
      </trkpt>
      <trkpt lat="45.31244" lon="5.45347">
        <ele>653.20001220703</ele>
        <time>2024-03-01T13:38:21.000Z</time>
      </trkpt>
      <trkpt lat="45.31243" lon="5.45352">
        <ele>653.40002441406</ele>
        <time>2024-03-01T13:38:22.000Z</time>
      </trkpt>
      <trkpt lat="45.31243" lon="5.45357">
        <ele>653.20001220703</ele>
        <time>2024-03-01T13:38:23.000Z</time>
      </trkpt>
      <trkpt lat="45.31244" lon="5.45361">
        <ele>653.20001220703</ele>
        <time>2024-03-01T13:38:24.000Z</time>
      </trkpt>
      <trkpt lat="45.31243" lon="5.45368">
        <ele>653.20001220703</ele>
        <time>2024-03-01T13:38:25.000Z</time>
      </trkpt>
      <trkpt lat="45.31243" lon="5.45373">
        <ele>653.20001220703</ele>
        <time>2024-03-01T13:38:26.000Z</time>
      </trkpt>
      <trkpt lat="45.31244" lon="5.45378">
        <ele>653.20001220703</ele>
        <time>2024-03-01T13:38:27.000Z</time>
      </trkpt>
      <trkpt lat="45.31244" lon="5.45381">
        <ele>653.20001220703</ele>
        <time>2024-03-01T13:38:28.000Z</time>
      </trkpt>
      <trkpt lat="45.31245" lon="5.45383">
        <ele>653.20001220703</ele>
        <time>2024-03-01T13:38:29.000Z</time>
      </trkpt>
      <trkpt lat="45.31246" lon="5.45387">
        <ele>653.20001220703</ele>
        <time>2024-03-01T13:38:30.000Z</time>
      </trkpt>
      <trkpt lat="45.31246" lon="5.45395">
        <ele>653.40002441406</ele>
        <time>2024-03-01T13:38:32.000Z</time>
      </trkpt>
      <trkpt lat="45.31247" lon="5.45399">
        <ele>653.59997558594</ele>
        <time>2024-03-01T13:38:33.000Z</time>
      </trkpt>
      <trkpt lat="45.31247" lon="5.45405">
        <ele>653.79998779297</ele>
        <time>2024-03-01T13:38:34.000Z</time>
      </trkpt>
      <trkpt lat="45.31248" lon="5.45411">
        <ele>654</ele>
        <time>2024-03-01T13:38:35.000Z</time>
      </trkpt>
      <trkpt lat="45.31248" lon="5.45415">
        <ele>654.20001220703</ele>
        <time>2024-03-01T13:38:36.000Z</time>
      </trkpt>
      <trkpt lat="45.3125" lon="5.45417">
        <ele>654.20001220703</ele>
        <time>2024-03-01T13:38:37.000Z</time>
      </trkpt>
      <trkpt lat="45.31251" lon="5.45422">
        <ele>654.40002441406</ele>
        <time>2024-03-01T13:38:38.000Z</time>
      </trkpt>
      <trkpt lat="45.31252" lon="5.45425">
        <ele>654.40002441406</ele>
        <time>2024-03-01T13:38:39.000Z</time>
      </trkpt>
      <trkpt lat="45.31252" lon="5.45435">
        <ele>654.59997558594</ele>
        <time>2024-03-01T13:38:41.000Z</time>
      </trkpt>
      <trkpt lat="45.31253" lon="5.45438">
        <ele>654.59997558594</ele>
        <time>2024-03-01T13:38:42.000Z</time>
      </trkpt>
      <trkpt lat="45.31253" lon="5.4544">
        <ele>654.79998779297</ele>
        <time>2024-03-01T13:38:43.000Z</time>
      </trkpt>
      <trkpt lat="45.31254" lon="5.45443">
        <ele>655</ele>
        <time>2024-03-01T13:38:44.000Z</time>
      </trkpt>
      <trkpt lat="45.31257" lon="5.45446">
        <ele>655</ele>
        <time>2024-03-01T13:38:45.000Z</time>
      </trkpt>
      <trkpt lat="45.31257" lon="5.4545">
        <ele>655</ele>
        <time>2024-03-01T13:38:46.000Z</time>
      </trkpt>
      <trkpt lat="45.31256" lon="5.45453">
        <ele>655</ele>
        <time>2024-03-01T13:38:47.000Z</time>
      </trkpt>
      <trkpt lat="45.31254" lon="5.45455">
        <ele>655.20001220703</ele>
        <time>2024-03-01T13:38:48.000Z</time>
      </trkpt>
      <trkpt lat="45.31249" lon="5.45455">
        <ele>655.20001220703</ele>
        <time>2024-03-01T13:38:50.000Z</time>
      </trkpt>
      <trkpt lat="45.31247" lon="5.45454">
        <ele>655.20001220703</ele>
        <time>2024-03-01T13:38:51.000Z</time>
      </trkpt>
      <trkpt lat="45.31244" lon="5.45453">
        <ele>655.20001220703</ele>
        <time>2024-03-01T13:38:52.000Z</time>
      </trkpt>
      <trkpt lat="45.31242" lon="5.45453">
        <ele>655.40002441406</ele>
        <time>2024-03-01T13:38:53.000Z</time>
      </trkpt>
      <trkpt lat="45.3124" lon="5.45452">
        <ele>655.40002441406</ele>
        <time>2024-03-01T13:38:54.000Z</time>
      </trkpt>
      <trkpt lat="45.31235" lon="5.45452">
        <ele>655.40002441406</ele>
        <time>2024-03-01T13:38:56.000Z</time>
      </trkpt>
      <trkpt lat="45.31231" lon="5.45453">
        <ele>655.40002441406</ele>
        <time>2024-03-01T13:38:57.000Z</time>
      </trkpt>
      <trkpt lat="45.31228" lon="5.45454">
        <ele>655.59997558594</ele>
        <time>2024-03-01T13:38:58.000Z</time>
      </trkpt>
      <trkpt lat="45.31223" lon="5.45454">
        <ele>655.59997558594</ele>
        <time>2024-03-01T13:39:00.000Z</time>
      </trkpt>
      <trkpt lat="45.3122" lon="5.45455">
        <ele>655.59997558594</ele>
        <time>2024-03-01T13:39:02.000Z</time>
      </trkpt>
      <trkpt lat="45.31218" lon="5.45456">
        <ele>655.79998779297</ele>
        <time>2024-03-01T13:39:03.000Z</time>
      </trkpt>
      <trkpt lat="45.31216" lon="5.45458">
        <ele>656</ele>
        <time>2024-03-01T13:39:04.000Z</time>
      </trkpt>
      <trkpt lat="45.31213" lon="5.45458">
        <ele>656.20001220703</ele>
        <time>2024-03-01T13:39:05.000Z</time>
      </trkpt>
      <trkpt lat="45.31212" lon="5.45459">
        <ele>656.40002441406</ele>
        <time>2024-03-01T13:39:06.000Z</time>
      </trkpt>
      <trkpt lat="45.31211" lon="5.45459">
        <ele>656.59997558594</ele>
        <time>2024-03-01T13:39:07.000Z</time>
      </trkpt>
      <trkpt lat="45.31211" lon="5.45461">
        <ele>656.59997558594</ele>
        <time>2024-03-01T13:39:08.000Z</time>
      </trkpt>
      <trkpt lat="45.31209" lon="5.45464">
        <ele>656.59997558594</ele>
        <time>2024-03-01T13:39:09.000Z</time>
      </trkpt>
      <trkpt lat="45.31205" lon="5.45468">
        <ele>657</ele>
        <time>2024-03-01T13:39:11.000Z</time>
      </trkpt>
      <trkpt lat="45.31202" lon="5.45472">
        <ele>657</ele>
        <time>2024-03-01T13:39:12.000Z</time>
      </trkpt>
      <trkpt lat="45.31198" lon="5.45476">
        <ele>657.40002441406</ele>
        <time>2024-03-01T13:39:14.000Z</time>
      </trkpt>
      <trkpt lat="45.31196" lon="5.45479">
        <ele>657.59997558594</ele>
        <time>2024-03-01T13:39:15.000Z</time>
      </trkpt>
      <trkpt lat="45.31194" lon="5.45481">
        <ele>657.59997558594</ele>
        <time>2024-03-01T13:39:16.000Z</time>
      </trkpt>
      <trkpt lat="45.31192" lon="5.45485">
        <ele>657.79998779297</ele>
        <time>2024-03-01T13:39:17.000Z</time>
      </trkpt>
      <trkpt lat="45.31191" lon="5.45488">
        <ele>658.20001220703</ele>
        <time>2024-03-01T13:39:18.000Z</time>
      </trkpt>
      <trkpt lat="45.31187" lon="5.45494">
        <ele>658.59997558594</ele>
        <time>2024-03-01T13:39:20.000Z</time>
      </trkpt>
      <trkpt lat="45.31186" lon="5.45495">
        <ele>658.79998779297</ele>
        <time>2024-03-01T13:39:21.000Z</time>
      </trkpt>
      <trkpt lat="45.31182" lon="5.45497">
        <ele>659.59997558594</ele>
        <time>2024-03-01T13:39:23.000Z</time>
      </trkpt>
      <trkpt lat="45.31181" lon="5.45497">
        <ele>659.59997558594</ele>
        <time>2024-03-01T13:39:24.000Z</time>
      </trkpt>
      <trkpt lat="45.31178" lon="5.45498">
        <ele>659.79998779297</ele>
        <time>2024-03-01T13:39:25.000Z</time>
      </trkpt>
      <trkpt lat="45.31176" lon="5.45499">
        <ele>660</ele>
        <time>2024-03-01T13:39:26.000Z</time>
      </trkpt>
      <trkpt lat="45.31171" lon="5.45501">
        <ele>660</ele>
        <time>2024-03-01T13:39:27.000Z</time>
      </trkpt>
      <trkpt lat="45.31167" lon="5.45503">
        <ele>660</ele>
        <time>2024-03-01T13:39:28.000Z</time>
      </trkpt>
      <trkpt lat="45.31162" lon="5.45508">
        <ele>660</ele>
        <time>2024-03-01T13:39:29.000Z</time>
      </trkpt>
      <trkpt lat="45.31156" lon="5.45513">
        <ele>660</ele>
        <time>2024-03-01T13:39:30.000Z</time>
      </trkpt>
      <trkpt lat="45.3115" lon="5.45519">
        <ele>660</ele>
        <time>2024-03-01T13:39:32.000Z</time>
      </trkpt>
      <trkpt lat="45.31149" lon="5.45519">
        <ele>660</ele>
        <time>2024-03-01T13:39:33.000Z</time>
      </trkpt>
      <trkpt lat="45.31147" lon="5.45516">
        <ele>659.79998779297</ele>
        <time>2024-03-01T13:39:34.000Z</time>
      </trkpt>
      <trkpt lat="45.31143" lon="5.45508">
        <ele>659.59997558594</ele>
        <time>2024-03-01T13:39:36.000Z</time>
      </trkpt>
      <trkpt lat="45.31141" lon="5.45503">
        <ele>659.40002441406</ele>
        <time>2024-03-01T13:39:37.000Z</time>
      </trkpt>
      <trkpt lat="45.31138" lon="5.45498">
        <ele>659.40002441406</ele>
        <time>2024-03-01T13:39:38.000Z</time>
      </trkpt>
      <trkpt lat="45.31134" lon="5.45493">
        <ele>659.20001220703</ele>
        <time>2024-03-01T13:39:39.000Z</time>
      </trkpt>
      <trkpt lat="45.3113" lon="5.45487">
        <ele>659</ele>
        <time>2024-03-01T13:39:41.000Z</time>
      </trkpt>
      <trkpt lat="45.31129" lon="5.45484">
        <ele>658.59997558594</ele>
        <time>2024-03-01T13:39:42.000Z</time>
      </trkpt>
      <trkpt lat="45.31127" lon="5.45483">
        <ele>658.40002441406</ele>
        <time>2024-03-01T13:39:43.000Z</time>
      </trkpt>
      <trkpt lat="45.31127" lon="5.45481">
        <ele>658.20001220703</ele>
        <time>2024-03-01T13:39:44.000Z</time>
      </trkpt>
      <trkpt lat="45.31125" lon="5.45477">
        <ele>657.79998779297</ele>
        <time>2024-03-01T13:39:46.000Z</time>
      </trkpt>
      <trkpt lat="45.31123" lon="5.45474">
        <ele>657.59997558594</ele>
        <time>2024-03-01T13:39:47.000Z</time>
      </trkpt>
      <trkpt lat="45.31122" lon="5.4547">
        <ele>657.20001220703</ele>
        <time>2024-03-01T13:39:48.000Z</time>
      </trkpt>
      <trkpt lat="45.3112" lon="5.45467">
        <ele>657</ele>
        <time>2024-03-01T13:39:49.000Z</time>
      </trkpt>
      <trkpt lat="45.31118" lon="5.45462">
        <ele>656.79998779297</ele>
        <time>2024-03-01T13:39:50.000Z</time>
      </trkpt>
      <trkpt lat="45.31114" lon="5.45454">
        <ele>656.59997558594</ele>
        <time>2024-03-01T13:39:52.000Z</time>
      </trkpt>
      <trkpt lat="45.31113" lon="5.4545">
        <ele>656.59997558594</ele>
        <time>2024-03-01T13:39:53.000Z</time>
      </trkpt>
      <trkpt lat="45.31111" lon="5.45445">
        <ele>656.40002441406</ele>
        <time>2024-03-01T13:39:54.000Z</time>
      </trkpt>
      <trkpt lat="45.31109" lon="5.45437">
        <ele>656.20001220703</ele>
        <time>2024-03-01T13:39:56.000Z</time>
      </trkpt>
      <trkpt lat="45.31107" lon="5.45431">
        <ele>656.20001220703</ele>
        <time>2024-03-01T13:39:57.000Z</time>
      </trkpt>
      <trkpt lat="45.31105" lon="5.45424">
        <ele>656.20001220703</ele>
        <time>2024-03-01T13:39:58.000Z</time>
      </trkpt>
      <trkpt lat="45.31103" lon="5.45418">
        <ele>656.20001220703</ele>
        <time>2024-03-01T13:39:59.000Z</time>
      </trkpt>
      <trkpt lat="45.31099" lon="5.45411">
        <ele>656</ele>
        <time>2024-03-01T13:40:00.000Z</time>
      </trkpt>
      <trkpt lat="45.31091" lon="5.45393">
        <ele>655.79998779297</ele>
        <time>2024-03-01T13:40:02.000Z</time>
      </trkpt>
      <trkpt lat="45.31088" lon="5.45385">
        <ele>655.59997558594</ele>
        <time>2024-03-01T13:40:03.000Z</time>
      </trkpt>
      <trkpt lat="45.31084" lon="5.45379">
        <ele>655.59997558594</ele>
        <time>2024-03-01T13:40:04.000Z</time>
      </trkpt>
      <trkpt lat="45.31081" lon="5.45374">
        <ele>655.59997558594</ele>
        <time>2024-03-01T13:40:05.000Z</time>
      </trkpt>
      <trkpt lat="45.31069" lon="5.45356">
        <ele>654.79998779297</ele>
        <time>2024-03-01T13:40:08.000Z</time>
      </trkpt>
      <trkpt lat="45.31065" lon="5.45349">
        <ele>654.59997558594</ele>
        <time>2024-03-01T13:40:09.000Z</time>
      </trkpt>
      <trkpt lat="45.31063" lon="5.45345">
        <ele>654.40002441406</ele>
        <time>2024-03-01T13:40:10.000Z</time>
      </trkpt>
      <trkpt lat="45.31062" lon="5.45342">
        <ele>654.20001220703</ele>
        <time>2024-03-01T13:40:11.000Z</time>
      </trkpt>
      <trkpt lat="45.31054" lon="5.45332">
        <ele>653.59997558594</ele>
        <time>2024-03-01T13:40:13.000Z</time>
      </trkpt>
      <trkpt lat="45.31046" lon="5.45324">
        <ele>653</ele>
        <time>2024-03-01T13:40:16.000Z</time>
      </trkpt>
      <trkpt lat="45.31043" lon="5.45322">
        <ele>653</ele>
        <time>2024-03-01T13:40:17.000Z</time>
      </trkpt>
      <trkpt lat="45.31042" lon="5.45321">
        <ele>653</ele>
        <time>2024-03-01T13:40:18.000Z</time>
      </trkpt>
      <trkpt lat="45.3104" lon="5.4532">
        <ele>653.20001220703</ele>
        <time>2024-03-01T13:40:19.000Z</time>
      </trkpt>
      <trkpt lat="45.31038" lon="5.45321">
        <ele>653.20001220703</ele>
        <time>2024-03-01T13:40:20.000Z</time>
      </trkpt>
      <trkpt lat="45.31037" lon="5.45319">
        <ele>653.40002441406</ele>
        <time>2024-03-01T13:40:21.000Z</time>
      </trkpt>
      <trkpt lat="45.31035" lon="5.45318">
        <ele>653.40002441406</ele>
        <time>2024-03-01T13:40:22.000Z</time>
      </trkpt>
      <trkpt lat="45.31034" lon="5.45318">
        <ele>653.59997558594</ele>
        <time>2024-03-01T13:40:23.000Z</time>
      </trkpt>
      <trkpt lat="45.31032" lon="5.45317">
        <ele>653.79998779297</ele>
        <time>2024-03-01T13:40:24.000Z</time>
      </trkpt>
      <trkpt lat="45.3103" lon="5.45314">
        <ele>654</ele>
        <time>2024-03-01T13:40:25.000Z</time>
      </trkpt>
      <trkpt lat="45.31028" lon="5.45313">
        <ele>654.40002441406</ele>
        <time>2024-03-01T13:40:26.000Z</time>
      </trkpt>
      <trkpt lat="45.31026" lon="5.45313">
        <ele>654.79998779297</ele>
        <time>2024-03-01T13:40:27.000Z</time>
      </trkpt>
      <trkpt lat="45.31024" lon="5.45312">
        <ele>654.79998779297</ele>
        <time>2024-03-01T13:40:28.000Z</time>
      </trkpt>
      <trkpt lat="45.31022" lon="5.45312">
        <ele>655.20001220703</ele>
        <time>2024-03-01T13:40:29.000Z</time>
      </trkpt>
      <trkpt lat="45.31021" lon="5.45311">
        <ele>655.40002441406</ele>
        <time>2024-03-01T13:40:30.000Z</time>
      </trkpt>
      <trkpt lat="45.31019" lon="5.45311">
        <ele>655.59997558594</ele>
        <time>2024-03-01T13:40:31.000Z</time>
      </trkpt>
      <trkpt lat="45.31018" lon="5.4531">
        <ele>655.79998779297</ele>
        <time>2024-03-01T13:40:32.000Z</time>
      </trkpt>
      <trkpt lat="45.31002" lon="5.4531">
        <ele>658.59997558594</ele>
        <time>2024-03-01T13:40:44.000Z</time>
      </trkpt>
      <trkpt lat="45.31001" lon="5.45309">
        <ele>658.79998779297</ele>
        <time>2024-03-01T13:40:45.000Z</time>
      </trkpt>
      <trkpt lat="45.31" lon="5.4531">
        <ele>659</ele>
        <time>2024-03-01T13:40:46.000Z</time>
      </trkpt>
      <trkpt lat="45.30998" lon="5.45309">
        <ele>659</ele>
        <time>2024-03-01T13:40:47.000Z</time>
      </trkpt>
      <trkpt lat="45.30997" lon="5.4531">
        <ele>659.40002441406</ele>
        <time>2024-03-01T13:40:48.000Z</time>
      </trkpt>
      <trkpt lat="45.30993" lon="5.4531">
        <ele>660.20001220703</ele>
        <time>2024-03-01T13:40:50.000Z</time>
      </trkpt>
      <trkpt lat="45.30991" lon="5.45309">
        <ele>660.59997558594</ele>
        <time>2024-03-01T13:40:51.000Z</time>
      </trkpt>
      <trkpt lat="45.30989" lon="5.45312">
        <ele>660.59997558594</ele>
        <time>2024-03-01T13:40:52.000Z</time>
      </trkpt>
      <trkpt lat="45.30988" lon="5.45313">
        <ele>661</ele>
        <time>2024-03-01T13:40:53.000Z</time>
      </trkpt>
      <trkpt lat="45.30986" lon="5.45314">
        <ele>661</ele>
        <time>2024-03-01T13:40:54.000Z</time>
      </trkpt>
      <trkpt lat="45.30985" lon="5.45315">
        <ele>661.40002441406</ele>
        <time>2024-03-01T13:40:55.000Z</time>
      </trkpt>
      <trkpt lat="45.30983" lon="5.45316">
        <ele>661.59997558594</ele>
        <time>2024-03-01T13:40:56.000Z</time>
      </trkpt>
      <trkpt lat="45.30982" lon="5.45317">
        <ele>662</ele>
        <time>2024-03-01T13:40:57.000Z</time>
      </trkpt>
      <trkpt lat="45.30978" lon="5.45319">
        <ele>662.40002441406</ele>
        <time>2024-03-01T13:40:59.000Z</time>
      </trkpt>
      <trkpt lat="45.30977" lon="5.4532">
        <ele>662.79998779297</ele>
        <time>2024-03-01T13:41:00.000Z</time>
      </trkpt>
      <trkpt lat="45.30976" lon="5.4532">
        <ele>663</ele>
        <time>2024-03-01T13:41:01.000Z</time>
      </trkpt>
      <trkpt lat="45.30974" lon="5.45322">
        <ele>663.59997558594</ele>
        <time>2024-03-01T13:41:02.000Z</time>
      </trkpt>
      <trkpt lat="45.30973" lon="5.45324">
        <ele>663.79998779297</ele>
        <time>2024-03-01T13:41:03.000Z</time>
      </trkpt>
      <trkpt lat="45.3097" lon="5.45324">
        <ele>664.59997558594</ele>
        <time>2024-03-01T13:41:05.000Z</time>
      </trkpt>
      <trkpt lat="45.30968" lon="5.45325">
        <ele>664.59997558594</ele>
        <time>2024-03-01T13:41:06.000Z</time>
      </trkpt>
      <trkpt lat="45.30967" lon="5.45327">
        <ele>664.79998779297</ele>
        <time>2024-03-01T13:41:07.000Z</time>
      </trkpt>
      <trkpt lat="45.30967" lon="5.45328">
        <ele>665</ele>
        <time>2024-03-01T13:41:08.000Z</time>
      </trkpt>
      <trkpt lat="45.30966" lon="5.4533">
        <ele>665.59997558594</ele>
        <time>2024-03-01T13:41:09.000Z</time>
      </trkpt>
      <trkpt lat="45.30965" lon="5.45331">
        <ele>665.79998779297</ele>
        <time>2024-03-01T13:41:10.000Z</time>
      </trkpt>
      <trkpt lat="45.30965" lon="5.45332">
        <ele>665.79998779297</ele>
        <time>2024-03-01T13:41:11.000Z</time>
      </trkpt>
      <trkpt lat="45.30964" lon="5.45332">
        <ele>666</ele>
        <time>2024-03-01T13:41:12.000Z</time>
      </trkpt>
      <trkpt lat="45.30962" lon="5.45336">
        <ele>666.20001220703</ele>
        <time>2024-03-01T13:41:14.000Z</time>
      </trkpt>
      <trkpt lat="45.30962" lon="5.45337">
        <ele>666.20001220703</ele>
        <time>2024-03-01T13:41:15.000Z</time>
      </trkpt>
      <trkpt lat="45.3096" lon="5.45339">
        <ele>666.59997558594</ele>
        <time>2024-03-01T13:41:16.000Z</time>
      </trkpt>
      <trkpt lat="45.30959" lon="5.45341">
        <ele>666.59997558594</ele>
        <time>2024-03-01T13:41:17.000Z</time>
      </trkpt>
      <trkpt lat="45.30957" lon="5.45343">
        <ele>666.79998779297</ele>
        <time>2024-03-01T13:41:18.000Z</time>
      </trkpt>
      <trkpt lat="45.30954" lon="5.45349">
        <ele>667.40002441406</ele>
        <time>2024-03-01T13:41:21.000Z</time>
      </trkpt>
      <trkpt lat="45.30953" lon="5.45352">
        <ele>667.40002441406</ele>
        <time>2024-03-01T13:41:22.000Z</time>
      </trkpt>
      <trkpt lat="45.30951" lon="5.45353">
        <ele>667.59997558594</ele>
        <time>2024-03-01T13:41:23.000Z</time>
      </trkpt>
      <trkpt lat="45.30949" lon="5.45357">
        <ele>667.79998779297</ele>
        <time>2024-03-01T13:41:25.000Z</time>
      </trkpt>
      <trkpt lat="45.30946" lon="5.4536">
        <ele>667.79998779297</ele>
        <time>2024-03-01T13:41:27.000Z</time>
      </trkpt>
      <trkpt lat="45.30945" lon="5.45362">
        <ele>667.79998779297</ele>
        <time>2024-03-01T13:41:28.000Z</time>
      </trkpt>
      <trkpt lat="45.30942" lon="5.45365">
        <ele>668</ele>
        <time>2024-03-01T13:41:30.000Z</time>
      </trkpt>
      <trkpt lat="45.3094" lon="5.45366">
        <ele>668</ele>
        <time>2024-03-01T13:41:31.000Z</time>
      </trkpt>
      <trkpt lat="45.30939" lon="5.45368">
        <ele>668.20001220703</ele>
        <time>2024-03-01T13:41:32.000Z</time>
      </trkpt>
      <trkpt lat="45.30937" lon="5.45369">
        <ele>668.20001220703</ele>
        <time>2024-03-01T13:41:33.000Z</time>
      </trkpt>
      <trkpt lat="45.30934" lon="5.45372">
        <ele>668.59997558594</ele>
        <time>2024-03-01T13:41:35.000Z</time>
      </trkpt>
      <trkpt lat="45.30932" lon="5.45375">
        <ele>668.79998779297</ele>
        <time>2024-03-01T13:41:36.000Z</time>
      </trkpt>
      <trkpt lat="45.3093" lon="5.45377">
        <ele>668.79998779297</ele>
        <time>2024-03-01T13:41:37.000Z</time>
      </trkpt>
      <trkpt lat="45.30929" lon="5.4538">
        <ele>669</ele>
        <time>2024-03-01T13:41:38.000Z</time>
      </trkpt>
      <trkpt lat="45.30927" lon="5.45382">
        <ele>669.20001220703</ele>
        <time>2024-03-01T13:41:39.000Z</time>
      </trkpt>
      <trkpt lat="45.30926" lon="5.45385">
        <ele>669.20001220703</ele>
        <time>2024-03-01T13:41:40.000Z</time>
      </trkpt>
      <trkpt lat="45.30922" lon="5.45391">
        <ele>669.59997558594</ele>
        <time>2024-03-01T13:41:42.000Z</time>
      </trkpt>
      <trkpt lat="45.3092" lon="5.45397">
        <ele>669.59997558594</ele>
        <time>2024-03-01T13:41:44.000Z</time>
      </trkpt>
      <trkpt lat="45.30918" lon="5.454">
        <ele>669.79998779297</ele>
        <time>2024-03-01T13:41:45.000Z</time>
      </trkpt>
      <trkpt lat="45.30915" lon="5.45403">
        <ele>669.79998779297</ele>
        <time>2024-03-01T13:41:46.000Z</time>
      </trkpt>
      <trkpt lat="45.30914" lon="5.45406">
        <ele>670</ele>
        <time>2024-03-01T13:41:47.000Z</time>
      </trkpt>
      <trkpt lat="45.30911" lon="5.45408">
        <ele>670</ele>
        <time>2024-03-01T13:41:48.000Z</time>
      </trkpt>
      <trkpt lat="45.3091" lon="5.45411">
        <ele>670.40002441406</ele>
        <time>2024-03-01T13:41:49.000Z</time>
      </trkpt>
      <trkpt lat="45.30908" lon="5.45412">
        <ele>670.40002441406</ele>
        <time>2024-03-01T13:41:50.000Z</time>
      </trkpt>
      <trkpt lat="45.30907" lon="5.45414">
        <ele>670.59997558594</ele>
        <time>2024-03-01T13:41:51.000Z</time>
      </trkpt>
      <trkpt lat="45.30905" lon="5.45417">
        <ele>670.59997558594</ele>
        <time>2024-03-01T13:41:52.000Z</time>
      </trkpt>
      <trkpt lat="45.30907" lon="5.45421">
        <ele>670.79998779297</ele>
        <time>2024-03-01T13:41:53.000Z</time>
      </trkpt>
      <trkpt lat="45.30906" lon="5.45424">
        <ele>671</ele>
        <time>2024-03-01T13:41:54.000Z</time>
      </trkpt>
      <trkpt lat="45.30905" lon="5.45428">
        <ele>671.20001220703</ele>
        <time>2024-03-01T13:41:55.000Z</time>
      </trkpt>
      <trkpt lat="45.30902" lon="5.45434">
        <ele>671.40002441406</ele>
        <time>2024-03-01T13:41:56.000Z</time>
      </trkpt>
      <trkpt lat="45.309" lon="5.45437">
        <ele>671.59997558594</ele>
        <time>2024-03-01T13:41:57.000Z</time>
      </trkpt>
      <trkpt lat="45.30897" lon="5.45443">
        <ele>672</ele>
        <time>2024-03-01T13:41:59.000Z</time>
      </trkpt>
      <trkpt lat="45.30896" lon="5.45447">
        <ele>672.20001220703</ele>
        <time>2024-03-01T13:42:00.000Z</time>
      </trkpt>
      <trkpt lat="45.30897" lon="5.4545">
        <ele>672.59997558594</ele>
        <time>2024-03-01T13:42:01.000Z</time>
      </trkpt>
      <trkpt lat="45.30894" lon="5.45459">
        <ele>673.20001220703</ele>
        <time>2024-03-01T13:42:04.000Z</time>
      </trkpt>
      <trkpt lat="45.30894" lon="5.45461">
        <ele>673.20001220703</ele>
        <time>2024-03-01T13:42:05.000Z</time>
      </trkpt>
      <trkpt lat="45.30892" lon="5.45467">
        <ele>673.40002441406</ele>
        <time>2024-03-01T13:42:07.000Z</time>
      </trkpt>
      <trkpt lat="45.30892" lon="5.45469">
        <ele>673.40002441406</ele>
        <time>2024-03-01T13:42:08.000Z</time>
      </trkpt>
      <trkpt lat="45.30889" lon="5.45475">
        <ele>674</ele>
        <time>2024-03-01T13:42:11.000Z</time>
      </trkpt>
      <trkpt lat="45.30888" lon="5.45478">
        <ele>674.20001220703</ele>
        <time>2024-03-01T13:42:12.000Z</time>
      </trkpt>
      <trkpt lat="45.30887" lon="5.4548">
        <ele>674.20001220703</ele>
        <time>2024-03-01T13:42:13.000Z</time>
      </trkpt>
      <trkpt lat="45.30886" lon="5.45483">
        <ele>674.40002441406</ele>
        <time>2024-03-01T13:42:14.000Z</time>
      </trkpt>
      <trkpt lat="45.30884" lon="5.45486">
        <ele>674.40002441406</ele>
        <time>2024-03-01T13:42:15.000Z</time>
      </trkpt>
      <trkpt lat="45.30883" lon="5.45488">
        <ele>674.40002441406</ele>
        <time>2024-03-01T13:42:16.000Z</time>
      </trkpt>
      <trkpt lat="45.30883" lon="5.45492">
        <ele>674.40002441406</ele>
        <time>2024-03-01T13:42:17.000Z</time>
      </trkpt>
      <trkpt lat="45.30882" lon="5.45496">
        <ele>674.59997558594</ele>
        <time>2024-03-01T13:42:18.000Z</time>
      </trkpt>
      <trkpt lat="45.30881" lon="5.45499">
        <ele>674.59997558594</ele>
        <time>2024-03-01T13:42:19.000Z</time>
      </trkpt>
      <trkpt lat="45.30881" lon="5.45502">
        <ele>674.79998779297</ele>
        <time>2024-03-01T13:42:20.000Z</time>
      </trkpt>
      <trkpt lat="45.30879" lon="5.45507">
        <ele>674.79998779297</ele>
        <time>2024-03-01T13:42:21.000Z</time>
      </trkpt>
      <trkpt lat="45.30877" lon="5.45511">
        <ele>674.79998779297</ele>
        <time>2024-03-01T13:42:22.000Z</time>
      </trkpt>
      <trkpt lat="45.30876" lon="5.45516">
        <ele>675</ele>
        <time>2024-03-01T13:42:23.000Z</time>
      </trkpt>
      <trkpt lat="45.30874" lon="5.4552">
        <ele>675</ele>
        <time>2024-03-01T13:42:24.000Z</time>
      </trkpt>
      <trkpt lat="45.30872" lon="5.45522">
        <ele>675.20001220703</ele>
        <time>2024-03-01T13:42:25.000Z</time>
      </trkpt>
      <trkpt lat="45.30871" lon="5.45524">
        <ele>675.20001220703</ele>
        <time>2024-03-01T13:42:26.000Z</time>
      </trkpt>
      <trkpt lat="45.30869" lon="5.45527">
        <ele>675.20001220703</ele>
        <time>2024-03-01T13:42:27.000Z</time>
      </trkpt>
      <trkpt lat="45.30867" lon="5.45534">
        <ele>675.20001220703</ele>
        <time>2024-03-01T13:42:28.000Z</time>
      </trkpt>
      <trkpt lat="45.30864" lon="5.45542">
        <ele>675.20001220703</ele>
        <time>2024-03-01T13:42:29.000Z</time>
      </trkpt>
      <trkpt lat="45.30863" lon="5.45549">
        <ele>675.20001220703</ele>
        <time>2024-03-01T13:42:30.000Z</time>
      </trkpt>
      <trkpt lat="45.30862" lon="5.45557">
        <ele>675.20001220703</ele>
        <time>2024-03-01T13:42:31.000Z</time>
      </trkpt>
      <trkpt lat="45.30862" lon="5.45565">
        <ele>675.20001220703</ele>
        <time>2024-03-01T13:42:32.000Z</time>
      </trkpt>
      <trkpt lat="45.30863" lon="5.45573">
        <ele>675.20001220703</ele>
        <time>2024-03-01T13:42:33.000Z</time>
      </trkpt>
      <trkpt lat="45.30863" lon="5.45581">
        <ele>675.20001220703</ele>
        <time>2024-03-01T13:42:34.000Z</time>
      </trkpt>
      <trkpt lat="45.30861" lon="5.45591">
        <ele>674.79998779297</ele>
        <time>2024-03-01T13:42:35.000Z</time>
      </trkpt>
      <trkpt lat="45.30859" lon="5.45598">
        <ele>674.40002441406</ele>
        <time>2024-03-01T13:42:36.000Z</time>
      </trkpt>
      <trkpt lat="45.30854" lon="5.45613">
        <ele>672.59997558594</ele>
        <time>2024-03-01T13:42:38.000Z</time>
      </trkpt>
      <trkpt lat="45.30853" lon="5.4562">
        <ele>672</ele>
        <time>2024-03-01T13:42:39.000Z</time>
      </trkpt>
      <trkpt lat="45.30853" lon="5.45628">
        <ele>671.79998779297</ele>
        <time>2024-03-01T13:42:40.000Z</time>
      </trkpt>
      <trkpt lat="45.30852" lon="5.45632">
        <ele>671.79998779297</ele>
        <time>2024-03-01T13:42:41.000Z</time>
      </trkpt>
      <trkpt lat="45.30852" lon="5.45638">
        <ele>671.79998779297</ele>
        <time>2024-03-01T13:42:42.000Z</time>
      </trkpt>
      <trkpt lat="45.30851" lon="5.45642">
        <ele>671.79998779297</ele>
        <time>2024-03-01T13:42:43.000Z</time>
      </trkpt>
      <trkpt lat="45.30852" lon="5.45648">
        <ele>671.79998779297</ele>
        <time>2024-03-01T13:42:44.000Z</time>
      </trkpt>
      <trkpt lat="45.30849" lon="5.45653">
        <ele>672</ele>
        <time>2024-03-01T13:42:45.000Z</time>
      </trkpt>
      <trkpt lat="45.30847" lon="5.4566">
        <ele>672</ele>
        <time>2024-03-01T13:42:46.000Z</time>
      </trkpt>
      <trkpt lat="45.30843" lon="5.45665">
        <ele>672</ele>
        <time>2024-03-01T13:42:47.000Z</time>
      </trkpt>
      <trkpt lat="45.30839" lon="5.45671">
        <ele>672</ele>
        <time>2024-03-01T13:42:48.000Z</time>
      </trkpt>
      <trkpt lat="45.30837" lon="5.45673">
        <ele>672.20001220703</ele>
        <time>2024-03-01T13:42:49.000Z</time>
      </trkpt>
      <trkpt lat="45.30835" lon="5.45674">
        <ele>672.40002441406</ele>
        <time>2024-03-01T13:42:50.000Z</time>
      </trkpt>
      <trkpt lat="45.30832" lon="5.45675">
        <ele>672.40002441406</ele>
        <time>2024-03-01T13:42:51.000Z</time>
      </trkpt>
      <trkpt lat="45.30826" lon="5.45679">
        <ele>672.79998779297</ele>
        <time>2024-03-01T13:42:53.000Z</time>
      </trkpt>
      <trkpt lat="45.30823" lon="5.4568">
        <ele>672.79998779297</ele>
        <time>2024-03-01T13:42:54.000Z</time>
      </trkpt>
      <trkpt lat="45.30817" lon="5.45678">
        <ele>673</ele>
        <time>2024-03-01T13:42:56.000Z</time>
      </trkpt>
      <trkpt lat="45.30815" lon="5.45676">
        <ele>673</ele>
        <time>2024-03-01T13:42:57.000Z</time>
      </trkpt>
      <trkpt lat="45.30813" lon="5.45673">
        <ele>673.20001220703</ele>
        <time>2024-03-01T13:42:58.000Z</time>
      </trkpt>
      <trkpt lat="45.30812" lon="5.4567">
        <ele>673.40002441406</ele>
        <time>2024-03-01T13:42:59.000Z</time>
      </trkpt>
      <trkpt lat="45.3081" lon="5.45668">
        <ele>673.40002441406</ele>
        <time>2024-03-01T13:43:00.000Z</time>
      </trkpt>
      <trkpt lat="45.30808" lon="5.45665">
        <ele>673.59997558594</ele>
        <time>2024-03-01T13:43:01.000Z</time>
      </trkpt>
      <trkpt lat="45.30806" lon="5.45663">
        <ele>673.59997558594</ele>
        <time>2024-03-01T13:43:02.000Z</time>
      </trkpt>
      <trkpt lat="45.30802" lon="5.45657">
        <ele>674</ele>
        <time>2024-03-01T13:43:04.000Z</time>
      </trkpt>
      <trkpt lat="45.308" lon="5.45653">
        <ele>674</ele>
        <time>2024-03-01T13:43:05.000Z</time>
      </trkpt>
      <trkpt lat="45.30794" lon="5.45644">
        <ele>674</ele>
        <time>2024-03-01T13:43:08.000Z</time>
      </trkpt>
      <trkpt lat="45.30793" lon="5.4564">
        <ele>674.20001220703</ele>
        <time>2024-03-01T13:43:09.000Z</time>
      </trkpt>
      <trkpt lat="45.30789" lon="5.45634">
        <ele>674.20001220703</ele>
        <time>2024-03-01T13:43:11.000Z</time>
      </trkpt>
      <trkpt lat="45.30787" lon="5.4563">
        <ele>674.20001220703</ele>
        <time>2024-03-01T13:43:12.000Z</time>
      </trkpt>
      <trkpt lat="45.30785" lon="5.45627">
        <ele>674.40002441406</ele>
        <time>2024-03-01T13:43:13.000Z</time>
      </trkpt>
      <trkpt lat="45.30779" lon="5.45615">
        <ele>674.40002441406</ele>
        <time>2024-03-01T13:43:16.000Z</time>
      </trkpt>
      <trkpt lat="45.30776" lon="5.45611">
        <ele>674.40002441406</ele>
        <time>2024-03-01T13:43:17.000Z</time>
      </trkpt>
      <trkpt lat="45.30774" lon="5.45608">
        <ele>674.40002441406</ele>
        <time>2024-03-01T13:43:18.000Z</time>
      </trkpt>
      <trkpt lat="45.3077" lon="5.456">
        <ele>674.59997558594</ele>
        <time>2024-03-01T13:43:20.000Z</time>
      </trkpt>
      <trkpt lat="45.30767" lon="5.45596">
        <ele>674.59997558594</ele>
        <time>2024-03-01T13:43:21.000Z</time>
      </trkpt>
      <trkpt lat="45.30761" lon="5.45584">
        <ele>674.79998779297</ele>
        <time>2024-03-01T13:43:24.000Z</time>
      </trkpt>
      <trkpt lat="45.30759" lon="5.45581">
        <ele>674.79998779297</ele>
        <time>2024-03-01T13:43:25.000Z</time>
      </trkpt>
      <trkpt lat="45.30755" lon="5.45573">
        <ele>675.20001220703</ele>
        <time>2024-03-01T13:43:27.000Z</time>
      </trkpt>
      <trkpt lat="45.30751" lon="5.45567">
        <ele>675.20001220703</ele>
        <time>2024-03-01T13:43:29.000Z</time>
      </trkpt>
      <trkpt lat="45.30749" lon="5.45563">
        <ele>675.59997558594</ele>
        <time>2024-03-01T13:43:30.000Z</time>
      </trkpt>
      <trkpt lat="45.30745" lon="5.45557">
        <ele>675.79998779297</ele>
        <time>2024-03-01T13:43:32.000Z</time>
      </trkpt>
      <trkpt lat="45.30743" lon="5.45553">
        <ele>675.79998779297</ele>
        <time>2024-03-01T13:43:33.000Z</time>
      </trkpt>
      <trkpt lat="45.30741" lon="5.4555">
        <ele>676</ele>
        <time>2024-03-01T13:43:34.000Z</time>
      </trkpt>
      <trkpt lat="45.30739" lon="5.45546">
        <ele>676</ele>
        <time>2024-03-01T13:43:35.000Z</time>
      </trkpt>
      <trkpt lat="45.30737" lon="5.45543">
        <ele>676.20001220703</ele>
        <time>2024-03-01T13:43:36.000Z</time>
      </trkpt>
      <trkpt lat="45.30734" lon="5.4554">
        <ele>676.20001220703</ele>
        <time>2024-03-01T13:43:37.000Z</time>
      </trkpt>
      <trkpt lat="45.30732" lon="5.45536">
        <ele>676.40002441406</ele>
        <time>2024-03-01T13:43:38.000Z</time>
      </trkpt>
      <trkpt lat="45.3073" lon="5.45534">
        <ele>676.59997558594</ele>
        <time>2024-03-01T13:43:39.000Z</time>
      </trkpt>
      <trkpt lat="45.30728" lon="5.45531">
        <ele>676.59997558594</ele>
        <time>2024-03-01T13:43:40.000Z</time>
      </trkpt>
      <trkpt lat="45.30725" lon="5.45529">
        <ele>676.79998779297</ele>
        <time>2024-03-01T13:43:41.000Z</time>
      </trkpt>
      <trkpt lat="45.30723" lon="5.45527">
        <ele>676.79998779297</ele>
        <time>2024-03-01T13:43:42.000Z</time>
      </trkpt>
      <trkpt lat="45.3072" lon="5.45527">
        <ele>676.79998779297</ele>
        <time>2024-03-01T13:43:43.000Z</time>
      </trkpt>
      <trkpt lat="45.30718" lon="5.45526">
        <ele>677</ele>
        <time>2024-03-01T13:43:44.000Z</time>
      </trkpt>
      <trkpt lat="45.30715" lon="5.45525">
        <ele>677.40002441406</ele>
        <time>2024-03-01T13:43:45.000Z</time>
      </trkpt>
      <trkpt lat="45.30713" lon="5.45525">
        <ele>677.79998779297</ele>
        <time>2024-03-01T13:43:46.000Z</time>
      </trkpt>
      <trkpt lat="45.30707" lon="5.45523">
        <ele>678.20001220703</ele>
        <time>2024-03-01T13:43:48.000Z</time>
      </trkpt>
      <trkpt lat="45.30705" lon="5.45523">
        <ele>678.20001220703</ele>
        <time>2024-03-01T13:43:49.000Z</time>
      </trkpt>
      <trkpt lat="45.30702" lon="5.45522">
        <ele>678.40002441406</ele>
        <time>2024-03-01T13:43:50.000Z</time>
      </trkpt>
      <trkpt lat="45.30681" lon="5.45522">
        <ele>680.20001220703</ele>
        <time>2024-03-01T13:43:57.000Z</time>
      </trkpt>
      <trkpt lat="45.30678" lon="5.45523">
        <ele>680.20001220703</ele>
        <time>2024-03-01T13:43:58.000Z</time>
      </trkpt>
      <trkpt lat="45.30676" lon="5.45524">
        <ele>680.40002441406</ele>
        <time>2024-03-01T13:43:59.000Z</time>
      </trkpt>
      <trkpt lat="45.30669" lon="5.45524">
        <ele>680.40002441406</ele>
        <time>2024-03-01T13:44:01.000Z</time>
      </trkpt>
      <trkpt lat="45.30653" lon="5.45528">
        <ele>680.59997558594</ele>
        <time>2024-03-01T13:44:05.000Z</time>
      </trkpt>
      <trkpt lat="45.30648" lon="5.45529">
        <ele>680.59997558594</ele>
        <time>2024-03-01T13:44:06.000Z</time>
      </trkpt>
      <trkpt lat="45.30644" lon="5.45531">
        <ele>680.40002441406</ele>
        <time>2024-03-01T13:44:07.000Z</time>
      </trkpt>
      <trkpt lat="45.30639" lon="5.45532">
        <ele>680.20001220703</ele>
        <time>2024-03-01T13:44:08.000Z</time>
      </trkpt>
      <trkpt lat="45.30634" lon="5.45534">
        <ele>680.20001220703</ele>
        <time>2024-03-01T13:44:09.000Z</time>
      </trkpt>
      <trkpt lat="45.30629" lon="5.45537">
        <ele>679.79998779297</ele>
        <time>2024-03-01T13:44:10.000Z</time>
      </trkpt>
      <trkpt lat="45.30624" lon="5.45538">
        <ele>679.79998779297</ele>
        <time>2024-03-01T13:44:11.000Z</time>
      </trkpt>
      <trkpt lat="45.30616" lon="5.4554">
        <ele>679.20001220703</ele>
        <time>2024-03-01T13:44:13.000Z</time>
      </trkpt>
      <trkpt lat="45.30612" lon="5.45539">
        <ele>679.20001220703</ele>
        <time>2024-03-01T13:44:14.000Z</time>
      </trkpt>
      <trkpt lat="45.30609" lon="5.45537">
        <ele>679</ele>
        <time>2024-03-01T13:44:15.000Z</time>
      </trkpt>
      <trkpt lat="45.30608" lon="5.45533">
        <ele>678.79998779297</ele>
        <time>2024-03-01T13:44:16.000Z</time>
      </trkpt>
      <trkpt lat="45.30608" lon="5.45524">
        <ele>678.40002441406</ele>
        <time>2024-03-01T13:44:18.000Z</time>
      </trkpt>
      <trkpt lat="45.30609" lon="5.4552">
        <ele>678</ele>
        <time>2024-03-01T13:44:19.000Z</time>
      </trkpt>
      <trkpt lat="45.30609" lon="5.45498">
        <ele>677</ele>
        <time>2024-03-01T13:44:24.000Z</time>
      </trkpt>
      <trkpt lat="45.3061" lon="5.45493">
        <ele>676.79998779297</ele>
        <time>2024-03-01T13:44:25.000Z</time>
      </trkpt>
      <trkpt lat="45.3061" lon="5.45488">
        <ele>676.79998779297</ele>
        <time>2024-03-01T13:44:26.000Z</time>
      </trkpt>
      <trkpt lat="45.30611" lon="5.45482">
        <ele>676.59997558594</ele>
        <time>2024-03-01T13:44:27.000Z</time>
      </trkpt>
      <trkpt lat="45.30614" lon="5.45467">
        <ele>676.59997558594</ele>
        <time>2024-03-01T13:44:30.000Z</time>
      </trkpt>
      <trkpt lat="45.30615" lon="5.45461">
        <ele>676.79998779297</ele>
        <time>2024-03-01T13:44:31.000Z</time>
      </trkpt>
      <trkpt lat="45.30617" lon="5.45451">
        <ele>676.79998779297</ele>
        <time>2024-03-01T13:44:33.000Z</time>
      </trkpt>
      <trkpt lat="45.30618" lon="5.45445">
        <ele>676.79998779297</ele>
        <time>2024-03-01T13:44:34.000Z</time>
      </trkpt>
      <trkpt lat="45.3062" lon="5.45435">
        <ele>676.79998779297</ele>
        <time>2024-03-01T13:44:36.000Z</time>
      </trkpt>
      <trkpt lat="45.30622" lon="5.45431">
        <ele>676.79998779297</ele>
        <time>2024-03-01T13:44:37.000Z</time>
      </trkpt>
      <trkpt lat="45.30625" lon="5.45416">
        <ele>677</ele>
        <time>2024-03-01T13:44:40.000Z</time>
      </trkpt>
      <trkpt lat="45.30626" lon="5.45412">
        <ele>677</ele>
        <time>2024-03-01T13:44:41.000Z</time>
      </trkpt>
      <trkpt lat="45.30627" lon="5.45407">
        <ele>677.20001220703</ele>
        <time>2024-03-01T13:44:42.000Z</time>
      </trkpt>
      <trkpt lat="45.30628" lon="5.45403">
        <ele>677.20001220703</ele>
        <time>2024-03-01T13:44:43.000Z</time>
      </trkpt>
      <trkpt lat="45.30628" lon="5.45399">
        <ele>677.40002441406</ele>
        <time>2024-03-01T13:44:44.000Z</time>
      </trkpt>
      <trkpt lat="45.30629" lon="5.45395">
        <ele>677.40002441406</ele>
        <time>2024-03-01T13:44:45.000Z</time>
      </trkpt>
      <trkpt lat="45.30629" lon="5.45379">
        <ele>678</ele>
        <time>2024-03-01T13:44:49.000Z</time>
      </trkpt>
      <trkpt lat="45.30628" lon="5.45376">
        <ele>678.20001220703</ele>
        <time>2024-03-01T13:44:50.000Z</time>
      </trkpt>
      <trkpt lat="45.30626" lon="5.45373">
        <ele>678.40002441406</ele>
        <time>2024-03-01T13:44:51.000Z</time>
      </trkpt>
      <trkpt lat="45.30625" lon="5.45369">
        <ele>678.59997558594</ele>
        <time>2024-03-01T13:44:52.000Z</time>
      </trkpt>
      <trkpt lat="45.30623" lon="5.45365">
        <ele>679</ele>
        <time>2024-03-01T13:44:53.000Z</time>
      </trkpt>
      <trkpt lat="45.3062" lon="5.45362">
        <ele>679.20001220703</ele>
        <time>2024-03-01T13:44:54.000Z</time>
      </trkpt>
      <trkpt lat="45.30618" lon="5.45359">
        <ele>679.40002441406</ele>
        <time>2024-03-01T13:44:55.000Z</time>
      </trkpt>
      <trkpt lat="45.30616" lon="5.45357">
        <ele>679.59997558594</ele>
        <time>2024-03-01T13:44:56.000Z</time>
      </trkpt>
      <trkpt lat="45.30614" lon="5.45354">
        <ele>679.79998779297</ele>
        <time>2024-03-01T13:44:57.000Z</time>
      </trkpt>
      <trkpt lat="45.30608" lon="5.45348">
        <ele>680.40002441406</ele>
        <time>2024-03-01T13:44:59.000Z</time>
      </trkpt>
      <trkpt lat="45.30605" lon="5.45346">
        <ele>680.79998779297</ele>
        <time>2024-03-01T13:45:00.000Z</time>
      </trkpt>
      <trkpt lat="45.30597" lon="5.45338">
        <ele>681.20001220703</ele>
        <time>2024-03-01T13:45:03.000Z</time>
      </trkpt>
      <trkpt lat="45.30594" lon="5.45336">
        <ele>681.20001220703</ele>
        <time>2024-03-01T13:45:04.000Z</time>
      </trkpt>
      <trkpt lat="45.30591" lon="5.45333">
        <ele>681.40002441406</ele>
        <time>2024-03-01T13:45:05.000Z</time>
      </trkpt>
      <trkpt lat="45.30588" lon="5.45331">
        <ele>681.40002441406</ele>
        <time>2024-03-01T13:45:06.000Z</time>
      </trkpt>
      <trkpt lat="45.30585" lon="5.45328">
        <ele>681.40002441406</ele>
        <time>2024-03-01T13:45:07.000Z</time>
      </trkpt>
      <trkpt lat="45.30581" lon="5.45325">
        <ele>681.40002441406</ele>
        <time>2024-03-01T13:45:08.000Z</time>
      </trkpt>
      <trkpt lat="45.30578" lon="5.45322">
        <ele>681.40002441406</ele>
        <time>2024-03-01T13:45:09.000Z</time>
      </trkpt>
      <trkpt lat="45.30575" lon="5.4532">
        <ele>681.40002441406</ele>
        <time>2024-03-01T13:45:10.000Z</time>
      </trkpt>
      <trkpt lat="45.30571" lon="5.45317">
        <ele>681.40002441406</ele>
        <time>2024-03-01T13:45:11.000Z</time>
      </trkpt>
      <trkpt lat="45.30568" lon="5.45315">
        <ele>681.59997558594</ele>
        <time>2024-03-01T13:45:12.000Z</time>
      </trkpt>
      <trkpt lat="45.30565" lon="5.45312">
        <ele>681.59997558594</ele>
        <time>2024-03-01T13:45:13.000Z</time>
      </trkpt>
      <trkpt lat="45.30561" lon="5.4531">
        <ele>681.79998779297</ele>
        <time>2024-03-01T13:45:14.000Z</time>
      </trkpt>
      <trkpt lat="45.30558" lon="5.45308">
        <ele>681.79998779297</ele>
        <time>2024-03-01T13:45:15.000Z</time>
      </trkpt>
      <trkpt lat="45.30554" lon="5.45305">
        <ele>681.79998779297</ele>
        <time>2024-03-01T13:45:16.000Z</time>
      </trkpt>
      <trkpt lat="45.30551" lon="5.45303">
        <ele>682</ele>
        <time>2024-03-01T13:45:17.000Z</time>
      </trkpt>
      <trkpt lat="45.30547" lon="5.453">
        <ele>682</ele>
        <time>2024-03-01T13:45:18.000Z</time>
      </trkpt>
      <trkpt lat="45.30544" lon="5.45298">
        <ele>682.20001220703</ele>
        <time>2024-03-01T13:45:19.000Z</time>
      </trkpt>
      <trkpt lat="45.3054" lon="5.45295">
        <ele>682.20001220703</ele>
        <time>2024-03-01T13:45:20.000Z</time>
      </trkpt>
      <trkpt lat="45.30537" lon="5.45293">
        <ele>682.40002441406</ele>
        <time>2024-03-01T13:45:21.000Z</time>
      </trkpt>
      <trkpt lat="45.30534" lon="5.4529">
        <ele>682.40002441406</ele>
        <time>2024-03-01T13:45:22.000Z</time>
      </trkpt>
      <trkpt lat="45.3053" lon="5.45287">
        <ele>682.40002441406</ele>
        <time>2024-03-01T13:45:23.000Z</time>
      </trkpt>
      <trkpt lat="45.30526" lon="5.45285">
        <ele>682.40002441406</ele>
        <time>2024-03-01T13:45:24.000Z</time>
      </trkpt>
      <trkpt lat="45.30523" lon="5.45283">
        <ele>682.40002441406</ele>
        <time>2024-03-01T13:45:25.000Z</time>
      </trkpt>
      <trkpt lat="45.30515" lon="5.45279">
        <ele>682.40002441406</ele>
        <time>2024-03-01T13:45:27.000Z</time>
      </trkpt>
      <trkpt lat="45.30512" lon="5.45278">
        <ele>682.40002441406</ele>
        <time>2024-03-01T13:45:28.000Z</time>
      </trkpt>
      <trkpt lat="45.30508" lon="5.45275">
        <ele>682.20001220703</ele>
        <time>2024-03-01T13:45:29.000Z</time>
      </trkpt>
      <trkpt lat="45.30505" lon="5.45272">
        <ele>682.20001220703</ele>
        <time>2024-03-01T13:45:30.000Z</time>
      </trkpt>
      <trkpt lat="45.30502" lon="5.4527">
        <ele>682.20001220703</ele>
        <time>2024-03-01T13:45:31.000Z</time>
      </trkpt>
      <trkpt lat="45.30499" lon="5.45267">
        <ele>682.40002441406</ele>
        <time>2024-03-01T13:45:32.000Z</time>
      </trkpt>
      <trkpt lat="45.30495" lon="5.45265">
        <ele>682.40002441406</ele>
        <time>2024-03-01T13:45:33.000Z</time>
      </trkpt>
      <trkpt lat="45.30492" lon="5.45262">
        <ele>682.59997558594</ele>
        <time>2024-03-01T13:45:34.000Z</time>
      </trkpt>
      <trkpt lat="45.30489" lon="5.4526">
        <ele>682.79998779297</ele>
        <time>2024-03-01T13:45:35.000Z</time>
      </trkpt>
      <trkpt lat="45.30486" lon="5.45257">
        <ele>682.79998779297</ele>
        <time>2024-03-01T13:45:36.000Z</time>
      </trkpt>
      <trkpt lat="45.30483" lon="5.45255">
        <ele>682.79998779297</ele>
        <time>2024-03-01T13:45:37.000Z</time>
      </trkpt>
      <trkpt lat="45.30481" lon="5.45252">
        <ele>683</ele>
        <time>2024-03-01T13:45:38.000Z</time>
      </trkpt>
      <trkpt lat="45.30479" lon="5.45248">
        <ele>683</ele>
        <time>2024-03-01T13:45:39.000Z</time>
      </trkpt>
      <trkpt lat="45.30478" lon="5.45244">
        <ele>683.20001220703</ele>
        <time>2024-03-01T13:45:40.000Z</time>
      </trkpt>
      <trkpt lat="45.30477" lon="5.45241">
        <ele>683.40002441406</ele>
        <time>2024-03-01T13:45:41.000Z</time>
      </trkpt>
      <trkpt lat="45.30475" lon="5.45237">
        <ele>683.59997558594</ele>
        <time>2024-03-01T13:45:42.000Z</time>
      </trkpt>
      <trkpt lat="45.30471" lon="5.45221">
        <ele>683.59997558594</ele>
        <time>2024-03-01T13:45:46.000Z</time>
      </trkpt>
      <trkpt lat="45.30471" lon="5.45207">
        <ele>683.59997558594</ele>
        <time>2024-03-01T13:45:49.000Z</time>
      </trkpt>
      <trkpt lat="45.30473" lon="5.45199">
        <ele>683.59997558594</ele>
        <time>2024-03-01T13:45:51.000Z</time>
      </trkpt>
      <trkpt lat="45.30473" lon="5.45195">
        <ele>683.59997558594</ele>
        <time>2024-03-01T13:45:52.000Z</time>
      </trkpt>
      <trkpt lat="45.30474" lon="5.4519">
        <ele>683.59997558594</ele>
        <time>2024-03-01T13:45:53.000Z</time>
      </trkpt>
      <trkpt lat="45.30476" lon="5.45186">
        <ele>683.79998779297</ele>
        <time>2024-03-01T13:45:54.000Z</time>
      </trkpt>
      <trkpt lat="45.30477" lon="5.45182">
        <ele>683.79998779297</ele>
        <time>2024-03-01T13:45:55.000Z</time>
      </trkpt>
      <trkpt lat="45.30479" lon="5.45177">
        <ele>684</ele>
        <time>2024-03-01T13:45:56.000Z</time>
      </trkpt>
      <trkpt lat="45.30481" lon="5.45173">
        <ele>684</ele>
        <time>2024-03-01T13:45:57.000Z</time>
      </trkpt>
      <trkpt lat="45.30482" lon="5.45169">
        <ele>684</ele>
        <time>2024-03-01T13:45:58.000Z</time>
      </trkpt>
      <trkpt lat="45.30482" lon="5.45165">
        <ele>684</ele>
        <time>2024-03-01T13:45:59.000Z</time>
      </trkpt>
      <trkpt lat="45.30483" lon="5.45161">
        <ele>684.20001220703</ele>
        <time>2024-03-01T13:46:00.000Z</time>
      </trkpt>
      <trkpt lat="45.30484" lon="5.45158">
        <ele>684.40002441406</ele>
        <time>2024-03-01T13:46:01.000Z</time>
      </trkpt>
      <trkpt lat="45.30485" lon="5.45154">
        <ele>684.40002441406</ele>
        <time>2024-03-01T13:46:02.000Z</time>
      </trkpt>
      <trkpt lat="45.30486" lon="5.45151">
        <ele>684.40002441406</ele>
        <time>2024-03-01T13:46:03.000Z</time>
      </trkpt>
      <trkpt lat="45.30487" lon="5.45147">
        <ele>684.59997558594</ele>
        <time>2024-03-01T13:46:04.000Z</time>
      </trkpt>
      <trkpt lat="45.30488" lon="5.45144">
        <ele>684.79998779297</ele>
        <time>2024-03-01T13:46:05.000Z</time>
      </trkpt>
      <trkpt lat="45.30488" lon="5.45142">
        <ele>685.20001220703</ele>
        <time>2024-03-01T13:46:06.000Z</time>
      </trkpt>
      <trkpt lat="45.30489" lon="5.45139">
        <ele>685.79998779297</ele>
        <time>2024-03-01T13:46:07.000Z</time>
      </trkpt>
      <trkpt lat="45.30489" lon="5.45108">
        <ele>688</ele>
        <time>2024-03-01T13:46:17.000Z</time>
      </trkpt>
      <trkpt lat="45.30488" lon="5.45105">
        <ele>688.40002441406</ele>
        <time>2024-03-01T13:46:18.000Z</time>
      </trkpt>
      <trkpt lat="45.30488" lon="5.45102">
        <ele>688.59997558594</ele>
        <time>2024-03-01T13:46:19.000Z</time>
      </trkpt>
      <trkpt lat="45.30487" lon="5.451">
        <ele>688.59997558594</ele>
        <time>2024-03-01T13:46:20.000Z</time>
      </trkpt>
      <trkpt lat="45.30485" lon="5.45094">
        <ele>689.20001220703</ele>
        <time>2024-03-01T13:46:22.000Z</time>
      </trkpt>
      <trkpt lat="45.30484" lon="5.45092">
        <ele>689.40002441406</ele>
        <time>2024-03-01T13:46:23.000Z</time>
      </trkpt>
      <trkpt lat="45.30483" lon="5.45089">
        <ele>689.40002441406</ele>
        <time>2024-03-01T13:46:24.000Z</time>
      </trkpt>
      <trkpt lat="45.30481" lon="5.45085">
        <ele>689.59997558594</ele>
        <time>2024-03-01T13:46:26.000Z</time>
      </trkpt>
      <trkpt lat="45.30481" lon="5.45082">
        <ele>689.59997558594</ele>
        <time>2024-03-01T13:46:27.000Z</time>
      </trkpt>
      <trkpt lat="45.3048" lon="5.45079">
        <ele>690</ele>
        <time>2024-03-01T13:46:28.000Z</time>
      </trkpt>
      <trkpt lat="45.30477" lon="5.45067">
        <ele>690.59997558594</ele>
        <time>2024-03-01T13:46:31.000Z</time>
      </trkpt>
      <trkpt lat="45.30475" lon="5.45061">
        <ele>690.59997558594</ele>
        <time>2024-03-01T13:46:32.000Z</time>
      </trkpt>
      <trkpt lat="45.30472" lon="5.45055">
        <ele>690.59997558594</ele>
        <time>2024-03-01T13:46:33.000Z</time>
      </trkpt>
      <trkpt lat="45.30469" lon="5.4505">
        <ele>690.79998779297</ele>
        <time>2024-03-01T13:46:34.000Z</time>
      </trkpt>
      <trkpt lat="45.30467" lon="5.45044">
        <ele>690.79998779297</ele>
        <time>2024-03-01T13:46:35.000Z</time>
      </trkpt>
      <trkpt lat="45.30464" lon="5.45037">
        <ele>690.79998779297</ele>
        <time>2024-03-01T13:46:36.000Z</time>
      </trkpt>
      <trkpt lat="45.30461" lon="5.45031">
        <ele>690.79998779297</ele>
        <time>2024-03-01T13:46:37.000Z</time>
      </trkpt>
      <trkpt lat="45.30459" lon="5.45026">
        <ele>690.79998779297</ele>
        <time>2024-03-01T13:46:38.000Z</time>
      </trkpt>
      <trkpt lat="45.30456" lon="5.45021">
        <ele>690.79998779297</ele>
        <time>2024-03-01T13:46:39.000Z</time>
      </trkpt>
      <trkpt lat="45.30454" lon="5.45016">
        <ele>690.79998779297</ele>
        <time>2024-03-01T13:46:40.000Z</time>
      </trkpt>
      <trkpt lat="45.30451" lon="5.45011">
        <ele>690.79998779297</ele>
        <time>2024-03-01T13:46:41.000Z</time>
      </trkpt>
      <trkpt lat="45.30447" lon="5.45001">
        <ele>690.79998779297</ele>
        <time>2024-03-01T13:46:43.000Z</time>
      </trkpt>
      <trkpt lat="45.30444" lon="5.44996">
        <ele>690.59997558594</ele>
        <time>2024-03-01T13:46:44.000Z</time>
      </trkpt>
      <trkpt lat="45.30442" lon="5.44992">
        <ele>690.59997558594</ele>
        <time>2024-03-01T13:46:45.000Z</time>
      </trkpt>
      <trkpt lat="45.30438" lon="5.44982">
        <ele>690.59997558594</ele>
        <time>2024-03-01T13:46:47.000Z</time>
      </trkpt>
      <trkpt lat="45.30435" lon="5.44977">
        <ele>690.59997558594</ele>
        <time>2024-03-01T13:46:48.000Z</time>
      </trkpt>
      <trkpt lat="45.30433" lon="5.44972">
        <ele>690.40002441406</ele>
        <time>2024-03-01T13:46:49.000Z</time>
      </trkpt>
      <trkpt lat="45.3043" lon="5.44967">
        <ele>690.40002441406</ele>
        <time>2024-03-01T13:46:50.000Z</time>
      </trkpt>
      <trkpt lat="45.30428" lon="5.44963">
        <ele>690.20001220703</ele>
        <time>2024-03-01T13:46:51.000Z</time>
      </trkpt>
      <trkpt lat="45.30424" lon="5.44953">
        <ele>690.20001220703</ele>
        <time>2024-03-01T13:46:53.000Z</time>
      </trkpt>
      <trkpt lat="45.30422" lon="5.44949">
        <ele>690.20001220703</ele>
        <time>2024-03-01T13:46:54.000Z</time>
      </trkpt>
      <trkpt lat="45.3042" lon="5.44944">
        <ele>690.20001220703</ele>
        <time>2024-03-01T13:46:55.000Z</time>
      </trkpt>
      <trkpt lat="45.30419" lon="5.44941">
        <ele>690.40002441406</ele>
        <time>2024-03-01T13:46:56.000Z</time>
      </trkpt>
      <trkpt lat="45.30417" lon="5.44937">
        <ele>690.79998779297</ele>
        <time>2024-03-01T13:46:57.000Z</time>
      </trkpt>
      <trkpt lat="45.30416" lon="5.44934">
        <ele>690.79998779297</ele>
        <time>2024-03-01T13:46:58.000Z</time>
      </trkpt>
      <trkpt lat="45.30412" lon="5.44928">
        <ele>691</ele>
        <time>2024-03-01T13:47:00.000Z</time>
      </trkpt>
      <trkpt lat="45.30411" lon="5.44925">
        <ele>691.20001220703</ele>
        <time>2024-03-01T13:47:01.000Z</time>
      </trkpt>
      <trkpt lat="45.30409" lon="5.44922">
        <ele>691.40002441406</ele>
        <time>2024-03-01T13:47:02.000Z</time>
      </trkpt>
      <trkpt lat="45.30407" lon="5.44916">
        <ele>691.59997558594</ele>
        <time>2024-03-01T13:47:04.000Z</time>
      </trkpt>
      <trkpt lat="45.30405" lon="5.44912">
        <ele>691.79998779297</ele>
        <time>2024-03-01T13:47:05.000Z</time>
      </trkpt>
      <trkpt lat="45.30403" lon="5.44909">
        <ele>692</ele>
        <time>2024-03-01T13:47:06.000Z</time>
      </trkpt>
      <trkpt lat="45.30402" lon="5.44906">
        <ele>692.20001220703</ele>
        <time>2024-03-01T13:47:07.000Z</time>
      </trkpt>
      <trkpt lat="45.304" lon="5.44903">
        <ele>692.79998779297</ele>
        <time>2024-03-01T13:47:08.000Z</time>
      </trkpt>
      <trkpt lat="45.30399" lon="5.449">
        <ele>693.20001220703</ele>
        <time>2024-03-01T13:47:09.000Z</time>
      </trkpt>
      <trkpt lat="45.30397" lon="5.44896">
        <ele>693.40002441406</ele>
        <time>2024-03-01T13:47:10.000Z</time>
      </trkpt>
      <trkpt lat="45.30394" lon="5.44887">
        <ele>694</ele>
        <time>2024-03-01T13:47:13.000Z</time>
      </trkpt>
      <trkpt lat="45.30392" lon="5.44885">
        <ele>694</ele>
        <time>2024-03-01T13:47:14.000Z</time>
      </trkpt>
      <trkpt lat="45.30391" lon="5.44882">
        <ele>694.20001220703</ele>
        <time>2024-03-01T13:47:15.000Z</time>
      </trkpt>
      <trkpt lat="45.30389" lon="5.44879">
        <ele>695</ele>
        <time>2024-03-01T13:47:16.000Z</time>
      </trkpt>
      <trkpt lat="45.30388" lon="5.44876">
        <ele>695.20001220703</ele>
        <time>2024-03-01T13:47:17.000Z</time>
      </trkpt>
      <trkpt lat="45.30388" lon="5.44871">
        <ele>695.79998779297</ele>
        <time>2024-03-01T13:47:19.000Z</time>
      </trkpt>
      <trkpt lat="45.30389" lon="5.44869">
        <ele>696.20001220703</ele>
        <time>2024-03-01T13:47:20.000Z</time>
      </trkpt>
      <trkpt lat="45.30389" lon="5.44868">
        <ele>697.20001220703</ele>
        <time>2024-03-01T13:47:22.000Z</time>
      </trkpt>
      <trkpt lat="45.3039" lon="5.44865">
        <ele>697.59997558594</ele>
        <time>2024-03-01T13:49:49.000Z</time>
      </trkpt>
      <trkpt lat="45.30391" lon="5.44863">
        <ele>697.59997558594</ele>
        <time>2024-03-01T13:49:50.000Z</time>
      </trkpt>
      <trkpt lat="45.30392" lon="5.4486">
        <ele>697.59997558594</ele>
        <time>2024-03-01T13:49:51.000Z</time>
      </trkpt>
      <trkpt lat="45.30394" lon="5.44857">
        <ele>697.59997558594</ele>
        <time>2024-03-01T13:49:52.000Z</time>
      </trkpt>
      <trkpt lat="45.30402" lon="5.44847">
        <ele>697.59997558594</ele>
        <time>2024-03-01T13:49:54.000Z</time>
      </trkpt>
      <trkpt lat="45.30406" lon="5.44841">
        <ele>697.59997558594</ele>
        <time>2024-03-01T13:49:55.000Z</time>
      </trkpt>
      <trkpt lat="45.30411" lon="5.44835">
        <ele>697.59997558594</ele>
        <time>2024-03-01T13:49:56.000Z</time>
      </trkpt>
      <trkpt lat="45.30417" lon="5.44829">
        <ele>697.59997558594</ele>
        <time>2024-03-01T13:49:57.000Z</time>
      </trkpt>
      <trkpt lat="45.30422" lon="5.44822">
        <ele>697.59997558594</ele>
        <time>2024-03-01T13:49:58.000Z</time>
      </trkpt>
      <trkpt lat="45.30427" lon="5.44816">
        <ele>697.40002441406</ele>
        <time>2024-03-01T13:49:59.000Z</time>
      </trkpt>
      <trkpt lat="45.30433" lon="5.4481">
        <ele>696.79998779297</ele>
        <time>2024-03-01T13:50:00.000Z</time>
      </trkpt>
      <trkpt lat="45.30438" lon="5.44804">
        <ele>696.40002441406</ele>
        <time>2024-03-01T13:50:01.000Z</time>
      </trkpt>
      <trkpt lat="45.30442" lon="5.44798">
        <ele>695.20001220703</ele>
        <time>2024-03-01T13:50:02.000Z</time>
      </trkpt>
      <trkpt lat="45.30446" lon="5.44793">
        <ele>694.79998779297</ele>
        <time>2024-03-01T13:50:03.000Z</time>
      </trkpt>
      <trkpt lat="45.3045" lon="5.44789">
        <ele>694.20001220703</ele>
        <time>2024-03-01T13:50:04.000Z</time>
      </trkpt>
      <trkpt lat="45.30453" lon="5.44785">
        <ele>693.79998779297</ele>
        <time>2024-03-01T13:50:05.000Z</time>
      </trkpt>
      <trkpt lat="45.30456" lon="5.44782">
        <ele>693.79998779297</ele>
        <time>2024-03-01T13:50:06.000Z</time>
      </trkpt>
      <trkpt lat="45.30458" lon="5.44779">
        <ele>693.59997558594</ele>
        <time>2024-03-01T13:50:07.000Z</time>
      </trkpt>
      <trkpt lat="45.3046" lon="5.44777">
        <ele>693.40002441406</ele>
        <time>2024-03-01T13:50:08.000Z</time>
      </trkpt>
      <trkpt lat="45.30461" lon="5.44775">
        <ele>693.40002441406</ele>
        <time>2024-03-01T13:50:09.000Z</time>
      </trkpt>
      <trkpt lat="45.30463" lon="5.44773">
        <ele>693.59997558594</ele>
        <time>2024-03-01T13:50:10.000Z</time>
      </trkpt>
      <trkpt lat="45.30465" lon="5.44772">
        <ele>693.59997558594</ele>
        <time>2024-03-01T13:50:11.000Z</time>
      </trkpt>
      <trkpt lat="45.30466" lon="5.4477">
        <ele>693.79998779297</ele>
        <time>2024-03-01T13:50:12.000Z</time>
      </trkpt>
      <trkpt lat="45.30468" lon="5.44769">
        <ele>693.79998779297</ele>
        <time>2024-03-01T13:50:13.000Z</time>
      </trkpt>
      <trkpt lat="45.30472" lon="5.44765">
        <ele>694.40002441406</ele>
        <time>2024-03-01T13:50:16.000Z</time>
      </trkpt>
      <trkpt lat="45.30478" lon="5.44762">
        <ele>695.20001220703</ele>
        <time>2024-03-01T13:50:19.000Z</time>
      </trkpt>
      <trkpt lat="45.3048" lon="5.4476">
        <ele>695.40002441406</ele>
        <time>2024-03-01T13:50:20.000Z</time>
      </trkpt>
      <trkpt lat="45.30484" lon="5.44758">
        <ele>696.20001220703</ele>
        <time>2024-03-01T13:50:22.000Z</time>
      </trkpt>
      <trkpt lat="45.30488" lon="5.44754">
        <ele>696.59997558594</ele>
        <time>2024-03-01T13:50:24.000Z</time>
      </trkpt>
      <trkpt lat="45.3049" lon="5.44753">
        <ele>696.59997558594</ele>
        <time>2024-03-01T13:50:25.000Z</time>
      </trkpt>
      <trkpt lat="45.30494" lon="5.44749">
        <ele>696.79998779297</ele>
        <time>2024-03-01T13:50:27.000Z</time>
      </trkpt>
      <trkpt lat="45.30495" lon="5.44746">
        <ele>697</ele>
        <time>2024-03-01T13:50:28.000Z</time>
      </trkpt>
      <trkpt lat="45.30497" lon="5.44744">
        <ele>697.20001220703</ele>
        <time>2024-03-01T13:50:29.000Z</time>
      </trkpt>
      <trkpt lat="45.30499" lon="5.4474">
        <ele>697.40002441406</ele>
        <time>2024-03-01T13:50:31.000Z</time>
      </trkpt>
      <trkpt lat="45.30499" lon="5.44737">
        <ele>697.59997558594</ele>
        <time>2024-03-01T13:50:32.000Z</time>
      </trkpt>
      <trkpt lat="45.30498" lon="5.44734">
        <ele>697.59997558594</ele>
        <time>2024-03-01T13:50:33.000Z</time>
      </trkpt>
      <trkpt lat="45.30497" lon="5.44732">
        <ele>697.59997558594</ele>
        <time>2024-03-01T13:50:34.000Z</time>
      </trkpt>
      <trkpt lat="45.30495" lon="5.44731">
        <ele>697.59997558594</ele>
        <time>2024-03-01T13:50:35.000Z</time>
      </trkpt>
      <trkpt lat="45.30491" lon="5.44731">
        <ele>697.79998779297</ele>
        <time>2024-03-01T13:50:37.000Z</time>
      </trkpt>
      <trkpt lat="45.30489" lon="5.44733">
        <ele>698</ele>
        <time>2024-03-01T13:50:38.000Z</time>
      </trkpt>
      <trkpt lat="45.30487" lon="5.44734">
        <ele>698.20001220703</ele>
        <time>2024-03-01T13:50:39.000Z</time>
      </trkpt>
      <trkpt lat="45.30485" lon="5.44734">
        <ele>698.40002441406</ele>
        <time>2024-03-01T13:50:40.000Z</time>
      </trkpt>
      <trkpt lat="45.30484" lon="5.44735">
        <ele>698.59997558594</ele>
        <time>2024-03-01T13:50:41.000Z</time>
      </trkpt>
      <trkpt lat="45.30483" lon="5.44737">
        <ele>698.59997558594</ele>
        <time>2024-03-01T13:50:42.000Z</time>
      </trkpt>
      <trkpt lat="45.30481" lon="5.44738">
        <ele>699</ele>
        <time>2024-03-01T13:50:43.000Z</time>
      </trkpt>
      <trkpt lat="45.3048" lon="5.44739">
        <ele>699.20001220703</ele>
        <time>2024-03-01T13:50:44.000Z</time>
      </trkpt>
      <trkpt lat="45.30479" lon="5.44739">
        <ele>699.40002441406</ele>
        <time>2024-03-01T13:50:45.000Z</time>
      </trkpt>
      <trkpt lat="45.30477" lon="5.4474">
        <ele>699.59997558594</ele>
        <time>2024-03-01T13:50:46.000Z</time>
      </trkpt>
      <trkpt lat="45.30476" lon="5.44741">
        <ele>700</ele>
        <time>2024-03-01T13:50:47.000Z</time>
      </trkpt>
      <trkpt lat="45.30474" lon="5.44741">
        <ele>700.20001220703</ele>
        <time>2024-03-01T13:50:48.000Z</time>
      </trkpt>
      <trkpt lat="45.30473" lon="5.44742">
        <ele>700.40002441406</ele>
        <time>2024-03-01T13:50:49.000Z</time>
      </trkpt>
      <trkpt lat="45.30469" lon="5.44742">
        <ele>700.59997558594</ele>
        <time>2024-03-01T13:50:51.000Z</time>
      </trkpt>
      <trkpt lat="45.30468" lon="5.44743">
        <ele>700.79998779297</ele>
        <time>2024-03-01T13:50:52.000Z</time>
      </trkpt>
      <trkpt lat="45.30452" lon="5.44743">
        <ele>703.20001220703</ele>
        <time>2024-03-01T13:51:02.000Z</time>
      </trkpt>
      <trkpt lat="45.3045" lon="5.44742">
        <ele>703.40002441406</ele>
        <time>2024-03-01T13:51:03.000Z</time>
      </trkpt>
      <trkpt lat="45.30447" lon="5.44742">
        <ele>703.59997558594</ele>
        <time>2024-03-01T13:51:05.000Z</time>
      </trkpt>
      <trkpt lat="45.30445" lon="5.44741">
        <ele>704.20001220703</ele>
        <time>2024-03-01T13:51:06.000Z</time>
      </trkpt>
      <trkpt lat="45.30444" lon="5.44741">
        <ele>704.59997558594</ele>
        <time>2024-03-01T13:51:07.000Z</time>
      </trkpt>
      <trkpt lat="45.30442" lon="5.4474">
        <ele>704.59997558594</ele>
        <time>2024-03-01T13:51:08.000Z</time>
      </trkpt>
      <trkpt lat="45.30441" lon="5.44739">
        <ele>705</ele>
        <time>2024-03-01T13:51:09.000Z</time>
      </trkpt>
      <trkpt lat="45.3044" lon="5.44739">
        <ele>705.40002441406</ele>
        <time>2024-03-01T13:51:10.000Z</time>
      </trkpt>
      <trkpt lat="45.30436" lon="5.44737">
        <ele>706</ele>
        <time>2024-03-01T13:51:12.000Z</time>
      </trkpt>
      <trkpt lat="45.30435" lon="5.44736">
        <ele>706</ele>
        <time>2024-03-01T13:51:13.000Z</time>
      </trkpt>
      <trkpt lat="45.30434" lon="5.44736">
        <ele>706.40002441406</ele>
        <time>2024-03-01T13:51:14.000Z</time>
      </trkpt>
      <trkpt lat="45.30432" lon="5.44735">
        <ele>706.40002441406</ele>
        <time>2024-03-01T13:51:15.000Z</time>
      </trkpt>
      <trkpt lat="45.30432" lon="5.44734">
        <ele>706.79998779297</ele>
        <time>2024-03-01T13:51:16.000Z</time>
      </trkpt>
      <trkpt lat="45.3043" lon="5.44732">
        <ele>707.59997558594</ele>
        <time>2024-03-01T13:51:18.000Z</time>
      </trkpt>
      <trkpt lat="45.30428" lon="5.44731">
        <ele>708</ele>
        <time>2024-03-01T13:51:19.000Z</time>
      </trkpt>
      <trkpt lat="45.30427" lon="5.44731">
        <ele>708</ele>
        <time>2024-03-01T13:51:20.000Z</time>
      </trkpt>
      <trkpt lat="45.30423" lon="5.44727">
        <ele>709</ele>
        <time>2024-03-01T13:51:24.000Z</time>
      </trkpt>
      <trkpt lat="45.30421" lon="5.44726">
        <ele>709.20001220703</ele>
        <time>2024-03-01T13:51:25.000Z</time>
      </trkpt>
      <trkpt lat="45.30417" lon="5.44722">
        <ele>709.79998779297</ele>
        <time>2024-03-01T13:51:29.000Z</time>
      </trkpt>
      <trkpt lat="45.30415" lon="5.44721">
        <ele>710</ele>
        <time>2024-03-01T13:51:30.000Z</time>
      </trkpt>
      <trkpt lat="45.30414" lon="5.44721">
        <ele>710.40002441406</ele>
        <time>2024-03-01T13:51:31.000Z</time>
      </trkpt>
      <trkpt lat="45.30413" lon="5.4472">
        <ele>710.40002441406</ele>
        <time>2024-03-01T13:51:32.000Z</time>
      </trkpt>
      <trkpt lat="45.30412" lon="5.4472">
        <ele>710.59997558594</ele>
        <time>2024-03-01T13:51:33.000Z</time>
      </trkpt>
      <trkpt lat="45.3041" lon="5.44718">
        <ele>711.20001220703</ele>
        <time>2024-03-01T13:51:35.000Z</time>
      </trkpt>
      <trkpt lat="45.30408" lon="5.44717">
        <ele>711.40002441406</ele>
        <time>2024-03-01T13:51:36.000Z</time>
      </trkpt>
      <trkpt lat="45.30407" lon="5.44717">
        <ele>711.79998779297</ele>
        <time>2024-03-01T13:51:37.000Z</time>
      </trkpt>
      <trkpt lat="45.30406" lon="5.44716">
        <ele>712</ele>
        <time>2024-03-01T13:51:38.000Z</time>
      </trkpt>
      <trkpt lat="45.30404" lon="5.44716">
        <ele>712</ele>
        <time>2024-03-01T13:51:39.000Z</time>
      </trkpt>
      <trkpt lat="45.30402" lon="5.44714">
        <ele>712.40002441406</ele>
        <time>2024-03-01T13:51:41.000Z</time>
      </trkpt>
      <trkpt lat="45.30401" lon="5.44714">
        <ele>712.59997558594</ele>
        <time>2024-03-01T13:51:42.000Z</time>
      </trkpt>
      <trkpt lat="45.30399" lon="5.44712">
        <ele>713</ele>
        <time>2024-03-01T13:51:44.000Z</time>
      </trkpt>
      <trkpt lat="45.30398" lon="5.44712">
        <ele>713.20001220703</ele>
        <time>2024-03-01T13:51:45.000Z</time>
      </trkpt>
      <trkpt lat="45.30397" lon="5.44711">
        <ele>713.40002441406</ele>
        <time>2024-03-01T13:51:46.000Z</time>
      </trkpt>
      <trkpt lat="45.30391" lon="5.44711">
        <ele>714.20001220703</ele>
        <time>2024-03-01T13:51:50.000Z</time>
      </trkpt>
      <trkpt lat="45.30389" lon="5.4471">
        <ele>714.20001220703</ele>
        <time>2024-03-01T13:51:51.000Z</time>
      </trkpt>
      <trkpt lat="45.30388" lon="5.4471">
        <ele>714.59997558594</ele>
        <time>2024-03-01T13:51:52.000Z</time>
      </trkpt>
      <trkpt lat="45.30387" lon="5.44709">
        <ele>714.79998779297</ele>
        <time>2024-03-01T13:51:53.000Z</time>
      </trkpt>
      <trkpt lat="45.30364" lon="5.44709">
        <ele>717.79998779297</ele>
        <time>2024-03-01T13:52:06.000Z</time>
      </trkpt>
      <trkpt lat="45.30363" lon="5.44708">
        <ele>718</ele>
        <time>2024-03-01T13:52:07.000Z</time>
      </trkpt>
      <trkpt lat="45.30361" lon="5.44709">
        <ele>718.20001220703</ele>
        <time>2024-03-01T13:52:08.000Z</time>
      </trkpt>
      <trkpt lat="45.30357" lon="5.44709">
        <ele>718.59997558594</ele>
        <time>2024-03-01T13:52:10.000Z</time>
      </trkpt>
      <trkpt lat="45.30355" lon="5.44708">
        <ele>719.20001220703</ele>
        <time>2024-03-01T13:52:12.000Z</time>
      </trkpt>
      <trkpt lat="45.30353" lon="5.44709">
        <ele>719.59997558594</ele>
        <time>2024-03-01T13:52:14.000Z</time>
      </trkpt>
      <trkpt lat="45.30352" lon="5.44708">
        <ele>719.79998779297</ele>
        <time>2024-03-01T13:52:15.000Z</time>
      </trkpt>
      <trkpt lat="45.30349" lon="5.44708">
        <ele>720</ele>
        <time>2024-03-01T13:52:17.000Z</time>
      </trkpt>
      <trkpt lat="45.30348" lon="5.44707">
        <ele>720.40002441406</ele>
        <time>2024-03-01T13:52:18.000Z</time>
      </trkpt>
      <trkpt lat="45.30348" lon="5.44708">
        <ele>720.40002441406</ele>
        <time>2024-03-01T13:52:19.000Z</time>
      </trkpt>
      <trkpt lat="45.30347" lon="5.44708">
        <ele>720.59997558594</ele>
        <time>2024-03-01T13:52:20.000Z</time>
      </trkpt>
      <trkpt lat="45.30345" lon="5.44707">
        <ele>720.79998779297</ele>
        <time>2024-03-01T13:52:21.000Z</time>
      </trkpt>
      <trkpt lat="45.30337" lon="5.44707">
        <ele>722.20001220703</ele>
        <time>2024-03-01T13:52:28.000Z</time>
      </trkpt>
      <trkpt lat="45.30336" lon="5.44708">
        <ele>722.40002441406</ele>
        <time>2024-03-01T13:52:29.000Z</time>
      </trkpt>
      <trkpt lat="45.30335" lon="5.44707">
        <ele>722.79998779297</ele>
        <time>2024-03-01T13:52:30.000Z</time>
      </trkpt>
      <trkpt lat="45.30334" lon="5.44707">
        <ele>723</ele>
        <time>2024-03-01T13:52:31.000Z</time>
      </trkpt>
      <trkpt lat="45.30332" lon="5.44705">
        <ele>723.79998779297</ele>
        <time>2024-03-01T13:52:33.000Z</time>
      </trkpt>
      <trkpt lat="45.30331" lon="5.44705">
        <ele>724</ele>
        <time>2024-03-01T13:52:34.000Z</time>
      </trkpt>
      <trkpt lat="45.30326" lon="5.447">
        <ele>726</ele>
        <time>2024-03-01T13:52:39.000Z</time>
      </trkpt>
      <trkpt lat="45.30325" lon="5.44698">
        <ele>726.40002441406</ele>
        <time>2024-03-01T13:52:40.000Z</time>
      </trkpt>
      <trkpt lat="45.30325" lon="5.44697">
        <ele>726.40002441406</ele>
        <time>2024-03-01T13:52:41.000Z</time>
      </trkpt>
      <trkpt lat="45.30324" lon="5.44696">
        <ele>726.59997558594</ele>
        <time>2024-03-01T13:52:42.000Z</time>
      </trkpt>
      <trkpt lat="45.30322" lon="5.44692">
        <ele>727.20001220703</ele>
        <time>2024-03-01T13:52:44.000Z</time>
      </trkpt>
      <trkpt lat="45.30322" lon="5.44691">
        <ele>727.40002441406</ele>
        <time>2024-03-01T13:52:45.000Z</time>
      </trkpt>
      <trkpt lat="45.30318" lon="5.44687">
        <ele>728.79998779297</ele>
        <time>2024-03-01T13:52:48.000Z</time>
      </trkpt>
      <trkpt lat="45.30317" lon="5.44685">
        <ele>729.20001220703</ele>
        <time>2024-03-01T13:52:49.000Z</time>
      </trkpt>
      <trkpt lat="45.30317" lon="5.44684">
        <ele>729.40002441406</ele>
        <time>2024-03-01T13:52:50.000Z</time>
      </trkpt>
      <trkpt lat="45.30315" lon="5.44682">
        <ele>730</ele>
        <time>2024-03-01T13:52:52.000Z</time>
      </trkpt>
      <trkpt lat="45.30315" lon="5.4468">
        <ele>730.20001220703</ele>
        <time>2024-03-01T13:52:53.000Z</time>
      </trkpt>
      <trkpt lat="45.30314" lon="5.44679">
        <ele>730.40002441406</ele>
        <time>2024-03-01T13:52:54.000Z</time>
      </trkpt>
      <trkpt lat="45.30313" lon="5.44677">
        <ele>730.40002441406</ele>
        <time>2024-03-01T13:52:55.000Z</time>
      </trkpt>
      <trkpt lat="45.30309" lon="5.44673">
        <ele>731.79998779297</ele>
        <time>2024-03-01T13:52:59.000Z</time>
      </trkpt>
      <trkpt lat="45.30307" lon="5.44672">
        <ele>732</ele>
        <time>2024-03-01T13:53:00.000Z</time>
      </trkpt>
      <trkpt lat="45.30306" lon="5.44672">
        <ele>732.40002441406</ele>
        <time>2024-03-01T13:53:01.000Z</time>
      </trkpt>
      <trkpt lat="45.30305" lon="5.44671">
        <ele>732.59997558594</ele>
        <time>2024-03-01T13:53:02.000Z</time>
      </trkpt>
      <trkpt lat="45.30298" lon="5.44671">
        <ele>733.59997558594</ele>
        <time>2024-03-01T13:53:07.000Z</time>
      </trkpt>
      <trkpt lat="45.30297" lon="5.4467">
        <ele>733.79998779297</ele>
        <time>2024-03-01T13:53:08.000Z</time>
      </trkpt>
      <trkpt lat="45.30292" lon="5.4467">
        <ele>734.20001220703</ele>
        <time>2024-03-01T13:53:11.000Z</time>
      </trkpt>
      <trkpt lat="45.30291" lon="5.44669">
        <ele>734.40002441406</ele>
        <time>2024-03-01T13:53:12.000Z</time>
      </trkpt>
      <trkpt lat="45.30286" lon="5.44669">
        <ele>735.40002441406</ele>
        <time>2024-03-01T13:53:16.000Z</time>
      </trkpt>
      <trkpt lat="45.30285" lon="5.44668">
        <ele>735.59997558594</ele>
        <time>2024-03-01T13:53:17.000Z</time>
      </trkpt>
      <trkpt lat="45.30283" lon="5.44668">
        <ele>735.79998779297</ele>
        <time>2024-03-01T13:53:19.000Z</time>
      </trkpt>
      <trkpt lat="45.30281" lon="5.44667">
        <ele>736</ele>
        <time>2024-03-01T13:53:20.000Z</time>
      </trkpt>
      <trkpt lat="45.3028" lon="5.44667">
        <ele>736.20001220703</ele>
        <time>2024-03-01T13:53:21.000Z</time>
      </trkpt>
      <trkpt lat="45.30279" lon="5.44666">
        <ele>736.79998779297</ele>
        <time>2024-03-01T13:53:22.000Z</time>
      </trkpt>
      <trkpt lat="45.30278" lon="5.44666">
        <ele>736.79998779297</ele>
        <time>2024-03-01T13:53:23.000Z</time>
      </trkpt>
      <trkpt lat="45.30276" lon="5.44665">
        <ele>737</ele>
        <time>2024-03-01T13:53:24.000Z</time>
      </trkpt>
      <trkpt lat="45.30275" lon="5.44664">
        <ele>737.20001220703</ele>
        <time>2024-03-01T13:53:25.000Z</time>
      </trkpt>
      <trkpt lat="45.30273" lon="5.44663">
        <ele>737.20001220703</ele>
        <time>2024-03-01T13:53:26.000Z</time>
      </trkpt>
      <trkpt lat="45.30272" lon="5.44662">
        <ele>737.40002441406</ele>
        <time>2024-03-01T13:53:27.000Z</time>
      </trkpt>
      <trkpt lat="45.3027" lon="5.44661">
        <ele>737.40002441406</ele>
        <time>2024-03-01T13:53:28.000Z</time>
      </trkpt>
      <trkpt lat="45.30267" lon="5.44658">
        <ele>738</ele>
        <time>2024-03-01T13:53:31.000Z</time>
      </trkpt>
      <trkpt lat="45.30265" lon="5.44658">
        <ele>738.20001220703</ele>
        <time>2024-03-01T13:53:32.000Z</time>
      </trkpt>
      <trkpt lat="45.30264" lon="5.44656">
        <ele>738.20001220703</ele>
        <time>2024-03-01T13:53:33.000Z</time>
      </trkpt>
      <trkpt lat="45.30262" lon="5.44656">
        <ele>738.40002441406</ele>
        <time>2024-03-01T13:53:34.000Z</time>
      </trkpt>
      <trkpt lat="45.30258" lon="5.44652">
        <ele>739</ele>
        <time>2024-03-01T13:53:37.000Z</time>
      </trkpt>
      <trkpt lat="45.30256" lon="5.44651">
        <ele>739</ele>
        <time>2024-03-01T13:53:38.000Z</time>
      </trkpt>
      <trkpt lat="45.30255" lon="5.4465">
        <ele>739.20001220703</ele>
        <time>2024-03-01T13:53:39.000Z</time>
      </trkpt>
      <trkpt lat="45.30251" lon="5.44648">
        <ele>739.59997558594</ele>
        <time>2024-03-01T13:53:41.000Z</time>
      </trkpt>
      <trkpt lat="45.3025" lon="5.44647">
        <ele>739.79998779297</ele>
        <time>2024-03-01T13:53:42.000Z</time>
      </trkpt>
      <trkpt lat="45.30246" lon="5.44645">
        <ele>740</ele>
        <time>2024-03-01T13:53:44.000Z</time>
      </trkpt>
      <trkpt lat="45.30244" lon="5.44643">
        <ele>740.20001220703</ele>
        <time>2024-03-01T13:53:45.000Z</time>
      </trkpt>
      <trkpt lat="45.30236" lon="5.44639">
        <ele>740.59997558594</ele>
        <time>2024-03-01T13:53:49.000Z</time>
      </trkpt>
      <trkpt lat="45.30234" lon="5.44637">
        <ele>740.59997558594</ele>
        <time>2024-03-01T13:53:50.000Z</time>
      </trkpt>
      <trkpt lat="45.3023" lon="5.44635">
        <ele>740.79998779297</ele>
        <time>2024-03-01T13:53:52.000Z</time>
      </trkpt>
      <trkpt lat="45.30228" lon="5.44633">
        <ele>741</ele>
        <time>2024-03-01T13:53:53.000Z</time>
      </trkpt>
      <trkpt lat="45.30226" lon="5.4463">
        <ele>741</ele>
        <time>2024-03-01T13:53:54.000Z</time>
      </trkpt>
      <trkpt lat="45.30224" lon="5.44624">
        <ele>741.20001220703</ele>
        <time>2024-03-01T13:53:56.000Z</time>
      </trkpt>
      <trkpt lat="45.30224" lon="5.44608">
        <ele>741.20001220703</ele>
        <time>2024-03-01T13:53:59.000Z</time>
      </trkpt>
      <trkpt lat="45.30225" lon="5.44601">
        <ele>741.20001220703</ele>
        <time>2024-03-01T13:54:00.000Z</time>
      </trkpt>
      <trkpt lat="45.30225" lon="5.44594">
        <ele>740.59997558594</ele>
        <time>2024-03-01T13:54:01.000Z</time>
      </trkpt>
      <trkpt lat="45.30226" lon="5.44586">
        <ele>740.40002441406</ele>
        <time>2024-03-01T13:54:02.000Z</time>
      </trkpt>
      <trkpt lat="45.30225" lon="5.44579">
        <ele>739.79998779297</ele>
        <time>2024-03-01T13:54:03.000Z</time>
      </trkpt>
      <trkpt lat="45.30225" lon="5.44571">
        <ele>739.40002441406</ele>
        <time>2024-03-01T13:54:04.000Z</time>
      </trkpt>
      <trkpt lat="45.30226" lon="5.44563">
        <ele>738.79998779297</ele>
        <time>2024-03-01T13:54:05.000Z</time>
      </trkpt>
      <trkpt lat="45.30227" lon="5.44557">
        <ele>738.59997558594</ele>
        <time>2024-03-01T13:54:06.000Z</time>
      </trkpt>
      <trkpt lat="45.30228" lon="5.44553">
        <ele>738.20001220703</ele>
        <time>2024-03-01T13:54:07.000Z</time>
      </trkpt>
      <trkpt lat="45.30228" lon="5.44544">
        <ele>736.40002441406</ele>
        <time>2024-03-01T13:54:11.000Z</time>
      </trkpt>
      <trkpt lat="45.30227" lon="5.44541">
        <ele>735.79998779297</ele>
        <time>2024-03-01T13:54:12.000Z</time>
      </trkpt>
      <trkpt lat="45.30227" lon="5.44534">
        <ele>735.40002441406</ele>
        <time>2024-03-01T13:54:14.000Z</time>
      </trkpt>
      <trkpt lat="45.30228" lon="5.4453">
        <ele>735.20001220703</ele>
        <time>2024-03-01T13:54:15.000Z</time>
      </trkpt>
      <trkpt lat="45.30229" lon="5.44525">
        <ele>735.20001220703</ele>
        <time>2024-03-01T13:54:16.000Z</time>
      </trkpt>
      <trkpt lat="45.30229" lon="5.4452">
        <ele>735.20001220703</ele>
        <time>2024-03-01T13:54:17.000Z</time>
      </trkpt>
      <trkpt lat="45.3023" lon="5.44514">
        <ele>735.20001220703</ele>
        <time>2024-03-01T13:54:18.000Z</time>
      </trkpt>
      <trkpt lat="45.3023" lon="5.44494">
        <ele>735.59997558594</ele>
        <time>2024-03-01T13:54:22.000Z</time>
      </trkpt>
      <trkpt lat="45.30231" lon="5.44489">
        <ele>735.59997558594</ele>
        <time>2024-03-01T13:54:23.000Z</time>
      </trkpt>
      <trkpt lat="45.30231" lon="5.4448">
        <ele>735.79998779297</ele>
        <time>2024-03-01T13:54:25.000Z</time>
      </trkpt>
      <trkpt lat="45.3023" lon="5.44474">
        <ele>736</ele>
        <time>2024-03-01T13:54:26.000Z</time>
      </trkpt>
      <trkpt lat="45.3023" lon="5.4447">
        <ele>736.20001220703</ele>
        <time>2024-03-01T13:54:27.000Z</time>
      </trkpt>
      <trkpt lat="45.30229" lon="5.44465">
        <ele>736.40002441406</ele>
        <time>2024-03-01T13:54:28.000Z</time>
      </trkpt>
      <trkpt lat="45.30228" lon="5.44461">
        <ele>737</ele>
        <time>2024-03-01T13:54:29.000Z</time>
      </trkpt>
      <trkpt lat="45.30227" lon="5.44456">
        <ele>737.20001220703</ele>
        <time>2024-03-01T13:54:30.000Z</time>
      </trkpt>
      <trkpt lat="45.30227" lon="5.44453">
        <ele>737.59997558594</ele>
        <time>2024-03-01T13:54:31.000Z</time>
      </trkpt>
      <trkpt lat="45.30226" lon="5.44449">
        <ele>737.79998779297</ele>
        <time>2024-03-01T13:54:32.000Z</time>
      </trkpt>
      <trkpt lat="45.30226" lon="5.44445">
        <ele>738</ele>
        <time>2024-03-01T13:54:33.000Z</time>
      </trkpt>
      <trkpt lat="45.30225" lon="5.44442">
        <ele>738.20001220703</ele>
        <time>2024-03-01T13:54:34.000Z</time>
      </trkpt>
      <trkpt lat="45.30225" lon="5.44438">
        <ele>738.40002441406</ele>
        <time>2024-03-01T13:54:35.000Z</time>
      </trkpt>
      <trkpt lat="45.30224" lon="5.44436">
        <ele>738.59997558594</ele>
        <time>2024-03-01T13:54:36.000Z</time>
      </trkpt>
      <trkpt lat="45.30223" lon="5.44432">
        <ele>738.79998779297</ele>
        <time>2024-03-01T13:54:37.000Z</time>
      </trkpt>
      <trkpt lat="45.30222" lon="5.44429">
        <ele>739.20001220703</ele>
        <time>2024-03-01T13:54:38.000Z</time>
      </trkpt>
      <trkpt lat="45.30222" lon="5.44426">
        <ele>739.59997558594</ele>
        <time>2024-03-01T13:54:39.000Z</time>
      </trkpt>
      <trkpt lat="45.30221" lon="5.44423">
        <ele>739.79998779297</ele>
        <time>2024-03-01T13:54:40.000Z</time>
      </trkpt>
      <trkpt lat="45.30221" lon="5.4442">
        <ele>740.20001220703</ele>
        <time>2024-03-01T13:54:41.000Z</time>
      </trkpt>
      <trkpt lat="45.3022" lon="5.44417">
        <ele>740.20001220703</ele>
        <time>2024-03-01T13:54:42.000Z</time>
      </trkpt>
      <trkpt lat="45.3022" lon="5.44414">
        <ele>740.40002441406</ele>
        <time>2024-03-01T13:54:43.000Z</time>
      </trkpt>
      <trkpt lat="45.30218" lon="5.44408">
        <ele>740.59997558594</ele>
        <time>2024-03-01T13:54:45.000Z</time>
      </trkpt>
      <trkpt lat="45.30216" lon="5.44406">
        <ele>741</ele>
        <time>2024-03-01T13:54:46.000Z</time>
      </trkpt>
      <trkpt lat="45.30216" lon="5.44403">
        <ele>741.20001220703</ele>
        <time>2024-03-01T13:54:47.000Z</time>
      </trkpt>
      <trkpt lat="45.30215" lon="5.444">
        <ele>741.59997558594</ele>
        <time>2024-03-01T13:54:48.000Z</time>
      </trkpt>
      <trkpt lat="45.30215" lon="5.44398">
        <ele>741.79998779297</ele>
        <time>2024-03-01T13:54:49.000Z</time>
      </trkpt>
      <trkpt lat="45.30214" lon="5.44395">
        <ele>742</ele>
        <time>2024-03-01T13:54:50.000Z</time>
      </trkpt>
      <trkpt lat="45.30214" lon="5.4439">
        <ele>742.40002441406</ele>
        <time>2024-03-01T13:54:52.000Z</time>
      </trkpt>
      <trkpt lat="45.30213" lon="5.44387">
        <ele>743.20001220703</ele>
        <time>2024-03-01T13:54:53.000Z</time>
      </trkpt>
      <trkpt lat="45.30213" lon="5.44384">
        <ele>743.20001220703</ele>
        <time>2024-03-01T13:54:54.000Z</time>
      </trkpt>
      <trkpt lat="45.30211" lon="5.44378">
        <ele>744</ele>
        <time>2024-03-01T13:54:56.000Z</time>
      </trkpt>
      <trkpt lat="45.30211" lon="5.44376">
        <ele>744.20001220703</ele>
        <time>2024-03-01T13:54:57.000Z</time>
      </trkpt>
      <trkpt lat="45.3021" lon="5.44374">
        <ele>744.40002441406</ele>
        <time>2024-03-01T13:54:58.000Z</time>
      </trkpt>
      <trkpt lat="45.30208" lon="5.44368">
        <ele>745</ele>
        <time>2024-03-01T13:55:00.000Z</time>
      </trkpt>
      <trkpt lat="45.30207" lon="5.44366">
        <ele>745.40002441406</ele>
        <time>2024-03-01T13:55:01.000Z</time>
      </trkpt>
      <trkpt lat="45.30206" lon="5.44363">
        <ele>745.79998779297</ele>
        <time>2024-03-01T13:55:02.000Z</time>
      </trkpt>
      <trkpt lat="45.30206" lon="5.4436">
        <ele>745.79998779297</ele>
        <time>2024-03-01T13:55:03.000Z</time>
      </trkpt>
      <trkpt lat="45.30205" lon="5.44358">
        <ele>746</ele>
        <time>2024-03-01T13:55:04.000Z</time>
      </trkpt>
      <trkpt lat="45.30205" lon="5.44355">
        <ele>746.20001220703</ele>
        <time>2024-03-01T13:55:05.000Z</time>
      </trkpt>
      <trkpt lat="45.30204" lon="5.44352">
        <ele>746.20001220703</ele>
        <time>2024-03-01T13:55:06.000Z</time>
      </trkpt>
      <trkpt lat="45.30204" lon="5.44348">
        <ele>746.40002441406</ele>
        <time>2024-03-01T13:55:07.000Z</time>
      </trkpt>
      <trkpt lat="45.30202" lon="5.44342">
        <ele>747</ele>
        <time>2024-03-01T13:55:09.000Z</time>
      </trkpt>
      <trkpt lat="45.30202" lon="5.44335">
        <ele>747.20001220703</ele>
        <time>2024-03-01T13:55:11.000Z</time>
      </trkpt>
      <trkpt lat="45.30201" lon="5.44332">
        <ele>747.40002441406</ele>
        <time>2024-03-01T13:55:12.000Z</time>
      </trkpt>
      <trkpt lat="45.30201" lon="5.44326">
        <ele>747.79998779297</ele>
        <time>2024-03-01T13:55:14.000Z</time>
      </trkpt>
      <trkpt lat="45.302" lon="5.44323">
        <ele>748</ele>
        <time>2024-03-01T13:55:15.000Z</time>
      </trkpt>
      <trkpt lat="45.30199" lon="5.44319">
        <ele>748.40002441406</ele>
        <time>2024-03-01T13:55:16.000Z</time>
      </trkpt>
      <trkpt lat="45.30199" lon="5.44316">
        <ele>748.40002441406</ele>
        <time>2024-03-01T13:55:17.000Z</time>
      </trkpt>
      <trkpt lat="45.30197" lon="5.44313">
        <ele>748.40002441406</ele>
        <time>2024-03-01T13:55:18.000Z</time>
      </trkpt>
      <trkpt lat="45.30196" lon="5.44311">
        <ele>748.59997558594</ele>
        <time>2024-03-01T13:55:19.000Z</time>
      </trkpt>
      <trkpt lat="45.30195" lon="5.44308">
        <ele>748.59997558594</ele>
        <time>2024-03-01T13:55:20.000Z</time>
      </trkpt>
      <trkpt lat="45.30194" lon="5.44306">
        <ele>748.79998779297</ele>
        <time>2024-03-01T13:55:21.000Z</time>
      </trkpt>
      <trkpt lat="45.30193" lon="5.44302">
        <ele>748.79998779297</ele>
        <time>2024-03-01T13:55:22.000Z</time>
      </trkpt>
      <trkpt lat="45.30192" lon="5.44299">
        <ele>749</ele>
        <time>2024-03-01T13:55:23.000Z</time>
      </trkpt>
      <trkpt lat="45.30192" lon="5.44296">
        <ele>749.20001220703</ele>
        <time>2024-03-01T13:55:24.000Z</time>
      </trkpt>
      <trkpt lat="45.30191" lon="5.44292">
        <ele>749.20001220703</ele>
        <time>2024-03-01T13:55:25.000Z</time>
      </trkpt>
      <trkpt lat="45.3019" lon="5.44289">
        <ele>749.40002441406</ele>
        <time>2024-03-01T13:55:26.000Z</time>
      </trkpt>
      <trkpt lat="45.30189" lon="5.44285">
        <ele>749.40002441406</ele>
        <time>2024-03-01T13:55:27.000Z</time>
      </trkpt>
      <trkpt lat="45.30189" lon="5.44282">
        <ele>749.59997558594</ele>
        <time>2024-03-01T13:55:28.000Z</time>
      </trkpt>
      <trkpt lat="45.30188" lon="5.44278">
        <ele>749.79998779297</ele>
        <time>2024-03-01T13:55:29.000Z</time>
      </trkpt>
      <trkpt lat="45.30187" lon="5.44275">
        <ele>750</ele>
        <time>2024-03-01T13:55:30.000Z</time>
      </trkpt>
      <trkpt lat="45.30186" lon="5.44271">
        <ele>750.20001220703</ele>
        <time>2024-03-01T13:55:31.000Z</time>
      </trkpt>
      <trkpt lat="45.30186" lon="5.44267">
        <ele>750.20001220703</ele>
        <time>2024-03-01T13:55:32.000Z</time>
      </trkpt>
      <trkpt lat="45.30185" lon="5.44264">
        <ele>750.40002441406</ele>
        <time>2024-03-01T13:55:33.000Z</time>
      </trkpt>
      <trkpt lat="45.30184" lon="5.4426">
        <ele>750.40002441406</ele>
        <time>2024-03-01T13:55:34.000Z</time>
      </trkpt>
      <trkpt lat="45.30184" lon="5.44256">
        <ele>750.59997558594</ele>
        <time>2024-03-01T13:55:35.000Z</time>
      </trkpt>
      <trkpt lat="45.30183" lon="5.44252">
        <ele>750.79998779297</ele>
        <time>2024-03-01T13:55:36.000Z</time>
      </trkpt>
      <trkpt lat="45.30183" lon="5.44249">
        <ele>750.79998779297</ele>
        <time>2024-03-01T13:55:37.000Z</time>
      </trkpt>
      <trkpt lat="45.30182" lon="5.44246">
        <ele>751</ele>
        <time>2024-03-01T13:55:38.000Z</time>
      </trkpt>
      <trkpt lat="45.30182" lon="5.44242">
        <ele>751</ele>
        <time>2024-03-01T13:55:39.000Z</time>
      </trkpt>
      <trkpt lat="45.30181" lon="5.44239">
        <ele>751.40002441406</ele>
        <time>2024-03-01T13:55:40.000Z</time>
      </trkpt>
      <trkpt lat="45.30181" lon="5.44235">
        <ele>751.40002441406</ele>
        <time>2024-03-01T13:55:41.000Z</time>
      </trkpt>
      <trkpt lat="45.3018" lon="5.44232">
        <ele>751.59997558594</ele>
        <time>2024-03-01T13:55:42.000Z</time>
      </trkpt>
      <trkpt lat="45.3018" lon="5.44228">
        <ele>751.79998779297</ele>
        <time>2024-03-01T13:55:43.000Z</time>
      </trkpt>
      <trkpt lat="45.30179" lon="5.44225">
        <ele>751.79998779297</ele>
        <time>2024-03-01T13:55:44.000Z</time>
      </trkpt>
      <trkpt lat="45.30178" lon="5.44221">
        <ele>752</ele>
        <time>2024-03-01T13:55:45.000Z</time>
      </trkpt>
      <trkpt lat="45.30178" lon="5.44214">
        <ele>752.20001220703</ele>
        <time>2024-03-01T13:55:47.000Z</time>
      </trkpt>
      <trkpt lat="45.30177" lon="5.44211">
        <ele>752.20001220703</ele>
        <time>2024-03-01T13:55:48.000Z</time>
      </trkpt>
      <trkpt lat="45.30177" lon="5.44207">
        <ele>752.40002441406</ele>
        <time>2024-03-01T13:55:49.000Z</time>
      </trkpt>
      <trkpt lat="45.30176" lon="5.44204">
        <ele>752.40002441406</ele>
        <time>2024-03-01T13:55:50.000Z</time>
      </trkpt>
      <trkpt lat="45.30176" lon="5.442">
        <ele>752.40002441406</ele>
        <time>2024-03-01T13:55:51.000Z</time>
      </trkpt>
      <trkpt lat="45.30175" lon="5.44197">
        <ele>752.59997558594</ele>
        <time>2024-03-01T13:55:52.000Z</time>
      </trkpt>
      <trkpt lat="45.30175" lon="5.44189">
        <ele>753</ele>
        <time>2024-03-01T13:55:54.000Z</time>
      </trkpt>
      <trkpt lat="45.30174" lon="5.44186">
        <ele>753</ele>
        <time>2024-03-01T13:55:55.000Z</time>
      </trkpt>
      <trkpt lat="45.30174" lon="5.44182">
        <ele>753.20001220703</ele>
        <time>2024-03-01T13:55:56.000Z</time>
      </trkpt>
      <trkpt lat="45.30172" lon="5.44176">
        <ele>753.40002441406</ele>
        <time>2024-03-01T13:55:58.000Z</time>
      </trkpt>
      <trkpt lat="45.30172" lon="5.44173">
        <ele>753.40002441406</ele>
        <time>2024-03-01T13:55:59.000Z</time>
      </trkpt>
      <trkpt lat="45.30171" lon="5.44169">
        <ele>753.59997558594</ele>
        <time>2024-03-01T13:56:00.000Z</time>
      </trkpt>
      <trkpt lat="45.3017" lon="5.44166">
        <ele>753.79998779297</ele>
        <time>2024-03-01T13:56:01.000Z</time>
      </trkpt>
      <trkpt lat="45.3017" lon="5.44163">
        <ele>754</ele>
        <time>2024-03-01T13:56:02.000Z</time>
      </trkpt>
      <trkpt lat="45.30168" lon="5.44155">
        <ele>754.20001220703</ele>
        <time>2024-03-01T13:56:04.000Z</time>
      </trkpt>
      <trkpt lat="45.30167" lon="5.44152">
        <ele>754.40002441406</ele>
        <time>2024-03-01T13:56:05.000Z</time>
      </trkpt>
      <trkpt lat="45.30167" lon="5.44148">
        <ele>754.59997558594</ele>
        <time>2024-03-01T13:56:06.000Z</time>
      </trkpt>
      <trkpt lat="45.30163" lon="5.44136">
        <ele>755.40002441406</ele>
        <time>2024-03-01T13:56:10.000Z</time>
      </trkpt>
      <trkpt lat="45.30162" lon="5.44132">
        <ele>755.59997558594</ele>
        <time>2024-03-01T13:56:11.000Z</time>
      </trkpt>
      <trkpt lat="45.3016" lon="5.44129">
        <ele>755.59997558594</ele>
        <time>2024-03-01T13:56:12.000Z</time>
      </trkpt>
      <trkpt lat="45.30159" lon="5.44125">
        <ele>755.59997558594</ele>
        <time>2024-03-01T13:56:13.000Z</time>
      </trkpt>
      <trkpt lat="45.30156" lon="5.44116">
        <ele>755.79998779297</ele>
        <time>2024-03-01T13:56:16.000Z</time>
      </trkpt>
      <trkpt lat="45.30156" lon="5.44113">
        <ele>755.79998779297</ele>
        <time>2024-03-01T13:56:17.000Z</time>
      </trkpt>
      <trkpt lat="45.30155" lon="5.44109">
        <ele>755.79998779297</ele>
        <time>2024-03-01T13:56:18.000Z</time>
      </trkpt>
      <trkpt lat="45.30155" lon="5.44107">
        <ele>755.79998779297</ele>
        <time>2024-03-01T13:56:19.000Z</time>
      </trkpt>
      <trkpt lat="45.30154" lon="5.44104">
        <ele>755.79998779297</ele>
        <time>2024-03-01T13:56:20.000Z</time>
      </trkpt>
      <trkpt lat="45.30152" lon="5.441">
        <ele>755.79998779297</ele>
        <time>2024-03-01T13:56:21.000Z</time>
      </trkpt>
      <trkpt lat="45.30151" lon="5.44097">
        <ele>755.79998779297</ele>
        <time>2024-03-01T13:56:22.000Z</time>
      </trkpt>
      <trkpt lat="45.30151" lon="5.44086">
        <ele>756</ele>
        <time>2024-03-01T13:56:25.000Z</time>
      </trkpt>
      <trkpt lat="45.30152" lon="5.44081">
        <ele>756</ele>
        <time>2024-03-01T13:56:26.000Z</time>
      </trkpt>
      <trkpt lat="45.30154" lon="5.44073">
        <ele>756</ele>
        <time>2024-03-01T13:56:28.000Z</time>
      </trkpt>
      <trkpt lat="45.30154" lon="5.44061">
        <ele>756</ele>
        <time>2024-03-01T13:56:30.000Z</time>
      </trkpt>
      <trkpt lat="45.30153" lon="5.44055">
        <ele>756</ele>
        <time>2024-03-01T13:56:31.000Z</time>
      </trkpt>
      <trkpt lat="45.30149" lon="5.44043">
        <ele>756</ele>
        <time>2024-03-01T13:56:33.000Z</time>
      </trkpt>
      <trkpt lat="45.30148" lon="5.44037">
        <ele>756</ele>
        <time>2024-03-01T13:56:34.000Z</time>
      </trkpt>
      <trkpt lat="45.30146" lon="5.44031">
        <ele>756</ele>
        <time>2024-03-01T13:56:35.000Z</time>
      </trkpt>
      <trkpt lat="45.30144" lon="5.44023">
        <ele>755.79998779297</ele>
        <time>2024-03-01T13:56:36.000Z</time>
      </trkpt>
      <trkpt lat="45.30142" lon="5.44017">
        <ele>755.79998779297</ele>
        <time>2024-03-01T13:56:37.000Z</time>
      </trkpt>
      <trkpt lat="45.3014" lon="5.4401">
        <ele>755.79998779297</ele>
        <time>2024-03-01T13:56:38.000Z</time>
      </trkpt>
      <trkpt lat="45.30138" lon="5.44002">
        <ele>755.40002441406</ele>
        <time>2024-03-01T13:56:39.000Z</time>
      </trkpt>
      <trkpt lat="45.30135" lon="5.43994">
        <ele>755.20001220703</ele>
        <time>2024-03-01T13:56:40.000Z</time>
      </trkpt>
      <trkpt lat="45.30131" lon="5.4398">
        <ele>754.79998779297</ele>
        <time>2024-03-01T13:56:42.000Z</time>
      </trkpt>
      <trkpt lat="45.30123" lon="5.43976">
        <ele>753</ele>
        <time>2024-03-01T13:57:22.000Z</time>
      </trkpt>
      <trkpt lat="45.30123" lon="5.43978">
        <ele>753.40002441406</ele>
        <time>2024-03-01T13:57:23.000Z</time>
      </trkpt>
      <trkpt lat="45.30121" lon="5.43979">
        <ele>753.40002441406</ele>
        <time>2024-03-01T13:57:24.000Z</time>
      </trkpt>
      <trkpt lat="45.3012" lon="5.43979">
        <ele>753.59997558594</ele>
        <time>2024-03-01T13:57:25.000Z</time>
      </trkpt>
      <trkpt lat="45.30119" lon="5.4398">
        <ele>753.59997558594</ele>
        <time>2024-03-01T13:57:26.000Z</time>
      </trkpt>
      <trkpt lat="45.30115" lon="5.4398">
        <ele>753.79998779297</ele>
        <time>2024-03-01T13:57:28.000Z</time>
      </trkpt>
      <trkpt lat="45.30112" lon="5.43982">
        <ele>753.79998779297</ele>
        <time>2024-03-01T13:57:29.000Z</time>
      </trkpt>
      <trkpt lat="45.3011" lon="5.43984">
        <ele>754</ele>
        <time>2024-03-01T13:57:30.000Z</time>
      </trkpt>
      <trkpt lat="45.30104" lon="5.43988">
        <ele>754.20001220703</ele>
        <time>2024-03-01T13:57:32.000Z</time>
      </trkpt>
      <trkpt lat="45.30102" lon="5.43991">
        <ele>754.20001220703</ele>
        <time>2024-03-01T13:57:33.000Z</time>
      </trkpt>
      <trkpt lat="45.30097" lon="5.43996">
        <ele>754.40002441406</ele>
        <time>2024-03-01T13:57:35.000Z</time>
      </trkpt>
      <trkpt lat="45.30095" lon="5.43999">
        <ele>754.40002441406</ele>
        <time>2024-03-01T13:57:36.000Z</time>
      </trkpt>
      <trkpt lat="45.30093" lon="5.44001">
        <ele>754.59997558594</ele>
        <time>2024-03-01T13:57:37.000Z</time>
      </trkpt>
      <trkpt lat="45.30091" lon="5.44004">
        <ele>754.59997558594</ele>
        <time>2024-03-01T13:57:38.000Z</time>
      </trkpt>
      <trkpt lat="45.30089" lon="5.44006">
        <ele>754.59997558594</ele>
        <time>2024-03-01T13:57:39.000Z</time>
      </trkpt>
      <trkpt lat="45.30088" lon="5.44008">
        <ele>754.59997558594</ele>
        <time>2024-03-01T13:57:40.000Z</time>
      </trkpt>
      <trkpt lat="45.30085" lon="5.44011">
        <ele>754.20001220703</ele>
        <time>2024-03-01T13:58:08.000Z</time>
      </trkpt>
      <trkpt lat="45.30084" lon="5.44013">
        <ele>754.20001220703</ele>
        <time>2024-03-01T13:58:09.000Z</time>
      </trkpt>
      <trkpt lat="45.30082" lon="5.44014">
        <ele>754.20001220703</ele>
        <time>2024-03-01T13:58:10.000Z</time>
      </trkpt>
      <trkpt lat="45.30076" lon="5.44018">
        <ele>754.20001220703</ele>
        <time>2024-03-01T13:58:12.000Z</time>
      </trkpt>
      <trkpt lat="45.30072" lon="5.4402">
        <ele>754.20001220703</ele>
        <time>2024-03-01T13:58:13.000Z</time>
      </trkpt>
      <trkpt lat="45.30067" lon="5.44021">
        <ele>754.20001220703</ele>
        <time>2024-03-01T13:58:14.000Z</time>
      </trkpt>
      <trkpt lat="45.30053" lon="5.44025">
        <ele>753.79998779297</ele>
        <time>2024-03-01T13:58:16.000Z</time>
      </trkpt>
      <trkpt lat="45.30044" lon="5.44026">
        <ele>753.40002441406</ele>
        <time>2024-03-01T13:58:17.000Z</time>
      </trkpt>
      <trkpt lat="45.30035" lon="5.44029">
        <ele>753.20001220703</ele>
        <time>2024-03-01T13:58:18.000Z</time>
      </trkpt>
      <trkpt lat="45.30029" lon="5.44033">
        <ele>752.79998779297</ele>
        <time>2024-03-01T13:58:19.000Z</time>
      </trkpt>
      <trkpt lat="45.30024" lon="5.44038">
        <ele>752.40002441406</ele>
        <time>2024-03-01T13:58:20.000Z</time>
      </trkpt>
      <trkpt lat="45.30019" lon="5.44044">
        <ele>752.40002441406</ele>
        <time>2024-03-01T13:58:21.000Z</time>
      </trkpt>
      <trkpt lat="45.30007" lon="5.44058">
        <ele>750.20001220703</ele>
        <time>2024-03-01T13:58:23.000Z</time>
      </trkpt>
      <trkpt lat="45.3" lon="5.44066">
        <ele>749</ele>
        <time>2024-03-01T13:58:24.000Z</time>
      </trkpt>
      <trkpt lat="45.29994" lon="5.44071">
        <ele>748.79998779297</ele>
        <time>2024-03-01T13:58:25.000Z</time>
      </trkpt>
      <trkpt lat="45.29987" lon="5.44074">
        <ele>746.79998779297</ele>
        <time>2024-03-01T13:58:26.000Z</time>
      </trkpt>
      <trkpt lat="45.2998" lon="5.44074">
        <ele>745.40002441406</ele>
        <time>2024-03-01T13:58:27.000Z</time>
      </trkpt>
      <trkpt lat="45.2997" lon="5.44071">
        <ele>744.79998779297</ele>
        <time>2024-03-01T13:58:28.000Z</time>
      </trkpt>
      <trkpt lat="45.29962" lon="5.44067">
        <ele>744</ele>
        <time>2024-03-01T13:58:29.000Z</time>
      </trkpt>
      <trkpt lat="45.29957" lon="5.44063">
        <ele>743.79998779297</ele>
        <time>2024-03-01T13:58:30.000Z</time>
      </trkpt>
      <trkpt lat="45.29955" lon="5.44058">
        <ele>743</ele>
        <time>2024-03-01T13:58:31.000Z</time>
      </trkpt>
      <trkpt lat="45.29953" lon="5.44052">
        <ele>741.79998779297</ele>
        <time>2024-03-01T13:58:32.000Z</time>
      </trkpt>
      <trkpt lat="45.29952" lon="5.44045">
        <ele>741.20001220703</ele>
        <time>2024-03-01T13:58:33.000Z</time>
      </trkpt>
      <trkpt lat="45.29951" lon="5.44036">
        <ele>739.40002441406</ele>
        <time>2024-03-01T13:58:34.000Z</time>
      </trkpt>
      <trkpt lat="45.29947" lon="5.44026">
        <ele>738.40002441406</ele>
        <time>2024-03-01T13:58:35.000Z</time>
      </trkpt>
      <trkpt lat="45.29944" lon="5.44016">
        <ele>736.79998779297</ele>
        <time>2024-03-01T13:58:36.000Z</time>
      </trkpt>
      <trkpt lat="45.29943" lon="5.44009">
        <ele>736.20001220703</ele>
        <time>2024-03-01T13:58:37.000Z</time>
      </trkpt>
      <trkpt lat="45.29944" lon="5.44">
        <ele>735.20001220703</ele>
        <time>2024-03-01T13:58:38.000Z</time>
      </trkpt>
      <trkpt lat="45.29944" lon="5.43992">
        <ele>734.40002441406</ele>
        <time>2024-03-01T13:58:39.000Z</time>
      </trkpt>
      <trkpt lat="45.29946" lon="5.43983">
        <ele>734</ele>
        <time>2024-03-01T13:58:40.000Z</time>
      </trkpt>
      <trkpt lat="45.29948" lon="5.43972">
        <ele>733.40002441406</ele>
        <time>2024-03-01T13:58:41.000Z</time>
      </trkpt>
      <trkpt lat="45.2995" lon="5.4396">
        <ele>733</ele>
        <time>2024-03-01T13:58:42.000Z</time>
      </trkpt>
      <trkpt lat="45.29951" lon="5.4394">
        <ele>732.20001220703</ele>
        <time>2024-03-01T13:58:43.000Z</time>
      </trkpt>
      <trkpt lat="45.29951" lon="5.43923">
        <ele>731.20001220703</ele>
        <time>2024-03-01T13:58:44.000Z</time>
      </trkpt>
      <trkpt lat="45.2995" lon="5.4391">
        <ele>730.59997558594</ele>
        <time>2024-03-01T13:58:45.000Z</time>
      </trkpt>
      <trkpt lat="45.29948" lon="5.43886">
        <ele>729.20001220703</ele>
        <time>2024-03-01T13:58:47.000Z</time>
      </trkpt>
      <trkpt lat="45.29947" lon="5.43873">
        <ele>728</ele>
        <time>2024-03-01T13:58:48.000Z</time>
      </trkpt>
      <trkpt lat="45.29945" lon="5.43845">
        <ele>726.20001220703</ele>
        <time>2024-03-01T13:58:50.000Z</time>
      </trkpt>
      <trkpt lat="45.29943" lon="5.43833">
        <ele>725.59997558594</ele>
        <time>2024-03-01T13:58:51.000Z</time>
      </trkpt>
      <trkpt lat="45.29941" lon="5.4382">
        <ele>725.40002441406</ele>
        <time>2024-03-01T13:58:52.000Z</time>
      </trkpt>
      <trkpt lat="45.29938" lon="5.43809">
        <ele>724.79998779297</ele>
        <time>2024-03-01T13:58:53.000Z</time>
      </trkpt>
      <trkpt lat="45.29935" lon="5.43797">
        <ele>724.40002441406</ele>
        <time>2024-03-01T13:58:54.000Z</time>
      </trkpt>
      <trkpt lat="45.2993" lon="5.43785">
        <ele>723.59997558594</ele>
        <time>2024-03-01T13:58:55.000Z</time>
      </trkpt>
      <trkpt lat="45.29924" lon="5.43763">
        <ele>721.20001220703</ele>
        <time>2024-03-01T13:58:57.000Z</time>
      </trkpt>
      <trkpt lat="45.29922" lon="5.43753">
        <ele>719.79998779297</ele>
        <time>2024-03-01T13:58:58.000Z</time>
      </trkpt>
      <trkpt lat="45.29921" lon="5.4374">
        <ele>719.20001220703</ele>
        <time>2024-03-01T13:58:59.000Z</time>
      </trkpt>
      <trkpt lat="45.29918" lon="5.43727">
        <ele>717.79998779297</ele>
        <time>2024-03-01T13:59:00.000Z</time>
      </trkpt>
      <trkpt lat="45.29914" lon="5.43713">
        <ele>717</ele>
        <time>2024-03-01T13:59:01.000Z</time>
      </trkpt>
      <trkpt lat="45.29912" lon="5.43699">
        <ele>716.20001220703</ele>
        <time>2024-03-01T13:59:02.000Z</time>
      </trkpt>
      <trkpt lat="45.29906" lon="5.43671">
        <ele>714.59997558594</ele>
        <time>2024-03-01T13:59:04.000Z</time>
      </trkpt>
      <trkpt lat="45.29904" lon="5.43657">
        <ele>713.20001220703</ele>
        <time>2024-03-01T13:59:05.000Z</time>
      </trkpt>
      <trkpt lat="45.29901" lon="5.43642">
        <ele>712.40002441406</ele>
        <time>2024-03-01T13:59:06.000Z</time>
      </trkpt>
      <trkpt lat="45.29895" lon="5.43614">
        <ele>710.40002441406</ele>
        <time>2024-03-01T13:59:08.000Z</time>
      </trkpt>
      <trkpt lat="45.29891" lon="5.436">
        <ele>709.20001220703</ele>
        <time>2024-03-01T13:59:09.000Z</time>
      </trkpt>
      <trkpt lat="45.29888" lon="5.43587">
        <ele>708</ele>
        <time>2024-03-01T13:59:10.000Z</time>
      </trkpt>
      <trkpt lat="45.29886" lon="5.43573">
        <ele>707.59997558594</ele>
        <time>2024-03-01T13:59:11.000Z</time>
      </trkpt>
      <trkpt lat="45.29883" lon="5.43561">
        <ele>707</ele>
        <time>2024-03-01T13:59:12.000Z</time>
      </trkpt>
      <trkpt lat="45.29878" lon="5.43552">
        <ele>706.59997558594</ele>
        <time>2024-03-01T13:59:13.000Z</time>
      </trkpt>
      <trkpt lat="45.2987" lon="5.43542">
        <ele>705.59997558594</ele>
        <time>2024-03-01T13:59:14.000Z</time>
      </trkpt>
      <trkpt lat="45.29863" lon="5.43532">
        <ele>705.20001220703</ele>
        <time>2024-03-01T13:59:15.000Z</time>
      </trkpt>
      <trkpt lat="45.29856" lon="5.43521">
        <ele>704.79998779297</ele>
        <time>2024-03-01T13:59:16.000Z</time>
      </trkpt>
      <trkpt lat="45.29844" lon="5.43499">
        <ele>704.20001220703</ele>
        <time>2024-03-01T13:59:18.000Z</time>
      </trkpt>
      <trkpt lat="45.29839" lon="5.43487">
        <ele>703.20001220703</ele>
        <time>2024-03-01T13:59:19.000Z</time>
      </trkpt>
      <trkpt lat="45.29834" lon="5.43478">
        <ele>702.40002441406</ele>
        <time>2024-03-01T13:59:20.000Z</time>
      </trkpt>
      <trkpt lat="45.29829" lon="5.43471">
        <ele>701</ele>
        <time>2024-03-01T13:59:21.000Z</time>
      </trkpt>
      <trkpt lat="45.29826" lon="5.43467">
        <ele>700</ele>
        <time>2024-03-01T13:59:22.000Z</time>
      </trkpt>
      <trkpt lat="45.29824" lon="5.43465">
        <ele>699.40002441406</ele>
        <time>2024-03-01T13:59:23.000Z</time>
      </trkpt>
      <trkpt lat="45.29822" lon="5.43464">
        <ele>698.40002441406</ele>
        <time>2024-03-01T13:59:24.000Z</time>
      </trkpt>
      <trkpt lat="45.2982" lon="5.43462">
        <ele>697.40002441406</ele>
        <time>2024-03-01T13:59:25.000Z</time>
      </trkpt>
      <trkpt lat="45.29817" lon="5.43461">
        <ele>696</ele>
        <time>2024-03-01T13:59:26.000Z</time>
      </trkpt>
      <trkpt lat="45.29814" lon="5.43459">
        <ele>695.40002441406</ele>
        <time>2024-03-01T13:59:27.000Z</time>
      </trkpt>
      <trkpt lat="45.2981" lon="5.43453">
        <ele>693.40002441406</ele>
        <time>2024-03-01T13:59:29.000Z</time>
      </trkpt>
      <trkpt lat="45.29808" lon="5.43451">
        <ele>693.20001220703</ele>
        <time>2024-03-01T13:59:30.000Z</time>
      </trkpt>
      <trkpt lat="45.29806" lon="5.43451">
        <ele>692.79998779297</ele>
        <time>2024-03-01T13:59:31.000Z</time>
      </trkpt>
      <trkpt lat="45.29802" lon="5.43449">
        <ele>692.59997558594</ele>
        <time>2024-03-01T13:59:32.000Z</time>
      </trkpt>
      <trkpt lat="45.29793" lon="5.4344">
        <ele>690.59997558594</ele>
        <time>2024-03-01T13:59:36.000Z</time>
      </trkpt>
      <trkpt lat="45.29792" lon="5.43438">
        <ele>690.40002441406</ele>
        <time>2024-03-01T13:59:37.000Z</time>
      </trkpt>
      <trkpt lat="45.2979" lon="5.43435">
        <ele>689.20001220703</ele>
        <time>2024-03-01T13:59:38.000Z</time>
      </trkpt>
      <trkpt lat="45.29789" lon="5.43431">
        <ele>688.59997558594</ele>
        <time>2024-03-01T13:59:39.000Z</time>
      </trkpt>
      <trkpt lat="45.29788" lon="5.43426">
        <ele>687.40002441406</ele>
        <time>2024-03-01T13:59:40.000Z</time>
      </trkpt>
      <trkpt lat="45.29787" lon="5.43422">
        <ele>686.59997558594</ele>
        <time>2024-03-01T13:59:41.000Z</time>
      </trkpt>
      <trkpt lat="45.29787" lon="5.43415">
        <ele>685.59997558594</ele>
        <time>2024-03-01T13:59:43.000Z</time>
      </trkpt>
      <trkpt lat="45.29786" lon="5.43413">
        <ele>685.59997558594</ele>
        <time>2024-03-01T13:59:44.000Z</time>
      </trkpt>
      <trkpt lat="45.29784" lon="5.43407">
        <ele>685.59997558594</ele>
        <time>2024-03-01T13:59:46.000Z</time>
      </trkpt>
      <trkpt lat="45.29784" lon="5.43402">
        <ele>685.40002441406</ele>
        <time>2024-03-01T13:59:48.000Z</time>
      </trkpt>
      <trkpt lat="45.29783" lon="5.43399">
        <ele>685.59997558594</ele>
        <time>2024-03-01T13:59:49.000Z</time>
      </trkpt>
      <trkpt lat="45.29781" lon="5.43396">
        <ele>686</ele>
        <time>2024-03-01T13:59:50.000Z</time>
      </trkpt>
      <trkpt lat="45.2978" lon="5.43394">
        <ele>686.20001220703</ele>
        <time>2024-03-01T13:59:51.000Z</time>
      </trkpt>
      <trkpt lat="45.29778" lon="5.43386">
        <ele>686.59997558594</ele>
        <time>2024-03-01T13:59:53.000Z</time>
      </trkpt>
      <trkpt lat="45.29777" lon="5.43383">
        <ele>686.79998779297</ele>
        <time>2024-03-01T13:59:54.000Z</time>
      </trkpt>
      <trkpt lat="45.29775" lon="5.43373">
        <ele>687.20001220703</ele>
        <time>2024-03-01T13:59:56.000Z</time>
      </trkpt>
      <trkpt lat="45.29773" lon="5.43365">
        <ele>687.59997558594</ele>
        <time>2024-03-01T13:59:58.000Z</time>
      </trkpt>
      <trkpt lat="45.29772" lon="5.43363">
        <ele>688</ele>
        <time>2024-03-01T13:59:59.000Z</time>
      </trkpt>
      <trkpt lat="45.29771" lon="5.43359">
        <ele>688.20001220703</ele>
        <time>2024-03-01T14:00:00.000Z</time>
      </trkpt>
      <trkpt lat="45.29771" lon="5.43354">
        <ele>688.40002441406</ele>
        <time>2024-03-01T14:00:01.000Z</time>
      </trkpt>
      <trkpt lat="45.29768" lon="5.43349">
        <ele>688.79998779297</ele>
        <time>2024-03-01T14:00:02.000Z</time>
      </trkpt>
      <trkpt lat="45.29767" lon="5.43344">
        <ele>689</ele>
        <time>2024-03-01T14:00:03.000Z</time>
      </trkpt>
      <trkpt lat="45.29765" lon="5.43338">
        <ele>689.40002441406</ele>
        <time>2024-03-01T14:00:05.000Z</time>
      </trkpt>
      <trkpt lat="45.29763" lon="5.43333">
        <ele>689.59997558594</ele>
        <time>2024-03-01T14:00:06.000Z</time>
      </trkpt>
      <trkpt lat="45.29762" lon="5.43328">
        <ele>689.79998779297</ele>
        <time>2024-03-01T14:00:07.000Z</time>
      </trkpt>
      <trkpt lat="45.2976" lon="5.43324">
        <ele>690</ele>
        <time>2024-03-01T14:00:08.000Z</time>
      </trkpt>
      <trkpt lat="45.2976" lon="5.43312">
        <ele>690.79998779297</ele>
        <time>2024-03-01T14:00:13.000Z</time>
      </trkpt>
      <trkpt lat="45.29759" lon="5.43309">
        <ele>691</ele>
        <time>2024-03-01T14:00:14.000Z</time>
      </trkpt>
      <trkpt lat="45.29757" lon="5.43306">
        <ele>691.20001220703</ele>
        <time>2024-03-01T14:00:15.000Z</time>
      </trkpt>
      <trkpt lat="45.29755" lon="5.43302">
        <ele>691.59997558594</ele>
        <time>2024-03-01T14:00:16.000Z</time>
      </trkpt>
      <trkpt lat="45.29755" lon="5.43294">
        <ele>692</ele>
        <time>2024-03-01T14:00:19.000Z</time>
      </trkpt>
      <trkpt lat="45.29751" lon="5.43288">
        <ele>692.20001220703</ele>
        <time>2024-03-01T14:00:21.000Z</time>
      </trkpt>
      <trkpt lat="45.29751" lon="5.43285">
        <ele>692.40002441406</ele>
        <time>2024-03-01T14:00:22.000Z</time>
      </trkpt>
      <trkpt lat="45.2975" lon="5.43283">
        <ele>692.79998779297</ele>
        <time>2024-03-01T14:00:23.000Z</time>
      </trkpt>
      <trkpt lat="45.2975" lon="5.43279">
        <ele>693.79998779297</ele>
        <time>2024-03-01T14:00:26.000Z</time>
      </trkpt>
      <trkpt lat="45.29748" lon="5.43276">
        <ele>694</ele>
        <time>2024-03-01T14:00:27.000Z</time>
      </trkpt>
      <trkpt lat="45.29748" lon="5.43274">
        <ele>694.40002441406</ele>
        <time>2024-03-01T14:00:28.000Z</time>
      </trkpt>
      <trkpt lat="45.29749" lon="5.43273">
        <ele>694.59997558594</ele>
        <time>2024-03-01T14:00:29.000Z</time>
      </trkpt>
      <trkpt lat="45.29749" lon="5.43271">
        <ele>695</ele>
        <time>2024-03-01T14:00:30.000Z</time>
      </trkpt>
      <trkpt lat="45.29748" lon="5.4327">
        <ele>695.20001220703</ele>
        <time>2024-03-01T14:00:31.000Z</time>
      </trkpt>
      <trkpt lat="45.29748" lon="5.43268">
        <ele>695.40002441406</ele>
        <time>2024-03-01T14:00:32.000Z</time>
      </trkpt>
      <trkpt lat="45.29747" lon="5.43266">
        <ele>695.79998779297</ele>
        <time>2024-03-01T14:00:33.000Z</time>
      </trkpt>
      <trkpt lat="45.29747" lon="5.43264">
        <ele>696.20001220703</ele>
        <time>2024-03-01T14:00:34.000Z</time>
      </trkpt>
      <trkpt lat="45.29746" lon="5.43261">
        <ele>696.40002441406</ele>
        <time>2024-03-01T14:00:35.000Z</time>
      </trkpt>
      <trkpt lat="45.29745" lon="5.43259">
        <ele>696.59997558594</ele>
        <time>2024-03-01T14:00:36.000Z</time>
      </trkpt>
      <trkpt lat="45.29745" lon="5.43255">
        <ele>697.20001220703</ele>
        <time>2024-03-01T14:00:38.000Z</time>
      </trkpt>
      <trkpt lat="45.29744" lon="5.43253">
        <ele>697.40002441406</ele>
        <time>2024-03-01T14:00:39.000Z</time>
      </trkpt>
      <trkpt lat="45.29743" lon="5.43249">
        <ele>697.59997558594</ele>
        <time>2024-03-01T14:00:40.000Z</time>
      </trkpt>
      <trkpt lat="45.29741" lon="5.43243">
        <ele>697.79998779297</ele>
        <time>2024-03-01T14:00:42.000Z</time>
      </trkpt>
      <trkpt lat="45.2974" lon="5.43241">
        <ele>698</ele>
        <time>2024-03-01T14:00:43.000Z</time>
      </trkpt>
      <trkpt lat="45.29739" lon="5.43238">
        <ele>698</ele>
        <time>2024-03-01T14:00:44.000Z</time>
      </trkpt>
      <trkpt lat="45.29739" lon="5.43228">
        <ele>698.40002441406</ele>
        <time>2024-03-01T14:00:48.000Z</time>
      </trkpt>
      <trkpt lat="45.29737" lon="5.43222">
        <ele>698.79998779297</ele>
        <time>2024-03-01T14:00:50.000Z</time>
      </trkpt>
      <trkpt lat="45.29737" lon="5.43217">
        <ele>699.20001220703</ele>
        <time>2024-03-01T14:00:52.000Z</time>
      </trkpt>
      <trkpt lat="45.29736" lon="5.43214">
        <ele>699.20001220703</ele>
        <time>2024-03-01T14:00:53.000Z</time>
      </trkpt>
      <trkpt lat="45.29736" lon="5.43211">
        <ele>699.40002441406</ele>
        <time>2024-03-01T14:00:54.000Z</time>
      </trkpt>
      <trkpt lat="45.29735" lon="5.43208">
        <ele>699.40002441406</ele>
        <time>2024-03-01T14:00:55.000Z</time>
      </trkpt>
      <trkpt lat="45.29735" lon="5.43204">
        <ele>699.59997558594</ele>
        <time>2024-03-01T14:00:56.000Z</time>
      </trkpt>
      <trkpt lat="45.29734" lon="5.43201">
        <ele>699.59997558594</ele>
        <time>2024-03-01T14:00:57.000Z</time>
      </trkpt>
      <trkpt lat="45.29734" lon="5.43198">
        <ele>699.59997558594</ele>
        <time>2024-03-01T14:00:58.000Z</time>
      </trkpt>
      <trkpt lat="45.29733" lon="5.43195">
        <ele>699.79998779297</ele>
        <time>2024-03-01T14:00:59.000Z</time>
      </trkpt>
      <trkpt lat="45.29733" lon="5.43188">
        <ele>700</ele>
        <time>2024-03-01T14:01:01.000Z</time>
      </trkpt>
      <trkpt lat="45.29732" lon="5.43185">
        <ele>700.20001220703</ele>
        <time>2024-03-01T14:01:02.000Z</time>
      </trkpt>
      <trkpt lat="45.29732" lon="5.43175">
        <ele>700.59997558594</ele>
        <time>2024-03-01T14:01:05.000Z</time>
      </trkpt>
      <trkpt lat="45.29731" lon="5.43172">
        <ele>700.79998779297</ele>
        <time>2024-03-01T14:01:06.000Z</time>
      </trkpt>
      <trkpt lat="45.29731" lon="5.4315">
        <ele>702</ele>
        <time>2024-03-01T14:01:13.000Z</time>
      </trkpt>
      <trkpt lat="45.2973" lon="5.43147">
        <ele>702.20001220703</ele>
        <time>2024-03-01T14:01:14.000Z</time>
      </trkpt>
      <trkpt lat="45.29731" lon="5.43144">
        <ele>702.40002441406</ele>
        <time>2024-03-01T14:01:15.000Z</time>
      </trkpt>
      <trkpt lat="45.29731" lon="5.43136">
        <ele>703</ele>
        <time>2024-03-01T14:01:17.000Z</time>
      </trkpt>
      <trkpt lat="45.29732" lon="5.43132">
        <ele>703.20001220703</ele>
        <time>2024-03-01T14:01:18.000Z</time>
      </trkpt>
      <trkpt lat="45.29732" lon="5.43129">
        <ele>703.20001220703</ele>
        <time>2024-03-01T14:01:19.000Z</time>
      </trkpt>
      <trkpt lat="45.29733" lon="5.43126">
        <ele>703.40002441406</ele>
        <time>2024-03-01T14:01:20.000Z</time>
      </trkpt>
      <trkpt lat="45.29734" lon="5.43124">
        <ele>703.40002441406</ele>
        <time>2024-03-01T14:01:21.000Z</time>
      </trkpt>
      <trkpt lat="45.29735" lon="5.4312">
        <ele>703.79998779297</ele>
        <time>2024-03-01T14:01:22.000Z</time>
      </trkpt>
      <trkpt lat="45.29748" lon="5.43075">
        <ele>708</ele>
        <time>2024-03-01T14:02:06.000Z</time>
      </trkpt>
      <trkpt lat="45.2975" lon="5.43068">
        <ele>707.59997558594</ele>
        <time>2024-03-01T14:02:07.000Z</time>
      </trkpt>
      <trkpt lat="45.29751" lon="5.43061">
        <ele>707</ele>
        <time>2024-03-01T14:02:08.000Z</time>
      </trkpt>
      <trkpt lat="45.29757" lon="5.43047">
        <ele>706.40002441406</ele>
        <time>2024-03-01T14:02:10.000Z</time>
      </trkpt>
      <trkpt lat="45.2976" lon="5.43039">
        <ele>706</ele>
        <time>2024-03-01T14:02:11.000Z</time>
      </trkpt>
      <trkpt lat="45.29764" lon="5.43031">
        <ele>705</ele>
        <time>2024-03-01T14:02:12.000Z</time>
      </trkpt>
      <trkpt lat="45.29774" lon="5.43015">
        <ele>704</ele>
        <time>2024-03-01T14:02:14.000Z</time>
      </trkpt>
      <trkpt lat="45.29779" lon="5.43008">
        <ele>702.79998779297</ele>
        <time>2024-03-01T14:02:15.000Z</time>
      </trkpt>
      <trkpt lat="45.29785" lon="5.43001">
        <ele>702.20001220703</ele>
        <time>2024-03-01T14:02:16.000Z</time>
      </trkpt>
      <trkpt lat="45.29791" lon="5.42996">
        <ele>701.20001220703</ele>
        <time>2024-03-01T14:02:17.000Z</time>
      </trkpt>
      <trkpt lat="45.29797" lon="5.42992">
        <ele>700.79998779297</ele>
        <time>2024-03-01T14:02:18.000Z</time>
      </trkpt>
      <trkpt lat="45.29802" lon="5.42989">
        <ele>699.79998779297</ele>
        <time>2024-03-01T14:02:19.000Z</time>
      </trkpt>
      <trkpt lat="45.29808" lon="5.42986">
        <ele>699</ele>
        <time>2024-03-01T14:02:20.000Z</time>
      </trkpt>
      <trkpt lat="45.29813" lon="5.42982">
        <ele>698.79998779297</ele>
        <time>2024-03-01T14:02:21.000Z</time>
      </trkpt>
      <trkpt lat="45.29819" lon="5.4298">
        <ele>698.40002441406</ele>
        <time>2024-03-01T14:02:22.000Z</time>
      </trkpt>
      <trkpt lat="45.29829" lon="5.42978">
        <ele>698</ele>
        <time>2024-03-01T14:02:24.000Z</time>
      </trkpt>
      <trkpt lat="45.29835" lon="5.42979">
        <ele>697.79998779297</ele>
        <time>2024-03-01T14:02:25.000Z</time>
      </trkpt>
      <trkpt lat="45.29842" lon="5.42979">
        <ele>697.40002441406</ele>
        <time>2024-03-01T14:02:26.000Z</time>
      </trkpt>
      <trkpt lat="45.29848" lon="5.42978">
        <ele>697.20001220703</ele>
        <time>2024-03-01T14:02:27.000Z</time>
      </trkpt>
      <trkpt lat="45.29852" lon="5.42976">
        <ele>697</ele>
        <time>2024-03-01T14:02:28.000Z</time>
      </trkpt>
      <trkpt lat="45.29855" lon="5.42973">
        <ele>696.40002441406</ele>
        <time>2024-03-01T14:02:29.000Z</time>
      </trkpt>
      <trkpt lat="45.29859" lon="5.42971">
        <ele>695.59997558594</ele>
        <time>2024-03-01T14:02:30.000Z</time>
      </trkpt>
      <trkpt lat="45.29861" lon="5.42968">
        <ele>694.40002441406</ele>
        <time>2024-03-01T14:02:31.000Z</time>
      </trkpt>
      <trkpt lat="45.29864" lon="5.42964">
        <ele>692.79998779297</ele>
        <time>2024-03-01T14:02:32.000Z</time>
      </trkpt>
      <trkpt lat="45.29866" lon="5.42961">
        <ele>692.20001220703</ele>
        <time>2024-03-01T14:02:33.000Z</time>
      </trkpt>
      <trkpt lat="45.29869" lon="5.42957">
        <ele>691.40002441406</ele>
        <time>2024-03-01T14:02:34.000Z</time>
      </trkpt>
      <trkpt lat="45.29871" lon="5.42952">
        <ele>691.40002441406</ele>
        <time>2024-03-01T14:02:35.000Z</time>
      </trkpt>
      <trkpt lat="45.29873" lon="5.42948">
        <ele>691.20001220703</ele>
        <time>2024-03-01T14:02:36.000Z</time>
      </trkpt>
      <trkpt lat="45.29876" lon="5.42936">
        <ele>691.20001220703</ele>
        <time>2024-03-01T14:02:39.000Z</time>
      </trkpt>
      <trkpt lat="45.29878" lon="5.42931">
        <ele>691.40002441406</ele>
        <time>2024-03-01T14:02:40.000Z</time>
      </trkpt>
      <trkpt lat="45.29879" lon="5.42925">
        <ele>691.59997558594</ele>
        <time>2024-03-01T14:02:41.000Z</time>
      </trkpt>
      <trkpt lat="45.29879" lon="5.42913">
        <ele>691.79998779297</ele>
        <time>2024-03-01T14:02:43.000Z</time>
      </trkpt>
      <trkpt lat="45.29881" lon="5.42907">
        <ele>692</ele>
        <time>2024-03-01T14:02:44.000Z</time>
      </trkpt>
      <trkpt lat="45.29882" lon="5.42901">
        <ele>692</ele>
        <time>2024-03-01T14:02:45.000Z</time>
      </trkpt>
      <trkpt lat="45.29884" lon="5.42887">
        <ele>692.20001220703</ele>
        <time>2024-03-01T14:02:47.000Z</time>
      </trkpt>
      <trkpt lat="45.29883" lon="5.42879">
        <ele>692.20001220703</ele>
        <time>2024-03-01T14:02:48.000Z</time>
      </trkpt>
      <trkpt lat="45.29883" lon="5.42871">
        <ele>692.20001220703</ele>
        <time>2024-03-01T14:02:49.000Z</time>
      </trkpt>
      <trkpt lat="45.29881" lon="5.42863">
        <ele>692.20001220703</ele>
        <time>2024-03-01T14:02:50.000Z</time>
      </trkpt>
      <trkpt lat="45.29873" lon="5.42851">
        <ele>692</ele>
        <time>2024-03-01T14:02:52.000Z</time>
      </trkpt>
      <trkpt lat="45.29868" lon="5.42845">
        <ele>691.79998779297</ele>
        <time>2024-03-01T14:02:53.000Z</time>
      </trkpt>
      <trkpt lat="45.29865" lon="5.4284">
        <ele>691.59997558594</ele>
        <time>2024-03-01T14:02:54.000Z</time>
      </trkpt>
      <trkpt lat="45.29862" lon="5.42834">
        <ele>691.59997558594</ele>
        <time>2024-03-01T14:02:55.000Z</time>
      </trkpt>
      <trkpt lat="45.29856" lon="5.42824">
        <ele>691.59997558594</ele>
        <time>2024-03-01T14:02:57.000Z</time>
      </trkpt>
      <trkpt lat="45.29854" lon="5.42819">
        <ele>691.59997558594</ele>
        <time>2024-03-01T14:02:58.000Z</time>
      </trkpt>
      <trkpt lat="45.29852" lon="5.42817">
        <ele>691.59997558594</ele>
        <time>2024-03-01T14:02:59.000Z</time>
      </trkpt>
      <trkpt lat="45.29851" lon="5.42813">
        <ele>691.79998779297</ele>
        <time>2024-03-01T14:03:00.000Z</time>
      </trkpt>
      <trkpt lat="45.2985" lon="5.4281">
        <ele>691.79998779297</ele>
        <time>2024-03-01T14:03:01.000Z</time>
      </trkpt>
      <trkpt lat="45.29849" lon="5.42806">
        <ele>691.79998779297</ele>
        <time>2024-03-01T14:03:02.000Z</time>
      </trkpt>
      <trkpt lat="45.29847" lon="5.42801">
        <ele>692</ele>
        <time>2024-03-01T14:03:03.000Z</time>
      </trkpt>
      <trkpt lat="45.29847" lon="5.42796">
        <ele>692.20001220703</ele>
        <time>2024-03-01T14:03:04.000Z</time>
      </trkpt>
      <trkpt lat="45.29846" lon="5.42792">
        <ele>692.59997558594</ele>
        <time>2024-03-01T14:03:05.000Z</time>
      </trkpt>
      <trkpt lat="45.29845" lon="5.42789">
        <ele>692.59997558594</ele>
        <time>2024-03-01T14:03:06.000Z</time>
      </trkpt>
      <trkpt lat="45.29845" lon="5.42781">
        <ele>692.79998779297</ele>
        <time>2024-03-01T14:03:08.000Z</time>
      </trkpt>
      <trkpt lat="45.29844" lon="5.42776">
        <ele>693</ele>
        <time>2024-03-01T14:03:09.000Z</time>
      </trkpt>
      <trkpt lat="45.2984" lon="5.4276">
        <ele>693.40002441406</ele>
        <time>2024-03-01T14:03:13.000Z</time>
      </trkpt>
      <trkpt lat="45.29841" lon="5.42756">
        <ele>693.59997558594</ele>
        <time>2024-03-01T14:03:14.000Z</time>
      </trkpt>
      <trkpt lat="45.29841" lon="5.42748">
        <ele>693.79998779297</ele>
        <time>2024-03-01T14:03:16.000Z</time>
      </trkpt>
      <trkpt lat="45.2984" lon="5.42745">
        <ele>694.20001220703</ele>
        <time>2024-03-01T14:03:17.000Z</time>
      </trkpt>
      <trkpt lat="45.29841" lon="5.42742">
        <ele>694.20001220703</ele>
        <time>2024-03-01T14:03:18.000Z</time>
      </trkpt>
      <trkpt lat="45.29842" lon="5.4274">
        <ele>694.59997558594</ele>
        <time>2024-03-01T14:03:19.000Z</time>
      </trkpt>
      <trkpt lat="45.29844" lon="5.42737">
        <ele>694.59997558594</ele>
        <time>2024-03-01T14:03:20.000Z</time>
      </trkpt>
      <trkpt lat="45.29845" lon="5.42734">
        <ele>694.79998779297</ele>
        <time>2024-03-01T14:03:21.000Z</time>
      </trkpt>
      <trkpt lat="45.29847" lon="5.42731">
        <ele>695</ele>
        <time>2024-03-01T14:03:22.000Z</time>
      </trkpt>
      <trkpt lat="45.29852" lon="5.42726">
        <ele>695.59997558594</ele>
        <time>2024-03-01T14:03:24.000Z</time>
      </trkpt>
      <trkpt lat="45.29854" lon="5.42723">
        <ele>695.59997558594</ele>
        <time>2024-03-01T14:03:25.000Z</time>
      </trkpt>
      <trkpt lat="45.29855" lon="5.42721">
        <ele>695.79998779297</ele>
        <time>2024-03-01T14:03:26.000Z</time>
      </trkpt>
      <trkpt lat="45.29856" lon="5.42718">
        <ele>695.79998779297</ele>
        <time>2024-03-01T14:03:27.000Z</time>
      </trkpt>
      <trkpt lat="45.29858" lon="5.42716">
        <ele>696</ele>
        <time>2024-03-01T14:03:28.000Z</time>
      </trkpt>
      <trkpt lat="45.2986" lon="5.4271">
        <ele>696.20001220703</ele>
        <time>2024-03-01T14:03:30.000Z</time>
      </trkpt>
      <trkpt lat="45.29862" lon="5.42708">
        <ele>696.40002441406</ele>
        <time>2024-03-01T14:03:31.000Z</time>
      </trkpt>
      <trkpt lat="45.29865" lon="5.42703">
        <ele>696.40002441406</ele>
        <time>2024-03-01T14:03:32.000Z</time>
      </trkpt>
      <trkpt lat="45.29867" lon="5.42699">
        <ele>696.40002441406</ele>
        <time>2024-03-01T14:03:33.000Z</time>
      </trkpt>
      <trkpt lat="45.29868" lon="5.42695">
        <ele>696.59997558594</ele>
        <time>2024-03-01T14:03:34.000Z</time>
      </trkpt>
      <trkpt lat="45.2987" lon="5.42691">
        <ele>696.59997558594</ele>
        <time>2024-03-01T14:03:35.000Z</time>
      </trkpt>
      <trkpt lat="45.29873" lon="5.42687">
        <ele>696.59997558594</ele>
        <time>2024-03-01T14:03:36.000Z</time>
      </trkpt>
      <trkpt lat="45.29876" lon="5.42682">
        <ele>696.59997558594</ele>
        <time>2024-03-01T14:03:37.000Z</time>
      </trkpt>
      <trkpt lat="45.29878" lon="5.42674">
        <ele>696.59997558594</ele>
        <time>2024-03-01T14:03:38.000Z</time>
      </trkpt>
      <trkpt lat="45.29881" lon="5.42667">
        <ele>696.40002441406</ele>
        <time>2024-03-01T14:03:39.000Z</time>
      </trkpt>
      <trkpt lat="45.29882" lon="5.42661">
        <ele>696.20001220703</ele>
        <time>2024-03-01T14:03:40.000Z</time>
      </trkpt>
      <trkpt lat="45.29884" lon="5.42656">
        <ele>696.20001220703</ele>
        <time>2024-03-01T14:03:41.000Z</time>
      </trkpt>
      <trkpt lat="45.29886" lon="5.4265">
        <ele>695.59997558594</ele>
        <time>2024-03-01T14:03:42.000Z</time>
      </trkpt>
      <trkpt lat="45.29886" lon="5.42642">
        <ele>694.79998779297</ele>
        <time>2024-03-01T14:03:43.000Z</time>
      </trkpt>
      <trkpt lat="45.29887" lon="5.42633">
        <ele>694.59997558594</ele>
        <time>2024-03-01T14:03:44.000Z</time>
      </trkpt>
      <trkpt lat="45.29887" lon="5.42623">
        <ele>691.20001220703</ele>
        <time>2024-03-01T14:03:48.000Z</time>
      </trkpt>
      <trkpt lat="45.29885" lon="5.42621">
        <ele>689.59997558594</ele>
        <time>2024-03-01T14:03:50.000Z</time>
      </trkpt>
      <trkpt lat="45.29884" lon="5.42618">
        <ele>689.40002441406</ele>
        <time>2024-03-01T14:03:51.000Z</time>
      </trkpt>
      <trkpt lat="45.29882" lon="5.42616">
        <ele>689.20001220703</ele>
        <time>2024-03-01T14:03:52.000Z</time>
      </trkpt>
      <trkpt lat="45.29866" lon="5.42592">
        <ele>689</ele>
        <time>2024-03-01T14:04:00.000Z</time>
      </trkpt>
      <trkpt lat="45.29864" lon="5.4259">
        <ele>689.20001220703</ele>
        <time>2024-03-01T14:04:01.000Z</time>
      </trkpt>
      <trkpt lat="45.29858" lon="5.42581">
        <ele>689.59997558594</ele>
        <time>2024-03-01T14:04:04.000Z</time>
      </trkpt>
      <trkpt lat="45.29855" lon="5.42578">
        <ele>689.79998779297</ele>
        <time>2024-03-01T14:04:05.000Z</time>
      </trkpt>
      <trkpt lat="45.29853" lon="5.42575">
        <ele>690</ele>
        <time>2024-03-01T14:04:06.000Z</time>
      </trkpt>
      <trkpt lat="45.2985" lon="5.42574">
        <ele>690.20001220703</ele>
        <time>2024-03-01T14:04:07.000Z</time>
      </trkpt>
      <trkpt lat="45.29847" lon="5.42571">
        <ele>690.59997558594</ele>
        <time>2024-03-01T14:04:09.000Z</time>
      </trkpt>
      <trkpt lat="45.29845" lon="5.42568">
        <ele>690.79998779297</ele>
        <time>2024-03-01T14:04:10.000Z</time>
      </trkpt>
      <trkpt lat="45.2984" lon="5.42566">
        <ele>691</ele>
        <time>2024-03-01T14:04:11.000Z</time>
      </trkpt>
      <trkpt lat="45.29835" lon="5.42561">
        <ele>691.20001220703</ele>
        <time>2024-03-01T14:04:13.000Z</time>
      </trkpt>
      <trkpt lat="45.29832" lon="5.42559">
        <ele>691.40002441406</ele>
        <time>2024-03-01T14:04:14.000Z</time>
      </trkpt>
      <trkpt lat="45.29826" lon="5.42557">
        <ele>691.59997558594</ele>
        <time>2024-03-01T14:04:16.000Z</time>
      </trkpt>
      <trkpt lat="45.29822" lon="5.42556">
        <ele>691.59997558594</ele>
        <time>2024-03-01T14:04:17.000Z</time>
      </trkpt>
      <trkpt lat="45.2982" lon="5.42553">
        <ele>691.59997558594</ele>
        <time>2024-03-01T14:04:18.000Z</time>
      </trkpt>
      <trkpt lat="45.29819" lon="5.42551">
        <ele>691.59997558594</ele>
        <time>2024-03-01T14:04:19.000Z</time>
      </trkpt>
      <trkpt lat="45.29817" lon="5.42551">
        <ele>691.79998779297</ele>
        <time>2024-03-01T14:04:20.000Z</time>
      </trkpt>
      <trkpt lat="45.29817" lon="5.4255">
        <ele>692</ele>
        <time>2024-03-01T14:04:21.000Z</time>
      </trkpt>
      <trkpt lat="45.29815" lon="5.4255">
        <ele>692</ele>
        <time>2024-03-01T14:04:22.000Z</time>
      </trkpt>
      <trkpt lat="45.29809" lon="5.42544">
        <ele>692.59997558594</ele>
        <time>2024-03-01T14:04:26.000Z</time>
      </trkpt>
      <trkpt lat="45.29807" lon="5.42544">
        <ele>693</ele>
        <time>2024-03-01T14:04:27.000Z</time>
      </trkpt>
      <trkpt lat="45.29806" lon="5.42542">
        <ele>693</ele>
        <time>2024-03-01T14:04:28.000Z</time>
      </trkpt>
      <trkpt lat="45.29804" lon="5.4254">
        <ele>693.40002441406</ele>
        <time>2024-03-01T14:04:30.000Z</time>
      </trkpt>
      <trkpt lat="45.29803" lon="5.42538">
        <ele>693.59997558594</ele>
        <time>2024-03-01T14:04:31.000Z</time>
      </trkpt>
      <trkpt lat="45.29793" lon="5.42528">
        <ele>696.20001220703</ele>
        <time>2024-03-01T14:04:39.000Z</time>
      </trkpt>
      <trkpt lat="45.29792" lon="5.42526">
        <ele>696.20001220703</ele>
        <time>2024-03-01T14:04:40.000Z</time>
      </trkpt>
      <trkpt lat="45.2979" lon="5.42524">
        <ele>696.59997558594</ele>
        <time>2024-03-01T14:04:41.000Z</time>
      </trkpt>
      <trkpt lat="45.2979" lon="5.42522">
        <ele>696.59997558594</ele>
        <time>2024-03-01T14:04:42.000Z</time>
      </trkpt>
      <trkpt lat="45.29788" lon="5.4252">
        <ele>696.79998779297</ele>
        <time>2024-03-01T14:04:44.000Z</time>
      </trkpt>
      <trkpt lat="45.29787" lon="5.42518">
        <ele>697</ele>
        <time>2024-03-01T14:04:45.000Z</time>
      </trkpt>
      <trkpt lat="45.29786" lon="5.42517">
        <ele>697.20001220703</ele>
        <time>2024-03-01T14:04:46.000Z</time>
      </trkpt>
      <trkpt lat="45.29785" lon="5.42514">
        <ele>697.40002441406</ele>
        <time>2024-03-01T14:04:47.000Z</time>
      </trkpt>
      <trkpt lat="45.29782" lon="5.42508">
        <ele>698</ele>
        <time>2024-03-01T14:04:50.000Z</time>
      </trkpt>
      <trkpt lat="45.29781" lon="5.42505">
        <ele>698.20001220703</ele>
        <time>2024-03-01T14:04:51.000Z</time>
      </trkpt>
      <trkpt lat="45.29779" lon="5.42501">
        <ele>698.59997558594</ele>
        <time>2024-03-01T14:04:53.000Z</time>
      </trkpt>
      <trkpt lat="45.29778" lon="5.42498">
        <ele>698.79998779297</ele>
        <time>2024-03-01T14:04:54.000Z</time>
      </trkpt>
      <trkpt lat="45.29776" lon="5.42494">
        <ele>699.40002441406</ele>
        <time>2024-03-01T14:04:56.000Z</time>
      </trkpt>
      <trkpt lat="45.29775" lon="5.42493">
        <ele>699.40002441406</ele>
        <time>2024-03-01T14:04:57.000Z</time>
      </trkpt>
      <trkpt lat="45.29771" lon="5.42481">
        <ele>700.59997558594</ele>
        <time>2024-03-01T14:05:01.000Z</time>
      </trkpt>
      <trkpt lat="45.29769" lon="5.42478">
        <ele>700.59997558594</ele>
        <time>2024-03-01T14:05:02.000Z</time>
      </trkpt>
      <trkpt lat="45.29769" lon="5.42474">
        <ele>701</ele>
        <time>2024-03-01T14:05:04.000Z</time>
      </trkpt>
      <trkpt lat="45.29767" lon="5.42471">
        <ele>701.20001220703</ele>
        <time>2024-03-01T14:05:05.000Z</time>
      </trkpt>
      <trkpt lat="45.29766" lon="5.42468">
        <ele>701.20001220703</ele>
        <time>2024-03-01T14:05:06.000Z</time>
      </trkpt>
      <trkpt lat="45.29765" lon="5.42464">
        <ele>701.40002441406</ele>
        <time>2024-03-01T14:05:07.000Z</time>
      </trkpt>
      <trkpt lat="45.29765" lon="5.42459">
        <ele>701.59997558594</ele>
        <time>2024-03-01T14:05:09.000Z</time>
      </trkpt>
      <trkpt lat="45.29764" lon="5.42458">
        <ele>701.79998779297</ele>
        <time>2024-03-01T14:05:10.000Z</time>
      </trkpt>
      <trkpt lat="45.29763" lon="5.42456">
        <ele>702</ele>
        <time>2024-03-01T14:05:11.000Z</time>
      </trkpt>
      <trkpt lat="45.29761" lon="5.42454">
        <ele>702.20001220703</ele>
        <time>2024-03-01T14:05:12.000Z</time>
      </trkpt>
      <trkpt lat="45.29761" lon="5.42453">
        <ele>702.40002441406</ele>
        <time>2024-03-01T14:05:13.000Z</time>
      </trkpt>
      <trkpt lat="45.29759" lon="5.4245">
        <ele>702.40002441406</ele>
        <time>2024-03-01T14:05:14.000Z</time>
      </trkpt>
      <trkpt lat="45.29758" lon="5.42448">
        <ele>702.59997558594</ele>
        <time>2024-03-01T14:05:15.000Z</time>
      </trkpt>
      <trkpt lat="45.29759" lon="5.42445">
        <ele>702.59997558594</ele>
        <time>2024-03-01T14:05:16.000Z</time>
      </trkpt>
      <trkpt lat="45.29758" lon="5.42443">
        <ele>702.79998779297</ele>
        <time>2024-03-01T14:05:17.000Z</time>
      </trkpt>
      <trkpt lat="45.29756" lon="5.4244">
        <ele>703</ele>
        <time>2024-03-01T14:05:18.000Z</time>
      </trkpt>
      <trkpt lat="45.29756" lon="5.42436">
        <ele>703.40002441406</ele>
        <time>2024-03-01T14:05:20.000Z</time>
      </trkpt>
      <trkpt lat="45.29757" lon="5.42434">
        <ele>703.40002441406</ele>
        <time>2024-03-01T14:05:21.000Z</time>
      </trkpt>
      <trkpt lat="45.29757" lon="5.42415">
        <ele>704.40002441406</ele>
        <time>2024-03-01T14:05:28.000Z</time>
      </trkpt>
      <trkpt lat="45.29758" lon="5.42412">
        <ele>704.59997558594</ele>
        <time>2024-03-01T14:05:29.000Z</time>
      </trkpt>
      <trkpt lat="45.29758" lon="5.42409">
        <ele>704.79998779297</ele>
        <time>2024-03-01T14:05:30.000Z</time>
      </trkpt>
      <trkpt lat="45.29759" lon="5.42407">
        <ele>705</ele>
        <time>2024-03-01T14:05:31.000Z</time>
      </trkpt>
      <trkpt lat="45.29759" lon="5.42404">
        <ele>705.20001220703</ele>
        <time>2024-03-01T14:05:32.000Z</time>
      </trkpt>
      <trkpt lat="45.2976" lon="5.42401">
        <ele>705.40002441406</ele>
        <time>2024-03-01T14:05:33.000Z</time>
      </trkpt>
      <trkpt lat="45.29759" lon="5.42398">
        <ele>705.59997558594</ele>
        <time>2024-03-01T14:05:34.000Z</time>
      </trkpt>
      <trkpt lat="45.2976" lon="5.42397">
        <ele>705.59997558594</ele>
        <time>2024-03-01T14:05:35.000Z</time>
      </trkpt>
      <trkpt lat="45.2976" lon="5.42394">
        <ele>705.79998779297</ele>
        <time>2024-03-01T14:05:36.000Z</time>
      </trkpt>
      <trkpt lat="45.29762" lon="5.42391">
        <ele>706</ele>
        <time>2024-03-01T14:05:37.000Z</time>
      </trkpt>
      <trkpt lat="45.29762" lon="5.42389">
        <ele>706.40002441406</ele>
        <time>2024-03-01T14:05:38.000Z</time>
      </trkpt>
      <trkpt lat="45.29763" lon="5.42387">
        <ele>706.59997558594</ele>
        <time>2024-03-01T14:05:39.000Z</time>
      </trkpt>
      <trkpt lat="45.29763" lon="5.42385">
        <ele>706.79998779297</ele>
        <time>2024-03-01T14:05:40.000Z</time>
      </trkpt>
      <trkpt lat="45.29764" lon="5.42381">
        <ele>707.20001220703</ele>
        <time>2024-03-01T14:05:41.000Z</time>
      </trkpt>
      <trkpt lat="45.29764" lon="5.4238">
        <ele>707.20001220703</ele>
        <time>2024-03-01T14:05:42.000Z</time>
      </trkpt>
      <trkpt lat="45.29765" lon="5.42378">
        <ele>707.40002441406</ele>
        <time>2024-03-01T14:05:43.000Z</time>
      </trkpt>
      <trkpt lat="45.29765" lon="5.42376">
        <ele>707.59997558594</ele>
        <time>2024-03-01T14:05:44.000Z</time>
      </trkpt>
      <trkpt lat="45.29766" lon="5.42373">
        <ele>707.79998779297</ele>
        <time>2024-03-01T14:05:45.000Z</time>
      </trkpt>
      <trkpt lat="45.29767" lon="5.42371">
        <ele>708</ele>
        <time>2024-03-01T14:05:46.000Z</time>
      </trkpt>
      <trkpt lat="45.2977" lon="5.42367">
        <ele>708</ele>
        <time>2024-03-01T14:05:47.000Z</time>
      </trkpt>
      <trkpt lat="45.29771" lon="5.42364">
        <ele>708.40002441406</ele>
        <time>2024-03-01T14:05:48.000Z</time>
      </trkpt>
      <trkpt lat="45.29771" lon="5.42362">
        <ele>708.40002441406</ele>
        <time>2024-03-01T14:05:49.000Z</time>
      </trkpt>
      <trkpt lat="45.29773" lon="5.4236">
        <ele>708.79998779297</ele>
        <time>2024-03-01T14:05:50.000Z</time>
      </trkpt>
      <trkpt lat="45.29773" lon="5.42355">
        <ele>709.20001220703</ele>
        <time>2024-03-01T14:05:52.000Z</time>
      </trkpt>
      <trkpt lat="45.29774" lon="5.42352">
        <ele>709.20001220703</ele>
        <time>2024-03-01T14:05:53.000Z</time>
      </trkpt>
      <trkpt lat="45.29774" lon="5.42341">
        <ele>709.79998779297</ele>
        <time>2024-03-01T14:05:57.000Z</time>
      </trkpt>
      <trkpt lat="45.29776" lon="5.42337">
        <ele>710</ele>
        <time>2024-03-01T14:05:59.000Z</time>
      </trkpt>
      <trkpt lat="45.29778" lon="5.42335">
        <ele>710.20001220703</ele>
        <time>2024-03-01T14:06:00.000Z</time>
      </trkpt>
      <trkpt lat="45.29781" lon="5.4233">
        <ele>710.40002441406</ele>
        <time>2024-03-01T14:06:01.000Z</time>
      </trkpt>
      <trkpt lat="45.29782" lon="5.42328">
        <ele>710.59997558594</ele>
        <time>2024-03-01T14:06:02.000Z</time>
      </trkpt>
      <trkpt lat="45.29782" lon="5.42326">
        <ele>710.59997558594</ele>
        <time>2024-03-01T14:06:04.000Z</time>
      </trkpt>
      <trkpt lat="45.29783" lon="5.42324">
        <ele>711</ele>
        <time>2024-03-01T14:06:05.000Z</time>
      </trkpt>
      <trkpt lat="45.29783" lon="5.42323">
        <ele>711.20001220703</ele>
        <time>2024-03-01T14:06:06.000Z</time>
      </trkpt>
      <trkpt lat="45.29784" lon="5.42321">
        <ele>711.59997558594</ele>
        <time>2024-03-01T14:06:07.000Z</time>
      </trkpt>
      <trkpt lat="45.29785" lon="5.4232">
        <ele>711.79998779297</ele>
        <time>2024-03-01T14:06:08.000Z</time>
      </trkpt>
      <trkpt lat="45.29786" lon="5.42318">
        <ele>712</ele>
        <time>2024-03-01T14:06:09.000Z</time>
      </trkpt>
      <trkpt lat="45.29786" lon="5.42317">
        <ele>712.20001220703</ele>
        <time>2024-03-01T14:06:10.000Z</time>
      </trkpt>
      <trkpt lat="45.29792" lon="5.42311">
        <ele>713.20001220703</ele>
        <time>2024-03-01T14:06:14.000Z</time>
      </trkpt>
      <trkpt lat="45.29793" lon="5.42308">
        <ele>713.40002441406</ele>
        <time>2024-03-01T14:06:15.000Z</time>
      </trkpt>
      <trkpt lat="45.29794" lon="5.42306">
        <ele>713.59997558594</ele>
        <time>2024-03-01T14:06:16.000Z</time>
      </trkpt>
      <trkpt lat="45.29798" lon="5.42302">
        <ele>714.20001220703</ele>
        <time>2024-03-01T14:06:18.000Z</time>
      </trkpt>
      <trkpt lat="45.29799" lon="5.42299">
        <ele>714.40002441406</ele>
        <time>2024-03-01T14:06:19.000Z</time>
      </trkpt>
      <trkpt lat="45.29809" lon="5.42289">
        <ele>715.40002441406</ele>
        <time>2024-03-01T14:06:25.000Z</time>
      </trkpt>
      <trkpt lat="45.29811" lon="5.42288">
        <ele>715.59997558594</ele>
        <time>2024-03-01T14:06:26.000Z</time>
      </trkpt>
      <trkpt lat="45.29818" lon="5.42281">
        <ele>716.20001220703</ele>
        <time>2024-03-01T14:06:30.000Z</time>
      </trkpt>
      <trkpt lat="45.2982" lon="5.4228">
        <ele>716.59997558594</ele>
        <time>2024-03-01T14:06:31.000Z</time>
      </trkpt>
      <trkpt lat="45.29824" lon="5.42277">
        <ele>716.59997558594</ele>
        <time>2024-03-01T14:06:32.000Z</time>
      </trkpt>
      <trkpt lat="45.29827" lon="5.42274">
        <ele>716.79998779297</ele>
        <time>2024-03-01T14:06:33.000Z</time>
      </trkpt>
      <trkpt lat="45.29829" lon="5.42273">
        <ele>716.79998779297</ele>
        <time>2024-03-01T14:06:34.000Z</time>
      </trkpt>
      <trkpt lat="45.2983" lon="5.42271">
        <ele>717</ele>
        <time>2024-03-01T14:06:35.000Z</time>
      </trkpt>
      <trkpt lat="45.29834" lon="5.42269">
        <ele>717.40002441406</ele>
        <time>2024-03-01T14:06:37.000Z</time>
      </trkpt>
      <trkpt lat="45.29837" lon="5.42268">
        <ele>717.40002441406</ele>
        <time>2024-03-01T14:06:38.000Z</time>
      </trkpt>
      <trkpt lat="45.29839" lon="5.42266">
        <ele>717.40002441406</ele>
        <time>2024-03-01T14:06:39.000Z</time>
      </trkpt>
      <trkpt lat="45.29842" lon="5.42265">
        <ele>717.40002441406</ele>
        <time>2024-03-01T14:06:40.000Z</time>
      </trkpt>
      <trkpt lat="45.29845" lon="5.42263">
        <ele>717.59997558594</ele>
        <time>2024-03-01T14:06:41.000Z</time>
      </trkpt>
      <trkpt lat="45.29847" lon="5.42262">
        <ele>717.79998779297</ele>
        <time>2024-03-01T14:06:42.000Z</time>
      </trkpt>
      <trkpt lat="45.2985" lon="5.42262">
        <ele>717.79998779297</ele>
        <time>2024-03-01T14:06:43.000Z</time>
      </trkpt>
      <trkpt lat="45.29853" lon="5.4226">
        <ele>718</ele>
        <time>2024-03-01T14:06:44.000Z</time>
      </trkpt>
      <trkpt lat="45.29856" lon="5.42257">
        <ele>718</ele>
        <time>2024-03-01T14:06:45.000Z</time>
      </trkpt>
      <trkpt lat="45.29859" lon="5.42255">
        <ele>718</ele>
        <time>2024-03-01T14:06:46.000Z</time>
      </trkpt>
      <trkpt lat="45.2986" lon="5.42253">
        <ele>718.40002441406</ele>
        <time>2024-03-01T14:06:47.000Z</time>
      </trkpt>
      <trkpt lat="45.29863" lon="5.42251">
        <ele>718.59997558594</ele>
        <time>2024-03-01T14:06:48.000Z</time>
      </trkpt>
      <trkpt lat="45.2987" lon="5.42244">
        <ele>719.20001220703</ele>
        <time>2024-03-01T14:06:51.000Z</time>
      </trkpt>
      <trkpt lat="45.29876" lon="5.4224">
        <ele>719.20001220703</ele>
        <time>2024-03-01T14:06:53.000Z</time>
      </trkpt>
      <trkpt lat="45.2988" lon="5.42238">
        <ele>719.20001220703</ele>
        <time>2024-03-01T14:06:54.000Z</time>
      </trkpt>
      <trkpt lat="45.29883" lon="5.42236">
        <ele>719.40002441406</ele>
        <time>2024-03-01T14:06:55.000Z</time>
      </trkpt>
      <trkpt lat="45.29885" lon="5.42236">
        <ele>719.40002441406</ele>
        <time>2024-03-01T14:06:56.000Z</time>
      </trkpt>
      <trkpt lat="45.29891" lon="5.42233">
        <ele>719.79998779297</ele>
        <time>2024-03-01T14:06:58.000Z</time>
      </trkpt>
      <trkpt lat="45.29894" lon="5.42231">
        <ele>719.79998779297</ele>
        <time>2024-03-01T14:06:59.000Z</time>
      </trkpt>
      <trkpt lat="45.299" lon="5.42225">
        <ele>719.79998779297</ele>
        <time>2024-03-01T14:07:01.000Z</time>
      </trkpt>
      <trkpt lat="45.29904" lon="5.42222">
        <ele>720</ele>
        <time>2024-03-01T14:07:02.000Z</time>
      </trkpt>
      <trkpt lat="45.29906" lon="5.42222">
        <ele>720</ele>
        <time>2024-03-01T14:07:03.000Z</time>
      </trkpt>
      <trkpt lat="45.29916" lon="5.42217">
        <ele>720.20001220703</ele>
        <time>2024-03-01T14:07:06.000Z</time>
      </trkpt>
      <trkpt lat="45.29933" lon="5.422">
        <ele>721</ele>
        <time>2024-03-01T14:07:12.000Z</time>
      </trkpt>
      <trkpt lat="45.29934" lon="5.42197">
        <ele>721.20001220703</ele>
        <time>2024-03-01T14:07:13.000Z</time>
      </trkpt>
      <trkpt lat="45.29937" lon="5.42191">
        <ele>721.40002441406</ele>
        <time>2024-03-01T14:07:15.000Z</time>
      </trkpt>
      <trkpt lat="45.29941" lon="5.42185">
        <ele>721.79998779297</ele>
        <time>2024-03-01T14:07:17.000Z</time>
      </trkpt>
      <trkpt lat="45.29943" lon="5.42181">
        <ele>721.79998779297</ele>
        <time>2024-03-01T14:07:18.000Z</time>
      </trkpt>
      <trkpt lat="45.29946" lon="5.42177">
        <ele>721.79998779297</ele>
        <time>2024-03-01T14:07:19.000Z</time>
      </trkpt>
      <trkpt lat="45.29947" lon="5.42173">
        <ele>721.79998779297</ele>
        <time>2024-03-01T14:07:20.000Z</time>
      </trkpt>
      <trkpt lat="45.29949" lon="5.42168">
        <ele>721.79998779297</ele>
        <time>2024-03-01T14:07:21.000Z</time>
      </trkpt>
      <trkpt lat="45.29952" lon="5.42163">
        <ele>721.79998779297</ele>
        <time>2024-03-01T14:07:22.000Z</time>
      </trkpt>
      <trkpt lat="45.29954" lon="5.42157">
        <ele>721.79998779297</ele>
        <time>2024-03-01T14:07:23.000Z</time>
      </trkpt>
      <trkpt lat="45.29955" lon="5.42152">
        <ele>721.79998779297</ele>
        <time>2024-03-01T14:07:24.000Z</time>
      </trkpt>
      <trkpt lat="45.29959" lon="5.42142">
        <ele>721.79998779297</ele>
        <time>2024-03-01T14:07:26.000Z</time>
      </trkpt>
      <trkpt lat="45.29962" lon="5.42135">
        <ele>721.59997558594</ele>
        <time>2024-03-01T14:07:27.000Z</time>
      </trkpt>
      <trkpt lat="45.29963" lon="5.42131">
        <ele>721.59997558594</ele>
        <time>2024-03-01T14:07:28.000Z</time>
      </trkpt>
      <trkpt lat="45.29964" lon="5.42126">
        <ele>721.59997558594</ele>
        <time>2024-03-01T14:07:29.000Z</time>
      </trkpt>
      <trkpt lat="45.29963" lon="5.42121">
        <ele>721.59997558594</ele>
        <time>2024-03-01T14:07:30.000Z</time>
      </trkpt>
      <trkpt lat="45.29961" lon="5.42109">
        <ele>721.40002441406</ele>
        <time>2024-03-01T14:07:32.000Z</time>
      </trkpt>
      <trkpt lat="45.29958" lon="5.42088">
        <ele>721.20001220703</ele>
        <time>2024-03-01T14:07:35.000Z</time>
      </trkpt>
      <trkpt lat="45.29957" lon="5.4208">
        <ele>721</ele>
        <time>2024-03-01T14:07:36.000Z</time>
      </trkpt>
      <trkpt lat="45.29955" lon="5.42073">
        <ele>720.59997558594</ele>
        <time>2024-03-01T14:07:37.000Z</time>
      </trkpt>
      <trkpt lat="45.29954" lon="5.42064">
        <ele>720.59997558594</ele>
        <time>2024-03-01T14:07:38.000Z</time>
      </trkpt>
      <trkpt lat="45.29952" lon="5.42048">
        <ele>720.20001220703</ele>
        <time>2024-03-01T14:07:40.000Z</time>
      </trkpt>
      <trkpt lat="45.29946" lon="5.42032">
        <ele>719.40002441406</ele>
        <time>2024-03-01T14:07:42.000Z</time>
      </trkpt>
      <trkpt lat="45.29944" lon="5.42024">
        <ele>719</ele>
        <time>2024-03-01T14:07:43.000Z</time>
      </trkpt>
      <trkpt lat="45.29941" lon="5.42016">
        <ele>718.40002441406</ele>
        <time>2024-03-01T14:07:44.000Z</time>
      </trkpt>
      <trkpt lat="45.29939" lon="5.42009">
        <ele>718.20001220703</ele>
        <time>2024-03-01T14:07:45.000Z</time>
      </trkpt>
      <trkpt lat="45.29935" lon="5.41993">
        <ele>717.20001220703</ele>
        <time>2024-03-01T14:07:47.000Z</time>
      </trkpt>
      <trkpt lat="45.29932" lon="5.41985">
        <ele>717</ele>
        <time>2024-03-01T14:07:48.000Z</time>
      </trkpt>
      <trkpt lat="45.2993" lon="5.41978">
        <ele>716.79998779297</ele>
        <time>2024-03-01T14:07:49.000Z</time>
      </trkpt>
      <trkpt lat="45.29928" lon="5.4197">
        <ele>716.79998779297</ele>
        <time>2024-03-01T14:07:50.000Z</time>
      </trkpt>
      <trkpt lat="45.29927" lon="5.41961">
        <ele>716.59997558594</ele>
        <time>2024-03-01T14:07:51.000Z</time>
      </trkpt>
      <trkpt lat="45.29925" lon="5.41953">
        <ele>716.40002441406</ele>
        <time>2024-03-01T14:07:52.000Z</time>
      </trkpt>
      <trkpt lat="45.29923" lon="5.41946">
        <ele>716.20001220703</ele>
        <time>2024-03-01T14:07:53.000Z</time>
      </trkpt>
      <trkpt lat="45.29914" lon="5.41922">
        <ele>715.79998779297</ele>
        <time>2024-03-01T14:07:56.000Z</time>
      </trkpt>
      <trkpt lat="45.29904" lon="5.41908">
        <ele>715.59997558594</ele>
        <time>2024-03-01T14:07:58.000Z</time>
      </trkpt>
      <trkpt lat="45.29899" lon="5.41902">
        <ele>715.40002441406</ele>
        <time>2024-03-01T14:07:59.000Z</time>
      </trkpt>
      <trkpt lat="45.29893" lon="5.41896">
        <ele>714.79998779297</ele>
        <time>2024-03-01T14:08:00.000Z</time>
      </trkpt>
      <trkpt lat="45.29888" lon="5.4189">
        <ele>714.20001220703</ele>
        <time>2024-03-01T14:08:01.000Z</time>
      </trkpt>
      <trkpt lat="45.29882" lon="5.41883">
        <ele>713.79998779297</ele>
        <time>2024-03-01T14:08:02.000Z</time>
      </trkpt>
      <trkpt lat="45.29877" lon="5.41876">
        <ele>713.40002441406</ele>
        <time>2024-03-01T14:08:03.000Z</time>
      </trkpt>
      <trkpt lat="45.29872" lon="5.41868">
        <ele>713</ele>
        <time>2024-03-01T14:08:04.000Z</time>
      </trkpt>
      <trkpt lat="45.29869" lon="5.41859">
        <ele>712.40002441406</ele>
        <time>2024-03-01T14:08:05.000Z</time>
      </trkpt>
      <trkpt lat="45.29866" lon="5.41848">
        <ele>712</ele>
        <time>2024-03-01T14:08:06.000Z</time>
      </trkpt>
      <trkpt lat="45.29864" lon="5.41837">
        <ele>711.79998779297</ele>
        <time>2024-03-01T14:08:07.000Z</time>
      </trkpt>
      <trkpt lat="45.29862" lon="5.41827">
        <ele>711.59997558594</ele>
        <time>2024-03-01T14:08:08.000Z</time>
      </trkpt>
      <trkpt lat="45.29859" lon="5.41816">
        <ele>711.40002441406</ele>
        <time>2024-03-01T14:08:09.000Z</time>
      </trkpt>
      <trkpt lat="45.29856" lon="5.41806">
        <ele>711</ele>
        <time>2024-03-01T14:08:10.000Z</time>
      </trkpt>
      <trkpt lat="45.29854" lon="5.41795">
        <ele>711</ele>
        <time>2024-03-01T14:08:11.000Z</time>
      </trkpt>
      <trkpt lat="45.29852" lon="5.41785">
        <ele>710.20001220703</ele>
        <time>2024-03-01T14:08:12.000Z</time>
      </trkpt>
      <trkpt lat="45.2985" lon="5.41779">
        <ele>709.20001220703</ele>
        <time>2024-03-01T14:08:13.000Z</time>
      </trkpt>
      <trkpt lat="45.29849" lon="5.41774">
        <ele>708.79998779297</ele>
        <time>2024-03-01T14:08:14.000Z</time>
      </trkpt>
      <trkpt lat="45.29849" lon="5.41772">
        <ele>702.79998779297</ele>
        <time>2024-03-01T14:10:55.000Z</time>
      </trkpt>
      <trkpt lat="45.29848" lon="5.41771">
        <ele>702.79998779297</ele>
        <time>2024-03-01T14:10:57.000Z</time>
      </trkpt>
      <trkpt lat="45.29848" lon="5.41768">
        <ele>702.79998779297</ele>
        <time>2024-03-01T14:10:58.000Z</time>
      </trkpt>
      <trkpt lat="45.29849" lon="5.41764">
        <ele>702.79998779297</ele>
        <time>2024-03-01T14:10:59.000Z</time>
      </trkpt>
      <trkpt lat="45.29849" lon="5.41723">
        <ele>702.79998779297</ele>
        <time>2024-03-01T14:11:04.000Z</time>
      </trkpt>
      <trkpt lat="45.29848" lon="5.41711">
        <ele>702.40002441406</ele>
        <time>2024-03-01T14:11:05.000Z</time>
      </trkpt>
      <trkpt lat="45.29848" lon="5.41699">
        <ele>702</ele>
        <time>2024-03-01T14:11:06.000Z</time>
      </trkpt>
      <trkpt lat="45.29846" lon="5.41675">
        <ele>700.79998779297</ele>
        <time>2024-03-01T14:11:08.000Z</time>
      </trkpt>
      <trkpt lat="45.29845" lon="5.41662">
        <ele>700.40002441406</ele>
        <time>2024-03-01T14:11:09.000Z</time>
      </trkpt>
      <trkpt lat="45.29845" lon="5.41649">
        <ele>699.40002441406</ele>
        <time>2024-03-01T14:11:10.000Z</time>
      </trkpt>
      <trkpt lat="45.29844" lon="5.41635">
        <ele>698.59997558594</ele>
        <time>2024-03-01T14:11:11.000Z</time>
      </trkpt>
      <trkpt lat="45.29843" lon="5.4162">
        <ele>698.40002441406</ele>
        <time>2024-03-01T14:11:12.000Z</time>
      </trkpt>
      <trkpt lat="45.29837" lon="5.41575">
        <ele>696.20001220703</ele>
        <time>2024-03-01T14:11:15.000Z</time>
      </trkpt>
      <trkpt lat="45.29835" lon="5.41543">
        <ele>694.59997558594</ele>
        <time>2024-03-01T14:11:17.000Z</time>
      </trkpt>
      <trkpt lat="45.29835" lon="5.41527">
        <ele>693.79998779297</ele>
        <time>2024-03-01T14:11:18.000Z</time>
      </trkpt>
      <trkpt lat="45.29836" lon="5.41511">
        <ele>693.59997558594</ele>
        <time>2024-03-01T14:11:19.000Z</time>
      </trkpt>
      <trkpt lat="45.29836" lon="5.41494">
        <ele>693</ele>
        <time>2024-03-01T14:11:20.000Z</time>
      </trkpt>
      <trkpt lat="45.29835" lon="5.41478">
        <ele>691.20001220703</ele>
        <time>2024-03-01T14:11:21.000Z</time>
      </trkpt>
      <trkpt lat="45.29833" lon="5.41462">
        <ele>689.40002441406</ele>
        <time>2024-03-01T14:11:22.000Z</time>
      </trkpt>
      <trkpt lat="45.29829" lon="5.41446">
        <ele>689</ele>
        <time>2024-03-01T14:11:23.000Z</time>
      </trkpt>
      <trkpt lat="45.29825" lon="5.41431">
        <ele>687.79998779297</ele>
        <time>2024-03-01T14:11:24.000Z</time>
      </trkpt>
      <trkpt lat="45.29822" lon="5.41416">
        <ele>685.79998779297</ele>
        <time>2024-03-01T14:11:25.000Z</time>
      </trkpt>
      <trkpt lat="45.29821" lon="5.414">
        <ele>685</ele>
        <time>2024-03-01T14:11:26.000Z</time>
      </trkpt>
      <trkpt lat="45.29821" lon="5.41384">
        <ele>683.40002441406</ele>
        <time>2024-03-01T14:11:27.000Z</time>
      </trkpt>
      <trkpt lat="45.2982" lon="5.41368">
        <ele>682.79998779297</ele>
        <time>2024-03-01T14:11:28.000Z</time>
      </trkpt>
      <trkpt lat="45.29819" lon="5.41351">
        <ele>681.40002441406</ele>
        <time>2024-03-01T14:11:29.000Z</time>
      </trkpt>
      <trkpt lat="45.29817" lon="5.41335">
        <ele>680.20001220703</ele>
        <time>2024-03-01T14:11:30.000Z</time>
      </trkpt>
      <trkpt lat="45.29815" lon="5.41318">
        <ele>679.20001220703</ele>
        <time>2024-03-01T14:11:31.000Z</time>
      </trkpt>
      <trkpt lat="45.29812" lon="5.41302">
        <ele>677.40002441406</ele>
        <time>2024-03-01T14:11:32.000Z</time>
      </trkpt>
      <trkpt lat="45.29808" lon="5.4127">
        <ele>675</ele>
        <time>2024-03-01T14:11:34.000Z</time>
      </trkpt>
      <trkpt lat="45.29807" lon="5.41255">
        <ele>674.40002441406</ele>
        <time>2024-03-01T14:11:35.000Z</time>
      </trkpt>
      <trkpt lat="45.29805" lon="5.41238">
        <ele>673.40002441406</ele>
        <time>2024-03-01T14:11:36.000Z</time>
      </trkpt>
      <trkpt lat="45.29805" lon="5.41222">
        <ele>672</ele>
        <time>2024-03-01T14:11:37.000Z</time>
      </trkpt>
      <trkpt lat="45.29804" lon="5.41206">
        <ele>671.40002441406</ele>
        <time>2024-03-01T14:11:38.000Z</time>
      </trkpt>
      <trkpt lat="45.29804" lon="5.41159">
        <ele>668</ele>
        <time>2024-03-01T14:11:41.000Z</time>
      </trkpt>
      <trkpt lat="45.29803" lon="5.41145">
        <ele>667.40002441406</ele>
        <time>2024-03-01T14:11:42.000Z</time>
      </trkpt>
      <trkpt lat="45.29802" lon="5.4113">
        <ele>665.59997558594</ele>
        <time>2024-03-01T14:11:43.000Z</time>
      </trkpt>
      <trkpt lat="45.29799" lon="5.41115">
        <ele>663.20001220703</ele>
        <time>2024-03-01T14:11:44.000Z</time>
      </trkpt>
      <trkpt lat="45.29796" lon="5.41099">
        <ele>661.79998779297</ele>
        <time>2024-03-01T14:11:45.000Z</time>
      </trkpt>
      <trkpt lat="45.2979" lon="5.41065">
        <ele>659.20001220703</ele>
        <time>2024-03-01T14:11:47.000Z</time>
      </trkpt>
      <trkpt lat="45.29786" lon="5.41047">
        <ele>657.79998779297</ele>
        <time>2024-03-01T14:11:48.000Z</time>
      </trkpt>
      <trkpt lat="45.29783" lon="5.41031">
        <ele>657.20001220703</ele>
        <time>2024-03-01T14:11:49.000Z</time>
      </trkpt>
      <trkpt lat="45.29779" lon="5.41016">
        <ele>654.59997558594</ele>
        <time>2024-03-01T14:11:50.000Z</time>
      </trkpt>
      <trkpt lat="45.29775" lon="5.41002">
        <ele>652.20001220703</ele>
        <time>2024-03-01T14:11:51.000Z</time>
      </trkpt>
      <trkpt lat="45.29767" lon="5.40978">
        <ele>648.79998779297</ele>
        <time>2024-03-01T14:11:53.000Z</time>
      </trkpt>
      <trkpt lat="45.29763" lon="5.40952">
        <ele>646</ele>
        <time>2024-03-01T14:11:55.000Z</time>
      </trkpt>
      <trkpt lat="45.2976" lon="5.40938">
        <ele>643.79998779297</ele>
        <time>2024-03-01T14:11:56.000Z</time>
      </trkpt>
      <trkpt lat="45.29752" lon="5.40912">
        <ele>640.79998779297</ele>
        <time>2024-03-01T14:11:58.000Z</time>
      </trkpt>
      <trkpt lat="45.29747" lon="5.40898">
        <ele>640</ele>
        <time>2024-03-01T14:11:59.000Z</time>
      </trkpt>
      <trkpt lat="45.29744" lon="5.40886">
        <ele>638.40002441406</ele>
        <time>2024-03-01T14:12:00.000Z</time>
      </trkpt>
      <trkpt lat="45.29743" lon="5.40876">
        <ele>637.59997558594</ele>
        <time>2024-03-01T14:12:01.000Z</time>
      </trkpt>
      <trkpt lat="45.29741" lon="5.40866">
        <ele>636.79998779297</ele>
        <time>2024-03-01T14:12:02.000Z</time>
      </trkpt>
      <trkpt lat="45.29741" lon="5.40857">
        <ele>635.59997558594</ele>
        <time>2024-03-01T14:12:03.000Z</time>
      </trkpt>
      <trkpt lat="45.29742" lon="5.40849">
        <ele>635.20001220703</ele>
        <time>2024-03-01T14:12:04.000Z</time>
      </trkpt>
      <trkpt lat="45.29743" lon="5.40843">
        <ele>634</ele>
        <time>2024-03-01T14:12:05.000Z</time>
      </trkpt>
      <trkpt lat="45.29746" lon="5.40838">
        <ele>633.20001220703</ele>
        <time>2024-03-01T14:12:06.000Z</time>
      </trkpt>
      <trkpt lat="45.29754" lon="5.4083">
        <ele>630.20001220703</ele>
        <time>2024-03-01T14:12:08.000Z</time>
      </trkpt>
      <trkpt lat="45.29758" lon="5.40825">
        <ele>629</ele>
        <time>2024-03-01T14:12:09.000Z</time>
      </trkpt>
      <trkpt lat="45.29763" lon="5.40821">
        <ele>627.20001220703</ele>
        <time>2024-03-01T14:12:10.000Z</time>
      </trkpt>
      <trkpt lat="45.29767" lon="5.40816">
        <ele>626.59997558594</ele>
        <time>2024-03-01T14:12:11.000Z</time>
      </trkpt>
      <trkpt lat="45.2977" lon="5.40809">
        <ele>624.20001220703</ele>
        <time>2024-03-01T14:12:12.000Z</time>
      </trkpt>
      <trkpt lat="45.29771" lon="5.40797">
        <ele>623</ele>
        <time>2024-03-01T14:12:13.000Z</time>
      </trkpt>
      <trkpt lat="45.29773" lon="5.40784">
        <ele>621</ele>
        <time>2024-03-01T14:12:14.000Z</time>
      </trkpt>
      <trkpt lat="45.29774" lon="5.4077">
        <ele>619.59997558594</ele>
        <time>2024-03-01T14:12:15.000Z</time>
      </trkpt>
      <trkpt lat="45.29775" lon="5.40757">
        <ele>618.79998779297</ele>
        <time>2024-03-01T14:12:16.000Z</time>
      </trkpt>
      <trkpt lat="45.29776" lon="5.40745">
        <ele>617</ele>
        <time>2024-03-01T14:12:17.000Z</time>
      </trkpt>
      <trkpt lat="45.29778" lon="5.40734">
        <ele>616</ele>
        <time>2024-03-01T14:12:18.000Z</time>
      </trkpt>
      <trkpt lat="45.2978" lon="5.40724">
        <ele>614.20001220703</ele>
        <time>2024-03-01T14:12:19.000Z</time>
      </trkpt>
      <trkpt lat="45.29783" lon="5.40716">
        <ele>613.59997558594</ele>
        <time>2024-03-01T14:12:20.000Z</time>
      </trkpt>
      <trkpt lat="45.29786" lon="5.40707">
        <ele>611.20001220703</ele>
        <time>2024-03-01T14:12:21.000Z</time>
      </trkpt>
      <trkpt lat="45.29789" lon="5.40699">
        <ele>609</ele>
        <time>2024-03-01T14:12:22.000Z</time>
      </trkpt>
      <trkpt lat="45.2979" lon="5.40693">
        <ele>607.79998779297</ele>
        <time>2024-03-01T14:12:23.000Z</time>
      </trkpt>
      <trkpt lat="45.29791" lon="5.40689">
        <ele>605.20001220703</ele>
        <time>2024-03-01T14:12:24.000Z</time>
      </trkpt>
      <trkpt lat="45.29792" lon="5.40687">
        <ele>604.20001220703</ele>
        <time>2024-03-01T14:12:25.000Z</time>
      </trkpt>
      <trkpt lat="45.29794" lon="5.40685">
        <ele>601.79998779297</ele>
        <time>2024-03-01T14:12:26.000Z</time>
      </trkpt>
      <trkpt lat="45.29794" lon="5.40682">
        <ele>600.79998779297</ele>
        <time>2024-03-01T14:12:27.000Z</time>
      </trkpt>
      <trkpt lat="45.29793" lon="5.40679">
        <ele>599</ele>
        <time>2024-03-01T14:12:28.000Z</time>
      </trkpt>
      <trkpt lat="45.29793" lon="5.40674">
        <ele>597.59997558594</ele>
        <time>2024-03-01T14:12:29.000Z</time>
      </trkpt>
      <trkpt lat="45.29795" lon="5.4067">
        <ele>597.20001220703</ele>
        <time>2024-03-01T14:12:30.000Z</time>
      </trkpt>
      <trkpt lat="45.29798" lon="5.40668">
        <ele>596.40002441406</ele>
        <time>2024-03-01T14:12:31.000Z</time>
      </trkpt>
      <trkpt lat="45.29802" lon="5.40668">
        <ele>596</ele>
        <time>2024-03-01T14:12:32.000Z</time>
      </trkpt>
      <trkpt lat="45.29806" lon="5.40671">
        <ele>595.59997558594</ele>
        <time>2024-03-01T14:12:33.000Z</time>
      </trkpt>
      <trkpt lat="45.29811" lon="5.40676">
        <ele>595</ele>
        <time>2024-03-01T14:12:34.000Z</time>
      </trkpt>
      <trkpt lat="45.29817" lon="5.40681">
        <ele>594.79998779297</ele>
        <time>2024-03-01T14:12:35.000Z</time>
      </trkpt>
      <trkpt lat="45.29823" lon="5.40688">
        <ele>593.59997558594</ele>
        <time>2024-03-01T14:12:36.000Z</time>
      </trkpt>
      <trkpt lat="45.29828" lon="5.40696">
        <ele>593.40002441406</ele>
        <time>2024-03-01T14:12:37.000Z</time>
      </trkpt>
      <trkpt lat="45.29832" lon="5.40705">
        <ele>592.79998779297</ele>
        <time>2024-03-01T14:12:38.000Z</time>
      </trkpt>
      <trkpt lat="45.29841" lon="5.40735">
        <ele>591.40002441406</ele>
        <time>2024-03-01T14:12:41.000Z</time>
      </trkpt>
      <trkpt lat="45.29845" lon="5.40745">
        <ele>591</ele>
        <time>2024-03-01T14:12:42.000Z</time>
      </trkpt>
      <trkpt lat="45.29847" lon="5.40755">
        <ele>590.79998779297</ele>
        <time>2024-03-01T14:12:43.000Z</time>
      </trkpt>
      <trkpt lat="45.29849" lon="5.40764">
        <ele>590.59997558594</ele>
        <time>2024-03-01T14:12:44.000Z</time>
      </trkpt>
      <trkpt lat="45.2985" lon="5.40774">
        <ele>590</ele>
        <time>2024-03-01T14:12:45.000Z</time>
      </trkpt>
      <trkpt lat="45.29853" lon="5.40782">
        <ele>589.79998779297</ele>
        <time>2024-03-01T14:12:46.000Z</time>
      </trkpt>
      <trkpt lat="45.29856" lon="5.40789">
        <ele>589.59997558594</ele>
        <time>2024-03-01T14:12:47.000Z</time>
      </trkpt>
      <trkpt lat="45.29857" lon="5.40796">
        <ele>589.40002441406</ele>
        <time>2024-03-01T14:12:48.000Z</time>
      </trkpt>
      <trkpt lat="45.29861" lon="5.4081">
        <ele>589.40002441406</ele>
        <time>2024-03-01T14:12:50.000Z</time>
      </trkpt>
      <trkpt lat="45.29863" lon="5.40822">
        <ele>590.40002441406</ele>
        <time>2024-03-01T14:12:52.000Z</time>
      </trkpt>
      <trkpt lat="45.29865" lon="5.40829">
        <ele>591</ele>
        <time>2024-03-01T14:12:53.000Z</time>
      </trkpt>
      <trkpt lat="45.29867" lon="5.40835">
        <ele>591.20001220703</ele>
        <time>2024-03-01T14:12:54.000Z</time>
      </trkpt>
      <trkpt lat="45.29869" lon="5.40849">
        <ele>591.59997558594</ele>
        <time>2024-03-01T14:12:56.000Z</time>
      </trkpt>
      <trkpt lat="45.29871" lon="5.40861">
        <ele>591.79998779297</ele>
        <time>2024-03-01T14:12:58.000Z</time>
      </trkpt>
      <trkpt lat="45.29877" lon="5.40879">
        <ele>592.40002441406</ele>
        <time>2024-03-01T14:13:01.000Z</time>
      </trkpt>
      <trkpt lat="45.29883" lon="5.40889">
        <ele>593</ele>
        <time>2024-03-01T14:13:03.000Z</time>
      </trkpt>
      <trkpt lat="45.29885" lon="5.40894">
        <ele>593.40002441406</ele>
        <time>2024-03-01T14:13:04.000Z</time>
      </trkpt>
      <trkpt lat="45.29887" lon="5.409">
        <ele>593.59997558594</ele>
        <time>2024-03-01T14:13:05.000Z</time>
      </trkpt>
      <trkpt lat="45.2989" lon="5.40905">
        <ele>593.79998779297</ele>
        <time>2024-03-01T14:13:06.000Z</time>
      </trkpt>
      <trkpt lat="45.29892" lon="5.4091">
        <ele>594.20001220703</ele>
        <time>2024-03-01T14:13:07.000Z</time>
      </trkpt>
      <trkpt lat="45.29893" lon="5.40916">
        <ele>594.40002441406</ele>
        <time>2024-03-01T14:13:08.000Z</time>
      </trkpt>
      <trkpt lat="45.29895" lon="5.40922">
        <ele>594.40002441406</ele>
        <time>2024-03-01T14:13:09.000Z</time>
      </trkpt>
      <trkpt lat="45.29896" lon="5.40927">
        <ele>594.59997558594</ele>
        <time>2024-03-01T14:13:10.000Z</time>
      </trkpt>
      <trkpt lat="45.29904" lon="5.40951">
        <ele>595</ele>
        <time>2024-03-01T14:13:14.000Z</time>
      </trkpt>
      <trkpt lat="45.29906" lon="5.40956">
        <ele>595</ele>
        <time>2024-03-01T14:13:15.000Z</time>
      </trkpt>
      <trkpt lat="45.29908" lon="5.40963">
        <ele>595</ele>
        <time>2024-03-01T14:13:16.000Z</time>
      </trkpt>
      <trkpt lat="45.29911" lon="5.40969">
        <ele>595</ele>
        <time>2024-03-01T14:13:17.000Z</time>
      </trkpt>
      <trkpt lat="45.29913" lon="5.40974">
        <ele>595.20001220703</ele>
        <time>2024-03-01T14:13:18.000Z</time>
      </trkpt>
      <trkpt lat="45.29917" lon="5.40986">
        <ele>595.59997558594</ele>
        <time>2024-03-01T14:13:20.000Z</time>
      </trkpt>
      <trkpt lat="45.29917" lon="5.40992">
        <ele>595.59997558594</ele>
        <time>2024-03-01T14:13:21.000Z</time>
      </trkpt>
      <trkpt lat="45.29918" lon="5.40997">
        <ele>595.79998779297</ele>
        <time>2024-03-01T14:13:22.000Z</time>
      </trkpt>
      <trkpt lat="45.2992" lon="5.41002">
        <ele>595.79998779297</ele>
        <time>2024-03-01T14:13:23.000Z</time>
      </trkpt>
      <trkpt lat="45.29922" lon="5.41006">
        <ele>595.79998779297</ele>
        <time>2024-03-01T14:13:24.000Z</time>
      </trkpt>
      <trkpt lat="45.29926" lon="5.41016">
        <ele>596.20001220703</ele>
        <time>2024-03-01T14:13:26.000Z</time>
      </trkpt>
      <trkpt lat="45.29929" lon="5.4102">
        <ele>596.20001220703</ele>
        <time>2024-03-01T14:13:27.000Z</time>
      </trkpt>
      <trkpt lat="45.29931" lon="5.41024">
        <ele>596.20001220703</ele>
        <time>2024-03-01T14:13:28.000Z</time>
      </trkpt>
      <trkpt lat="45.29934" lon="5.41029">
        <ele>596.20001220703</ele>
        <time>2024-03-01T14:13:29.000Z</time>
      </trkpt>
      <trkpt lat="45.29936" lon="5.41033">
        <ele>596.20001220703</ele>
        <time>2024-03-01T14:13:30.000Z</time>
      </trkpt>
      <trkpt lat="45.29939" lon="5.41037">
        <ele>596.20001220703</ele>
        <time>2024-03-01T14:13:31.000Z</time>
      </trkpt>
      <trkpt lat="45.29941" lon="5.41041">
        <ele>596.20001220703</ele>
        <time>2024-03-01T14:13:32.000Z</time>
      </trkpt>
      <trkpt lat="45.29943" lon="5.41046">
        <ele>596.20001220703</ele>
        <time>2024-03-01T14:13:33.000Z</time>
      </trkpt>
      <trkpt lat="45.29946" lon="5.4105">
        <ele>596.40002441406</ele>
        <time>2024-03-01T14:13:34.000Z</time>
      </trkpt>
      <trkpt lat="45.29948" lon="5.41054">
        <ele>596.40002441406</ele>
        <time>2024-03-01T14:13:35.000Z</time>
      </trkpt>
      <trkpt lat="45.29952" lon="5.41064">
        <ele>596.79998779297</ele>
        <time>2024-03-01T14:13:37.000Z</time>
      </trkpt>
      <trkpt lat="45.29953" lon="5.41068">
        <ele>597</ele>
        <time>2024-03-01T14:13:38.000Z</time>
      </trkpt>
      <trkpt lat="45.29955" lon="5.41073">
        <ele>597</ele>
        <time>2024-03-01T14:13:39.000Z</time>
      </trkpt>
      <trkpt lat="45.29959" lon="5.41081">
        <ele>597</ele>
        <time>2024-03-01T14:13:41.000Z</time>
      </trkpt>
      <trkpt lat="45.29963" lon="5.41091">
        <ele>596.79998779297</ele>
        <time>2024-03-01T14:13:43.000Z</time>
      </trkpt>
      <trkpt lat="45.29964" lon="5.41096">
        <ele>597</ele>
        <time>2024-03-01T14:13:44.000Z</time>
      </trkpt>
      <trkpt lat="45.29966" lon="5.411">
        <ele>597</ele>
        <time>2024-03-01T14:13:45.000Z</time>
      </trkpt>
      <trkpt lat="45.29968" lon="5.41105">
        <ele>597</ele>
        <time>2024-03-01T14:13:46.000Z</time>
      </trkpt>
      <trkpt lat="45.2997" lon="5.41109">
        <ele>597</ele>
        <time>2024-03-01T14:13:47.000Z</time>
      </trkpt>
      <trkpt lat="45.29971" lon="5.41114">
        <ele>597</ele>
        <time>2024-03-01T14:13:48.000Z</time>
      </trkpt>
      <trkpt lat="45.29973" lon="5.41118">
        <ele>597</ele>
        <time>2024-03-01T14:13:49.000Z</time>
      </trkpt>
      <trkpt lat="45.29975" lon="5.41123">
        <ele>596.79998779297</ele>
        <time>2024-03-01T14:13:50.000Z</time>
      </trkpt>
      <trkpt lat="45.29976" lon="5.41128">
        <ele>596.79998779297</ele>
        <time>2024-03-01T14:13:51.000Z</time>
      </trkpt>
      <trkpt lat="45.29978" lon="5.41132">
        <ele>596.79998779297</ele>
        <time>2024-03-01T14:13:52.000Z</time>
      </trkpt>
      <trkpt lat="45.29982" lon="5.41142">
        <ele>596.79998779297</ele>
        <time>2024-03-01T14:13:54.000Z</time>
      </trkpt>
      <trkpt lat="45.29983" lon="5.41146">
        <ele>596.79998779297</ele>
        <time>2024-03-01T14:13:55.000Z</time>
      </trkpt>
      <trkpt lat="45.29985" lon="5.41151">
        <ele>596.79998779297</ele>
        <time>2024-03-01T14:13:56.000Z</time>
      </trkpt>
      <trkpt lat="45.29989" lon="5.41171">
        <ele>596.79998779297</ele>
        <time>2024-03-01T14:14:00.000Z</time>
      </trkpt>
      <trkpt lat="45.29991" lon="5.41176">
        <ele>597</ele>
        <time>2024-03-01T14:14:01.000Z</time>
      </trkpt>
      <trkpt lat="45.29993" lon="5.41186">
        <ele>597</ele>
        <time>2024-03-01T14:14:03.000Z</time>
      </trkpt>
      <trkpt lat="45.29995" lon="5.4119">
        <ele>597.40002441406</ele>
        <time>2024-03-01T14:14:04.000Z</time>
      </trkpt>
      <trkpt lat="45.29997" lon="5.412">
        <ele>597</ele>
        <time>2024-03-01T14:14:06.000Z</time>
      </trkpt>
      <trkpt lat="45.29999" lon="5.41205">
        <ele>597</ele>
        <time>2024-03-01T14:14:07.000Z</time>
      </trkpt>
      <trkpt lat="45.3" lon="5.4121">
        <ele>597.40002441406</ele>
        <time>2024-03-01T14:14:08.000Z</time>
      </trkpt>
      <trkpt lat="45.30002" lon="5.41214">
        <ele>597.40002441406</ele>
        <time>2024-03-01T14:14:09.000Z</time>
      </trkpt>
      <trkpt lat="45.30004" lon="5.41219">
        <ele>597.40002441406</ele>
        <time>2024-03-01T14:14:10.000Z</time>
      </trkpt>
      <trkpt lat="45.30006" lon="5.41223">
        <ele>597.40002441406</ele>
        <time>2024-03-01T14:14:11.000Z</time>
      </trkpt>
      <trkpt lat="45.30015" lon="5.41235">
        <ele>597</ele>
        <time>2024-03-01T14:14:14.000Z</time>
      </trkpt>
      <trkpt lat="45.30017" lon="5.41238">
        <ele>597.40002441406</ele>
        <time>2024-03-01T14:14:15.000Z</time>
      </trkpt>
      <trkpt lat="45.3002" lon="5.41242">
        <ele>597.40002441406</ele>
        <time>2024-03-01T14:14:16.000Z</time>
      </trkpt>
      <trkpt lat="45.30023" lon="5.41245">
        <ele>597.40002441406</ele>
        <time>2024-03-01T14:14:17.000Z</time>
      </trkpt>
      <trkpt lat="45.30026" lon="5.41249">
        <ele>597.40002441406</ele>
        <time>2024-03-01T14:14:18.000Z</time>
      </trkpt>
      <trkpt lat="45.30029" lon="5.41252">
        <ele>597.40002441406</ele>
        <time>2024-03-01T14:14:19.000Z</time>
      </trkpt>
      <trkpt lat="45.30035" lon="5.4126">
        <ele>597.40002441406</ele>
        <time>2024-03-01T14:14:21.000Z</time>
      </trkpt>
      <trkpt lat="45.30038" lon="5.41263">
        <ele>597.40002441406</ele>
        <time>2024-03-01T14:14:22.000Z</time>
      </trkpt>
      <trkpt lat="45.3004" lon="5.41267">
        <ele>597.79998779297</ele>
        <time>2024-03-01T14:14:23.000Z</time>
      </trkpt>
      <trkpt lat="45.30043" lon="5.4127">
        <ele>597.79998779297</ele>
        <time>2024-03-01T14:14:24.000Z</time>
      </trkpt>
      <trkpt lat="45.30046" lon="5.41274">
        <ele>598</ele>
        <time>2024-03-01T14:14:25.000Z</time>
      </trkpt>
      <trkpt lat="45.30049" lon="5.41277">
        <ele>598</ele>
        <time>2024-03-01T14:14:26.000Z</time>
      </trkpt>
      <trkpt lat="45.30052" lon="5.41281">
        <ele>598</ele>
        <time>2024-03-01T14:14:27.000Z</time>
      </trkpt>
      <trkpt lat="45.30058" lon="5.41287">
        <ele>598.40002441406</ele>
        <time>2024-03-01T14:14:29.000Z</time>
      </trkpt>
      <trkpt lat="45.30061" lon="5.41291">
        <ele>598.59997558594</ele>
        <time>2024-03-01T14:14:30.000Z</time>
      </trkpt>
      <trkpt lat="45.30064" lon="5.41294">
        <ele>598.59997558594</ele>
        <time>2024-03-01T14:14:31.000Z</time>
      </trkpt>
      <trkpt lat="45.30066" lon="5.41297">
        <ele>598.59997558594</ele>
        <time>2024-03-01T14:14:32.000Z</time>
      </trkpt>
      <trkpt lat="45.30069" lon="5.41301">
        <ele>598.59997558594</ele>
        <time>2024-03-01T14:14:33.000Z</time>
      </trkpt>
      <trkpt lat="45.30075" lon="5.41307">
        <ele>598.79998779297</ele>
        <time>2024-03-01T14:14:35.000Z</time>
      </trkpt>
      <trkpt lat="45.30077" lon="5.41311">
        <ele>599</ele>
        <time>2024-03-01T14:14:36.000Z</time>
      </trkpt>
      <trkpt lat="45.30079" lon="5.41314">
        <ele>599</ele>
        <time>2024-03-01T14:14:37.000Z</time>
      </trkpt>
      <trkpt lat="45.30082" lon="5.41318">
        <ele>599.20001220703</ele>
        <time>2024-03-01T14:14:38.000Z</time>
      </trkpt>
      <trkpt lat="45.30084" lon="5.41322">
        <ele>599.20001220703</ele>
        <time>2024-03-01T14:14:39.000Z</time>
      </trkpt>
      <trkpt lat="45.30085" lon="5.41326">
        <ele>599.20001220703</ele>
        <time>2024-03-01T14:14:40.000Z</time>
      </trkpt>
      <trkpt lat="45.30087" lon="5.4133">
        <ele>599.20001220703</ele>
        <time>2024-03-01T14:14:41.000Z</time>
      </trkpt>
      <trkpt lat="45.3009" lon="5.41334">
        <ele>599.20001220703</ele>
        <time>2024-03-01T14:14:42.000Z</time>
      </trkpt>
      <trkpt lat="45.30092" lon="5.41338">
        <ele>599.20001220703</ele>
        <time>2024-03-01T14:14:43.000Z</time>
      </trkpt>
      <trkpt lat="45.30095" lon="5.41342">
        <ele>599.20001220703</ele>
        <time>2024-03-01T14:14:44.000Z</time>
      </trkpt>
      <trkpt lat="45.30101" lon="5.41354">
        <ele>599.20001220703</ele>
        <time>2024-03-01T14:14:47.000Z</time>
      </trkpt>
      <trkpt lat="45.30104" lon="5.41358">
        <ele>599</ele>
        <time>2024-03-01T14:14:48.000Z</time>
      </trkpt>
      <trkpt lat="45.30108" lon="5.41366">
        <ele>599.20001220703</ele>
        <time>2024-03-01T14:14:50.000Z</time>
      </trkpt>
      <trkpt lat="45.30111" lon="5.41369">
        <ele>599.40002441406</ele>
        <time>2024-03-01T14:14:51.000Z</time>
      </trkpt>
      <trkpt lat="45.30119" lon="5.41385">
        <ele>599.40002441406</ele>
        <time>2024-03-01T14:14:55.000Z</time>
      </trkpt>
      <trkpt lat="45.3012" lon="5.41389">
        <ele>599.59997558594</ele>
        <time>2024-03-01T14:14:56.000Z</time>
      </trkpt>
      <trkpt lat="45.30122" lon="5.41394">
        <ele>599.59997558594</ele>
        <time>2024-03-01T14:14:57.000Z</time>
      </trkpt>
      <trkpt lat="45.30126" lon="5.41402">
        <ele>599.79998779297</ele>
        <time>2024-03-01T14:14:59.000Z</time>
      </trkpt>
      <trkpt lat="45.30127" lon="5.41407">
        <ele>599.79998779297</ele>
        <time>2024-03-01T14:15:00.000Z</time>
      </trkpt>
      <trkpt lat="45.30131" lon="5.41415">
        <ele>599.79998779297</ele>
        <time>2024-03-01T14:15:02.000Z</time>
      </trkpt>
      <trkpt lat="45.30132" lon="5.4142">
        <ele>600</ele>
        <time>2024-03-01T14:15:03.000Z</time>
      </trkpt>
      <trkpt lat="45.30138" lon="5.41432">
        <ele>600</ele>
        <time>2024-03-01T14:15:06.000Z</time>
      </trkpt>
      <trkpt lat="45.30141" lon="5.41437">
        <ele>600</ele>
        <time>2024-03-01T14:15:07.000Z</time>
      </trkpt>
      <trkpt lat="45.30142" lon="5.41441">
        <ele>600.20001220703</ele>
        <time>2024-03-01T14:15:08.000Z</time>
      </trkpt>
      <trkpt lat="45.30144" lon="5.41445">
        <ele>600.20001220703</ele>
        <time>2024-03-01T14:15:09.000Z</time>
      </trkpt>
      <trkpt lat="45.30145" lon="5.4145">
        <ele>600.20001220703</ele>
        <time>2024-03-01T14:15:10.000Z</time>
      </trkpt>
      <trkpt lat="45.30147" lon="5.41454">
        <ele>600.20001220703</ele>
        <time>2024-03-01T14:15:11.000Z</time>
      </trkpt>
      <trkpt lat="45.30149" lon="5.41459">
        <ele>600.20001220703</ele>
        <time>2024-03-01T14:15:12.000Z</time>
      </trkpt>
      <trkpt lat="45.3015" lon="5.41463">
        <ele>600.40002441406</ele>
        <time>2024-03-01T14:15:13.000Z</time>
      </trkpt>
      <trkpt lat="45.30152" lon="5.41467">
        <ele>600.40002441406</ele>
        <time>2024-03-01T14:15:14.000Z</time>
      </trkpt>
      <trkpt lat="45.30153" lon="5.41472">
        <ele>600.59997558594</ele>
        <time>2024-03-01T14:15:15.000Z</time>
      </trkpt>
      <trkpt lat="45.30155" lon="5.41476">
        <ele>600.59997558594</ele>
        <time>2024-03-01T14:15:16.000Z</time>
      </trkpt>
      <trkpt lat="45.30156" lon="5.4148">
        <ele>600.59997558594</ele>
        <time>2024-03-01T14:15:17.000Z</time>
      </trkpt>
      <trkpt lat="45.30158" lon="5.41484">
        <ele>600.59997558594</ele>
        <time>2024-03-01T14:15:18.000Z</time>
      </trkpt>
      <trkpt lat="45.30159" lon="5.41488">
        <ele>600.59997558594</ele>
        <time>2024-03-01T14:15:19.000Z</time>
      </trkpt>
      <trkpt lat="45.30161" lon="5.41492">
        <ele>600.59997558594</ele>
        <time>2024-03-01T14:15:20.000Z</time>
      </trkpt>
      <trkpt lat="45.30162" lon="5.41496">
        <ele>600.59997558594</ele>
        <time>2024-03-01T14:15:21.000Z</time>
      </trkpt>
      <trkpt lat="45.30164" lon="5.415">
        <ele>600.79998779297</ele>
        <time>2024-03-01T14:15:22.000Z</time>
      </trkpt>
      <trkpt lat="45.30165" lon="5.41503">
        <ele>600.79998779297</ele>
        <time>2024-03-01T14:15:23.000Z</time>
      </trkpt>
      <trkpt lat="45.30167" lon="5.41507">
        <ele>601</ele>
        <time>2024-03-01T14:15:24.000Z</time>
      </trkpt>
      <trkpt lat="45.30168" lon="5.4151">
        <ele>601.20001220703</ele>
        <time>2024-03-01T14:15:25.000Z</time>
      </trkpt>
      <trkpt lat="45.30172" lon="5.41518">
        <ele>601.59997558594</ele>
        <time>2024-03-01T14:15:27.000Z</time>
      </trkpt>
      <trkpt lat="45.30184" lon="5.41536">
        <ele>602.59997558594</ele>
        <time>2024-03-01T14:15:33.000Z</time>
      </trkpt>
      <trkpt lat="45.30186" lon="5.4154">
        <ele>602.79998779297</ele>
        <time>2024-03-01T14:15:34.000Z</time>
      </trkpt>
      <trkpt lat="45.30189" lon="5.41543">
        <ele>602.79998779297</ele>
        <time>2024-03-01T14:15:35.000Z</time>
      </trkpt>
      <trkpt lat="45.30191" lon="5.41546">
        <ele>603</ele>
        <time>2024-03-01T14:15:36.000Z</time>
      </trkpt>
      <trkpt lat="45.30194" lon="5.41549">
        <ele>603</ele>
        <time>2024-03-01T14:15:37.000Z</time>
      </trkpt>
      <trkpt lat="45.30198" lon="5.41555">
        <ele>603.20001220703</ele>
        <time>2024-03-01T14:15:39.000Z</time>
      </trkpt>
      <trkpt lat="45.30201" lon="5.41558">
        <ele>603.20001220703</ele>
        <time>2024-03-01T14:15:40.000Z</time>
      </trkpt>
      <trkpt lat="45.30203" lon="5.41561">
        <ele>603.40002441406</ele>
        <time>2024-03-01T14:15:41.000Z</time>
      </trkpt>
      <trkpt lat="45.30207" lon="5.41569">
        <ele>603.59997558594</ele>
        <time>2024-03-01T14:15:43.000Z</time>
      </trkpt>
      <trkpt lat="45.30209" lon="5.41572">
        <ele>603.79998779297</ele>
        <time>2024-03-01T14:15:44.000Z</time>
      </trkpt>
      <trkpt lat="45.30212" lon="5.41575">
        <ele>603.79998779297</ele>
        <time>2024-03-01T14:15:45.000Z</time>
      </trkpt>
      <trkpt lat="45.30214" lon="5.41579">
        <ele>604</ele>
        <time>2024-03-01T14:15:46.000Z</time>
      </trkpt>
      <trkpt lat="45.30216" lon="5.41582">
        <ele>604</ele>
        <time>2024-03-01T14:15:47.000Z</time>
      </trkpt>
      <trkpt lat="45.30218" lon="5.41586">
        <ele>604.59997558594</ele>
        <time>2024-03-01T14:15:48.000Z</time>
      </trkpt>
      <trkpt lat="45.30221" lon="5.41589">
        <ele>604.79998779297</ele>
        <time>2024-03-01T14:15:49.000Z</time>
      </trkpt>
      <trkpt lat="45.30222" lon="5.41593">
        <ele>605.40002441406</ele>
        <time>2024-03-01T14:15:50.000Z</time>
      </trkpt>
      <trkpt lat="45.30224" lon="5.41596">
        <ele>605.59997558594</ele>
        <time>2024-03-01T14:15:51.000Z</time>
      </trkpt>
      <trkpt lat="45.30232" lon="5.41612">
        <ele>606</ele>
        <time>2024-03-01T14:15:55.000Z</time>
      </trkpt>
      <trkpt lat="45.30235" lon="5.41616">
        <ele>606</ele>
        <time>2024-03-01T14:15:56.000Z</time>
      </trkpt>
      <trkpt lat="45.30237" lon="5.4162">
        <ele>606.20001220703</ele>
        <time>2024-03-01T14:15:57.000Z</time>
      </trkpt>
      <trkpt lat="45.30239" lon="5.41623">
        <ele>606.20001220703</ele>
        <time>2024-03-01T14:15:58.000Z</time>
      </trkpt>
      <trkpt lat="45.30243" lon="5.41631">
        <ele>606.40002441406</ele>
        <time>2024-03-01T14:16:00.000Z</time>
      </trkpt>
      <trkpt lat="45.30246" lon="5.41635">
        <ele>606.59997558594</ele>
        <time>2024-03-01T14:16:01.000Z</time>
      </trkpt>
      <trkpt lat="45.3025" lon="5.41643">
        <ele>606.79998779297</ele>
        <time>2024-03-01T14:16:03.000Z</time>
      </trkpt>
      <trkpt lat="45.30251" lon="5.41647">
        <ele>606.79998779297</ele>
        <time>2024-03-01T14:16:04.000Z</time>
      </trkpt>
      <trkpt lat="45.30253" lon="5.41651">
        <ele>607</ele>
        <time>2024-03-01T14:16:05.000Z</time>
      </trkpt>
      <trkpt lat="45.30255" lon="5.41654">
        <ele>607.20001220703</ele>
        <time>2024-03-01T14:16:06.000Z</time>
      </trkpt>
      <trkpt lat="45.30259" lon="5.41662">
        <ele>607.40002441406</ele>
        <time>2024-03-01T14:16:08.000Z</time>
      </trkpt>
      <trkpt lat="45.30261" lon="5.41665">
        <ele>607.59997558594</ele>
        <time>2024-03-01T14:16:09.000Z</time>
      </trkpt>
      <trkpt lat="45.30263" lon="5.41669">
        <ele>607.79998779297</ele>
        <time>2024-03-01T14:16:10.000Z</time>
      </trkpt>
      <trkpt lat="45.30265" lon="5.41672">
        <ele>608</ele>
        <time>2024-03-01T14:16:11.000Z</time>
      </trkpt>
      <trkpt lat="45.30267" lon="5.41676">
        <ele>608.20001220703</ele>
        <time>2024-03-01T14:16:12.000Z</time>
      </trkpt>
      <trkpt lat="45.3027" lon="5.41679">
        <ele>608.40002441406</ele>
        <time>2024-03-01T14:16:13.000Z</time>
      </trkpt>
      <trkpt lat="45.30274" lon="5.41687">
        <ele>608.59997558594</ele>
        <time>2024-03-01T14:16:15.000Z</time>
      </trkpt>
      <trkpt lat="45.30276" lon="5.4169">
        <ele>608.79998779297</ele>
        <time>2024-03-01T14:16:16.000Z</time>
      </trkpt>
      <trkpt lat="45.30279" lon="5.41693">
        <ele>609</ele>
        <time>2024-03-01T14:16:17.000Z</time>
      </trkpt>
      <trkpt lat="45.30281" lon="5.41697">
        <ele>609</ele>
        <time>2024-03-01T14:16:18.000Z</time>
      </trkpt>
      <trkpt lat="45.30293" lon="5.41709">
        <ele>609.59997558594</ele>
        <time>2024-03-01T14:16:22.000Z</time>
      </trkpt>
      <trkpt lat="45.30296" lon="5.41713">
        <ele>609.79998779297</ele>
        <time>2024-03-01T14:16:23.000Z</time>
      </trkpt>
      <trkpt lat="45.30299" lon="5.41716">
        <ele>610</ele>
        <time>2024-03-01T14:16:24.000Z</time>
      </trkpt>
      <trkpt lat="45.30301" lon="5.4172">
        <ele>610.20001220703</ele>
        <time>2024-03-01T14:16:25.000Z</time>
      </trkpt>
      <trkpt lat="45.30304" lon="5.41724">
        <ele>610.40002441406</ele>
        <time>2024-03-01T14:16:26.000Z</time>
      </trkpt>
      <trkpt lat="45.30307" lon="5.41727">
        <ele>610.40002441406</ele>
        <time>2024-03-01T14:16:27.000Z</time>
      </trkpt>
      <trkpt lat="45.30309" lon="5.41731">
        <ele>610.59997558594</ele>
        <time>2024-03-01T14:16:28.000Z</time>
      </trkpt>
      <trkpt lat="45.30312" lon="5.41734">
        <ele>610.79998779297</ele>
        <time>2024-03-01T14:16:29.000Z</time>
      </trkpt>
      <trkpt lat="45.30314" lon="5.41738">
        <ele>611</ele>
        <time>2024-03-01T14:16:30.000Z</time>
      </trkpt>
      <trkpt lat="45.30317" lon="5.41741">
        <ele>611.20001220703</ele>
        <time>2024-03-01T14:16:31.000Z</time>
      </trkpt>
      <trkpt lat="45.30319" lon="5.41745">
        <ele>611.20001220703</ele>
        <time>2024-03-01T14:16:32.000Z</time>
      </trkpt>
      <trkpt lat="45.30322" lon="5.41749">
        <ele>611.40002441406</ele>
        <time>2024-03-01T14:16:33.000Z</time>
      </trkpt>
      <trkpt lat="45.30324" lon="5.41753">
        <ele>611.40002441406</ele>
        <time>2024-03-01T14:16:34.000Z</time>
      </trkpt>
      <trkpt lat="45.30327" lon="5.41757">
        <ele>611.59997558594</ele>
        <time>2024-03-01T14:16:35.000Z</time>
      </trkpt>
      <trkpt lat="45.30329" lon="5.41761">
        <ele>611.79998779297</ele>
        <time>2024-03-01T14:16:36.000Z</time>
      </trkpt>
      <trkpt lat="45.30335" lon="5.41767">
        <ele>612.20001220703</ele>
        <time>2024-03-01T14:16:38.000Z</time>
      </trkpt>
      <trkpt lat="45.30341" lon="5.41775">
        <ele>612.40002441406</ele>
        <time>2024-03-01T14:16:40.000Z</time>
      </trkpt>
      <trkpt lat="45.30344" lon="5.41778">
        <ele>612.59997558594</ele>
        <time>2024-03-01T14:16:41.000Z</time>
      </trkpt>
      <trkpt lat="45.30347" lon="5.41782">
        <ele>612.59997558594</ele>
        <time>2024-03-01T14:16:42.000Z</time>
      </trkpt>
      <trkpt lat="45.30349" lon="5.41785">
        <ele>613</ele>
        <time>2024-03-01T14:16:43.000Z</time>
      </trkpt>
      <trkpt lat="45.30352" lon="5.41789">
        <ele>613</ele>
        <time>2024-03-01T14:16:44.000Z</time>
      </trkpt>
      <trkpt lat="45.30355" lon="5.41792">
        <ele>613.20001220703</ele>
        <time>2024-03-01T14:16:45.000Z</time>
      </trkpt>
      <trkpt lat="45.30358" lon="5.41794">
        <ele>613.40002441406</ele>
        <time>2024-03-01T14:16:46.000Z</time>
      </trkpt>
      <trkpt lat="45.30362" lon="5.41797">
        <ele>613.59997558594</ele>
        <time>2024-03-01T14:16:47.000Z</time>
      </trkpt>
      <trkpt lat="45.30371" lon="5.41806">
        <ele>613.79998779297</ele>
        <time>2024-03-01T14:16:50.000Z</time>
      </trkpt>
      <trkpt lat="45.30374" lon="5.41808">
        <ele>614</ele>
        <time>2024-03-01T14:16:51.000Z</time>
      </trkpt>
      <trkpt lat="45.30378" lon="5.41811">
        <ele>614</ele>
        <time>2024-03-01T14:16:52.000Z</time>
      </trkpt>
      <trkpt lat="45.30384" lon="5.41817">
        <ele>614.20001220703</ele>
        <time>2024-03-01T14:16:54.000Z</time>
      </trkpt>
      <trkpt lat="45.30387" lon="5.41819">
        <ele>614.20001220703</ele>
        <time>2024-03-01T14:16:55.000Z</time>
      </trkpt>
      <trkpt lat="45.3039" lon="5.41823">
        <ele>614.20001220703</ele>
        <time>2024-03-01T14:16:56.000Z</time>
      </trkpt>
      <trkpt lat="45.30393" lon="5.41826">
        <ele>614.40002441406</ele>
        <time>2024-03-01T14:16:57.000Z</time>
      </trkpt>
      <trkpt lat="45.30395" lon="5.41829">
        <ele>614.59997558594</ele>
        <time>2024-03-01T14:16:58.000Z</time>
      </trkpt>
      <trkpt lat="45.30398" lon="5.41831">
        <ele>614.79998779297</ele>
        <time>2024-03-01T14:16:59.000Z</time>
      </trkpt>
      <trkpt lat="45.30401" lon="5.41834">
        <ele>614.79998779297</ele>
        <time>2024-03-01T14:17:00.000Z</time>
      </trkpt>
      <trkpt lat="45.30407" lon="5.41838">
        <ele>615.20001220703</ele>
        <time>2024-03-01T14:17:02.000Z</time>
      </trkpt>
      <trkpt lat="45.30411" lon="5.41841">
        <ele>615.20001220703</ele>
        <time>2024-03-01T14:17:03.000Z</time>
      </trkpt>
      <trkpt lat="45.30414" lon="5.41844">
        <ele>615.40002441406</ele>
        <time>2024-03-01T14:17:04.000Z</time>
      </trkpt>
      <trkpt lat="45.30418" lon="5.41846">
        <ele>615.40002441406</ele>
        <time>2024-03-01T14:17:05.000Z</time>
      </trkpt>
      <trkpt lat="45.30421" lon="5.41849">
        <ele>615.59997558594</ele>
        <time>2024-03-01T14:17:06.000Z</time>
      </trkpt>
      <trkpt lat="45.30424" lon="5.41851">
        <ele>615.59997558594</ele>
        <time>2024-03-01T14:17:07.000Z</time>
      </trkpt>
      <trkpt lat="45.30431" lon="5.41858">
        <ele>615.79998779297</ele>
        <time>2024-03-01T14:17:09.000Z</time>
      </trkpt>
      <trkpt lat="45.30433" lon="5.41861">
        <ele>615.79998779297</ele>
        <time>2024-03-01T14:17:10.000Z</time>
      </trkpt>
      <trkpt lat="45.30437" lon="5.41869">
        <ele>616</ele>
        <time>2024-03-01T14:17:12.000Z</time>
      </trkpt>
      <trkpt lat="45.3044" lon="5.41873">
        <ele>616.20001220703</ele>
        <time>2024-03-01T14:17:13.000Z</time>
      </trkpt>
      <trkpt lat="45.30442" lon="5.41877">
        <ele>616.59997558594</ele>
        <time>2024-03-01T14:17:14.000Z</time>
      </trkpt>
      <trkpt lat="45.30445" lon="5.41881">
        <ele>616.79998779297</ele>
        <time>2024-03-01T14:17:15.000Z</time>
      </trkpt>
      <trkpt lat="45.30447" lon="5.41885">
        <ele>617</ele>
        <time>2024-03-01T14:17:16.000Z</time>
      </trkpt>
      <trkpt lat="45.3045" lon="5.41889">
        <ele>617</ele>
        <time>2024-03-01T14:17:17.000Z</time>
      </trkpt>
      <trkpt lat="45.30452" lon="5.41894">
        <ele>617.20001220703</ele>
        <time>2024-03-01T14:17:18.000Z</time>
      </trkpt>
      <trkpt lat="45.30455" lon="5.41897">
        <ele>617.20001220703</ele>
        <time>2024-03-01T14:17:19.000Z</time>
      </trkpt>
      <trkpt lat="45.30458" lon="5.41901">
        <ele>617.40002441406</ele>
        <time>2024-03-01T14:17:20.000Z</time>
      </trkpt>
      <trkpt lat="45.3046" lon="5.41905">
        <ele>617.59997558594</ele>
        <time>2024-03-01T14:17:21.000Z</time>
      </trkpt>
      <trkpt lat="45.30463" lon="5.41909">
        <ele>617.79998779297</ele>
        <time>2024-03-01T14:17:22.000Z</time>
      </trkpt>
      <trkpt lat="45.30465" lon="5.41914">
        <ele>618</ele>
        <time>2024-03-01T14:17:23.000Z</time>
      </trkpt>
      <trkpt lat="45.30467" lon="5.41918">
        <ele>618.20001220703</ele>
        <time>2024-03-01T14:17:24.000Z</time>
      </trkpt>
      <trkpt lat="45.3047" lon="5.41922">
        <ele>618.40002441406</ele>
        <time>2024-03-01T14:17:25.000Z</time>
      </trkpt>
      <trkpt lat="45.30474" lon="5.4193">
        <ele>618.59997558594</ele>
        <time>2024-03-01T14:17:27.000Z</time>
      </trkpt>
      <trkpt lat="45.3048" lon="5.41938">
        <ele>618.79998779297</ele>
        <time>2024-03-01T14:17:29.000Z</time>
      </trkpt>
      <trkpt lat="45.30483" lon="5.4194">
        <ele>619</ele>
        <time>2024-03-01T14:17:30.000Z</time>
      </trkpt>
      <trkpt lat="45.30487" lon="5.41941">
        <ele>619.20001220703</ele>
        <time>2024-03-01T14:17:31.000Z</time>
      </trkpt>
      <trkpt lat="45.30494" lon="5.41941">
        <ele>619.59997558594</ele>
        <time>2024-03-01T14:17:33.000Z</time>
      </trkpt>
      <trkpt lat="45.30502" lon="5.41937">
        <ele>619.79998779297</ele>
        <time>2024-03-01T14:17:35.000Z</time>
      </trkpt>
      <trkpt lat="45.30506" lon="5.41934">
        <ele>619.79998779297</ele>
        <time>2024-03-01T14:17:36.000Z</time>
      </trkpt>
      <trkpt lat="45.30512" lon="5.41928">
        <ele>620</ele>
        <time>2024-03-01T14:17:38.000Z</time>
      </trkpt>
      <trkpt lat="45.30518" lon="5.41918">
        <ele>620</ele>
        <time>2024-03-01T14:17:40.000Z</time>
      </trkpt>
      <trkpt lat="45.3052" lon="5.41913">
        <ele>620</ele>
        <time>2024-03-01T14:17:41.000Z</time>
      </trkpt>
      <trkpt lat="45.30523" lon="5.41909">
        <ele>620.20001220703</ele>
        <time>2024-03-01T14:17:42.000Z</time>
      </trkpt>
      <trkpt lat="45.30526" lon="5.41906">
        <ele>620.20001220703</ele>
        <time>2024-03-01T14:17:43.000Z</time>
      </trkpt>
      <trkpt lat="45.30528" lon="5.41902">
        <ele>620.20001220703</ele>
        <time>2024-03-01T14:17:44.000Z</time>
      </trkpt>
      <trkpt lat="45.30537" lon="5.41893">
        <ele>620.40002441406</ele>
        <time>2024-03-01T14:17:47.000Z</time>
      </trkpt>
      <trkpt lat="45.3054" lon="5.41891">
        <ele>620.40002441406</ele>
        <time>2024-03-01T14:17:48.000Z</time>
      </trkpt>
      <trkpt lat="45.30543" lon="5.4189">
        <ele>620.59997558594</ele>
        <time>2024-03-01T14:17:49.000Z</time>
      </trkpt>
      <trkpt lat="45.30547" lon="5.41888">
        <ele>620.59997558594</ele>
        <time>2024-03-01T14:17:50.000Z</time>
      </trkpt>
      <trkpt lat="45.30556" lon="5.41885">
        <ele>621.40002441406</ele>
        <time>2024-03-01T14:17:53.000Z</time>
      </trkpt>
      <trkpt lat="45.30558" lon="5.41884">
        <ele>621.59997558594</ele>
        <time>2024-03-01T14:17:54.000Z</time>
      </trkpt>
      <trkpt lat="45.30561" lon="5.41883">
        <ele>621.79998779297</ele>
        <time>2024-03-01T14:17:55.000Z</time>
      </trkpt>
      <trkpt lat="45.30565" lon="5.41882">
        <ele>621.79998779297</ele>
        <time>2024-03-01T14:17:56.000Z</time>
      </trkpt>
      <trkpt lat="45.30574" lon="5.41879">
        <ele>622.59997558594</ele>
        <time>2024-03-01T14:17:59.000Z</time>
      </trkpt>
      <trkpt lat="45.30576" lon="5.41878">
        <ele>622.79998779297</ele>
        <time>2024-03-01T14:18:00.000Z</time>
      </trkpt>
      <trkpt lat="45.30582" lon="5.41876">
        <ele>623</ele>
        <time>2024-03-01T14:18:02.000Z</time>
      </trkpt>
      <trkpt lat="45.30588" lon="5.41872">
        <ele>623.40002441406</ele>
        <time>2024-03-01T14:18:04.000Z</time>
      </trkpt>
      <trkpt lat="45.30592" lon="5.4187">
        <ele>623.40002441406</ele>
        <time>2024-03-01T14:18:05.000Z</time>
      </trkpt>
      <trkpt lat="45.30596" lon="5.41869">
        <ele>623.59997558594</ele>
        <time>2024-03-01T14:18:06.000Z</time>
      </trkpt>
      <trkpt lat="45.30611" lon="5.41859">
        <ele>624.40002441406</ele>
        <time>2024-03-01T14:18:11.000Z</time>
      </trkpt>
      <trkpt lat="45.30614" lon="5.41858">
        <ele>624.40002441406</ele>
        <time>2024-03-01T14:18:12.000Z</time>
      </trkpt>
      <trkpt lat="45.30618" lon="5.41857">
        <ele>624.59997558594</ele>
        <time>2024-03-01T14:18:13.000Z</time>
      </trkpt>
      <trkpt lat="45.30621" lon="5.41856">
        <ele>624.59997558594</ele>
        <time>2024-03-01T14:18:14.000Z</time>
      </trkpt>
      <trkpt lat="45.30623" lon="5.41856">
        <ele>624.59997558594</ele>
        <time>2024-03-01T14:18:15.000Z</time>
      </trkpt>
      <trkpt lat="45.30626" lon="5.41858">
        <ele>625</ele>
        <time>2024-03-01T14:18:16.000Z</time>
      </trkpt>
      <trkpt lat="45.30629" lon="5.41859">
        <ele>625</ele>
        <time>2024-03-01T14:18:17.000Z</time>
      </trkpt>
      <trkpt lat="45.30639" lon="5.41859">
        <ele>625.59997558594</ele>
        <time>2024-03-01T14:18:22.000Z</time>
      </trkpt>
      <trkpt lat="45.30642" lon="5.4186">
        <ele>625.59997558594</ele>
        <time>2024-03-01T14:18:23.000Z</time>
      </trkpt>
      <trkpt lat="45.30644" lon="5.41861">
        <ele>625.79998779297</ele>
        <time>2024-03-01T14:18:24.000Z</time>
      </trkpt>
      <trkpt lat="45.30647" lon="5.41862">
        <ele>626</ele>
        <time>2024-03-01T14:18:25.000Z</time>
      </trkpt>
      <trkpt lat="45.30659" lon="5.41862">
        <ele>627</ele>
        <time>2024-03-01T14:18:29.000Z</time>
      </trkpt>
      <trkpt lat="45.30662" lon="5.41861">
        <ele>627.20001220703</ele>
        <time>2024-03-01T14:18:30.000Z</time>
      </trkpt>
      <trkpt lat="45.30676" lon="5.41861">
        <ele>628.20001220703</ele>
        <time>2024-03-01T14:18:35.000Z</time>
      </trkpt>
      <trkpt lat="45.30679" lon="5.4186">
        <ele>628.40002441406</ele>
        <time>2024-03-01T14:18:36.000Z</time>
      </trkpt>
      <trkpt lat="45.30685" lon="5.4186">
        <ele>628.79998779297</ele>
        <time>2024-03-01T14:18:38.000Z</time>
      </trkpt>
      <trkpt lat="45.30687" lon="5.41861">
        <ele>629</ele>
        <time>2024-03-01T14:18:39.000Z</time>
      </trkpt>
      <trkpt lat="45.30693" lon="5.41863">
        <ele>629.20001220703</ele>
        <time>2024-03-01T14:18:41.000Z</time>
      </trkpt>
      <trkpt lat="45.30696" lon="5.41865">
        <ele>629.40002441406</ele>
        <time>2024-03-01T14:18:42.000Z</time>
      </trkpt>
      <trkpt lat="45.307" lon="5.41866">
        <ele>629.40002441406</ele>
        <time>2024-03-01T14:18:43.000Z</time>
      </trkpt>
      <trkpt lat="45.30736" lon="5.41866">
        <ele>630.40002441406</ele>
        <time>2024-03-01T14:18:52.000Z</time>
      </trkpt>
      <trkpt lat="45.30741" lon="5.41867">
        <ele>630.59997558594</ele>
        <time>2024-03-01T14:18:53.000Z</time>
      </trkpt>
      <trkpt lat="45.30746" lon="5.41869">
        <ele>630.59997558594</ele>
        <time>2024-03-01T14:18:54.000Z</time>
      </trkpt>
      <trkpt lat="45.30757" lon="5.41869">
        <ele>630.40002441406</ele>
        <time>2024-03-01T14:18:56.000Z</time>
      </trkpt>
      <trkpt lat="45.30762" lon="5.4187">
        <ele>630.40002441406</ele>
        <time>2024-03-01T14:18:57.000Z</time>
      </trkpt>
      <trkpt lat="45.30768" lon="5.41867">
        <ele>630.20001220703</ele>
        <time>2024-03-01T14:18:58.000Z</time>
      </trkpt>
      <trkpt lat="45.30777" lon="5.41858">
        <ele>630.20001220703</ele>
        <time>2024-03-01T14:19:00.000Z</time>
      </trkpt>
      <trkpt lat="45.30782" lon="5.41855">
        <ele>630.20001220703</ele>
        <time>2024-03-01T14:19:01.000Z</time>
      </trkpt>
      <trkpt lat="45.30787" lon="5.41854">
        <ele>630.20001220703</ele>
        <time>2024-03-01T14:19:02.000Z</time>
      </trkpt>
      <trkpt lat="45.30797" lon="5.41854">
        <ele>629.79998779297</ele>
        <time>2024-03-01T14:19:04.000Z</time>
      </trkpt>
      <trkpt lat="45.30804" lon="5.41853">
        <ele>629.59997558594</ele>
        <time>2024-03-01T14:19:05.000Z</time>
      </trkpt>
      <trkpt lat="45.3081" lon="5.41852">
        <ele>629.59997558594</ele>
        <time>2024-03-01T14:19:06.000Z</time>
      </trkpt>
      <trkpt lat="45.30824" lon="5.41852">
        <ele>629</ele>
        <time>2024-03-01T14:19:08.000Z</time>
      </trkpt>
      <trkpt lat="45.30831" lon="5.41853">
        <ele>628.79998779297</ele>
        <time>2024-03-01T14:19:09.000Z</time>
      </trkpt>
      <trkpt lat="45.30838" lon="5.41857">
        <ele>628.20001220703</ele>
        <time>2024-03-01T14:19:10.000Z</time>
      </trkpt>
      <trkpt lat="45.30844" lon="5.41862">
        <ele>627.79998779297</ele>
        <time>2024-03-01T14:19:11.000Z</time>
      </trkpt>
      <trkpt lat="45.30852" lon="5.41869">
        <ele>627.20001220703</ele>
        <time>2024-03-01T14:19:12.000Z</time>
      </trkpt>
      <trkpt lat="45.3086" lon="5.41878">
        <ele>626.20001220703</ele>
        <time>2024-03-01T14:19:13.000Z</time>
      </trkpt>
      <trkpt lat="45.30867" lon="5.41887">
        <ele>625.79998779297</ele>
        <time>2024-03-01T14:19:14.000Z</time>
      </trkpt>
      <trkpt lat="45.30875" lon="5.41897">
        <ele>624.20001220703</ele>
        <time>2024-03-01T14:19:15.000Z</time>
      </trkpt>
      <trkpt lat="45.30884" lon="5.41906">
        <ele>623.79998779297</ele>
        <time>2024-03-01T14:19:16.000Z</time>
      </trkpt>
      <trkpt lat="45.30891" lon="5.41916">
        <ele>623</ele>
        <time>2024-03-01T14:19:17.000Z</time>
      </trkpt>
      <trkpt lat="45.30899" lon="5.41926">
        <ele>622.20001220703</ele>
        <time>2024-03-01T14:19:18.000Z</time>
      </trkpt>
      <trkpt lat="45.30905" lon="5.41935">
        <ele>620</ele>
        <time>2024-03-01T14:19:19.000Z</time>
      </trkpt>
      <trkpt lat="45.30913" lon="5.41945">
        <ele>618.20001220703</ele>
        <time>2024-03-01T14:19:20.000Z</time>
      </trkpt>
      <trkpt lat="45.3092" lon="5.41954">
        <ele>617.59997558594</ele>
        <time>2024-03-01T14:19:21.000Z</time>
      </trkpt>
      <trkpt lat="45.30928" lon="5.41962">
        <ele>616.40002441406</ele>
        <time>2024-03-01T14:19:22.000Z</time>
      </trkpt>
      <trkpt lat="45.30936" lon="5.41969">
        <ele>615.79998779297</ele>
        <time>2024-03-01T14:19:23.000Z</time>
      </trkpt>
      <trkpt lat="45.30946" lon="5.41972">
        <ele>614.59997558594</ele>
        <time>2024-03-01T14:19:24.000Z</time>
      </trkpt>
      <trkpt lat="45.30955" lon="5.41973">
        <ele>613</ele>
        <time>2024-03-01T14:19:25.000Z</time>
      </trkpt>
      <trkpt lat="45.30962" lon="5.41974">
        <ele>611.79998779297</ele>
        <time>2024-03-01T14:19:26.000Z</time>
      </trkpt>
      <trkpt lat="45.3097" lon="5.41974">
        <ele>610.40002441406</ele>
        <time>2024-03-01T14:19:27.000Z</time>
      </trkpt>
      <trkpt lat="45.30978" lon="5.41977">
        <ele>609</ele>
        <time>2024-03-01T14:19:28.000Z</time>
      </trkpt>
      <trkpt lat="45.31" lon="5.41985">
        <ele>604.20001220703</ele>
        <time>2024-03-01T14:19:30.000Z</time>
      </trkpt>
      <trkpt lat="45.31012" lon="5.41988">
        <ele>602.59997558594</ele>
        <time>2024-03-01T14:19:31.000Z</time>
      </trkpt>
      <trkpt lat="45.31025" lon="5.41991">
        <ele>599.20001220703</ele>
        <time>2024-03-01T14:19:32.000Z</time>
      </trkpt>
      <trkpt lat="45.31035" lon="5.41992">
        <ele>597.59997558594</ele>
        <time>2024-03-01T14:19:33.000Z</time>
      </trkpt>
      <trkpt lat="45.31046" lon="5.41992">
        <ele>595.59997558594</ele>
        <time>2024-03-01T14:19:34.000Z</time>
      </trkpt>
      <trkpt lat="45.31059" lon="5.41991">
        <ele>594.20001220703</ele>
        <time>2024-03-01T14:19:35.000Z</time>
      </trkpt>
      <trkpt lat="45.31072" lon="5.41991">
        <ele>592.79998779297</ele>
        <time>2024-03-01T14:19:36.000Z</time>
      </trkpt>
      <trkpt lat="45.31085" lon="5.41995">
        <ele>592.20001220703</ele>
        <time>2024-03-01T14:19:37.000Z</time>
      </trkpt>
      <trkpt lat="45.31099" lon="5.42">
        <ele>589.20001220703</ele>
        <time>2024-03-01T14:19:38.000Z</time>
      </trkpt>
      <trkpt lat="45.31111" lon="5.42006">
        <ele>587.59997558594</ele>
        <time>2024-03-01T14:19:39.000Z</time>
      </trkpt>
      <trkpt lat="45.31137" lon="5.4202">
        <ele>584.59997558594</ele>
        <time>2024-03-01T14:19:41.000Z</time>
      </trkpt>
      <trkpt lat="45.31148" lon="5.42028">
        <ele>584</ele>
        <time>2024-03-01T14:19:42.000Z</time>
      </trkpt>
      <trkpt lat="45.31158" lon="5.42036">
        <ele>582.79998779297</ele>
        <time>2024-03-01T14:19:43.000Z</time>
      </trkpt>
      <trkpt lat="45.31169" lon="5.42044">
        <ele>581.20001220703</ele>
        <time>2024-03-01T14:19:44.000Z</time>
      </trkpt>
      <trkpt lat="45.31179" lon="5.42051">
        <ele>580.40002441406</ele>
        <time>2024-03-01T14:19:45.000Z</time>
      </trkpt>
      <trkpt lat="45.31189" lon="5.42056">
        <ele>578.79998779297</ele>
        <time>2024-03-01T14:19:46.000Z</time>
      </trkpt>
      <trkpt lat="45.31199" lon="5.4206">
        <ele>578.40002441406</ele>
        <time>2024-03-01T14:19:47.000Z</time>
      </trkpt>
      <trkpt lat="45.3121" lon="5.42062">
        <ele>577.59997558594</ele>
        <time>2024-03-01T14:19:48.000Z</time>
      </trkpt>
      <trkpt lat="45.31221" lon="5.42065">
        <ele>577.40002441406</ele>
        <time>2024-03-01T14:19:49.000Z</time>
      </trkpt>
      <trkpt lat="45.31232" lon="5.4207">
        <ele>576</ele>
        <time>2024-03-01T14:19:50.000Z</time>
      </trkpt>
      <trkpt lat="45.3124" lon="5.42072">
        <ele>574.20001220703</ele>
        <time>2024-03-01T14:19:51.000Z</time>
      </trkpt>
      <trkpt lat="45.31262" lon="5.42083">
        <ele>571.40002441406</ele>
        <time>2024-03-01T14:19:53.000Z</time>
      </trkpt>
      <trkpt lat="45.31275" lon="5.42088">
        <ele>569.59997558594</ele>
        <time>2024-03-01T14:19:54.000Z</time>
      </trkpt>
      <trkpt lat="45.31284" lon="5.42092">
        <ele>567</ele>
        <time>2024-03-01T14:19:55.000Z</time>
      </trkpt>
      <trkpt lat="45.31295" lon="5.42097">
        <ele>563.59997558594</ele>
        <time>2024-03-01T14:19:56.000Z</time>
      </trkpt>
      <trkpt lat="45.31304" lon="5.42103">
        <ele>562.20001220703</ele>
        <time>2024-03-01T14:19:57.000Z</time>
      </trkpt>
      <trkpt lat="45.31312" lon="5.42111">
        <ele>558.79998779297</ele>
        <time>2024-03-01T14:19:58.000Z</time>
      </trkpt>
      <trkpt lat="45.3132" lon="5.4212">
        <ele>557.79998779297</ele>
        <time>2024-03-01T14:19:59.000Z</time>
      </trkpt>
      <trkpt lat="45.31336" lon="5.42136">
        <ele>553.59997558594</ele>
        <time>2024-03-01T14:20:01.000Z</time>
      </trkpt>
      <trkpt lat="45.31342" lon="5.42144">
        <ele>550.79998779297</ele>
        <time>2024-03-01T14:20:02.000Z</time>
      </trkpt>
      <trkpt lat="45.31347" lon="5.42154">
        <ele>547.79998779297</ele>
        <time>2024-03-01T14:20:03.000Z</time>
      </trkpt>
      <trkpt lat="45.31349" lon="5.42164">
        <ele>546.40002441406</ele>
        <time>2024-03-01T14:20:04.000Z</time>
      </trkpt>
      <trkpt lat="45.31349" lon="5.42173">
        <ele>544.40002441406</ele>
        <time>2024-03-01T14:20:05.000Z</time>
      </trkpt>
      <trkpt lat="45.31351" lon="5.42178">
        <ele>543.59997558594</ele>
        <time>2024-03-01T14:20:06.000Z</time>
      </trkpt>
      <trkpt lat="45.31353" lon="5.42179">
        <ele>541</ele>
        <time>2024-03-01T14:20:07.000Z</time>
      </trkpt>
      <trkpt lat="45.31357" lon="5.42175">
        <ele>537.40002441406</ele>
        <time>2024-03-01T14:20:09.000Z</time>
      </trkpt>
      <trkpt lat="45.31358" lon="5.42169">
        <ele>535.20001220703</ele>
        <time>2024-03-01T14:20:10.000Z</time>
      </trkpt>
      <trkpt lat="45.31359" lon="5.42162">
        <ele>534.40002441406</ele>
        <time>2024-03-01T14:20:11.000Z</time>
      </trkpt>
      <trkpt lat="45.31359" lon="5.42145">
        <ele>532.59997558594</ele>
        <time>2024-03-01T14:20:13.000Z</time>
      </trkpt>
      <trkpt lat="45.31361" lon="5.42144">
        <ele>529</ele>
        <time>2024-03-01T14:20:25.000Z</time>
      </trkpt>
      <trkpt lat="45.31367" lon="5.42146">
        <ele>528.79998779297</ele>
        <time>2024-03-01T14:20:26.000Z</time>
      </trkpt>
      <trkpt lat="45.31373" lon="5.4215">
        <ele>528.79998779297</ele>
        <time>2024-03-01T14:20:27.000Z</time>
      </trkpt>
      <trkpt lat="45.31379" lon="5.42153">
        <ele>528.59997558594</ele>
        <time>2024-03-01T14:20:28.000Z</time>
      </trkpt>
      <trkpt lat="45.31386" lon="5.42156">
        <ele>528.40002441406</ele>
        <time>2024-03-01T14:20:29.000Z</time>
      </trkpt>
      <trkpt lat="45.314" lon="5.4216">
        <ele>528</ele>
        <time>2024-03-01T14:20:31.000Z</time>
      </trkpt>
      <trkpt lat="45.31408" lon="5.42162">
        <ele>528</ele>
        <time>2024-03-01T14:20:32.000Z</time>
      </trkpt>
      <trkpt lat="45.31416" lon="5.42165">
        <ele>527.40002441406</ele>
        <time>2024-03-01T14:20:33.000Z</time>
      </trkpt>
      <trkpt lat="45.31434" lon="5.42169">
        <ele>526.59997558594</ele>
        <time>2024-03-01T14:20:35.000Z</time>
      </trkpt>
      <trkpt lat="45.31444" lon="5.42173">
        <ele>525.59997558594</ele>
        <time>2024-03-01T14:20:36.000Z</time>
      </trkpt>
      <trkpt lat="45.31461" lon="5.4219">
        <ele>524</ele>
        <time>2024-03-01T14:20:38.000Z</time>
      </trkpt>
      <trkpt lat="45.3147" lon="5.42198">
        <ele>523.40002441406</ele>
        <time>2024-03-01T14:20:39.000Z</time>
      </trkpt>
      <trkpt lat="45.3148" lon="5.42203">
        <ele>522.59997558594</ele>
        <time>2024-03-01T14:20:40.000Z</time>
      </trkpt>
      <trkpt lat="45.3149" lon="5.42202">
        <ele>521.20001220703</ele>
        <time>2024-03-01T14:20:41.000Z</time>
      </trkpt>
      <trkpt lat="45.31501" lon="5.42201">
        <ele>520.79998779297</ele>
        <time>2024-03-01T14:20:42.000Z</time>
      </trkpt>
      <trkpt lat="45.31512" lon="5.42201">
        <ele>519.79998779297</ele>
        <time>2024-03-01T14:20:43.000Z</time>
      </trkpt>
      <trkpt lat="45.31523" lon="5.42202">
        <ele>519.59997558594</ele>
        <time>2024-03-01T14:20:44.000Z</time>
      </trkpt>
      <trkpt lat="45.31534" lon="5.42201">
        <ele>518.79998779297</ele>
        <time>2024-03-01T14:20:45.000Z</time>
      </trkpt>
      <trkpt lat="45.31545" lon="5.42199">
        <ele>517.59997558594</ele>
        <time>2024-03-01T14:20:46.000Z</time>
      </trkpt>
      <trkpt lat="45.31555" lon="5.42193">
        <ele>517</ele>
        <time>2024-03-01T14:20:47.000Z</time>
      </trkpt>
      <trkpt lat="45.31573" lon="5.42185">
        <ele>514.40002441406</ele>
        <time>2024-03-01T14:20:49.000Z</time>
      </trkpt>
      <trkpt lat="45.31582" lon="5.42182">
        <ele>513.40002441406</ele>
        <time>2024-03-01T14:20:50.000Z</time>
      </trkpt>
      <trkpt lat="45.31591" lon="5.4218">
        <ele>513</ele>
        <time>2024-03-01T14:20:51.000Z</time>
      </trkpt>
      <trkpt lat="45.31601" lon="5.42178">
        <ele>512.59997558594</ele>
        <time>2024-03-01T14:20:52.000Z</time>
      </trkpt>
      <trkpt lat="45.31611" lon="5.42175">
        <ele>511.79998779297</ele>
        <time>2024-03-01T14:20:53.000Z</time>
      </trkpt>
      <trkpt lat="45.3162" lon="5.42172">
        <ele>511.60000610352</ele>
        <time>2024-03-01T14:20:54.000Z</time>
      </trkpt>
      <trkpt lat="45.31629" lon="5.4217">
        <ele>510.60000610352</ele>
        <time>2024-03-01T14:20:55.000Z</time>
      </trkpt>
      <trkpt lat="45.31637" lon="5.42167">
        <ele>510.20001220703</ele>
        <time>2024-03-01T14:20:56.000Z</time>
      </trkpt>
      <trkpt lat="45.31646" lon="5.42165">
        <ele>509.60000610352</ele>
        <time>2024-03-01T14:20:57.000Z</time>
      </trkpt>
      <trkpt lat="45.31653" lon="5.42162">
        <ele>509.20001220703</ele>
        <time>2024-03-01T14:20:58.000Z</time>
      </trkpt>
      <trkpt lat="45.31659" lon="5.4216">
        <ele>509.20001220703</ele>
        <time>2024-03-01T14:20:59.000Z</time>
      </trkpt>
      <trkpt lat="45.31666" lon="5.42157">
        <ele>509</ele>
        <time>2024-03-01T14:21:00.000Z</time>
      </trkpt>
      <trkpt lat="45.31673" lon="5.42156">
        <ele>508.79998779297</ele>
        <time>2024-03-01T14:21:01.000Z</time>
      </trkpt>
      <trkpt lat="45.31679" lon="5.42155">
        <ele>508.79998779297</ele>
        <time>2024-03-01T14:21:02.000Z</time>
      </trkpt>
      <trkpt lat="45.31691" lon="5.42155">
        <ele>508.60000610352</ele>
        <time>2024-03-01T14:21:04.000Z</time>
      </trkpt>
      <trkpt lat="45.31697" lon="5.42156">
        <ele>508.60000610352</ele>
        <time>2024-03-01T14:21:05.000Z</time>
      </trkpt>
      <trkpt lat="45.31704" lon="5.42157">
        <ele>508.79998779297</ele>
        <time>2024-03-01T14:21:06.000Z</time>
      </trkpt>
      <trkpt lat="45.31708" lon="5.42158">
        <ele>508.79998779297</ele>
        <time>2024-03-01T14:21:07.000Z</time>
      </trkpt>
      <trkpt lat="45.31714" lon="5.42159">
        <ele>508.79998779297</ele>
        <time>2024-03-01T14:21:08.000Z</time>
      </trkpt>
      <trkpt lat="45.31719" lon="5.4216">
        <ele>509</ele>
        <time>2024-03-01T14:21:09.000Z</time>
      </trkpt>
      <trkpt lat="45.31724" lon="5.42162">
        <ele>509.20001220703</ele>
        <time>2024-03-01T14:21:10.000Z</time>
      </trkpt>
      <trkpt lat="45.31728" lon="5.42163">
        <ele>509.39999389648</ele>
        <time>2024-03-01T14:21:11.000Z</time>
      </trkpt>
      <trkpt lat="45.31732" lon="5.42165">
        <ele>509.60000610352</ele>
        <time>2024-03-01T14:21:12.000Z</time>
      </trkpt>
      <trkpt lat="45.31743" lon="5.42165">
        <ele>509.79998779297</ele>
        <time>2024-03-01T14:21:14.000Z</time>
      </trkpt>
      <trkpt lat="45.31747" lon="5.42166">
        <ele>509.79998779297</ele>
        <time>2024-03-01T14:21:15.000Z</time>
      </trkpt>
      <trkpt lat="45.31751" lon="5.42166">
        <ele>510</ele>
        <time>2024-03-01T14:21:16.000Z</time>
      </trkpt>
      <trkpt lat="45.31756" lon="5.42167">
        <ele>510</ele>
        <time>2024-03-01T14:21:17.000Z</time>
      </trkpt>
      <trkpt lat="45.31764" lon="5.42169">
        <ele>510.20001220703</ele>
        <time>2024-03-01T14:21:19.000Z</time>
      </trkpt>
      <trkpt lat="45.31769" lon="5.42169">
        <ele>510.20001220703</ele>
        <time>2024-03-01T14:21:20.000Z</time>
      </trkpt>
      <trkpt lat="45.31775" lon="5.42168">
        <ele>510.20001220703</ele>
        <time>2024-03-01T14:21:21.000Z</time>
      </trkpt>
      <trkpt lat="45.31778" lon="5.42169">
        <ele>510.39999389648</ele>
        <time>2024-03-01T14:21:22.000Z</time>
      </trkpt>
      <trkpt lat="45.31782" lon="5.4217">
        <ele>510.39999389648</ele>
        <time>2024-03-01T14:21:23.000Z</time>
      </trkpt>
      <trkpt lat="45.31786" lon="5.42168">
        <ele>510.39999389648</ele>
        <time>2024-03-01T14:21:24.000Z</time>
      </trkpt>
      <trkpt lat="45.31792" lon="5.42164">
        <ele>510.39999389648</ele>
        <time>2024-03-01T14:21:25.000Z</time>
      </trkpt>
      <trkpt lat="45.31799" lon="5.4216">
        <ele>510.39999389648</ele>
        <time>2024-03-01T14:21:26.000Z</time>
      </trkpt>
      <trkpt lat="45.31805" lon="5.42158">
        <ele>510.39999389648</ele>
        <time>2024-03-01T14:21:27.000Z</time>
      </trkpt>
      <trkpt lat="45.31811" lon="5.42157">
        <ele>510.60000610352</ele>
        <time>2024-03-01T14:21:28.000Z</time>
      </trkpt>
      <trkpt lat="45.3182" lon="5.42156">
        <ele>510.39999389648</ele>
        <time>2024-03-01T14:21:29.000Z</time>
      </trkpt>
      <trkpt lat="45.31832" lon="5.42152">
        <ele>510.39999389648</ele>
        <time>2024-03-01T14:21:31.000Z</time>
      </trkpt>
      <trkpt lat="45.3185" lon="5.42143">
        <ele>510.79998779297</ele>
        <time>2024-03-01T14:21:34.000Z</time>
      </trkpt>
      <trkpt lat="45.31855" lon="5.42142">
        <ele>511</ele>
        <time>2024-03-01T14:21:35.000Z</time>
      </trkpt>
      <trkpt lat="45.31859" lon="5.42141">
        <ele>511</ele>
        <time>2024-03-01T14:21:36.000Z</time>
      </trkpt>
      <trkpt lat="45.31862" lon="5.4214">
        <ele>511</ele>
        <time>2024-03-01T14:21:37.000Z</time>
      </trkpt>
      <trkpt lat="45.31874" lon="5.42137">
        <ele>511.39999389648</ele>
        <time>2024-03-01T14:21:40.000Z</time>
      </trkpt>
      <trkpt lat="45.31878" lon="5.42135">
        <ele>511.39999389648</ele>
        <time>2024-03-01T14:21:41.000Z</time>
      </trkpt>
      <trkpt lat="45.31884" lon="5.42133">
        <ele>511.60000610352</ele>
        <time>2024-03-01T14:21:43.000Z</time>
      </trkpt>
      <trkpt lat="45.3189" lon="5.42133">
        <ele>512</ele>
        <time>2024-03-01T14:21:45.000Z</time>
      </trkpt>
      <trkpt lat="45.31901" lon="5.42122">
        <ele>512.59997558594</ele>
        <time>2024-03-01T14:21:48.000Z</time>
      </trkpt>
      <trkpt lat="45.31904" lon="5.4212">
        <ele>512.79998779297</ele>
        <time>2024-03-01T14:21:49.000Z</time>
      </trkpt>
      <trkpt lat="45.31908" lon="5.42117">
        <ele>513.20001220703</ele>
        <time>2024-03-01T14:21:50.000Z</time>
      </trkpt>
      <trkpt lat="45.31912" lon="5.42115">
        <ele>513.20001220703</ele>
        <time>2024-03-01T14:21:51.000Z</time>
      </trkpt>
      <trkpt lat="45.31917" lon="5.42114">
        <ele>513.40002441406</ele>
        <time>2024-03-01T14:21:52.000Z</time>
      </trkpt>
      <trkpt lat="45.3192" lon="5.42113">
        <ele>513.40002441406</ele>
        <time>2024-03-01T14:21:53.000Z</time>
      </trkpt>
      <trkpt lat="45.31926" lon="5.4211">
        <ele>513.59997558594</ele>
        <time>2024-03-01T14:21:55.000Z</time>
      </trkpt>
      <trkpt lat="45.31929" lon="5.42108">
        <ele>513.79998779297</ele>
        <time>2024-03-01T14:21:56.000Z</time>
      </trkpt>
      <trkpt lat="45.3193" lon="5.42106">
        <ele>513.79998779297</ele>
        <time>2024-03-01T14:21:57.000Z</time>
      </trkpt>
      <trkpt lat="45.31933" lon="5.42104">
        <ele>514</ele>
        <time>2024-03-01T14:21:58.000Z</time>
      </trkpt>
      <trkpt lat="45.31936" lon="5.42103">
        <ele>514</ele>
        <time>2024-03-01T14:21:59.000Z</time>
      </trkpt>
      <trkpt lat="45.31938" lon="5.42101">
        <ele>514</ele>
        <time>2024-03-01T14:22:00.000Z</time>
      </trkpt>
      <trkpt lat="45.31941" lon="5.42101">
        <ele>514.20001220703</ele>
        <time>2024-03-01T14:22:01.000Z</time>
      </trkpt>
      <trkpt lat="45.31944" lon="5.421">
        <ele>514.40002441406</ele>
        <time>2024-03-01T14:22:02.000Z</time>
      </trkpt>
      <trkpt lat="45.31947" lon="5.421">
        <ele>514.59997558594</ele>
        <time>2024-03-01T14:22:03.000Z</time>
      </trkpt>
      <trkpt lat="45.31949" lon="5.42099">
        <ele>514.79998779297</ele>
        <time>2024-03-01T14:22:04.000Z</time>
      </trkpt>
      <trkpt lat="45.31952" lon="5.42098">
        <ele>514.79998779297</ele>
        <time>2024-03-01T14:22:05.000Z</time>
      </trkpt>
      <trkpt lat="45.31955" lon="5.42098">
        <ele>515</ele>
        <time>2024-03-01T14:22:06.000Z</time>
      </trkpt>
      <trkpt lat="45.31959" lon="5.42097">
        <ele>515.20001220703</ele>
        <time>2024-03-01T14:22:07.000Z</time>
      </trkpt>
      <trkpt lat="45.31962" lon="5.42097">
        <ele>515.40002441406</ele>
        <time>2024-03-01T14:22:08.000Z</time>
      </trkpt>
      <trkpt lat="45.31974" lon="5.42093">
        <ele>516</ele>
        <time>2024-03-01T14:22:12.000Z</time>
      </trkpt>
      <trkpt lat="45.3198" lon="5.42089">
        <ele>516.40002441406</ele>
        <time>2024-03-01T14:22:14.000Z</time>
      </trkpt>
      <trkpt lat="45.31986" lon="5.42083">
        <ele>516.59997558594</ele>
        <time>2024-03-01T14:22:16.000Z</time>
      </trkpt>
      <trkpt lat="45.31986" lon="5.42075">
        <ele>517</ele>
        <time>2024-03-01T14:22:18.000Z</time>
      </trkpt>
      <trkpt lat="45.31984" lon="5.42071">
        <ele>517.20001220703</ele>
        <time>2024-03-01T14:22:19.000Z</time>
      </trkpt>
      <trkpt lat="45.31984" lon="5.42068">
        <ele>517.40002441406</ele>
        <time>2024-03-01T14:22:20.000Z</time>
      </trkpt>
      <trkpt lat="45.31982" lon="5.42065">
        <ele>517.59997558594</ele>
        <time>2024-03-01T14:22:21.000Z</time>
      </trkpt>
      <trkpt lat="45.31982" lon="5.42062">
        <ele>517.79998779297</ele>
        <time>2024-03-01T14:22:22.000Z</time>
      </trkpt>
      <trkpt lat="45.31981" lon="5.42059">
        <ele>518</ele>
        <time>2024-03-01T14:22:23.000Z</time>
      </trkpt>
      <trkpt lat="45.3198" lon="5.42057">
        <ele>518</ele>
        <time>2024-03-01T14:22:24.000Z</time>
      </trkpt>
      <trkpt lat="45.3198" lon="5.42054">
        <ele>518.40002441406</ele>
        <time>2024-03-01T14:22:25.000Z</time>
      </trkpt>
      <trkpt lat="45.31979" lon="5.4205">
        <ele>518.79998779297</ele>
        <time>2024-03-01T14:22:26.000Z</time>
      </trkpt>
      <trkpt lat="45.31979" lon="5.42044">
        <ele>519.40002441406</ele>
        <time>2024-03-01T14:22:28.000Z</time>
      </trkpt>
      <trkpt lat="45.31978" lon="5.42041">
        <ele>519.59997558594</ele>
        <time>2024-03-01T14:22:29.000Z</time>
      </trkpt>
      <trkpt lat="45.31979" lon="5.42038">
        <ele>520</ele>
        <time>2024-03-01T14:22:30.000Z</time>
      </trkpt>
      <trkpt lat="45.31979" lon="5.42035">
        <ele>520</ele>
        <time>2024-03-01T14:22:31.000Z</time>
      </trkpt>
      <trkpt lat="45.3198" lon="5.42033">
        <ele>520.40002441406</ele>
        <time>2024-03-01T14:22:32.000Z</time>
      </trkpt>
      <trkpt lat="45.3198" lon="5.42031">
        <ele>520.59997558594</ele>
        <time>2024-03-01T14:22:33.000Z</time>
      </trkpt>
      <trkpt lat="45.31981" lon="5.42028">
        <ele>520.79998779297</ele>
        <time>2024-03-01T14:22:34.000Z</time>
      </trkpt>
      <trkpt lat="45.31983" lon="5.42026">
        <ele>521.20001220703</ele>
        <time>2024-03-01T14:22:35.000Z</time>
      </trkpt>
      <trkpt lat="45.31984" lon="5.42023">
        <ele>521.59997558594</ele>
        <time>2024-03-01T14:22:36.000Z</time>
      </trkpt>
      <trkpt lat="45.31985" lon="5.42021">
        <ele>522</ele>
        <time>2024-03-01T14:22:37.000Z</time>
      </trkpt>
      <trkpt lat="45.31987" lon="5.42018">
        <ele>522.40002441406</ele>
        <time>2024-03-01T14:22:38.000Z</time>
      </trkpt>
      <trkpt lat="45.31989" lon="5.42016">
        <ele>522.59997558594</ele>
        <time>2024-03-01T14:22:39.000Z</time>
      </trkpt>
      <trkpt lat="45.3199" lon="5.42014">
        <ele>523</ele>
        <time>2024-03-01T14:22:40.000Z</time>
      </trkpt>
      <trkpt lat="45.31992" lon="5.42012">
        <ele>523.20001220703</ele>
        <time>2024-03-01T14:22:41.000Z</time>
      </trkpt>
      <trkpt lat="45.31993" lon="5.4201">
        <ele>523.59997558594</ele>
        <time>2024-03-01T14:22:42.000Z</time>
      </trkpt>
      <trkpt lat="45.31994" lon="5.42007">
        <ele>523.59997558594</ele>
        <time>2024-03-01T14:22:43.000Z</time>
      </trkpt>
      <trkpt lat="45.31996" lon="5.42005">
        <ele>523.79998779297</ele>
        <time>2024-03-01T14:22:44.000Z</time>
      </trkpt>
      <trkpt lat="45.31997" lon="5.42002">
        <ele>524</ele>
        <time>2024-03-01T14:22:45.000Z</time>
      </trkpt>
      <trkpt lat="45.31999" lon="5.41998">
        <ele>524.40002441406</ele>
        <time>2024-03-01T14:22:47.000Z</time>
      </trkpt>
      <trkpt lat="45.32001" lon="5.41995">
        <ele>524.40002441406</ele>
        <time>2024-03-01T14:22:48.000Z</time>
      </trkpt>
      <trkpt lat="45.32002" lon="5.41993">
        <ele>524.59997558594</ele>
        <time>2024-03-01T14:22:49.000Z</time>
      </trkpt>
      <trkpt lat="45.32003" lon="5.4199">
        <ele>524.79998779297</ele>
        <time>2024-03-01T14:22:50.000Z</time>
      </trkpt>
      <trkpt lat="45.32004" lon="5.41988">
        <ele>525.20001220703</ele>
        <time>2024-03-01T14:22:51.000Z</time>
      </trkpt>
      <trkpt lat="45.32005" lon="5.41985">
        <ele>525.40002441406</ele>
        <time>2024-03-01T14:22:52.000Z</time>
      </trkpt>
      <trkpt lat="45.32005" lon="5.41982">
        <ele>525.40002441406</ele>
        <time>2024-03-01T14:22:53.000Z</time>
      </trkpt>
      <trkpt lat="45.32006" lon="5.4198">
        <ele>525.79998779297</ele>
        <time>2024-03-01T14:22:54.000Z</time>
      </trkpt>
      <trkpt lat="45.32007" lon="5.41977">
        <ele>526</ele>
        <time>2024-03-01T14:22:55.000Z</time>
      </trkpt>
      <trkpt lat="45.32007" lon="5.41973">
        <ele>526.20001220703</ele>
        <time>2024-03-01T14:22:56.000Z</time>
      </trkpt>
      <trkpt lat="45.32009" lon="5.41967">
        <ele>526.59997558594</ele>
        <time>2024-03-01T14:22:58.000Z</time>
      </trkpt>
      <trkpt lat="45.3201" lon="5.41963">
        <ele>526.79998779297</ele>
        <time>2024-03-01T14:22:59.000Z</time>
      </trkpt>
      <trkpt lat="45.32011" lon="5.4196">
        <ele>526.79998779297</ele>
        <time>2024-03-01T14:23:00.000Z</time>
      </trkpt>
      <trkpt lat="45.32011" lon="5.41956">
        <ele>527.20001220703</ele>
        <time>2024-03-01T14:23:01.000Z</time>
      </trkpt>
      <trkpt lat="45.32013" lon="5.41948">
        <ele>527.20001220703</ele>
        <time>2024-03-01T14:23:03.000Z</time>
      </trkpt>
      <trkpt lat="45.32013" lon="5.41941">
        <ele>527.79998779297</ele>
        <time>2024-03-01T14:23:05.000Z</time>
      </trkpt>
      <trkpt lat="45.32014" lon="5.41938">
        <ele>527.79998779297</ele>
        <time>2024-03-01T14:23:06.000Z</time>
      </trkpt>
      <trkpt lat="45.32014" lon="5.41934">
        <ele>528</ele>
        <time>2024-03-01T14:23:07.000Z</time>
      </trkpt>
      <trkpt lat="45.32015" lon="5.4193">
        <ele>528.20001220703</ele>
        <time>2024-03-01T14:23:08.000Z</time>
      </trkpt>
      <trkpt lat="45.32016" lon="5.41927">
        <ele>528.40002441406</ele>
        <time>2024-03-01T14:23:09.000Z</time>
      </trkpt>
      <trkpt lat="45.32016" lon="5.41923">
        <ele>528.59997558594</ele>
        <time>2024-03-01T14:23:10.000Z</time>
      </trkpt>
      <trkpt lat="45.32017" lon="5.4192">
        <ele>528.79998779297</ele>
        <time>2024-03-01T14:23:11.000Z</time>
      </trkpt>
      <trkpt lat="45.32017" lon="5.41916">
        <ele>528.79998779297</ele>
        <time>2024-03-01T14:23:12.000Z</time>
      </trkpt>
      <trkpt lat="45.32019" lon="5.41908">
        <ele>529</ele>
        <time>2024-03-01T14:23:14.000Z</time>
      </trkpt>
      <trkpt lat="45.32019" lon="5.41897">
        <ele>529.40002441406</ele>
        <time>2024-03-01T14:23:17.000Z</time>
      </trkpt>
      <trkpt lat="45.3202" lon="5.41893">
        <ele>529.79998779297</ele>
        <time>2024-03-01T14:23:18.000Z</time>
      </trkpt>
      <trkpt lat="45.3202" lon="5.41889">
        <ele>530</ele>
        <time>2024-03-01T14:23:19.000Z</time>
      </trkpt>
      <trkpt lat="45.32021" lon="5.41886">
        <ele>530.20001220703</ele>
        <time>2024-03-01T14:23:20.000Z</time>
      </trkpt>
      <trkpt lat="45.32023" lon="5.41878">
        <ele>530.59997558594</ele>
        <time>2024-03-01T14:23:22.000Z</time>
      </trkpt>
      <trkpt lat="45.32023" lon="5.41874">
        <ele>530.79998779297</ele>
        <time>2024-03-01T14:23:23.000Z</time>
      </trkpt>
      <trkpt lat="45.32024" lon="5.4187">
        <ele>530.79998779297</ele>
        <time>2024-03-01T14:23:24.000Z</time>
      </trkpt>
      <trkpt lat="45.32025" lon="5.41865">
        <ele>531</ele>
        <time>2024-03-01T14:23:25.000Z</time>
      </trkpt>
      <trkpt lat="45.32026" lon="5.41861">
        <ele>531</ele>
        <time>2024-03-01T14:23:26.000Z</time>
      </trkpt>
      <trkpt lat="45.32027" lon="5.41856">
        <ele>531</ele>
        <time>2024-03-01T14:23:27.000Z</time>
      </trkpt>
      <trkpt lat="45.32029" lon="5.41851">
        <ele>531.20001220703</ele>
        <time>2024-03-01T14:23:28.000Z</time>
      </trkpt>
      <trkpt lat="45.32031" lon="5.41841">
        <ele>531.20001220703</ele>
        <time>2024-03-01T14:23:30.000Z</time>
      </trkpt>
      <trkpt lat="45.32033" lon="5.41837">
        <ele>531.20001220703</ele>
        <time>2024-03-01T14:23:31.000Z</time>
      </trkpt>
      <trkpt lat="45.32034" lon="5.41832">
        <ele>531.20001220703</ele>
        <time>2024-03-01T14:23:32.000Z</time>
      </trkpt>
      <trkpt lat="45.32034" lon="5.41828">
        <ele>531.20001220703</ele>
        <time>2024-03-01T14:23:33.000Z</time>
      </trkpt>
      <trkpt lat="45.32035" lon="5.41824">
        <ele>531.20001220703</ele>
        <time>2024-03-01T14:23:34.000Z</time>
      </trkpt>
      <trkpt lat="45.32036" lon="5.41819">
        <ele>531.20001220703</ele>
        <time>2024-03-01T14:23:35.000Z</time>
      </trkpt>
      <trkpt lat="45.32037" lon="5.41815">
        <ele>531.20001220703</ele>
        <time>2024-03-01T14:23:36.000Z</time>
      </trkpt>
      <trkpt lat="45.32038" lon="5.4181">
        <ele>531.20001220703</ele>
        <time>2024-03-01T14:23:37.000Z</time>
      </trkpt>
      <trkpt lat="45.32042" lon="5.41794">
        <ele>531.20001220703</ele>
        <time>2024-03-01T14:23:41.000Z</time>
      </trkpt>
      <trkpt lat="45.32043" lon="5.41791">
        <ele>531.40002441406</ele>
        <time>2024-03-01T14:23:42.000Z</time>
      </trkpt>
      <trkpt lat="45.32045" lon="5.41787">
        <ele>531.40002441406</ele>
        <time>2024-03-01T14:23:43.000Z</time>
      </trkpt>
      <trkpt lat="45.32046" lon="5.41783">
        <ele>531.40002441406</ele>
        <time>2024-03-01T14:23:44.000Z</time>
      </trkpt>
      <trkpt lat="45.32048" lon="5.41779">
        <ele>531.40002441406</ele>
        <time>2024-03-01T14:23:45.000Z</time>
      </trkpt>
      <trkpt lat="45.3205" lon="5.41769">
        <ele>531.59997558594</ele>
        <time>2024-03-01T14:23:47.000Z</time>
      </trkpt>
      <trkpt lat="45.32052" lon="5.41765">
        <ele>531.59997558594</ele>
        <time>2024-03-01T14:23:48.000Z</time>
      </trkpt>
      <trkpt lat="45.32053" lon="5.41759">
        <ele>531.79998779297</ele>
        <time>2024-03-01T14:23:49.000Z</time>
      </trkpt>
      <trkpt lat="45.32056" lon="5.41744">
        <ele>531.79998779297</ele>
        <time>2024-03-01T14:23:52.000Z</time>
      </trkpt>
      <trkpt lat="45.32057" lon="5.41738">
        <ele>532</ele>
        <time>2024-03-01T14:23:53.000Z</time>
      </trkpt>
      <trkpt lat="45.32058" lon="5.41733">
        <ele>532</ele>
        <time>2024-03-01T14:23:54.000Z</time>
      </trkpt>
      <trkpt lat="45.32058" lon="5.41728">
        <ele>532.20001220703</ele>
        <time>2024-03-01T14:23:55.000Z</time>
      </trkpt>
      <trkpt lat="45.32059" lon="5.41722">
        <ele>532.20001220703</ele>
        <time>2024-03-01T14:23:56.000Z</time>
      </trkpt>
      <trkpt lat="45.3206" lon="5.41717">
        <ele>532.20001220703</ele>
        <time>2024-03-01T14:23:57.000Z</time>
      </trkpt>
      <trkpt lat="45.3206" lon="5.41707">
        <ele>532.40002441406</ele>
        <time>2024-03-01T14:23:59.000Z</time>
      </trkpt>
      <trkpt lat="45.32059" lon="5.41701">
        <ele>532.40002441406</ele>
        <time>2024-03-01T14:24:00.000Z</time>
      </trkpt>
      <trkpt lat="45.32059" lon="5.41696">
        <ele>532.59997558594</ele>
        <time>2024-03-01T14:24:01.000Z</time>
      </trkpt>
      <trkpt lat="45.32058" lon="5.41691">
        <ele>532.59997558594</ele>
        <time>2024-03-01T14:24:02.000Z</time>
      </trkpt>
      <trkpt lat="45.32058" lon="5.41658">
        <ele>533.40002441406</ele>
        <time>2024-03-01T14:24:09.000Z</time>
      </trkpt>
      <trkpt lat="45.32059" lon="5.41654">
        <ele>533.79998779297</ele>
        <time>2024-03-01T14:24:10.000Z</time>
      </trkpt>
      <trkpt lat="45.32059" lon="5.41647">
        <ele>534.20001220703</ele>
        <time>2024-03-01T14:24:12.000Z</time>
      </trkpt>
      <trkpt lat="45.3206" lon="5.41644">
        <ele>534.59997558594</ele>
        <time>2024-03-01T14:24:13.000Z</time>
      </trkpt>
      <trkpt lat="45.3206" lon="5.41641">
        <ele>534.59997558594</ele>
        <time>2024-03-01T14:24:14.000Z</time>
      </trkpt>
      <trkpt lat="45.32061" lon="5.41638">
        <ele>535.20001220703</ele>
        <time>2024-03-01T14:24:15.000Z</time>
      </trkpt>
      <trkpt lat="45.32061" lon="5.41635">
        <ele>535.40002441406</ele>
        <time>2024-03-01T14:24:16.000Z</time>
      </trkpt>
      <trkpt lat="45.32063" lon="5.41629">
        <ele>535.79998779297</ele>
        <time>2024-03-01T14:24:18.000Z</time>
      </trkpt>
      <trkpt lat="45.32064" lon="5.41625">
        <ele>536</ele>
        <time>2024-03-01T14:24:19.000Z</time>
      </trkpt>
      <trkpt lat="45.32065" lon="5.41622">
        <ele>536</ele>
        <time>2024-03-01T14:24:20.000Z</time>
      </trkpt>
      <trkpt lat="45.32066" lon="5.4162">
        <ele>536</ele>
        <time>2024-03-01T14:24:21.000Z</time>
      </trkpt>
      <trkpt lat="45.32069" lon="5.41611">
        <ele>536</ele>
        <time>2024-03-01T14:24:24.000Z</time>
      </trkpt>
      <trkpt lat="45.32071" lon="5.41603">
        <ele>536</ele>
        <time>2024-03-01T14:24:26.000Z</time>
      </trkpt>
      <trkpt lat="45.32073" lon="5.416">
        <ele>535.79998779297</ele>
        <time>2024-03-01T14:24:27.000Z</time>
      </trkpt>
      <trkpt lat="45.32074" lon="5.41596">
        <ele>535.79998779297</ele>
        <time>2024-03-01T14:24:28.000Z</time>
      </trkpt>
      <trkpt lat="45.32076" lon="5.41593">
        <ele>535.59997558594</ele>
        <time>2024-03-01T14:24:29.000Z</time>
      </trkpt>
      <trkpt lat="45.32077" lon="5.4159">
        <ele>535.59997558594</ele>
        <time>2024-03-01T14:24:30.000Z</time>
      </trkpt>
      <trkpt lat="45.32079" lon="5.41588">
        <ele>535.40002441406</ele>
        <time>2024-03-01T14:24:31.000Z</time>
      </trkpt>
      <trkpt lat="45.32079" lon="5.41586">
        <ele>535.20001220703</ele>
        <time>2024-03-01T14:24:32.000Z</time>
      </trkpt>
      <trkpt lat="45.32081" lon="5.41583">
        <ele>535.20001220703</ele>
        <time>2024-03-01T14:24:33.000Z</time>
      </trkpt>
      <trkpt lat="45.32081" lon="5.41581">
        <ele>535</ele>
        <time>2024-03-01T14:24:34.000Z</time>
      </trkpt>
      <trkpt lat="45.32085" lon="5.41577">
        <ele>534.40002441406</ele>
        <time>2024-03-01T14:24:37.000Z</time>
      </trkpt>
      <trkpt lat="45.32086" lon="5.41575">
        <ele>534.20001220703</ele>
        <time>2024-03-01T14:24:38.000Z</time>
      </trkpt>
      <trkpt lat="45.32088" lon="5.41573">
        <ele>533.79998779297</ele>
        <time>2024-03-01T14:24:40.000Z</time>
      </trkpt>
      <trkpt lat="45.3209" lon="5.41572">
        <ele>533.59997558594</ele>
        <time>2024-03-01T14:24:42.000Z</time>
      </trkpt>
      <trkpt lat="45.32091" lon="5.41571">
        <ele>533.40002441406</ele>
        <time>2024-03-01T14:24:43.000Z</time>
      </trkpt>
      <trkpt lat="45.32092" lon="5.41571">
        <ele>533.20001220703</ele>
        <time>2024-03-01T14:24:44.000Z</time>
      </trkpt>
      <trkpt lat="45.32094" lon="5.41569">
        <ele>533</ele>
        <time>2024-03-01T14:24:46.000Z</time>
      </trkpt>
      <trkpt lat="45.32095" lon="5.41567">
        <ele>532.79998779297</ele>
        <time>2024-03-01T14:24:47.000Z</time>
      </trkpt>
      <trkpt lat="45.32096" lon="5.41566">
        <ele>532.59997558594</ele>
        <time>2024-03-01T14:24:48.000Z</time>
      </trkpt>
      <trkpt lat="45.32098" lon="5.41565">
        <ele>532.20001220703</ele>
        <time>2024-03-01T14:24:49.000Z</time>
      </trkpt>
      <trkpt lat="45.32099" lon="5.41564">
        <ele>532.20001220703</ele>
        <time>2024-03-01T14:24:50.000Z</time>
      </trkpt>
      <trkpt lat="45.32103" lon="5.41562">
        <ele>531.79998779297</ele>
        <time>2024-03-01T14:24:52.000Z</time>
      </trkpt>
      <trkpt lat="45.32104" lon="5.4156">
        <ele>531.79998779297</ele>
        <time>2024-03-01T14:24:53.000Z</time>
      </trkpt>
      <trkpt lat="45.32106" lon="5.41558">
        <ele>531.79998779297</ele>
        <time>2024-03-01T14:24:57.000Z</time>
      </trkpt>
      <trkpt lat="45.32106" lon="5.41557">
        <ele>531.20001220703</ele>
        <time>2024-03-01T14:24:59.000Z</time>
      </trkpt>
      <trkpt lat="45.32107" lon="5.41556">
        <ele>531</ele>
        <time>2024-03-01T14:25:01.000Z</time>
      </trkpt>
      <trkpt lat="45.32106" lon="5.41555">
        <ele>531</ele>
        <time>2024-03-01T14:25:02.000Z</time>
      </trkpt>
      <trkpt lat="45.32106" lon="5.41553">
        <ele>531</ele>
        <time>2024-03-01T14:25:03.000Z</time>
      </trkpt>
      <trkpt lat="45.32105" lon="5.41552">
        <ele>531</ele>
        <time>2024-03-01T14:25:04.000Z</time>
      </trkpt>
      <trkpt lat="45.32103" lon="5.41548">
        <ele>531</ele>
        <time>2024-03-01T14:25:06.000Z</time>
      </trkpt>
      <trkpt lat="45.32102" lon="5.41547">
        <ele>531</ele>
        <time>2024-03-01T14:25:07.000Z</time>
      </trkpt>
      <trkpt lat="45.32102" lon="5.41546">
        <ele>531.20001220703</ele>
        <time>2024-03-01T14:25:08.000Z</time>
      </trkpt>
      <trkpt lat="45.32101" lon="5.41544">
        <ele>531.20001220703</ele>
        <time>2024-03-01T14:25:09.000Z</time>
      </trkpt>
      <trkpt lat="45.32099" lon="5.41542">
        <ele>531.40002441406</ele>
        <time>2024-03-01T14:25:11.000Z</time>
      </trkpt>
      <trkpt lat="45.32099" lon="5.41541">
        <ele>531.59997558594</ele>
        <time>2024-03-01T14:25:12.000Z</time>
      </trkpt>
      <trkpt lat="45.32098" lon="5.41539">
        <ele>532</ele>
        <time>2024-03-01T14:25:13.000Z</time>
      </trkpt>
      <trkpt lat="45.32098" lon="5.41535">
        <ele>532.79998779297</ele>
        <time>2024-03-01T14:25:16.000Z</time>
      </trkpt>
      <trkpt lat="45.32097" lon="5.41533">
        <ele>533.40002441406</ele>
        <time>2024-03-01T14:25:17.000Z</time>
      </trkpt>
      <trkpt lat="45.32097" lon="5.41529">
        <ele>534.40002441406</ele>
        <time>2024-03-01T14:25:21.000Z</time>
      </trkpt>
      <trkpt lat="45.32098" lon="5.41528">
        <ele>534.59997558594</ele>
        <time>2024-03-01T14:25:22.000Z</time>
      </trkpt>
      <trkpt lat="45.32097" lon="5.41527">
        <ele>534.79998779297</ele>
        <time>2024-03-01T14:25:23.000Z</time>
      </trkpt>
      <trkpt lat="45.32097" lon="5.41525">
        <ele>536.20001220703</ele>
        <time>2024-03-01T14:25:31.000Z</time>
      </trkpt>
      <trkpt lat="45.32098" lon="5.41524">
        <ele>536.20001220703</ele>
        <time>2024-03-01T14:25:34.000Z</time>
      </trkpt>
      <trkpt lat="45.32099" lon="5.41522">
        <ele>536.20001220703</ele>
        <time>2024-03-01T14:25:35.000Z</time>
      </trkpt>
      <trkpt lat="45.32099" lon="5.41517">
        <ele>536.40002441406</ele>
        <time>2024-03-01T14:25:38.000Z</time>
      </trkpt>
      <trkpt lat="45.321" lon="5.41515">
        <ele>536.40002441406</ele>
        <time>2024-03-01T14:25:39.000Z</time>
      </trkpt>
      <trkpt lat="45.321" lon="5.41507">
        <ele>536.40002441406</ele>
        <time>2024-03-01T14:25:42.000Z</time>
      </trkpt>
      <trkpt lat="45.32099" lon="5.41505">
        <ele>536.59997558594</ele>
        <time>2024-03-01T14:25:43.000Z</time>
      </trkpt>
      <trkpt lat="45.32099" lon="5.41495">
        <ele>537</ele>
        <time>2024-03-01T14:25:47.000Z</time>
      </trkpt>
      <trkpt lat="45.32097" lon="5.41489">
        <ele>537</ele>
        <time>2024-03-01T14:25:49.000Z</time>
      </trkpt>
      <trkpt lat="45.32098" lon="5.41487">
        <ele>537.20001220703</ele>
        <time>2024-03-01T14:25:50.000Z</time>
      </trkpt>
      <trkpt lat="45.32096" lon="5.41481">
        <ele>537.59997558594</ele>
        <time>2024-03-01T14:25:52.000Z</time>
      </trkpt>
      <trkpt lat="45.32096" lon="5.41464">
        <ele>539.20001220703</ele>
        <time>2024-03-01T14:25:59.000Z</time>
      </trkpt>
      <trkpt lat="45.32097" lon="5.41461">
        <ele>539.20001220703</ele>
        <time>2024-03-01T14:26:00.000Z</time>
      </trkpt>
      <trkpt lat="45.32096" lon="5.41458">
        <ele>539.40002441406</ele>
        <time>2024-03-01T14:26:01.000Z</time>
      </trkpt>
      <trkpt lat="45.32096" lon="5.41451">
        <ele>540</ele>
        <time>2024-03-01T14:26:04.000Z</time>
      </trkpt>
      <trkpt lat="45.32095" lon="5.41448">
        <ele>540</ele>
        <time>2024-03-01T14:26:05.000Z</time>
      </trkpt>
      <trkpt lat="45.32094" lon="5.41443">
        <ele>540.20001220703</ele>
        <time>2024-03-01T14:26:06.000Z</time>
      </trkpt>
      <trkpt lat="45.32092" lon="5.41435">
        <ele>540.59997558594</ele>
        <time>2024-03-01T14:26:08.000Z</time>
      </trkpt>
      <trkpt lat="45.32091" lon="5.41432">
        <ele>541</ele>
        <time>2024-03-01T14:26:09.000Z</time>
      </trkpt>
      <trkpt lat="45.3209" lon="5.4143">
        <ele>541</ele>
        <time>2024-03-01T14:26:10.000Z</time>
      </trkpt>
      <trkpt lat="45.32089" lon="5.41427">
        <ele>541.20001220703</ele>
        <time>2024-03-01T14:26:11.000Z</time>
      </trkpt>
      <trkpt lat="45.32089" lon="5.41425">
        <ele>541.40002441406</ele>
        <time>2024-03-01T14:26:12.000Z</time>
      </trkpt>
      <trkpt lat="45.32086" lon="5.41419">
        <ele>541.79998779297</ele>
        <time>2024-03-01T14:26:15.000Z</time>
      </trkpt>
      <trkpt lat="45.32086" lon="5.41408">
        <ele>542.20001220703</ele>
        <time>2024-03-01T14:26:19.000Z</time>
      </trkpt>
      <trkpt lat="45.32084" lon="5.41405">
        <ele>542.40002441406</ele>
        <time>2024-03-01T14:26:20.000Z</time>
      </trkpt>
      <trkpt lat="45.32082" lon="5.414">
        <ele>542.59997558594</ele>
        <time>2024-03-01T14:26:21.000Z</time>
      </trkpt>
      <trkpt lat="45.32081" lon="5.41397">
        <ele>542.79998779297</ele>
        <time>2024-03-01T14:26:22.000Z</time>
      </trkpt>
      <trkpt lat="45.3208" lon="5.41395">
        <ele>543.20001220703</ele>
        <time>2024-03-01T14:26:23.000Z</time>
      </trkpt>
      <trkpt lat="45.32079" lon="5.41392">
        <ele>543.40002441406</ele>
        <time>2024-03-01T14:26:24.000Z</time>
      </trkpt>
      <trkpt lat="45.32077" lon="5.41388">
        <ele>543.59997558594</ele>
        <time>2024-03-01T14:26:26.000Z</time>
      </trkpt>
      <trkpt lat="45.32077" lon="5.41385">
        <ele>543.59997558594</ele>
        <time>2024-03-01T14:26:27.000Z</time>
      </trkpt>
      <trkpt lat="45.32076" lon="5.41381">
        <ele>543.79998779297</ele>
        <time>2024-03-01T14:26:28.000Z</time>
      </trkpt>
      <trkpt lat="45.32076" lon="5.41375">
        <ele>544</ele>
        <time>2024-03-01T14:26:31.000Z</time>
      </trkpt>
      <trkpt lat="45.32074" lon="5.41372">
        <ele>544</ele>
        <time>2024-03-01T14:26:32.000Z</time>
      </trkpt>
      <trkpt lat="45.32072" lon="5.41368">
        <ele>544.20001220703</ele>
        <time>2024-03-01T14:26:33.000Z</time>
      </trkpt>
      <trkpt lat="45.32071" lon="5.41364">
        <ele>544.20001220703</ele>
        <time>2024-03-01T14:26:34.000Z</time>
      </trkpt>
      <trkpt lat="45.32069" lon="5.41359">
        <ele>544.40002441406</ele>
        <time>2024-03-01T14:26:35.000Z</time>
      </trkpt>
      <trkpt lat="45.32067" lon="5.41351">
        <ele>544.59997558594</ele>
        <time>2024-03-01T14:26:37.000Z</time>
      </trkpt>
      <trkpt lat="45.32065" lon="5.41346">
        <ele>544.59997558594</ele>
        <time>2024-03-01T14:26:38.000Z</time>
      </trkpt>
      <trkpt lat="45.32063" lon="5.41338">
        <ele>544.79998779297</ele>
        <time>2024-03-01T14:26:40.000Z</time>
      </trkpt>
      <trkpt lat="45.32059" lon="5.4133">
        <ele>544.79998779297</ele>
        <time>2024-03-01T14:26:42.000Z</time>
      </trkpt>
      <trkpt lat="45.32057" lon="5.41325">
        <ele>544.79998779297</ele>
        <time>2024-03-01T14:26:43.000Z</time>
      </trkpt>
      <trkpt lat="45.32055" lon="5.41317">
        <ele>544.79998779297</ele>
        <time>2024-03-01T14:26:45.000Z</time>
      </trkpt>
      <trkpt lat="45.32054" lon="5.41314">
        <ele>544.79998779297</ele>
        <time>2024-03-01T14:26:46.000Z</time>
      </trkpt>
      <trkpt lat="45.32053" lon="5.4131">
        <ele>544.79998779297</ele>
        <time>2024-03-01T14:26:47.000Z</time>
      </trkpt>
      <trkpt lat="45.32053" lon="5.41307">
        <ele>544.79998779297</ele>
        <time>2024-03-01T14:26:48.000Z</time>
      </trkpt>
      <trkpt lat="45.32052" lon="5.41302">
        <ele>544.79998779297</ele>
        <time>2024-03-01T14:26:49.000Z</time>
      </trkpt>
      <trkpt lat="45.32051" lon="5.41298">
        <ele>544.79998779297</ele>
        <time>2024-03-01T14:26:50.000Z</time>
      </trkpt>
      <trkpt lat="45.3205" lon="5.41293">
        <ele>544.79998779297</ele>
        <time>2024-03-01T14:26:51.000Z</time>
      </trkpt>
      <trkpt lat="45.32048" lon="5.41285">
        <ele>544.79998779297</ele>
        <time>2024-03-01T14:26:53.000Z</time>
      </trkpt>
      <trkpt lat="45.32046" lon="5.41282">
        <ele>544.79998779297</ele>
        <time>2024-03-01T14:26:54.000Z</time>
      </trkpt>
      <trkpt lat="45.32045" lon="5.41279">
        <ele>544.79998779297</ele>
        <time>2024-03-01T14:26:55.000Z</time>
      </trkpt>
      <trkpt lat="45.32043" lon="5.41275">
        <ele>544.79998779297</ele>
        <time>2024-03-01T14:26:56.000Z</time>
      </trkpt>
      <trkpt lat="45.32042" lon="5.41271">
        <ele>544.79998779297</ele>
        <time>2024-03-01T14:26:57.000Z</time>
      </trkpt>
      <trkpt lat="45.3204" lon="5.41267">
        <ele>545</ele>
        <time>2024-03-01T14:26:58.000Z</time>
      </trkpt>
      <trkpt lat="45.32039" lon="5.41263">
        <ele>545.20001220703</ele>
        <time>2024-03-01T14:26:59.000Z</time>
      </trkpt>
      <trkpt lat="45.32037" lon="5.4126">
        <ele>545.20001220703</ele>
        <time>2024-03-01T14:27:00.000Z</time>
      </trkpt>
      <trkpt lat="45.32035" lon="5.41258">
        <ele>545.40002441406</ele>
        <time>2024-03-01T14:27:01.000Z</time>
      </trkpt>
      <trkpt lat="45.32034" lon="5.41255">
        <ele>545.40002441406</ele>
        <time>2024-03-01T14:27:02.000Z</time>
      </trkpt>
      <trkpt lat="45.32032" lon="5.41253">
        <ele>545.40002441406</ele>
        <time>2024-03-01T14:27:03.000Z</time>
      </trkpt>
      <trkpt lat="45.32031" lon="5.41251">
        <ele>545.40002441406</ele>
        <time>2024-03-01T14:27:04.000Z</time>
      </trkpt>
      <trkpt lat="45.3203" lon="5.41248">
        <ele>545.40002441406</ele>
        <time>2024-03-01T14:27:05.000Z</time>
      </trkpt>
      <trkpt lat="45.32028" lon="5.41246">
        <ele>545.59997558594</ele>
        <time>2024-03-01T14:27:06.000Z</time>
      </trkpt>
      <trkpt lat="45.32027" lon="5.41243">
        <ele>545.59997558594</ele>
        <time>2024-03-01T14:27:07.000Z</time>
      </trkpt>
      <trkpt lat="45.32026" lon="5.41239">
        <ele>545.79998779297</ele>
        <time>2024-03-01T14:27:08.000Z</time>
      </trkpt>
      <trkpt lat="45.32025" lon="5.41236">
        <ele>545.59997558594</ele>
        <time>2024-03-01T14:27:09.000Z</time>
      </trkpt>
      <trkpt lat="45.32023" lon="5.41233">
        <ele>545.79998779297</ele>
        <time>2024-03-01T14:27:10.000Z</time>
      </trkpt>
      <trkpt lat="45.32022" lon="5.41229">
        <ele>545.79998779297</ele>
        <time>2024-03-01T14:27:11.000Z</time>
      </trkpt>
      <trkpt lat="45.3202" lon="5.41223">
        <ele>546</ele>
        <time>2024-03-01T14:27:13.000Z</time>
      </trkpt>
      <trkpt lat="45.3202" lon="5.41219">
        <ele>546</ele>
        <time>2024-03-01T14:27:14.000Z</time>
      </trkpt>
      <trkpt lat="45.32019" lon="5.41216">
        <ele>546.20001220703</ele>
        <time>2024-03-01T14:27:15.000Z</time>
      </trkpt>
      <trkpt lat="45.32016" lon="5.41213">
        <ele>546.59997558594</ele>
        <time>2024-03-01T14:27:17.000Z</time>
      </trkpt>
      <trkpt lat="45.32015" lon="5.41211">
        <ele>546.79998779297</ele>
        <time>2024-03-01T14:27:18.000Z</time>
      </trkpt>
      <trkpt lat="45.32014" lon="5.4121">
        <ele>546.79998779297</ele>
        <time>2024-03-01T14:27:19.000Z</time>
      </trkpt>
      <trkpt lat="45.32013" lon="5.41208">
        <ele>548</ele>
        <time>2024-03-01T14:27:20.000Z</time>
      </trkpt>
      <trkpt lat="45.32012" lon="5.41205">
        <ele>548.59997558594</ele>
        <time>2024-03-01T14:27:21.000Z</time>
      </trkpt>
      <trkpt lat="45.3201" lon="5.41203">
        <ele>548.79998779297</ele>
        <time>2024-03-01T14:27:22.000Z</time>
      </trkpt>
      <trkpt lat="45.32006" lon="5.412">
        <ele>549.20001220703</ele>
        <time>2024-03-01T14:27:23.000Z</time>
      </trkpt>
      <trkpt lat="45.31999" lon="5.41193">
        <ele>549.79998779297</ele>
        <time>2024-03-01T14:27:25.000Z</time>
      </trkpt>
      <trkpt lat="45.31997" lon="5.41188">
        <ele>550.20001220703</ele>
        <time>2024-03-01T14:27:26.000Z</time>
      </trkpt>
      <trkpt lat="45.31996" lon="5.41185">
        <ele>550.40002441406</ele>
        <time>2024-03-01T14:27:27.000Z</time>
      </trkpt>
      <trkpt lat="45.31994" lon="5.41182">
        <ele>550.59997558594</ele>
        <time>2024-03-01T14:27:28.000Z</time>
      </trkpt>
      <trkpt lat="45.31994" lon="5.41178">
        <ele>550.59997558594</ele>
        <time>2024-03-01T14:27:29.000Z</time>
      </trkpt>
      <trkpt lat="45.31993" lon="5.41175">
        <ele>550.79998779297</ele>
        <time>2024-03-01T14:27:30.000Z</time>
      </trkpt>
      <trkpt lat="45.31992" lon="5.41174">
        <ele>550.79998779297</ele>
        <time>2024-03-01T14:27:31.000Z</time>
      </trkpt>
      <trkpt lat="45.31992" lon="5.41172">
        <ele>551</ele>
        <time>2024-03-01T14:27:32.000Z</time>
      </trkpt>
      <trkpt lat="45.3199" lon="5.41169">
        <ele>551</ele>
        <time>2024-03-01T14:27:33.000Z</time>
      </trkpt>
      <trkpt lat="45.3199" lon="5.41168">
        <ele>551</ele>
        <time>2024-03-01T14:27:34.000Z</time>
      </trkpt>
      <trkpt lat="45.31988" lon="5.41166">
        <ele>551</ele>
        <time>2024-03-01T14:27:35.000Z</time>
      </trkpt>
      <trkpt lat="45.31987" lon="5.41162">
        <ele>551.20001220703</ele>
        <time>2024-03-01T14:27:36.000Z</time>
      </trkpt>
      <trkpt lat="45.31986" lon="5.4116">
        <ele>551.20001220703</ele>
        <time>2024-03-01T14:27:37.000Z</time>
      </trkpt>
      <trkpt lat="45.31986" lon="5.41156">
        <ele>551.40002441406</ele>
        <time>2024-03-01T14:27:39.000Z</time>
      </trkpt>
      <trkpt lat="45.31987" lon="5.41153">
        <ele>551.40002441406</ele>
        <time>2024-03-01T14:27:40.000Z</time>
      </trkpt>
      <trkpt lat="45.31987" lon="5.41136">
        <ele>552</ele>
        <time>2024-03-01T14:27:45.000Z</time>
      </trkpt>
      <trkpt lat="45.31988" lon="5.41132">
        <ele>552</ele>
        <time>2024-03-01T14:27:46.000Z</time>
      </trkpt>
      <trkpt lat="45.31987" lon="5.41131">
        <ele>552</ele>
        <time>2024-03-01T14:27:47.000Z</time>
      </trkpt>
      <trkpt lat="45.31985" lon="5.41127">
        <ele>552.20001220703</ele>
        <time>2024-03-01T14:27:48.000Z</time>
      </trkpt>
      <trkpt lat="45.31985" lon="5.41123">
        <ele>552.59997558594</ele>
        <time>2024-03-01T14:27:50.000Z</time>
      </trkpt>
      <trkpt lat="45.31986" lon="5.4112">
        <ele>552.79998779297</ele>
        <time>2024-03-01T14:27:51.000Z</time>
      </trkpt>
      <trkpt lat="45.31986" lon="5.41117">
        <ele>553</ele>
        <time>2024-03-01T14:27:52.000Z</time>
      </trkpt>
      <trkpt lat="45.31987" lon="5.41114">
        <ele>553</ele>
        <time>2024-03-01T14:27:53.000Z</time>
      </trkpt>
      <trkpt lat="45.31989" lon="5.41112">
        <ele>553</ele>
        <time>2024-03-01T14:27:54.000Z</time>
      </trkpt>
      <trkpt lat="45.3199" lon="5.41109">
        <ele>553.20001220703</ele>
        <time>2024-03-01T14:27:55.000Z</time>
      </trkpt>
      <trkpt lat="45.31994" lon="5.41093">
        <ele>553</ele>
        <time>2024-03-01T14:27:59.000Z</time>
      </trkpt>
      <trkpt lat="45.31996" lon="5.41089">
        <ele>552.79998779297</ele>
        <time>2024-03-01T14:28:00.000Z</time>
      </trkpt>
      <trkpt lat="45.31998" lon="5.41084">
        <ele>552.79998779297</ele>
        <time>2024-03-01T14:28:01.000Z</time>
      </trkpt>
      <trkpt lat="45.32002" lon="5.41079">
        <ele>552.79998779297</ele>
        <time>2024-03-01T14:28:02.000Z</time>
      </trkpt>
      <trkpt lat="45.32006" lon="5.41073">
        <ele>552.59997558594</ele>
        <time>2024-03-01T14:28:03.000Z</time>
      </trkpt>
      <trkpt lat="45.3201" lon="5.41066">
        <ele>552.20001220703</ele>
        <time>2024-03-01T14:28:04.000Z</time>
      </trkpt>
      <trkpt lat="45.32014" lon="5.41057">
        <ele>552</ele>
        <time>2024-03-01T14:28:05.000Z</time>
      </trkpt>
      <trkpt lat="45.3202" lon="5.41041">
        <ele>550.79998779297</ele>
        <time>2024-03-01T14:28:07.000Z</time>
      </trkpt>
      <trkpt lat="45.32022" lon="5.41036">
        <ele>550.20001220703</ele>
        <time>2024-03-01T14:28:08.000Z</time>
      </trkpt>
      <trkpt lat="45.32022" lon="5.41032">
        <ele>549.79998779297</ele>
        <time>2024-03-01T14:28:09.000Z</time>
      </trkpt>
      <trkpt lat="45.32023" lon="5.41029">
        <ele>548.79998779297</ele>
        <time>2024-03-01T14:28:10.000Z</time>
      </trkpt>
      <trkpt lat="45.32023" lon="5.41026">
        <ele>547.79998779297</ele>
        <time>2024-03-01T14:28:11.000Z</time>
      </trkpt>
      <trkpt lat="45.32024" lon="5.41023">
        <ele>547.20001220703</ele>
        <time>2024-03-01T14:28:12.000Z</time>
      </trkpt>
      <trkpt lat="45.32026" lon="5.41015">
        <ele>545.59997558594</ele>
        <time>2024-03-01T14:28:14.000Z</time>
      </trkpt>
      <trkpt lat="45.32028" lon="5.41011">
        <ele>545</ele>
        <time>2024-03-01T14:28:15.000Z</time>
      </trkpt>
      <trkpt lat="45.32029" lon="5.41006">
        <ele>544.59997558594</ele>
        <time>2024-03-01T14:28:16.000Z</time>
      </trkpt>
      <trkpt lat="45.32031" lon="5.41001">
        <ele>544.40002441406</ele>
        <time>2024-03-01T14:28:17.000Z</time>
      </trkpt>
      <trkpt lat="45.32033" lon="5.40994">
        <ele>544</ele>
        <time>2024-03-01T14:28:18.000Z</time>
      </trkpt>
      <trkpt lat="45.32036" lon="5.40987">
        <ele>543.79998779297</ele>
        <time>2024-03-01T14:28:19.000Z</time>
      </trkpt>
      <trkpt lat="45.32038" lon="5.4098">
        <ele>543.59997558594</ele>
        <time>2024-03-01T14:28:20.000Z</time>
      </trkpt>
      <trkpt lat="45.32046" lon="5.4097">
        <ele>543.20001220703</ele>
        <time>2024-03-01T14:28:22.000Z</time>
      </trkpt>
      <trkpt lat="45.3205" lon="5.40966">
        <ele>543</ele>
        <time>2024-03-01T14:28:23.000Z</time>
      </trkpt>
      <trkpt lat="45.32055" lon="5.40963">
        <ele>542.79998779297</ele>
        <time>2024-03-01T14:28:24.000Z</time>
      </trkpt>
      <trkpt lat="45.32059" lon="5.4096">
        <ele>542.79998779297</ele>
        <time>2024-03-01T14:28:25.000Z</time>
      </trkpt>
      <trkpt lat="45.32064" lon="5.40957">
        <ele>542.59997558594</ele>
        <time>2024-03-01T14:28:26.000Z</time>
      </trkpt>
      <trkpt lat="45.32068" lon="5.40955">
        <ele>542.20001220703</ele>
        <time>2024-03-01T14:28:27.000Z</time>
      </trkpt>
      <trkpt lat="45.32069" lon="5.40948">
        <ele>538.79998779297</ele>
        <time>2024-03-01T14:28:42.000Z</time>
      </trkpt>
      <trkpt lat="45.32066" lon="5.40942">
        <ele>538.79998779297</ele>
        <time>2024-03-01T14:28:43.000Z</time>
      </trkpt>
      <trkpt lat="45.32063" lon="5.40937">
        <ele>538.79998779297</ele>
        <time>2024-03-01T14:28:44.000Z</time>
      </trkpt>
      <trkpt lat="45.32059" lon="5.40923">
        <ele>539</ele>
        <time>2024-03-01T14:28:46.000Z</time>
      </trkpt>
      <trkpt lat="45.32057" lon="5.40915">
        <ele>539</ele>
        <time>2024-03-01T14:28:47.000Z</time>
      </trkpt>
      <trkpt lat="45.32056" lon="5.40908">
        <ele>539</ele>
        <time>2024-03-01T14:28:48.000Z</time>
      </trkpt>
      <trkpt lat="45.32056" lon="5.40893">
        <ele>539.20001220703</ele>
        <time>2024-03-01T14:28:50.000Z</time>
      </trkpt>
      <trkpt lat="45.32058" lon="5.40879">
        <ele>539.20001220703</ele>
        <time>2024-03-01T14:28:52.000Z</time>
      </trkpt>
      <trkpt lat="45.32059" lon="5.40873">
        <ele>539.20001220703</ele>
        <time>2024-03-01T14:28:53.000Z</time>
      </trkpt>
      <trkpt lat="45.32061" lon="5.40859">
        <ele>539.40002441406</ele>
        <time>2024-03-01T14:28:55.000Z</time>
      </trkpt>
      <trkpt lat="45.32063" lon="5.40852">
        <ele>539.40002441406</ele>
        <time>2024-03-01T14:28:56.000Z</time>
      </trkpt>
      <trkpt lat="45.32064" lon="5.40845">
        <ele>539.40002441406</ele>
        <time>2024-03-01T14:28:57.000Z</time>
      </trkpt>
      <trkpt lat="45.32065" lon="5.40839">
        <ele>539.40002441406</ele>
        <time>2024-03-01T14:28:58.000Z</time>
      </trkpt>
      <trkpt lat="45.32066" lon="5.40832">
        <ele>539.40002441406</ele>
        <time>2024-03-01T14:28:59.000Z</time>
      </trkpt>
      <trkpt lat="45.32068" lon="5.40825">
        <ele>539.59997558594</ele>
        <time>2024-03-01T14:29:00.000Z</time>
      </trkpt>
      <trkpt lat="45.32073" lon="5.4079">
        <ele>540</ele>
        <time>2024-03-01T14:29:05.000Z</time>
      </trkpt>
      <trkpt lat="45.32074" lon="5.40782">
        <ele>540</ele>
        <time>2024-03-01T14:29:06.000Z</time>
      </trkpt>
      <trkpt lat="45.32076" lon="5.40768">
        <ele>540.20001220703</ele>
        <time>2024-03-01T14:29:08.000Z</time>
      </trkpt>
      <trkpt lat="45.32076" lon="5.40738">
        <ele>540.20001220703</ele>
        <time>2024-03-01T14:29:12.000Z</time>
      </trkpt>
      <trkpt lat="45.32077" lon="5.40731">
        <ele>540.20001220703</ele>
        <time>2024-03-01T14:29:13.000Z</time>
      </trkpt>
      <trkpt lat="45.32078" lon="5.40725">
        <ele>540.20001220703</ele>
        <time>2024-03-01T14:29:14.000Z</time>
      </trkpt>
      <trkpt lat="45.3208" lon="5.40718">
        <ele>540</ele>
        <time>2024-03-01T14:29:15.000Z</time>
      </trkpt>
      <trkpt lat="45.32088" lon="5.40706">
        <ele>540</ele>
        <time>2024-03-01T14:29:17.000Z</time>
      </trkpt>
      <trkpt lat="45.32092" lon="5.40699">
        <ele>540</ele>
        <time>2024-03-01T14:29:18.000Z</time>
      </trkpt>
      <trkpt lat="45.32097" lon="5.40692">
        <ele>540</ele>
        <time>2024-03-01T14:29:19.000Z</time>
      </trkpt>
      <trkpt lat="45.32101" lon="5.40685">
        <ele>539.59997558594</ele>
        <time>2024-03-01T14:29:20.000Z</time>
      </trkpt>
      <trkpt lat="45.32106" lon="5.40678">
        <ele>539.59997558594</ele>
        <time>2024-03-01T14:29:21.000Z</time>
      </trkpt>
      <trkpt lat="45.32112" lon="5.40672">
        <ele>539</ele>
        <time>2024-03-01T14:29:22.000Z</time>
      </trkpt>
      <trkpt lat="45.32119" lon="5.40667">
        <ele>538.59997558594</ele>
        <time>2024-03-01T14:29:23.000Z</time>
      </trkpt>
      <trkpt lat="45.32135" lon="5.40659">
        <ele>537.20001220703</ele>
        <time>2024-03-01T14:29:25.000Z</time>
      </trkpt>
      <trkpt lat="45.32144" lon="5.40657">
        <ele>536.59997558594</ele>
        <time>2024-03-01T14:29:26.000Z</time>
      </trkpt>
      <trkpt lat="45.32152" lon="5.40654">
        <ele>535.79998779297</ele>
        <time>2024-03-01T14:29:27.000Z</time>
      </trkpt>
      <trkpt lat="45.3217" lon="5.40646">
        <ele>535.20001220703</ele>
        <time>2024-03-01T14:29:29.000Z</time>
      </trkpt>
      <trkpt lat="45.32178" lon="5.40641">
        <ele>535</ele>
        <time>2024-03-01T14:29:30.000Z</time>
      </trkpt>
      <trkpt lat="45.32186" lon="5.40635">
        <ele>534.20001220703</ele>
        <time>2024-03-01T14:29:31.000Z</time>
      </trkpt>
      <trkpt lat="45.32193" lon="5.40628">
        <ele>533.79998779297</ele>
        <time>2024-03-01T14:29:32.000Z</time>
      </trkpt>
      <trkpt lat="45.322" lon="5.40622">
        <ele>533.40002441406</ele>
        <time>2024-03-01T14:29:33.000Z</time>
      </trkpt>
      <trkpt lat="45.32208" lon="5.40615">
        <ele>530.79998779297</ele>
        <time>2024-03-01T14:29:34.000Z</time>
      </trkpt>
      <trkpt lat="45.32214" lon="5.4061">
        <ele>530</ele>
        <time>2024-03-01T14:29:35.000Z</time>
      </trkpt>
      <trkpt lat="45.3222" lon="5.40606">
        <ele>529</ele>
        <time>2024-03-01T14:29:36.000Z</time>
      </trkpt>
      <trkpt lat="45.32232" lon="5.40596">
        <ele>526.20001220703</ele>
        <time>2024-03-01T14:29:38.000Z</time>
      </trkpt>
      <trkpt lat="45.32237" lon="5.40589">
        <ele>525.20001220703</ele>
        <time>2024-03-01T14:29:39.000Z</time>
      </trkpt>
      <trkpt lat="45.32247" lon="5.40577">
        <ele>524</ele>
        <time>2024-03-01T14:29:41.000Z</time>
      </trkpt>
      <trkpt lat="45.32253" lon="5.40571">
        <ele>523.79998779297</ele>
        <time>2024-03-01T14:29:42.000Z</time>
      </trkpt>
      <trkpt lat="45.32259" lon="5.40563">
        <ele>522.59997558594</ele>
        <time>2024-03-01T14:29:43.000Z</time>
      </trkpt>
      <trkpt lat="45.32263" lon="5.40555">
        <ele>521.79998779297</ele>
        <time>2024-03-01T14:29:44.000Z</time>
      </trkpt>
      <trkpt lat="45.32266" lon="5.40547">
        <ele>519.79998779297</ele>
        <time>2024-03-01T14:29:45.000Z</time>
      </trkpt>
      <trkpt lat="45.32271" lon="5.40538">
        <ele>518</ele>
        <time>2024-03-01T14:29:46.000Z</time>
      </trkpt>
      <trkpt lat="45.32274" lon="5.40529">
        <ele>517.40002441406</ele>
        <time>2024-03-01T14:29:47.000Z</time>
      </trkpt>
      <trkpt lat="45.32278" lon="5.4052">
        <ele>516.79998779297</ele>
        <time>2024-03-01T14:29:48.000Z</time>
      </trkpt>
      <trkpt lat="45.32282" lon="5.40513">
        <ele>516.59997558594</ele>
        <time>2024-03-01T14:29:49.000Z</time>
      </trkpt>
      <trkpt lat="45.32285" lon="5.40507">
        <ele>515.40002441406</ele>
        <time>2024-03-01T14:29:50.000Z</time>
      </trkpt>
      <trkpt lat="45.32291" lon="5.40499">
        <ele>513.40002441406</ele>
        <time>2024-03-01T14:29:52.000Z</time>
      </trkpt>
      <trkpt lat="45.32295" lon="5.40494">
        <ele>511.60000610352</ele>
        <time>2024-03-01T14:29:53.000Z</time>
      </trkpt>
      <trkpt lat="45.32297" lon="5.40489">
        <ele>511.20001220703</ele>
        <time>2024-03-01T14:29:54.000Z</time>
      </trkpt>
      <trkpt lat="45.32299" lon="5.40485">
        <ele>510.20001220703</ele>
        <time>2024-03-01T14:29:55.000Z</time>
      </trkpt>
      <trkpt lat="45.32301" lon="5.40483">
        <ele>509.39999389648</ele>
        <time>2024-03-01T14:29:56.000Z</time>
      </trkpt>
      <trkpt lat="45.32307" lon="5.40481">
        <ele>506.39999389648</ele>
        <time>2024-03-01T14:29:58.000Z</time>
      </trkpt>
      <trkpt lat="45.32311" lon="5.40481">
        <ele>506</ele>
        <time>2024-03-01T14:29:59.000Z</time>
      </trkpt>
      <trkpt lat="45.32317" lon="5.40483">
        <ele>504.60000610352</ele>
        <time>2024-03-01T14:30:01.000Z</time>
      </trkpt>
      <trkpt lat="45.32325" lon="5.40487">
        <ele>500.60000610352</ele>
        <time>2024-03-01T14:30:05.000Z</time>
      </trkpt>
      <trkpt lat="45.32328" lon="5.40487">
        <ele>500.39999389648</ele>
        <time>2024-03-01T14:30:06.000Z</time>
      </trkpt>
      <trkpt lat="45.3233" lon="5.40488">
        <ele>500</ele>
        <time>2024-03-01T14:30:07.000Z</time>
      </trkpt>
      <trkpt lat="45.32333" lon="5.40489">
        <ele>499.60000610352</ele>
        <time>2024-03-01T14:30:08.000Z</time>
      </trkpt>
      <trkpt lat="45.32336" lon="5.40491">
        <ele>499</ele>
        <time>2024-03-01T14:30:09.000Z</time>
      </trkpt>
      <trkpt lat="45.32338" lon="5.40492">
        <ele>498.39999389648</ele>
        <time>2024-03-01T14:30:10.000Z</time>
      </trkpt>
      <trkpt lat="45.32341" lon="5.40493">
        <ele>498.20001220703</ele>
        <time>2024-03-01T14:30:11.000Z</time>
      </trkpt>
      <trkpt lat="45.32344" lon="5.40493">
        <ele>497.20001220703</ele>
        <time>2024-03-01T14:30:12.000Z</time>
      </trkpt>
      <trkpt lat="45.32348" lon="5.40492">
        <ele>496.79998779297</ele>
        <time>2024-03-01T14:30:13.000Z</time>
      </trkpt>
      <trkpt lat="45.32352" lon="5.40493">
        <ele>495.79998779297</ele>
        <time>2024-03-01T14:30:14.000Z</time>
      </trkpt>
      <trkpt lat="45.32358" lon="5.40491">
        <ele>494.39999389648</ele>
        <time>2024-03-01T14:30:16.000Z</time>
      </trkpt>
      <trkpt lat="45.32361" lon="5.40488">
        <ele>493.60000610352</ele>
        <time>2024-03-01T14:30:17.000Z</time>
      </trkpt>
      <trkpt lat="45.32364" lon="5.40483">
        <ele>493.20001220703</ele>
        <time>2024-03-01T14:30:18.000Z</time>
      </trkpt>
      <trkpt lat="45.32367" lon="5.4048">
        <ele>492.20001220703</ele>
        <time>2024-03-01T14:30:20.000Z</time>
      </trkpt>
      <trkpt lat="45.32368" lon="5.40481">
        <ele>491.79998779297</ele>
        <time>2024-03-01T14:30:21.000Z</time>
      </trkpt>
      <trkpt lat="45.3237" lon="5.40482">
        <ele>491.79998779297</ele>
        <time>2024-03-01T14:30:22.000Z</time>
      </trkpt>
      <trkpt lat="45.32371" lon="5.40483">
        <ele>491.60000610352</ele>
        <time>2024-03-01T14:30:23.000Z</time>
      </trkpt>
      <trkpt lat="45.32373" lon="5.40483">
        <ele>490.79998779297</ele>
        <time>2024-03-01T14:30:31.000Z</time>
      </trkpt>
      <trkpt lat="45.32374" lon="5.40482">
        <ele>490.79998779297</ele>
        <time>2024-03-01T14:30:33.000Z</time>
      </trkpt>
      <trkpt lat="45.32379" lon="5.40482">
        <ele>490.60000610352</ele>
        <time>2024-03-01T14:30:40.000Z</time>
      </trkpt>
      <trkpt lat="45.32381" lon="5.4048">
        <ele>490.60000610352</ele>
        <time>2024-03-01T14:30:42.000Z</time>
      </trkpt>
      <trkpt lat="45.32382" lon="5.40478">
        <ele>490.39999389648</ele>
        <time>2024-03-01T14:30:43.000Z</time>
      </trkpt>
      <trkpt lat="45.32384" lon="5.40477">
        <ele>490.39999389648</ele>
        <time>2024-03-01T14:30:44.000Z</time>
      </trkpt>
      <trkpt lat="45.32386" lon="5.40473">
        <ele>490.20001220703</ele>
        <time>2024-03-01T14:30:46.000Z</time>
      </trkpt>
      <trkpt lat="45.32387" lon="5.40472">
        <ele>490</ele>
        <time>2024-03-01T14:30:47.000Z</time>
      </trkpt>
      <trkpt lat="45.32388" lon="5.4047">
        <ele>490</ele>
        <time>2024-03-01T14:30:48.000Z</time>
      </trkpt>
      <trkpt lat="45.32389" lon="5.40469">
        <ele>490</ele>
        <time>2024-03-01T14:30:49.000Z</time>
      </trkpt>
      <trkpt lat="45.3239" lon="5.40467">
        <ele>489.79998779297</ele>
        <time>2024-03-01T14:30:50.000Z</time>
      </trkpt>
      <trkpt lat="45.32391" lon="5.40466">
        <ele>489.79998779297</ele>
        <time>2024-03-01T14:30:51.000Z</time>
      </trkpt>
      <trkpt lat="45.32392" lon="5.40464">
        <ele>489.39999389648</ele>
        <time>2024-03-01T14:30:52.000Z</time>
      </trkpt>
      <trkpt lat="45.32393" lon="5.40464">
        <ele>489.39999389648</ele>
        <time>2024-03-01T14:30:53.000Z</time>
      </trkpt>
      <trkpt lat="45.32397" lon="5.4046">
        <ele>489</ele>
        <time>2024-03-01T14:30:56.000Z</time>
      </trkpt>
      <trkpt lat="45.32399" lon="5.40456">
        <ele>488.79998779297</ele>
        <time>2024-03-01T14:30:58.000Z</time>
      </trkpt>
      <trkpt lat="45.32401" lon="5.40454">
        <ele>488.60000610352</ele>
        <time>2024-03-01T14:30:59.000Z</time>
      </trkpt>
      <trkpt lat="45.32402" lon="5.40452">
        <ele>488.39999389648</ele>
        <time>2024-03-01T14:31:00.000Z</time>
      </trkpt>
      <trkpt lat="45.32402" lon="5.4045">
        <ele>488.20001220703</ele>
        <time>2024-03-01T14:31:01.000Z</time>
      </trkpt>
      <trkpt lat="45.32403" lon="5.40449">
        <ele>488</ele>
        <time>2024-03-01T14:31:02.000Z</time>
      </trkpt>
      <trkpt lat="45.32405" lon="5.40448">
        <ele>487.79998779297</ele>
        <time>2024-03-01T14:31:03.000Z</time>
      </trkpt>
      <trkpt lat="45.32406" lon="5.40447">
        <ele>487.60000610352</ele>
        <time>2024-03-01T14:31:04.000Z</time>
      </trkpt>
      <trkpt lat="45.32407" lon="5.40445">
        <ele>487.60000610352</ele>
        <time>2024-03-01T14:31:05.000Z</time>
      </trkpt>
      <trkpt lat="45.3241" lon="5.40442">
        <ele>487.39999389648</ele>
        <time>2024-03-01T14:31:07.000Z</time>
      </trkpt>
      <trkpt lat="45.3241" lon="5.40441">
        <ele>487.39999389648</ele>
        <time>2024-03-01T14:31:08.000Z</time>
      </trkpt>
      <trkpt lat="45.32411" lon="5.40439">
        <ele>487.39999389648</ele>
        <time>2024-03-01T14:31:09.000Z</time>
      </trkpt>
      <trkpt lat="45.32412" lon="5.40438">
        <ele>487.39999389648</ele>
        <time>2024-03-01T14:31:10.000Z</time>
      </trkpt>
      <trkpt lat="45.32413" lon="5.40436">
        <ele>487.39999389648</ele>
        <time>2024-03-01T14:31:11.000Z</time>
      </trkpt>
      <trkpt lat="45.32413" lon="5.40434">
        <ele>487.39999389648</ele>
        <time>2024-03-01T14:31:12.000Z</time>
      </trkpt>
      <trkpt lat="45.32414" lon="5.40433">
        <ele>487.20001220703</ele>
        <time>2024-03-01T14:31:13.000Z</time>
      </trkpt>
      <trkpt lat="45.32414" lon="5.40431">
        <ele>487.20001220703</ele>
        <time>2024-03-01T14:31:15.000Z</time>
      </trkpt>
      <trkpt lat="45.32415" lon="5.4043">
        <ele>487.20001220703</ele>
        <time>2024-03-01T14:31:16.000Z</time>
      </trkpt>
      <trkpt lat="45.32415" lon="5.40429">
        <ele>487.39999389648</ele>
        <time>2024-03-01T14:31:17.000Z</time>
      </trkpt>
      <trkpt lat="45.32416" lon="5.40429">
        <ele>487.39999389648</ele>
        <time>2024-03-01T14:31:18.000Z</time>
      </trkpt>
      <trkpt lat="45.32416" lon="5.40428">
        <ele>488.39999389648</ele>
        <time>2024-03-01T14:31:34.000Z</time>
      </trkpt>
      <trkpt lat="45.32419" lon="5.40425">
        <ele>488.79998779297</ele>
        <time>2024-03-01T14:31:40.000Z</time>
      </trkpt>
      <trkpt lat="45.32419" lon="5.40423">
        <ele>489</ele>
        <time>2024-03-01T14:31:42.000Z</time>
      </trkpt>
      <trkpt lat="45.3242" lon="5.40423">
        <ele>489</ele>
        <time>2024-03-01T14:31:43.000Z</time>
      </trkpt>
      <trkpt lat="45.3242" lon="5.40421">
        <ele>490</ele>
        <time>2024-03-01T14:31:47.000Z</time>
      </trkpt>
      <trkpt lat="45.32422" lon="5.40419">
        <ele>490.79998779297</ele>
        <time>2024-03-01T14:31:51.000Z</time>
      </trkpt>
      <trkpt lat="45.32421" lon="5.40419">
        <ele>491</ele>
        <time>2024-03-01T14:31:53.000Z</time>
      </trkpt>
      <trkpt lat="45.32422" lon="5.40418">
        <ele>491.20001220703</ele>
        <time>2024-03-01T14:31:54.000Z</time>
      </trkpt>
      <trkpt lat="45.32422" lon="5.40408">
        <ele>491</ele>
        <time>2024-03-01T14:32:20.000Z</time>
      </trkpt>
      <trkpt lat="45.32423" lon="5.40405">
        <ele>491</ele>
        <time>2024-03-01T14:32:21.000Z</time>
      </trkpt>
      <trkpt lat="45.32423" lon="5.40403">
        <ele>491.20001220703</ele>
        <time>2024-03-01T14:32:22.000Z</time>
      </trkpt>
      <trkpt lat="45.32424" lon="5.404">
        <ele>491.20001220703</ele>
        <time>2024-03-01T14:32:23.000Z</time>
      </trkpt>
      <trkpt lat="45.32424" lon="5.40389">
        <ele>491.60000610352</ele>
        <time>2024-03-01T14:32:27.000Z</time>
      </trkpt>
      <trkpt lat="45.32425" lon="5.40386">
        <ele>491.60000610352</ele>
        <time>2024-03-01T14:32:28.000Z</time>
      </trkpt>
      <trkpt lat="45.32425" lon="5.40374">
        <ele>492.39999389648</ele>
        <time>2024-03-01T14:32:32.000Z</time>
      </trkpt>
      <trkpt lat="45.32424" lon="5.4037">
        <ele>492.60000610352</ele>
        <time>2024-03-01T14:32:33.000Z</time>
      </trkpt>
      <trkpt lat="45.32424" lon="5.40358">
        <ele>493.20001220703</ele>
        <time>2024-03-01T14:32:36.000Z</time>
      </trkpt>
      <trkpt lat="45.32423" lon="5.40355">
        <ele>493.60000610352</ele>
        <time>2024-03-01T14:32:37.000Z</time>
      </trkpt>
      <trkpt lat="45.32422" lon="5.4035">
        <ele>493.79998779297</ele>
        <time>2024-03-01T14:32:38.000Z</time>
      </trkpt>
      <trkpt lat="45.32421" lon="5.40344">
        <ele>494</ele>
        <time>2024-03-01T14:32:39.000Z</time>
      </trkpt>
      <trkpt lat="45.3242" lon="5.4034">
        <ele>494.20001220703</ele>
        <time>2024-03-01T14:32:40.000Z</time>
      </trkpt>
      <trkpt lat="45.3242" lon="5.40336">
        <ele>494.20001220703</ele>
        <time>2024-03-01T14:32:41.000Z</time>
      </trkpt>
      <trkpt lat="45.32421" lon="5.40333">
        <ele>494.39999389648</ele>
        <time>2024-03-01T14:32:42.000Z</time>
      </trkpt>
      <trkpt lat="45.32421" lon="5.40326">
        <ele>494.39999389648</ele>
        <time>2024-03-01T14:32:44.000Z</time>
      </trkpt>
      <trkpt lat="45.3242" lon="5.40322">
        <ele>494.60000610352</ele>
        <time>2024-03-01T14:32:45.000Z</time>
      </trkpt>
      <trkpt lat="45.32421" lon="5.40318">
        <ele>494.60000610352</ele>
        <time>2024-03-01T14:32:46.000Z</time>
      </trkpt>
      <trkpt lat="45.32421" lon="5.40311">
        <ele>494.60000610352</ele>
        <time>2024-03-01T14:32:47.000Z</time>
      </trkpt>
      <trkpt lat="45.32422" lon="5.40305">
        <ele>494.79998779297</ele>
        <time>2024-03-01T14:32:48.000Z</time>
      </trkpt>
      <trkpt lat="45.32426" lon="5.40297">
        <ele>494.60000610352</ele>
        <time>2024-03-01T14:32:50.000Z</time>
      </trkpt>
      <trkpt lat="45.32428" lon="5.40292">
        <ele>494.60000610352</ele>
        <time>2024-03-01T14:32:51.000Z</time>
      </trkpt>
      <trkpt lat="45.32429" lon="5.40287">
        <ele>494.60000610352</ele>
        <time>2024-03-01T14:32:52.000Z</time>
      </trkpt>
      <trkpt lat="45.32428" lon="5.4028">
        <ele>494.39999389648</ele>
        <time>2024-03-01T14:32:53.000Z</time>
      </trkpt>
      <trkpt lat="45.32428" lon="5.40265">
        <ele>494.39999389648</ele>
        <time>2024-03-01T14:32:55.000Z</time>
      </trkpt>
      <trkpt lat="45.32429" lon="5.4026">
        <ele>494.20001220703</ele>
        <time>2024-03-01T14:32:56.000Z</time>
      </trkpt>
      <trkpt lat="45.3243" lon="5.40256">
        <ele>494.20001220703</ele>
        <time>2024-03-01T14:32:57.000Z</time>
      </trkpt>
      <trkpt lat="45.3243" lon="5.40249">
        <ele>494.20001220703</ele>
        <time>2024-03-01T14:32:58.000Z</time>
      </trkpt>
      <trkpt lat="45.32434" lon="5.40235">
        <ele>493.79998779297</ele>
        <time>2024-03-01T14:33:00.000Z</time>
      </trkpt>
      <trkpt lat="45.32435" lon="5.40227">
        <ele>493.60000610352</ele>
        <time>2024-03-01T14:33:01.000Z</time>
      </trkpt>
      <trkpt lat="45.32437" lon="5.40219">
        <ele>493.60000610352</ele>
        <time>2024-03-01T14:33:02.000Z</time>
      </trkpt>
      <trkpt lat="45.32438" lon="5.40213">
        <ele>493.39999389648</ele>
        <time>2024-03-01T14:33:03.000Z</time>
      </trkpt>
      <trkpt lat="45.3244" lon="5.40207">
        <ele>493.20001220703</ele>
        <time>2024-03-01T14:33:04.000Z</time>
      </trkpt>
      <trkpt lat="45.32441" lon="5.402">
        <ele>493</ele>
        <time>2024-03-01T14:33:05.000Z</time>
      </trkpt>
      <trkpt lat="45.32443" lon="5.40191">
        <ele>493</ele>
        <time>2024-03-01T14:33:06.000Z</time>
      </trkpt>
      <trkpt lat="45.32446" lon="5.40184">
        <ele>492.79998779297</ele>
        <time>2024-03-01T14:33:07.000Z</time>
      </trkpt>
      <trkpt lat="45.32449" lon="5.40176">
        <ele>492.60000610352</ele>
        <time>2024-03-01T14:33:08.000Z</time>
      </trkpt>
      <trkpt lat="45.32452" lon="5.4017">
        <ele>492.39999389648</ele>
        <time>2024-03-01T14:33:09.000Z</time>
      </trkpt>
      <trkpt lat="45.32454" lon="5.40164">
        <ele>491.79998779297</ele>
        <time>2024-03-01T14:33:10.000Z</time>
      </trkpt>
      <trkpt lat="45.32456" lon="5.40157">
        <ele>491.20001220703</ele>
        <time>2024-03-01T14:33:11.000Z</time>
      </trkpt>
      <trkpt lat="45.32456" lon="5.4015">
        <ele>490.20001220703</ele>
        <time>2024-03-01T14:33:12.000Z</time>
      </trkpt>
      <trkpt lat="45.32459" lon="5.40143">
        <ele>490</ele>
        <time>2024-03-01T14:33:13.000Z</time>
      </trkpt>
      <trkpt lat="45.32462" lon="5.40134">
        <ele>489.60000610352</ele>
        <time>2024-03-01T14:33:14.000Z</time>
      </trkpt>
      <trkpt lat="45.32465" lon="5.40127">
        <ele>489.20001220703</ele>
        <time>2024-03-01T14:33:15.000Z</time>
      </trkpt>
      <trkpt lat="45.32465" lon="5.40118">
        <ele>489</ele>
        <time>2024-03-01T14:33:16.000Z</time>
      </trkpt>
      <trkpt lat="45.32467" lon="5.40109">
        <ele>488.60000610352</ele>
        <time>2024-03-01T14:33:17.000Z</time>
      </trkpt>
      <trkpt lat="45.32469" lon="5.40102">
        <ele>488.39999389648</ele>
        <time>2024-03-01T14:33:18.000Z</time>
      </trkpt>
      <trkpt lat="45.32471" lon="5.40096">
        <ele>488.20001220703</ele>
        <time>2024-03-01T14:33:19.000Z</time>
      </trkpt>
      <trkpt lat="45.32484" lon="5.40083">
        <ele>487.60000610352</ele>
        <time>2024-03-01T14:33:22.000Z</time>
      </trkpt>
      <trkpt lat="45.32488" lon="5.4008">
        <ele>487.39999389648</ele>
        <time>2024-03-01T14:33:23.000Z</time>
      </trkpt>
      <trkpt lat="45.32492" lon="5.40075">
        <ele>487</ele>
        <time>2024-03-01T14:33:24.000Z</time>
      </trkpt>
      <trkpt lat="45.32496" lon="5.40067">
        <ele>486.79998779297</ele>
        <time>2024-03-01T14:33:25.000Z</time>
      </trkpt>
      <trkpt lat="45.32508" lon="5.40055">
        <ele>485.79998779297</ele>
        <time>2024-03-01T14:33:28.000Z</time>
      </trkpt>
      <trkpt lat="45.32512" lon="5.4005">
        <ele>485.20001220703</ele>
        <time>2024-03-01T14:33:29.000Z</time>
      </trkpt>
      <trkpt lat="45.32523" lon="5.40039">
        <ele>484.39999389648</ele>
        <time>2024-03-01T14:33:31.000Z</time>
      </trkpt>
      <trkpt lat="45.32527" lon="5.40032">
        <ele>484.39999389648</ele>
        <time>2024-03-01T14:33:32.000Z</time>
      </trkpt>
      <trkpt lat="45.32532" lon="5.40026">
        <ele>483.20001220703</ele>
        <time>2024-03-01T14:33:33.000Z</time>
      </trkpt>
      <trkpt lat="45.32538" lon="5.40019">
        <ele>482.39999389648</ele>
        <time>2024-03-01T14:33:34.000Z</time>
      </trkpt>
      <trkpt lat="45.32541" lon="5.40013">
        <ele>481.60000610352</ele>
        <time>2024-03-01T14:33:35.000Z</time>
      </trkpt>
      <trkpt lat="45.32543" lon="5.4001">
        <ele>480</ele>
        <time>2024-03-01T14:33:37.000Z</time>
      </trkpt>
      <trkpt lat="45.32545" lon="5.40006">
        <ele>476.39999389648</ele>
        <time>2024-03-01T14:35:48.000Z</time>
      </trkpt>
      <trkpt lat="45.32545" lon="5.40008">
        <ele>476.60000610352</ele>
        <time>2024-03-01T14:35:50.000Z</time>
      </trkpt>
      <trkpt lat="45.32544" lon="5.40008">
        <ele>477</ele>
        <time>2024-03-01T14:35:52.000Z</time>
      </trkpt>
      <trkpt lat="45.32543" lon="5.40009">
        <ele>477.39999389648</ele>
        <time>2024-03-01T14:35:54.000Z</time>
      </trkpt>
      <trkpt lat="45.32543" lon="5.4001">
        <ele>478.20001220703</ele>
        <time>2024-03-01T14:35:58.000Z</time>
      </trkpt>
      <trkpt lat="45.32542" lon="5.4001">
        <ele>478.39999389648</ele>
        <time>2024-03-01T14:35:59.000Z</time>
      </trkpt>
      <trkpt lat="45.32541" lon="5.40011">
        <ele>478.60000610352</ele>
        <time>2024-03-01T14:36:00.000Z</time>
      </trkpt>
      <trkpt lat="45.32541" lon="5.40013">
        <ele>478.79998779297</ele>
        <time>2024-03-01T14:36:01.000Z</time>
      </trkpt>
      <trkpt lat="45.3254" lon="5.40014">
        <ele>479</ele>
        <time>2024-03-01T14:36:02.000Z</time>
      </trkpt>
      <trkpt lat="45.3254" lon="5.40016">
        <ele>479.20001220703</ele>
        <time>2024-03-01T14:36:03.000Z</time>
      </trkpt>
      <trkpt lat="45.32539" lon="5.40017">
        <ele>479.60000610352</ele>
        <time>2024-03-01T14:36:04.000Z</time>
      </trkpt>
      <trkpt lat="45.32539" lon="5.40019">
        <ele>479.60000610352</ele>
        <time>2024-03-01T14:36:05.000Z</time>
      </trkpt>
      <trkpt lat="45.32538" lon="5.40021">
        <ele>480</ele>
        <time>2024-03-01T14:36:06.000Z</time>
      </trkpt>
      <trkpt lat="45.32537" lon="5.40022">
        <ele>480.20001220703</ele>
        <time>2024-03-01T14:36:07.000Z</time>
      </trkpt>
      <trkpt lat="45.32536" lon="5.40022">
        <ele>480.60000610352</ele>
        <time>2024-03-01T14:36:09.000Z</time>
      </trkpt>
      <trkpt lat="45.32536" lon="5.40023">
        <ele>481.79998779297</ele>
        <time>2024-03-01T14:36:13.000Z</time>
      </trkpt>
      <trkpt lat="45.32535" lon="5.40023">
        <ele>481.79998779297</ele>
        <time>2024-03-01T14:36:14.000Z</time>
      </trkpt>
      <trkpt lat="45.32535" lon="5.40025">
        <ele>482</ele>
        <time>2024-03-01T14:36:15.000Z</time>
      </trkpt>
      <trkpt lat="45.32534" lon="5.40025">
        <ele>483</ele>
        <time>2024-03-01T14:36:19.000Z</time>
      </trkpt>
      <trkpt lat="45.32534" lon="5.40026">
        <ele>483.60000610352</ele>
        <time>2024-03-01T14:36:21.000Z</time>
      </trkpt>
      <trkpt lat="45.32533" lon="5.40028">
        <ele>484</ele>
        <time>2024-03-01T14:36:22.000Z</time>
      </trkpt>
      <trkpt lat="45.32531" lon="5.4003">
        <ele>484.20001220703</ele>
        <time>2024-03-01T14:36:24.000Z</time>
      </trkpt>
      <trkpt lat="45.3253" lon="5.40032">
        <ele>484.79998779297</ele>
        <time>2024-03-01T14:36:28.000Z</time>
      </trkpt>
      <trkpt lat="45.3253" lon="5.40033">
        <ele>485.39999389648</ele>
        <time>2024-03-01T14:36:30.000Z</time>
      </trkpt>
      <trkpt lat="45.32529" lon="5.40034">
        <ele>487</ele>
        <time>2024-03-01T14:36:38.000Z</time>
      </trkpt>
      <trkpt lat="45.32528" lon="5.40034">
        <ele>487.39999389648</ele>
        <time>2024-03-01T14:36:39.000Z</time>
      </trkpt>
      <trkpt lat="45.32528" lon="5.40035">
        <ele>487.60000610352</ele>
        <time>2024-03-01T14:36:40.000Z</time>
      </trkpt>
      <trkpt lat="45.32525" lon="5.40041">
        <ele>488.39999389648</ele>
        <time>2024-03-01T14:36:43.000Z</time>
      </trkpt>
      <trkpt lat="45.32523" lon="5.40043">
        <ele>489</ele>
        <time>2024-03-01T14:36:47.000Z</time>
      </trkpt>
      <trkpt lat="45.32523" lon="5.40044">
        <ele>489.39999389648</ele>
        <time>2024-03-01T14:36:49.000Z</time>
      </trkpt>
      <trkpt lat="45.32522" lon="5.40047">
        <ele>489.60000610352</ele>
        <time>2024-03-01T14:36:50.000Z</time>
      </trkpt>
      <trkpt lat="45.32522" lon="5.40049">
        <ele>490.20001220703</ele>
        <time>2024-03-01T14:36:53.000Z</time>
      </trkpt>
      <trkpt lat="45.32521" lon="5.4005">
        <ele>490.39999389648</ele>
        <time>2024-03-01T14:36:54.000Z</time>
      </trkpt>
      <trkpt lat="45.3252" lon="5.40052">
        <ele>491.20001220703</ele>
        <time>2024-03-01T14:36:58.000Z</time>
      </trkpt>
      <trkpt lat="45.32519" lon="5.40053">
        <ele>491.39999389648</ele>
        <time>2024-03-01T14:36:59.000Z</time>
      </trkpt>
      <trkpt lat="45.32517" lon="5.40057">
        <ele>491.79998779297</ele>
        <time>2024-03-01T14:37:01.000Z</time>
      </trkpt>
      <trkpt lat="45.32514" lon="5.40061">
        <ele>492.20001220703</ele>
        <time>2024-03-01T14:37:02.000Z</time>
      </trkpt>
      <trkpt lat="45.32512" lon="5.40067">
        <ele>493.20001220703</ele>
        <time>2024-03-01T14:37:06.000Z</time>
      </trkpt>
      <trkpt lat="45.32511" lon="5.40069">
        <ele>493.39999389648</ele>
        <time>2024-03-01T14:37:07.000Z</time>
      </trkpt>
      <trkpt lat="45.32509" lon="5.40071">
        <ele>493.79998779297</ele>
        <time>2024-03-01T14:37:09.000Z</time>
      </trkpt>
      <trkpt lat="45.32509" lon="5.40072">
        <ele>494.20001220703</ele>
        <time>2024-03-01T14:37:11.000Z</time>
      </trkpt>
      <trkpt lat="45.32508" lon="5.40074">
        <ele>494.39999389648</ele>
        <time>2024-03-01T14:37:12.000Z</time>
      </trkpt>
      <trkpt lat="45.32508" lon="5.40076">
        <ele>494.60000610352</ele>
        <time>2024-03-01T14:37:13.000Z</time>
      </trkpt>
      <trkpt lat="45.32507" lon="5.40078">
        <ele>494.79998779297</ele>
        <time>2024-03-01T14:37:14.000Z</time>
      </trkpt>
      <trkpt lat="45.32507" lon="5.40079">
        <ele>495</ele>
        <time>2024-03-01T14:37:15.000Z</time>
      </trkpt>
      <trkpt lat="45.32504" lon="5.40082">
        <ele>495.60000610352</ele>
        <time>2024-03-01T14:37:20.000Z</time>
      </trkpt>
      <trkpt lat="45.32504" lon="5.40085">
        <ele>497.20001220703</ele>
        <time>2024-03-01T14:37:28.000Z</time>
      </trkpt>
      <trkpt lat="45.32503" lon="5.40087">
        <ele>498.39999389648</ele>
        <time>2024-03-01T14:37:34.000Z</time>
      </trkpt>
      <trkpt lat="45.32503" lon="5.40093">
        <ele>498.79998779297</ele>
        <time>2024-03-01T14:37:36.000Z</time>
      </trkpt>
      <trkpt lat="45.32502" lon="5.40095">
        <ele>499.60000610352</ele>
        <time>2024-03-01T14:37:40.000Z</time>
      </trkpt>
      <trkpt lat="45.32502" lon="5.40097">
        <ele>499.79998779297</ele>
        <time>2024-03-01T14:37:41.000Z</time>
      </trkpt>
      <trkpt lat="45.32501" lon="5.40099">
        <ele>499.79998779297</ele>
        <time>2024-03-01T14:37:42.000Z</time>
      </trkpt>
      <trkpt lat="45.32501" lon="5.40108">
        <ele>500.39999389648</ele>
        <time>2024-03-01T14:37:45.000Z</time>
      </trkpt>
      <trkpt lat="45.325" lon="5.4011">
        <ele>500.39999389648</ele>
        <time>2024-03-01T14:37:46.000Z</time>
      </trkpt>
      <trkpt lat="45.325" lon="5.4012">
        <ele>501.39999389648</ele>
        <time>2024-03-01T14:37:53.000Z</time>
      </trkpt>
      <trkpt lat="45.32501" lon="5.40121">
        <ele>501.79998779297</ele>
        <time>2024-03-01T14:37:55.000Z</time>
      </trkpt>
      <trkpt lat="45.32501" lon="5.40122">
        <ele>502.39999389648</ele>
        <time>2024-03-01T14:37:57.000Z</time>
      </trkpt>
      <trkpt lat="45.325" lon="5.40124">
        <ele>502.60000610352</ele>
        <time>2024-03-01T14:37:58.000Z</time>
      </trkpt>
      <trkpt lat="45.325" lon="5.40129">
        <ele>503.20001220703</ele>
        <time>2024-03-01T14:38:02.000Z</time>
      </trkpt>
      <trkpt lat="45.32499" lon="5.4013">
        <ele>503.39999389648</ele>
        <time>2024-03-01T14:38:03.000Z</time>
      </trkpt>
      <trkpt lat="45.32499" lon="5.40131">
        <ele>503.60000610352</ele>
        <time>2024-03-01T14:38:04.000Z</time>
      </trkpt>
      <trkpt lat="45.325" lon="5.40132">
        <ele>504.20001220703</ele>
        <time>2024-03-01T14:38:06.000Z</time>
      </trkpt>
      <trkpt lat="45.325" lon="5.40137">
        <ele>505.39999389648</ele>
        <time>2024-03-01T14:38:12.000Z</time>
      </trkpt>
      <trkpt lat="45.32501" lon="5.40139">
        <ele>505.39999389648</ele>
        <time>2024-03-01T14:38:13.000Z</time>
      </trkpt>
      <trkpt lat="45.32502" lon="5.4014">
        <ele>505.79998779297</ele>
        <time>2024-03-01T14:38:14.000Z</time>
      </trkpt>
      <trkpt lat="45.32503" lon="5.4014">
        <ele>505.79998779297</ele>
        <time>2024-03-01T14:38:15.000Z</time>
      </trkpt>
      <trkpt lat="45.32504" lon="5.40141">
        <ele>506.20001220703</ele>
        <time>2024-03-01T14:38:16.000Z</time>
      </trkpt>
      <trkpt lat="45.32505" lon="5.40141">
        <ele>506.20001220703</ele>
        <time>2024-03-01T14:38:17.000Z</time>
      </trkpt>
      <trkpt lat="45.32507" lon="5.40143">
        <ele>506.39999389648</ele>
        <time>2024-03-01T14:38:19.000Z</time>
      </trkpt>
      <trkpt lat="45.32508" lon="5.40143">
        <ele>506.79998779297</ele>
        <time>2024-03-01T14:38:21.000Z</time>
      </trkpt>
      <trkpt lat="45.32508" lon="5.40144">
        <ele>507</ele>
        <time>2024-03-01T14:38:22.000Z</time>
      </trkpt>
      <trkpt lat="45.32508" lon="5.40143">
        <ele>507.20001220703</ele>
        <time>2024-03-01T14:38:23.000Z</time>
      </trkpt>
      <trkpt lat="45.32509" lon="5.40144">
        <ele>507.60000610352</ele>
        <time>2024-03-01T14:38:25.000Z</time>
      </trkpt>
      <trkpt lat="45.32511" lon="5.40144">
        <ele>507.79998779297</ele>
        <time>2024-03-01T14:38:27.000Z</time>
      </trkpt>
      <trkpt lat="45.32512" lon="5.40143">
        <ele>508.79998779297</ele>
        <time>2024-03-01T14:38:35.000Z</time>
      </trkpt>
      <trkpt lat="45.32512" lon="5.40142">
        <ele>509</ele>
        <time>2024-03-01T14:38:41.000Z</time>
      </trkpt>
      <trkpt lat="45.32513" lon="5.40142">
        <ele>509</ele>
        <time>2024-03-01T14:38:42.000Z</time>
      </trkpt>
      <trkpt lat="45.32515" lon="5.4014">
        <ele>509</ele>
        <time>2024-03-01T14:38:43.000Z</time>
      </trkpt>
      <trkpt lat="45.32516" lon="5.40138">
        <ele>509</ele>
        <time>2024-03-01T14:38:44.000Z</time>
      </trkpt>
      <trkpt lat="45.3252" lon="5.40134">
        <ele>509</ele>
        <time>2024-03-01T14:38:46.000Z</time>
      </trkpt>
      <trkpt lat="45.32521" lon="5.40131">
        <ele>509</ele>
        <time>2024-03-01T14:38:47.000Z</time>
      </trkpt>
      <trkpt lat="45.32528" lon="5.40124">
        <ele>509</ele>
        <time>2024-03-01T14:38:50.000Z</time>
      </trkpt>
      <trkpt lat="45.3253" lon="5.40121">
        <ele>509</ele>
        <time>2024-03-01T14:38:51.000Z</time>
      </trkpt>
      <trkpt lat="45.32532" lon="5.40119">
        <ele>508.60000610352</ele>
        <time>2024-03-01T14:38:52.000Z</time>
      </trkpt>
      <trkpt lat="45.32533" lon="5.40117">
        <ele>508.39999389648</ele>
        <time>2024-03-01T14:38:53.000Z</time>
      </trkpt>
      <trkpt lat="45.32539" lon="5.40111">
        <ele>507.60000610352</ele>
        <time>2024-03-01T14:38:56.000Z</time>
      </trkpt>
      <trkpt lat="45.32541" lon="5.40108">
        <ele>507.39999389648</ele>
        <time>2024-03-01T14:38:57.000Z</time>
      </trkpt>
      <trkpt lat="45.32542" lon="5.40105">
        <ele>507.39999389648</ele>
        <time>2024-03-01T14:38:58.000Z</time>
      </trkpt>
      <trkpt lat="45.32544" lon="5.40102">
        <ele>507.20001220703</ele>
        <time>2024-03-01T14:38:59.000Z</time>
      </trkpt>
      <trkpt lat="45.32546" lon="5.401">
        <ele>507.20001220703</ele>
        <time>2024-03-01T14:39:00.000Z</time>
      </trkpt>
      <trkpt lat="45.32547" lon="5.40097">
        <ele>507</ele>
        <time>2024-03-01T14:39:01.000Z</time>
      </trkpt>
      <trkpt lat="45.32548" lon="5.40095">
        <ele>506.60000610352</ele>
        <time>2024-03-01T14:39:02.000Z</time>
      </trkpt>
      <trkpt lat="45.32548" lon="5.40094">
        <ele>505.79998779297</ele>
        <time>2024-03-01T14:39:04.000Z</time>
      </trkpt>
      <trkpt lat="45.32551" lon="5.40091">
        <ele>504.79998779297</ele>
        <time>2024-03-01T14:39:12.000Z</time>
      </trkpt>
      <trkpt lat="45.32553" lon="5.40087">
        <ele>504.60000610352</ele>
        <time>2024-03-01T14:39:14.000Z</time>
      </trkpt>
      <trkpt lat="45.32553" lon="5.40085">
        <ele>504.60000610352</ele>
        <time>2024-03-01T14:39:15.000Z</time>
      </trkpt>
      <trkpt lat="45.32554" lon="5.40084">
        <ele>504.39999389648</ele>
        <time>2024-03-01T14:39:16.000Z</time>
      </trkpt>
      <trkpt lat="45.32554" lon="5.40082">
        <ele>504.39999389648</ele>
        <time>2024-03-01T14:39:17.000Z</time>
      </trkpt>
      <trkpt lat="45.32555" lon="5.4008">
        <ele>504.60000610352</ele>
        <time>2024-03-01T14:39:18.000Z</time>
      </trkpt>
      <trkpt lat="45.32555" lon="5.40079">
        <ele>504.39999389648</ele>
        <time>2024-03-01T14:39:19.000Z</time>
      </trkpt>
      <trkpt lat="45.32558" lon="5.40076">
        <ele>504.39999389648</ele>
        <time>2024-03-01T14:39:21.000Z</time>
      </trkpt>
      <trkpt lat="45.32558" lon="5.40075">
        <ele>504.39999389648</ele>
        <time>2024-03-01T14:39:22.000Z</time>
      </trkpt>
      <trkpt lat="45.32559" lon="5.40074">
        <ele>504.39999389648</ele>
        <time>2024-03-01T14:39:23.000Z</time>
      </trkpt>
      <trkpt lat="45.32561" lon="5.4007">
        <ele>504.20001220703</ele>
        <time>2024-03-01T14:39:25.000Z</time>
      </trkpt>
      <trkpt lat="45.32569" lon="5.40062">
        <ele>503.60000610352</ele>
        <time>2024-03-01T14:39:31.000Z</time>
      </trkpt>
      <trkpt lat="45.32571" lon="5.40061">
        <ele>503.60000610352</ele>
        <time>2024-03-01T14:39:32.000Z</time>
      </trkpt>
      <trkpt lat="45.32572" lon="5.4006">
        <ele>503.60000610352</ele>
        <time>2024-03-01T14:39:33.000Z</time>
      </trkpt>
      <trkpt lat="45.32572" lon="5.40059">
        <ele>503.39999389648</ele>
        <time>2024-03-01T14:39:35.000Z</time>
      </trkpt>
      <trkpt lat="45.32576" lon="5.40055">
        <ele>503.20001220703</ele>
        <time>2024-03-01T14:39:39.000Z</time>
      </trkpt>
      <trkpt lat="45.32577" lon="5.40055">
        <ele>502.60000610352</ele>
        <time>2024-03-01T14:39:43.000Z</time>
      </trkpt>
      <trkpt lat="45.32577" lon="5.40054">
        <ele>502.60000610352</ele>
        <time>2024-03-01T14:39:44.000Z</time>
      </trkpt>
      <trkpt lat="45.32584" lon="5.40047">
        <ele>502.39999389648</ele>
        <time>2024-03-01T14:39:49.000Z</time>
      </trkpt>
      <trkpt lat="45.32585" lon="5.40047">
        <ele>501.60000610352</ele>
        <time>2024-03-01T14:39:57.000Z</time>
      </trkpt>
      <trkpt lat="45.32585" lon="5.40046">
        <ele>501.39999389648</ele>
        <time>2024-03-01T14:40:01.000Z</time>
      </trkpt>
      <trkpt lat="45.32587" lon="5.40044">
        <ele>501.20001220703</ele>
        <time>2024-03-01T14:40:05.000Z</time>
      </trkpt>
      <trkpt lat="45.32589" lon="5.40043">
        <ele>501.20001220703</ele>
        <time>2024-03-01T14:40:06.000Z</time>
      </trkpt>
      <trkpt lat="45.32591" lon="5.40041">
        <ele>501.20001220703</ele>
        <time>2024-03-01T14:40:07.000Z</time>
      </trkpt>
      <trkpt lat="45.32591" lon="5.4004">
        <ele>501</ele>
        <time>2024-03-01T14:40:15.000Z</time>
      </trkpt>
      <trkpt lat="45.32592" lon="5.40039">
        <ele>501</ele>
        <time>2024-03-01T14:40:16.000Z</time>
      </trkpt>
      <trkpt lat="45.32592" lon="5.40038">
        <ele>501</ele>
        <time>2024-03-01T14:40:17.000Z</time>
      </trkpt>
      <trkpt lat="45.32597" lon="5.40033">
        <ele>501</ele>
        <time>2024-03-01T14:40:20.000Z</time>
      </trkpt>
      <trkpt lat="45.32599" lon="5.40032">
        <ele>501</ele>
        <time>2024-03-01T14:40:21.000Z</time>
      </trkpt>
      <trkpt lat="45.32604" lon="5.40027">
        <ele>500.79998779297</ele>
        <time>2024-03-01T14:40:23.000Z</time>
      </trkpt>
      <trkpt lat="45.32605" lon="5.40025">
        <ele>500.79998779297</ele>
        <time>2024-03-01T14:40:24.000Z</time>
      </trkpt>
      <trkpt lat="45.32607" lon="5.40023">
        <ele>500.60000610352</ele>
        <time>2024-03-01T14:40:25.000Z</time>
      </trkpt>
      <trkpt lat="45.32608" lon="5.4002">
        <ele>500.60000610352</ele>
        <time>2024-03-01T14:40:26.000Z</time>
      </trkpt>
      <trkpt lat="45.32613" lon="5.40015">
        <ele>500.39999389648</ele>
        <time>2024-03-01T14:40:29.000Z</time>
      </trkpt>
      <trkpt lat="45.32615" lon="5.40014">
        <ele>500.39999389648</ele>
        <time>2024-03-01T14:40:30.000Z</time>
      </trkpt>
      <trkpt lat="45.32618" lon="5.40011">
        <ele>500</ele>
        <time>2024-03-01T14:40:32.000Z</time>
      </trkpt>
      <trkpt lat="45.3262" lon="5.4001">
        <ele>500</ele>
        <time>2024-03-01T14:40:33.000Z</time>
      </trkpt>
      <trkpt lat="45.32621" lon="5.40008">
        <ele>499.79998779297</ele>
        <time>2024-03-01T14:40:34.000Z</time>
      </trkpt>
      <trkpt lat="45.32625" lon="5.40006">
        <ele>499.60000610352</ele>
        <time>2024-03-01T14:40:36.000Z</time>
      </trkpt>
      <trkpt lat="45.32628" lon="5.40006">
        <ele>499.20001220703</ele>
        <time>2024-03-01T14:40:41.000Z</time>
      </trkpt>
      <trkpt lat="45.32628" lon="5.40007">
        <ele>499.20001220703</ele>
        <time>2024-03-01T14:40:43.000Z</time>
      </trkpt>
      <trkpt lat="45.32629" lon="5.40008">
        <ele>499.20001220703</ele>
        <time>2024-03-01T14:40:44.000Z</time>
      </trkpt>
      <trkpt lat="45.32634" lon="5.40008">
        <ele>499.20001220703</ele>
        <time>2024-03-01T14:40:50.000Z</time>
      </trkpt>
      <trkpt lat="45.32636" lon="5.40009">
        <ele>499.39999389648</ele>
        <time>2024-03-01T14:40:51.000Z</time>
      </trkpt>
      <trkpt lat="45.32637" lon="5.40008">
        <ele>499.39999389648</ele>
        <time>2024-03-01T14:40:52.000Z</time>
      </trkpt>
      <trkpt lat="45.32638" lon="5.40008">
        <ele>499.60000610352</ele>
        <time>2024-03-01T14:40:53.000Z</time>
      </trkpt>
      <trkpt lat="45.32638" lon="5.40009">
        <ele>499.60000610352</ele>
        <time>2024-03-01T14:40:54.000Z</time>
      </trkpt>
      <trkpt lat="45.32643" lon="5.40009">
        <ele>500</ele>
        <time>2024-03-01T14:40:58.000Z</time>
      </trkpt>
      <trkpt lat="45.32644" lon="5.40008">
        <ele>500</ele>
        <time>2024-03-01T14:40:59.000Z</time>
      </trkpt>
      <trkpt lat="45.32645" lon="5.40008">
        <ele>500.79998779297</ele>
        <time>2024-03-01T14:41:03.000Z</time>
      </trkpt>
      <trkpt lat="45.32646" lon="5.40009">
        <ele>500.79998779297</ele>
        <time>2024-03-01T14:41:04.000Z</time>
      </trkpt>
      <trkpt lat="45.32646" lon="5.40011">
        <ele>500.79998779297</ele>
        <time>2024-03-01T14:41:05.000Z</time>
      </trkpt>
      <trkpt lat="45.32648" lon="5.40012">
        <ele>501.39999389648</ele>
        <time>2024-03-01T14:41:09.000Z</time>
      </trkpt>
      <trkpt lat="45.32649" lon="5.40012">
        <ele>501.39999389648</ele>
        <time>2024-03-01T14:41:10.000Z</time>
      </trkpt>
      <trkpt lat="45.32649" lon="5.40013">
        <ele>501.79998779297</ele>
        <time>2024-03-01T14:41:12.000Z</time>
      </trkpt>
      <trkpt lat="45.3265" lon="5.40014">
        <ele>502</ele>
        <time>2024-03-01T14:41:14.000Z</time>
      </trkpt>
      <trkpt lat="45.32651" lon="5.40014">
        <ele>503</ele>
        <time>2024-03-01T14:41:18.000Z</time>
      </trkpt>
      <trkpt lat="45.32653" lon="5.40016">
        <ele>503.39999389648</ele>
        <time>2024-03-01T14:41:23.000Z</time>
      </trkpt>
      <trkpt lat="45.32653" lon="5.40017">
        <ele>503.39999389648</ele>
        <time>2024-03-01T14:41:24.000Z</time>
      </trkpt>
      <trkpt lat="45.32654" lon="5.40018">
        <ele>503.60000610352</ele>
        <time>2024-03-01T14:41:25.000Z</time>
      </trkpt>
      <trkpt lat="45.32655" lon="5.4002">
        <ele>503.60000610352</ele>
        <time>2024-03-01T14:41:26.000Z</time>
      </trkpt>
      <trkpt lat="45.32656" lon="5.4002">
        <ele>503.60000610352</ele>
        <time>2024-03-01T14:41:27.000Z</time>
      </trkpt>
      <trkpt lat="45.32658" lon="5.40022">
        <ele>503.60000610352</ele>
        <time>2024-03-01T14:41:28.000Z</time>
      </trkpt>
      <trkpt lat="45.32659" lon="5.40022">
        <ele>503.60000610352</ele>
        <time>2024-03-01T14:41:29.000Z</time>
      </trkpt>
      <trkpt lat="45.3266" lon="5.40023">
        <ele>503.79998779297</ele>
        <time>2024-03-01T14:41:30.000Z</time>
      </trkpt>
      <trkpt lat="45.3266" lon="5.40024">
        <ele>504.20001220703</ele>
        <time>2024-03-01T14:41:32.000Z</time>
      </trkpt>
      <trkpt lat="45.32661" lon="5.40025">
        <ele>504.39999389648</ele>
        <time>2024-03-01T14:41:33.000Z</time>
      </trkpt>
      <trkpt lat="45.32662" lon="5.40025">
        <ele>504.60000610352</ele>
        <time>2024-03-01T14:41:34.000Z</time>
      </trkpt>
      <trkpt lat="45.32663" lon="5.40027">
        <ele>505.20001220703</ele>
        <time>2024-03-01T14:41:36.000Z</time>
      </trkpt>
      <trkpt lat="45.32663" lon="5.40028">
        <ele>505.20001220703</ele>
        <time>2024-03-01T14:41:37.000Z</time>
      </trkpt>
      <trkpt lat="45.32671" lon="5.40036">
        <ele>507.60000610352</ele>
        <time>2024-03-01T14:41:46.000Z</time>
      </trkpt>
      <trkpt lat="45.32673" lon="5.40037">
        <ele>507.60000610352</ele>
        <time>2024-03-01T14:41:47.000Z</time>
      </trkpt>
      <trkpt lat="45.32674" lon="5.40038">
        <ele>507.79998779297</ele>
        <time>2024-03-01T14:41:48.000Z</time>
      </trkpt>
      <trkpt lat="45.32677" lon="5.40039">
        <ele>507.79998779297</ele>
        <time>2024-03-01T14:41:49.000Z</time>
      </trkpt>
      <trkpt lat="45.32679" lon="5.40041">
        <ele>508.39999389648</ele>
        <time>2024-03-01T14:41:51.000Z</time>
      </trkpt>
      <trkpt lat="45.3268" lon="5.40041">
        <ele>508.79998779297</ele>
        <time>2024-03-01T14:41:52.000Z</time>
      </trkpt>
      <trkpt lat="45.32681" lon="5.40042">
        <ele>509</ele>
        <time>2024-03-01T14:41:53.000Z</time>
      </trkpt>
      <trkpt lat="45.32683" lon="5.40043">
        <ele>509</ele>
        <time>2024-03-01T14:41:54.000Z</time>
      </trkpt>
      <trkpt lat="45.32684" lon="5.40043">
        <ele>509.20001220703</ele>
        <time>2024-03-01T14:41:55.000Z</time>
      </trkpt>
      <trkpt lat="45.32685" lon="5.40044">
        <ele>509.39999389648</ele>
        <time>2024-03-01T14:41:56.000Z</time>
      </trkpt>
      <trkpt lat="45.32687" lon="5.40045">
        <ele>509.79998779297</ele>
        <time>2024-03-01T14:41:57.000Z</time>
      </trkpt>
      <trkpt lat="45.32688" lon="5.40046">
        <ele>509.79998779297</ele>
        <time>2024-03-01T14:41:58.000Z</time>
      </trkpt>
      <trkpt lat="45.32691" lon="5.40046">
        <ele>510.79998779297</ele>
        <time>2024-03-01T14:42:01.000Z</time>
      </trkpt>
      <trkpt lat="45.32693" lon="5.40048">
        <ele>511.39999389648</ele>
        <time>2024-03-01T14:42:03.000Z</time>
      </trkpt>
      <trkpt lat="45.32694" lon="5.40048">
        <ele>511.79998779297</ele>
        <time>2024-03-01T14:42:04.000Z</time>
      </trkpt>
      <trkpt lat="45.32695" lon="5.40049">
        <ele>512</ele>
        <time>2024-03-01T14:42:05.000Z</time>
      </trkpt>
      <trkpt lat="45.32697" lon="5.4005">
        <ele>512.40002441406</ele>
        <time>2024-03-01T14:42:06.000Z</time>
      </trkpt>
      <trkpt lat="45.32698" lon="5.40051">
        <ele>512.79998779297</ele>
        <time>2024-03-01T14:42:07.000Z</time>
      </trkpt>
      <trkpt lat="45.32699" lon="5.40051">
        <ele>512.79998779297</ele>
        <time>2024-03-01T14:42:08.000Z</time>
      </trkpt>
      <trkpt lat="45.32703" lon="5.40053">
        <ele>513.20001220703</ele>
        <time>2024-03-01T14:42:10.000Z</time>
      </trkpt>
      <trkpt lat="45.32706" lon="5.40053">
        <ele>515</ele>
        <time>2024-03-01T14:42:18.000Z</time>
      </trkpt>
      <trkpt lat="45.32708" lon="5.40054">
        <ele>515.20001220703</ele>
        <time>2024-03-01T14:42:20.000Z</time>
      </trkpt>
      <trkpt lat="45.32709" lon="5.40054">
        <ele>515.20001220703</ele>
        <time>2024-03-01T14:42:21.000Z</time>
      </trkpt>
      <trkpt lat="45.3271" lon="5.40055">
        <ele>515.40002441406</ele>
        <time>2024-03-01T14:42:22.000Z</time>
      </trkpt>
      <trkpt lat="45.32712" lon="5.40056">
        <ele>516</ele>
        <time>2024-03-01T14:42:24.000Z</time>
      </trkpt>
      <trkpt lat="45.32715" lon="5.40059">
        <ele>516.59997558594</ele>
        <time>2024-03-01T14:42:28.000Z</time>
      </trkpt>
      <trkpt lat="45.32716" lon="5.40059">
        <ele>516.59997558594</ele>
        <time>2024-03-01T14:42:29.000Z</time>
      </trkpt>
      <trkpt lat="45.32717" lon="5.4006">
        <ele>516.79998779297</ele>
        <time>2024-03-01T14:42:30.000Z</time>
      </trkpt>
      <trkpt lat="45.32719" lon="5.40061">
        <ele>517</ele>
        <time>2024-03-01T14:42:31.000Z</time>
      </trkpt>
      <trkpt lat="45.32721" lon="5.40063">
        <ele>517.40002441406</ele>
        <time>2024-03-01T14:42:33.000Z</time>
      </trkpt>
      <trkpt lat="45.32722" lon="5.40063">
        <ele>517.59997558594</ele>
        <time>2024-03-01T14:42:34.000Z</time>
      </trkpt>
      <trkpt lat="45.32725" lon="5.40066">
        <ele>518.59997558594</ele>
        <time>2024-03-01T14:42:38.000Z</time>
      </trkpt>
      <trkpt lat="45.32726" lon="5.40066">
        <ele>518.79998779297</ele>
        <time>2024-03-01T14:42:39.000Z</time>
      </trkpt>
      <trkpt lat="45.32727" lon="5.40067">
        <ele>519</ele>
        <time>2024-03-01T14:42:40.000Z</time>
      </trkpt>
      <trkpt lat="45.32727" lon="5.40068">
        <ele>519.20001220703</ele>
        <time>2024-03-01T14:42:41.000Z</time>
      </trkpt>
      <trkpt lat="45.32728" lon="5.40068">
        <ele>519.40002441406</ele>
        <time>2024-03-01T14:42:42.000Z</time>
      </trkpt>
      <trkpt lat="45.32734" lon="5.40074">
        <ele>522.59997558594</ele>
        <time>2024-03-01T14:42:59.000Z</time>
      </trkpt>
      <trkpt lat="45.32736" lon="5.40074">
        <ele>523.20001220703</ele>
        <time>2024-03-01T14:43:01.000Z</time>
      </trkpt>
      <trkpt lat="45.32737" lon="5.40075">
        <ele>523.40002441406</ele>
        <time>2024-03-01T14:43:02.000Z</time>
      </trkpt>
      <trkpt lat="45.32741" lon="5.40075">
        <ele>524.20001220703</ele>
        <time>2024-03-01T14:43:06.000Z</time>
      </trkpt>
      <trkpt lat="45.32741" lon="5.40076">
        <ele>524.40002441406</ele>
        <time>2024-03-01T14:43:07.000Z</time>
      </trkpt>
      <trkpt lat="45.32742" lon="5.40077">
        <ele>524.59997558594</ele>
        <time>2024-03-01T14:43:08.000Z</time>
      </trkpt>
      <trkpt lat="45.32744" lon="5.40077">
        <ele>524.79998779297</ele>
        <time>2024-03-01T14:43:09.000Z</time>
      </trkpt>
      <trkpt lat="45.32746" lon="5.40079">
        <ele>525</ele>
        <time>2024-03-01T14:43:11.000Z</time>
      </trkpt>
      <trkpt lat="45.32753" lon="5.40079">
        <ele>527</ele>
        <time>2024-03-01T14:43:21.000Z</time>
      </trkpt>
      <trkpt lat="45.32753" lon="5.4008">
        <ele>527.20001220703</ele>
        <time>2024-03-01T14:43:22.000Z</time>
      </trkpt>
      <trkpt lat="45.32755" lon="5.4008">
        <ele>527.59997558594</ele>
        <time>2024-03-01T14:43:24.000Z</time>
      </trkpt>
      <trkpt lat="45.32757" lon="5.40082">
        <ele>528</ele>
        <time>2024-03-01T14:43:26.000Z</time>
      </trkpt>
      <trkpt lat="45.32758" lon="5.40082">
        <ele>528.40002441406</ele>
        <time>2024-03-01T14:43:27.000Z</time>
      </trkpt>
      <trkpt lat="45.32762" lon="5.40084">
        <ele>528.59997558594</ele>
        <time>2024-03-01T14:43:29.000Z</time>
      </trkpt>
      <trkpt lat="45.32763" lon="5.40084">
        <ele>528.79998779297</ele>
        <time>2024-03-01T14:43:30.000Z</time>
      </trkpt>
      <trkpt lat="45.32764" lon="5.40086">
        <ele>529</ele>
        <time>2024-03-01T14:43:31.000Z</time>
      </trkpt>
      <trkpt lat="45.32766" lon="5.40086">
        <ele>529.79998779297</ele>
        <time>2024-03-01T14:43:35.000Z</time>
      </trkpt>
      <trkpt lat="45.32767" lon="5.40087">
        <ele>530.79998779297</ele>
        <time>2024-03-01T14:43:43.000Z</time>
      </trkpt>
      <trkpt lat="45.3277" lon="5.40087">
        <ele>531</ele>
        <time>2024-03-01T14:43:48.000Z</time>
      </trkpt>
      <trkpt lat="45.32771" lon="5.40088">
        <ele>531.20001220703</ele>
        <time>2024-03-01T14:43:49.000Z</time>
      </trkpt>
      <trkpt lat="45.32772" lon="5.40088">
        <ele>531.20001220703</ele>
        <time>2024-03-01T14:43:51.000Z</time>
      </trkpt>
      <trkpt lat="45.32773" lon="5.40089">
        <ele>531.79998779297</ele>
        <time>2024-03-01T14:43:53.000Z</time>
      </trkpt>
      <trkpt lat="45.32774" lon="5.40089">
        <ele>532.20001220703</ele>
        <time>2024-03-01T14:43:54.000Z</time>
      </trkpt>
      <trkpt lat="45.32775" lon="5.4009">
        <ele>532.40002441406</ele>
        <time>2024-03-01T14:43:55.000Z</time>
      </trkpt>
      <trkpt lat="45.32777" lon="5.4009">
        <ele>532.79998779297</ele>
        <time>2024-03-01T14:43:57.000Z</time>
      </trkpt>
      <trkpt lat="45.32779" lon="5.40091">
        <ele>533.20001220703</ele>
        <time>2024-03-01T14:43:59.000Z</time>
      </trkpt>
      <trkpt lat="45.3278" lon="5.40092">
        <ele>533.59997558594</ele>
        <time>2024-03-01T14:44:01.000Z</time>
      </trkpt>
      <trkpt lat="45.32784" lon="5.40094">
        <ele>534</ele>
        <time>2024-03-01T14:44:03.000Z</time>
      </trkpt>
      <trkpt lat="45.32787" lon="5.40095">
        <ele>534</ele>
        <time>2024-03-01T14:44:04.000Z</time>
      </trkpt>
      <trkpt lat="45.32795" lon="5.40099">
        <ele>534.59997558594</ele>
        <time>2024-03-01T14:44:11.000Z</time>
      </trkpt>
      <trkpt lat="45.32797" lon="5.40101">
        <ele>535</ele>
        <time>2024-03-01T14:44:12.000Z</time>
      </trkpt>
      <trkpt lat="45.328" lon="5.40103">
        <ele>535</ele>
        <time>2024-03-01T14:44:13.000Z</time>
      </trkpt>
      <trkpt lat="45.32806" lon="5.40105">
        <ele>535.40002441406</ele>
        <time>2024-03-01T14:44:15.000Z</time>
      </trkpt>
      <trkpt lat="45.32811" lon="5.4011">
        <ele>535.40002441406</ele>
        <time>2024-03-01T14:44:17.000Z</time>
      </trkpt>
      <trkpt lat="45.32813" lon="5.40113">
        <ele>535.59997558594</ele>
        <time>2024-03-01T14:44:18.000Z</time>
      </trkpt>
      <trkpt lat="45.32816" lon="5.40117">
        <ele>535.59997558594</ele>
        <time>2024-03-01T14:44:19.000Z</time>
      </trkpt>
      <trkpt lat="45.32816" lon="5.4012">
        <ele>535.59997558594</ele>
        <time>2024-03-01T14:44:20.000Z</time>
      </trkpt>
      <trkpt lat="45.32817" lon="5.40124">
        <ele>535.59997558594</ele>
        <time>2024-03-01T14:44:21.000Z</time>
      </trkpt>
      <trkpt lat="45.32819" lon="5.40127">
        <ele>535.59997558594</ele>
        <time>2024-03-01T14:44:22.000Z</time>
      </trkpt>
      <trkpt lat="45.32823" lon="5.4013">
        <ele>535.59997558594</ele>
        <time>2024-03-01T14:44:23.000Z</time>
      </trkpt>
      <trkpt lat="45.32826" lon="5.40133">
        <ele>535.59997558594</ele>
        <time>2024-03-01T14:44:24.000Z</time>
      </trkpt>
      <trkpt lat="45.32829" lon="5.40137">
        <ele>535.59997558594</ele>
        <time>2024-03-01T14:44:25.000Z</time>
      </trkpt>
      <trkpt lat="45.3283" lon="5.4014">
        <ele>535.79998779297</ele>
        <time>2024-03-01T14:44:26.000Z</time>
      </trkpt>
      <trkpt lat="45.32832" lon="5.40142">
        <ele>535.79998779297</ele>
        <time>2024-03-01T14:44:27.000Z</time>
      </trkpt>
      <trkpt lat="45.32834" lon="5.40148">
        <ele>535.79998779297</ele>
        <time>2024-03-01T14:44:29.000Z</time>
      </trkpt>
      <trkpt lat="45.32836" lon="5.40151">
        <ele>536</ele>
        <time>2024-03-01T14:44:30.000Z</time>
      </trkpt>
      <trkpt lat="45.32839" lon="5.40154">
        <ele>536</ele>
        <time>2024-03-01T14:44:31.000Z</time>
      </trkpt>
      <trkpt lat="45.3284" lon="5.40157">
        <ele>536.20001220703</ele>
        <time>2024-03-01T14:44:32.000Z</time>
      </trkpt>
      <trkpt lat="45.32842" lon="5.40161">
        <ele>536.20001220703</ele>
        <time>2024-03-01T14:44:33.000Z</time>
      </trkpt>
      <trkpt lat="45.32844" lon="5.40166">
        <ele>536.40002441406</ele>
        <time>2024-03-01T14:44:34.000Z</time>
      </trkpt>
      <trkpt lat="45.32847" lon="5.40172">
        <ele>536.59997558594</ele>
        <time>2024-03-01T14:44:36.000Z</time>
      </trkpt>
      <trkpt lat="45.32849" lon="5.40174">
        <ele>536.59997558594</ele>
        <time>2024-03-01T14:44:37.000Z</time>
      </trkpt>
      <trkpt lat="45.32849" lon="5.40176">
        <ele>536.79998779297</ele>
        <time>2024-03-01T14:44:38.000Z</time>
      </trkpt>
      <trkpt lat="45.3285" lon="5.40178">
        <ele>537</ele>
        <time>2024-03-01T14:44:39.000Z</time>
      </trkpt>
      <trkpt lat="45.32851" lon="5.40183">
        <ele>537</ele>
        <time>2024-03-01T14:44:40.000Z</time>
      </trkpt>
      <trkpt lat="45.32851" lon="5.40185">
        <ele>537</ele>
        <time>2024-03-01T14:44:41.000Z</time>
      </trkpt>
      <trkpt lat="45.32852" lon="5.40188">
        <ele>537.20001220703</ele>
        <time>2024-03-01T14:44:42.000Z</time>
      </trkpt>
      <trkpt lat="45.32852" lon="5.4019">
        <ele>537.20001220703</ele>
        <time>2024-03-01T14:44:43.000Z</time>
      </trkpt>
      <trkpt lat="45.32851" lon="5.40192">
        <ele>537.40002441406</ele>
        <time>2024-03-01T14:44:44.000Z</time>
      </trkpt>
      <trkpt lat="45.32848" lon="5.40195">
        <ele>538.79998779297</ele>
        <time>2024-03-01T14:44:50.000Z</time>
      </trkpt>
      <trkpt lat="45.32846" lon="5.40195">
        <ele>539.20001220703</ele>
        <time>2024-03-01T14:44:51.000Z</time>
      </trkpt>
      <trkpt lat="45.32845" lon="5.40196">
        <ele>539.59997558594</ele>
        <time>2024-03-01T14:44:52.000Z</time>
      </trkpt>
      <trkpt lat="45.32844" lon="5.40196">
        <ele>539.79998779297</ele>
        <time>2024-03-01T14:44:53.000Z</time>
      </trkpt>
      <trkpt lat="45.32841" lon="5.40199">
        <ele>540.59997558594</ele>
        <time>2024-03-01T14:44:57.000Z</time>
      </trkpt>
      <trkpt lat="45.3284" lon="5.40199">
        <ele>540.79998779297</ele>
        <time>2024-03-01T14:44:58.000Z</time>
      </trkpt>
      <trkpt lat="45.32838" lon="5.40201">
        <ele>541.40002441406</ele>
        <time>2024-03-01T14:45:01.000Z</time>
      </trkpt>
      <trkpt lat="45.32837" lon="5.40201">
        <ele>542</ele>
        <time>2024-03-01T14:45:02.000Z</time>
      </trkpt>
      <trkpt lat="45.32836" lon="5.40202">
        <ele>542.59997558594</ele>
        <time>2024-03-01T14:45:04.000Z</time>
      </trkpt>
      <trkpt lat="45.32835" lon="5.40202">
        <ele>543</ele>
        <time>2024-03-01T14:45:06.000Z</time>
      </trkpt>
      <trkpt lat="45.3283" lon="5.40207">
        <ele>543.79998779297</ele>
        <time>2024-03-01T14:45:10.000Z</time>
      </trkpt>
      <trkpt lat="45.3283" lon="5.40208">
        <ele>545.20001220703</ele>
        <time>2024-03-01T14:45:14.000Z</time>
      </trkpt>
      <trkpt lat="45.32829" lon="5.40209">
        <ele>545.20001220703</ele>
        <time>2024-03-01T14:45:15.000Z</time>
      </trkpt>
      <trkpt lat="45.32827" lon="5.4021">
        <ele>545.59997558594</ele>
        <time>2024-03-01T14:45:17.000Z</time>
      </trkpt>
      <trkpt lat="45.32826" lon="5.4021">
        <ele>545.79998779297</ele>
        <time>2024-03-01T14:45:18.000Z</time>
      </trkpt>
      <trkpt lat="45.32824" lon="5.40214">
        <ele>547</ele>
        <time>2024-03-01T14:45:22.000Z</time>
      </trkpt>
      <trkpt lat="45.32822" lon="5.40216">
        <ele>547.59997558594</ele>
        <time>2024-03-01T14:45:25.000Z</time>
      </trkpt>
      <trkpt lat="45.32821" lon="5.40218">
        <ele>548</ele>
        <time>2024-03-01T14:45:26.000Z</time>
      </trkpt>
      <trkpt lat="45.32818" lon="5.40221">
        <ele>548.40002441406</ele>
        <time>2024-03-01T14:45:28.000Z</time>
      </trkpt>
      <trkpt lat="45.32816" lon="5.40225">
        <ele>548.59997558594</ele>
        <time>2024-03-01T14:45:30.000Z</time>
      </trkpt>
      <trkpt lat="45.32815" lon="5.40225">
        <ele>548.79998779297</ele>
        <time>2024-03-01T14:45:31.000Z</time>
      </trkpt>
      <trkpt lat="45.32813" lon="5.40227">
        <ele>549.20001220703</ele>
        <time>2024-03-01T14:45:33.000Z</time>
      </trkpt>
      <trkpt lat="45.3281" lon="5.40233">
        <ele>550</ele>
        <time>2024-03-01T14:45:36.000Z</time>
      </trkpt>
      <trkpt lat="45.32808" lon="5.40234">
        <ele>550.79998779297</ele>
        <time>2024-03-01T14:45:38.000Z</time>
      </trkpt>
      <trkpt lat="45.32807" lon="5.40235">
        <ele>551</ele>
        <time>2024-03-01T14:45:39.000Z</time>
      </trkpt>
      <trkpt lat="45.32806" lon="5.40237">
        <ele>551.20001220703</ele>
        <time>2024-03-01T14:45:40.000Z</time>
      </trkpt>
      <trkpt lat="45.32804" lon="5.40238">
        <ele>551.40002441406</ele>
        <time>2024-03-01T14:45:41.000Z</time>
      </trkpt>
      <trkpt lat="45.32803" lon="5.40239">
        <ele>551.79998779297</ele>
        <time>2024-03-01T14:45:42.000Z</time>
      </trkpt>
      <trkpt lat="45.32801" lon="5.4024">
        <ele>552</ele>
        <time>2024-03-01T14:45:43.000Z</time>
      </trkpt>
      <trkpt lat="45.328" lon="5.40242">
        <ele>552</ele>
        <time>2024-03-01T14:45:44.000Z</time>
      </trkpt>
      <trkpt lat="45.32798" lon="5.40243">
        <ele>552.20001220703</ele>
        <time>2024-03-01T14:45:45.000Z</time>
      </trkpt>
      <trkpt lat="45.32794" lon="5.40247">
        <ele>553.20001220703</ele>
        <time>2024-03-01T14:45:50.000Z</time>
      </trkpt>
      <trkpt lat="45.32793" lon="5.40247">
        <ele>553.40002441406</ele>
        <time>2024-03-01T14:45:51.000Z</time>
      </trkpt>
      <trkpt lat="45.32792" lon="5.40248">
        <ele>554</ele>
        <time>2024-03-01T14:45:52.000Z</time>
      </trkpt>
      <trkpt lat="45.32789" lon="5.40248">
        <ele>554.59997558594</ele>
        <time>2024-03-01T14:45:54.000Z</time>
      </trkpt>
      <trkpt lat="45.32787" lon="5.40249">
        <ele>554.79998779297</ele>
        <time>2024-03-01T14:45:55.000Z</time>
      </trkpt>
      <trkpt lat="45.32786" lon="5.40251">
        <ele>555</ele>
        <time>2024-03-01T14:45:56.000Z</time>
      </trkpt>
      <trkpt lat="45.32784" lon="5.40253">
        <ele>555.20001220703</ele>
        <time>2024-03-01T14:45:57.000Z</time>
      </trkpt>
      <trkpt lat="45.32782" lon="5.40254">
        <ele>555.40002441406</ele>
        <time>2024-03-01T14:45:58.000Z</time>
      </trkpt>
      <trkpt lat="45.32781" lon="5.40255">
        <ele>555.40002441406</ele>
        <time>2024-03-01T14:45:59.000Z</time>
      </trkpt>
      <trkpt lat="45.32779" lon="5.40256">
        <ele>555.59997558594</ele>
        <time>2024-03-01T14:46:00.000Z</time>
      </trkpt>
      <trkpt lat="45.32778" lon="5.40256">
        <ele>555.79998779297</ele>
        <time>2024-03-01T14:46:01.000Z</time>
      </trkpt>
      <trkpt lat="45.32776" lon="5.40258">
        <ele>556</ele>
        <time>2024-03-01T14:46:02.000Z</time>
      </trkpt>
      <trkpt lat="45.32774" lon="5.40258">
        <ele>556</ele>
        <time>2024-03-01T14:46:03.000Z</time>
      </trkpt>
      <trkpt lat="45.32773" lon="5.40259">
        <ele>556</ele>
        <time>2024-03-01T14:46:04.000Z</time>
      </trkpt>
      <trkpt lat="45.32768" lon="5.40259">
        <ele>557.40002441406</ele>
        <time>2024-03-01T14:46:11.000Z</time>
      </trkpt>
      <trkpt lat="45.32767" lon="5.4026">
        <ele>557.59997558594</ele>
        <time>2024-03-01T14:46:12.000Z</time>
      </trkpt>
      <trkpt lat="45.32764" lon="5.4026">
        <ele>557.79998779297</ele>
        <time>2024-03-01T14:46:14.000Z</time>
      </trkpt>
      <trkpt lat="45.32762" lon="5.40261">
        <ele>558</ele>
        <time>2024-03-01T14:46:15.000Z</time>
      </trkpt>
      <trkpt lat="45.32761" lon="5.4026">
        <ele>558.20001220703</ele>
        <time>2024-03-01T14:46:16.000Z</time>
      </trkpt>
      <trkpt lat="45.32758" lon="5.4026">
        <ele>558.59997558594</ele>
        <time>2024-03-01T14:46:18.000Z</time>
      </trkpt>
      <trkpt lat="45.32755" lon="5.40259">
        <ele>558.59997558594</ele>
        <time>2024-03-01T14:46:19.000Z</time>
      </trkpt>
      <trkpt lat="45.32752" lon="5.40259">
        <ele>559</ele>
        <time>2024-03-01T14:46:21.000Z</time>
      </trkpt>
      <trkpt lat="45.3275" lon="5.4026">
        <ele>559.20001220703</ele>
        <time>2024-03-01T14:46:22.000Z</time>
      </trkpt>
      <trkpt lat="45.32747" lon="5.4026">
        <ele>559.40002441406</ele>
        <time>2024-03-01T14:46:24.000Z</time>
      </trkpt>
      <trkpt lat="45.32745" lon="5.40262">
        <ele>559.59997558594</ele>
        <time>2024-03-01T14:46:25.000Z</time>
      </trkpt>
      <trkpt lat="45.32743" lon="5.40263">
        <ele>559.59997558594</ele>
        <time>2024-03-01T14:46:26.000Z</time>
      </trkpt>
      <trkpt lat="45.32742" lon="5.40265">
        <ele>559.79998779297</ele>
        <time>2024-03-01T14:46:27.000Z</time>
      </trkpt>
      <trkpt lat="45.32738" lon="5.40267">
        <ele>560.20001220703</ele>
        <time>2024-03-01T14:46:29.000Z</time>
      </trkpt>
      <trkpt lat="45.32737" lon="5.40269">
        <ele>560.40002441406</ele>
        <time>2024-03-01T14:46:30.000Z</time>
      </trkpt>
      <trkpt lat="45.32735" lon="5.4027">
        <ele>560.40002441406</ele>
        <time>2024-03-01T14:46:31.000Z</time>
      </trkpt>
      <trkpt lat="45.32733" lon="5.4027">
        <ele>560.59997558594</ele>
        <time>2024-03-01T14:46:32.000Z</time>
      </trkpt>
      <trkpt lat="45.32732" lon="5.40271">
        <ele>561</ele>
        <time>2024-03-01T14:46:33.000Z</time>
      </trkpt>
      <trkpt lat="45.32731" lon="5.40271">
        <ele>561</ele>
        <time>2024-03-01T14:46:34.000Z</time>
      </trkpt>
      <trkpt lat="45.32731" lon="5.40272">
        <ele>561.40002441406</ele>
        <time>2024-03-01T14:46:35.000Z</time>
      </trkpt>
      <trkpt lat="45.32728" lon="5.40275">
        <ele>561.79998779297</ele>
        <time>2024-03-01T14:46:38.000Z</time>
      </trkpt>
      <trkpt lat="45.32726" lon="5.40276">
        <ele>562</ele>
        <time>2024-03-01T14:46:39.000Z</time>
      </trkpt>
      <trkpt lat="45.32724" lon="5.40278">
        <ele>562.59997558594</ele>
        <time>2024-03-01T14:46:41.000Z</time>
      </trkpt>
      <trkpt lat="45.32722" lon="5.40279">
        <ele>562.79998779297</ele>
        <time>2024-03-01T14:46:42.000Z</time>
      </trkpt>
      <trkpt lat="45.32715" lon="5.40286">
        <ele>563.79998779297</ele>
        <time>2024-03-01T14:46:49.000Z</time>
      </trkpt>
      <trkpt lat="45.32713" lon="5.40287">
        <ele>564</ele>
        <time>2024-03-01T14:46:50.000Z</time>
      </trkpt>
      <trkpt lat="45.32711" lon="5.40289">
        <ele>564.40002441406</ele>
        <time>2024-03-01T14:46:52.000Z</time>
      </trkpt>
      <trkpt lat="45.32709" lon="5.4029">
        <ele>564.59997558594</ele>
        <time>2024-03-01T14:46:53.000Z</time>
      </trkpt>
      <trkpt lat="45.32707" lon="5.40292">
        <ele>565</ele>
        <time>2024-03-01T14:46:55.000Z</time>
      </trkpt>
      <trkpt lat="45.32705" lon="5.40293">
        <ele>565</ele>
        <time>2024-03-01T14:46:56.000Z</time>
      </trkpt>
      <trkpt lat="45.32702" lon="5.40296">
        <ele>565</ele>
        <time>2024-03-01T14:46:57.000Z</time>
      </trkpt>
      <trkpt lat="45.32701" lon="5.40296">
        <ele>565.20001220703</ele>
        <time>2024-03-01T14:46:58.000Z</time>
      </trkpt>
      <trkpt lat="45.327" lon="5.40297">
        <ele>565.20001220703</ele>
        <time>2024-03-01T14:46:59.000Z</time>
      </trkpt>
      <trkpt lat="45.32698" lon="5.40298">
        <ele>565.40002441406</ele>
        <time>2024-03-01T14:47:00.000Z</time>
      </trkpt>
      <trkpt lat="45.32697" lon="5.40299">
        <ele>565.59997558594</ele>
        <time>2024-03-01T14:47:01.000Z</time>
      </trkpt>
      <trkpt lat="45.32695" lon="5.403">
        <ele>565.59997558594</ele>
        <time>2024-03-01T14:47:02.000Z</time>
      </trkpt>
      <trkpt lat="45.32692" lon="5.40303">
        <ele>566</ele>
        <time>2024-03-01T14:47:05.000Z</time>
      </trkpt>
      <trkpt lat="45.3269" lon="5.40304">
        <ele>566</ele>
        <time>2024-03-01T14:47:06.000Z</time>
      </trkpt>
      <trkpt lat="45.32685" lon="5.40309">
        <ele>566.40002441406</ele>
        <time>2024-03-01T14:47:09.000Z</time>
      </trkpt>
      <trkpt lat="45.32684" lon="5.40311">
        <ele>566.59997558594</ele>
        <time>2024-03-01T14:47:10.000Z</time>
      </trkpt>
      <trkpt lat="45.32681" lon="5.40313">
        <ele>566.59997558594</ele>
        <time>2024-03-01T14:47:11.000Z</time>
      </trkpt>
      <trkpt lat="45.3268" lon="5.40315">
        <ele>566.59997558594</ele>
        <time>2024-03-01T14:47:12.000Z</time>
      </trkpt>
      <trkpt lat="45.32679" lon="5.40315">
        <ele>566.79998779297</ele>
        <time>2024-03-01T14:47:13.000Z</time>
      </trkpt>
      <trkpt lat="45.32679" lon="5.40318">
        <ele>567.40002441406</ele>
        <time>2024-03-01T14:47:17.000Z</time>
      </trkpt>
      <trkpt lat="45.3268" lon="5.40319">
        <ele>568.20001220703</ele>
        <time>2024-03-01T14:47:21.000Z</time>
      </trkpt>
      <trkpt lat="45.3268" lon="5.40325">
        <ele>570.79998779297</ele>
        <time>2024-03-01T14:47:29.000Z</time>
      </trkpt>
      <trkpt lat="45.32681" lon="5.40326">
        <ele>571.79998779297</ele>
        <time>2024-03-01T14:47:33.000Z</time>
      </trkpt>
      <trkpt lat="45.32682" lon="5.40328">
        <ele>572.79998779297</ele>
        <time>2024-03-01T14:47:36.000Z</time>
      </trkpt>
      <trkpt lat="45.32683" lon="5.40329">
        <ele>573.40002441406</ele>
        <time>2024-03-01T14:47:38.000Z</time>
      </trkpt>
      <trkpt lat="45.32685" lon="5.4033">
        <ele>573.59997558594</ele>
        <time>2024-03-01T14:47:39.000Z</time>
      </trkpt>
      <trkpt lat="45.32688" lon="5.40333">
        <ele>574.59997558594</ele>
        <time>2024-03-01T14:47:43.000Z</time>
      </trkpt>
      <trkpt lat="45.32688" lon="5.40334">
        <ele>575.20001220703</ele>
        <time>2024-03-01T14:47:45.000Z</time>
      </trkpt>
      <trkpt lat="45.3269" lon="5.40336">
        <ele>576.20001220703</ele>
        <time>2024-03-01T14:47:50.000Z</time>
      </trkpt>
      <trkpt lat="45.32691" lon="5.40336">
        <ele>576.40002441406</ele>
        <time>2024-03-01T14:47:51.000Z</time>
      </trkpt>
      <trkpt lat="45.32691" lon="5.40337">
        <ele>576.59997558594</ele>
        <time>2024-03-01T14:47:52.000Z</time>
      </trkpt>
      <trkpt lat="45.32693" lon="5.40339">
        <ele>576.79998779297</ele>
        <time>2024-03-01T14:47:53.000Z</time>
      </trkpt>
      <trkpt lat="45.32696" lon="5.40345">
        <ele>577.20001220703</ele>
        <time>2024-03-01T14:47:56.000Z</time>
      </trkpt>
      <trkpt lat="45.32696" lon="5.40348">
        <ele>579.59997558594</ele>
        <time>2024-03-01T14:48:08.000Z</time>
      </trkpt>
      <trkpt lat="45.32695" lon="5.40348">
        <ele>580</ele>
        <time>2024-03-01T14:48:10.000Z</time>
      </trkpt>
      <trkpt lat="45.32695" lon="5.4035">
        <ele>580</ele>
        <time>2024-03-01T14:48:11.000Z</time>
      </trkpt>
      <trkpt lat="45.32696" lon="5.40352">
        <ele>580.20001220703</ele>
        <time>2024-03-01T14:48:12.000Z</time>
      </trkpt>
      <trkpt lat="45.32695" lon="5.40353">
        <ele>580.20001220703</ele>
        <time>2024-03-01T14:48:13.000Z</time>
      </trkpt>
      <trkpt lat="45.32695" lon="5.40354">
        <ele>580.59997558594</ele>
        <time>2024-03-01T14:48:14.000Z</time>
      </trkpt>
      <trkpt lat="45.32694" lon="5.40354">
        <ele>581</ele>
        <time>2024-03-01T14:48:15.000Z</time>
      </trkpt>
      <trkpt lat="45.32694" lon="5.40357">
        <ele>581</ele>
        <time>2024-03-01T14:48:16.000Z</time>
      </trkpt>
      <trkpt lat="45.32693" lon="5.40359">
        <ele>581.20001220703</ele>
        <time>2024-03-01T14:48:17.000Z</time>
      </trkpt>
      <trkpt lat="45.32692" lon="5.40359">
        <ele>582</ele>
        <time>2024-03-01T14:48:21.000Z</time>
      </trkpt>
      <trkpt lat="45.32691" lon="5.40361">
        <ele>582.40002441406</ele>
        <time>2024-03-01T14:48:25.000Z</time>
      </trkpt>
      <trkpt lat="45.32691" lon="5.40368">
        <ele>582.59997558594</ele>
        <time>2024-03-01T14:48:28.000Z</time>
      </trkpt>
      <trkpt lat="45.32689" lon="5.40372">
        <ele>583</ele>
        <time>2024-03-01T14:48:30.000Z</time>
      </trkpt>
      <trkpt lat="45.32689" lon="5.40373">
        <ele>583.59997558594</ele>
        <time>2024-03-01T14:48:32.000Z</time>
      </trkpt>
      <trkpt lat="45.32688" lon="5.40376">
        <ele>584.40002441406</ele>
        <time>2024-03-01T14:48:36.000Z</time>
      </trkpt>
      <trkpt lat="45.32686" lon="5.4038">
        <ele>584.79998779297</ele>
        <time>2024-03-01T14:48:38.000Z</time>
      </trkpt>
      <trkpt lat="45.32685" lon="5.40381">
        <ele>585</ele>
        <time>2024-03-01T14:48:40.000Z</time>
      </trkpt>
      <trkpt lat="45.32684" lon="5.40384">
        <ele>585.40002441406</ele>
        <time>2024-03-01T14:48:42.000Z</time>
      </trkpt>
      <trkpt lat="45.32683" lon="5.40386">
        <ele>585.59997558594</ele>
        <time>2024-03-01T14:48:43.000Z</time>
      </trkpt>
      <trkpt lat="45.32682" lon="5.40389">
        <ele>585.79998779297</ele>
        <time>2024-03-01T14:48:44.000Z</time>
      </trkpt>
      <trkpt lat="45.32679" lon="5.40392">
        <ele>586</ele>
        <time>2024-03-01T14:48:45.000Z</time>
      </trkpt>
      <trkpt lat="45.32678" lon="5.40395">
        <ele>586.40002441406</ele>
        <time>2024-03-01T14:48:47.000Z</time>
      </trkpt>
      <trkpt lat="45.32677" lon="5.40397">
        <ele>586.79998779297</ele>
        <time>2024-03-01T14:48:48.000Z</time>
      </trkpt>
      <trkpt lat="45.32677" lon="5.40399">
        <ele>586.79998779297</ele>
        <time>2024-03-01T14:48:49.000Z</time>
      </trkpt>
      <trkpt lat="45.32676" lon="5.40402">
        <ele>587.20001220703</ele>
        <time>2024-03-01T14:48:50.000Z</time>
      </trkpt>
      <trkpt lat="45.32675" lon="5.40404">
        <ele>587.40002441406</ele>
        <time>2024-03-01T14:48:51.000Z</time>
      </trkpt>
      <trkpt lat="45.32675" lon="5.40405">
        <ele>588.20001220703</ele>
        <time>2024-03-01T14:48:53.000Z</time>
      </trkpt>
      <trkpt lat="45.32674" lon="5.40407">
        <ele>588.79998779297</ele>
        <time>2024-03-01T14:48:55.000Z</time>
      </trkpt>
      <trkpt lat="45.32672" lon="5.40413">
        <ele>589.20001220703</ele>
        <time>2024-03-01T14:48:57.000Z</time>
      </trkpt>
      <trkpt lat="45.32671" lon="5.40415">
        <ele>589.20001220703</ele>
        <time>2024-03-01T14:48:58.000Z</time>
      </trkpt>
      <trkpt lat="45.3267" lon="5.40418">
        <ele>589.40002441406</ele>
        <time>2024-03-01T14:48:59.000Z</time>
      </trkpt>
      <trkpt lat="45.32668" lon="5.40421">
        <ele>589.79998779297</ele>
        <time>2024-03-01T14:49:00.000Z</time>
      </trkpt>
      <trkpt lat="45.32667" lon="5.40423">
        <ele>589.79998779297</ele>
        <time>2024-03-01T14:49:01.000Z</time>
      </trkpt>
      <trkpt lat="45.32665" lon="5.40424">
        <ele>590</ele>
        <time>2024-03-01T14:49:02.000Z</time>
      </trkpt>
      <trkpt lat="45.32664" lon="5.40426">
        <ele>590.20001220703</ele>
        <time>2024-03-01T14:49:03.000Z</time>
      </trkpt>
      <trkpt lat="45.32662" lon="5.40429">
        <ele>590.40002441406</ele>
        <time>2024-03-01T14:49:04.000Z</time>
      </trkpt>
      <trkpt lat="45.3266" lon="5.40433">
        <ele>590.40002441406</ele>
        <time>2024-03-01T14:49:05.000Z</time>
      </trkpt>
      <trkpt lat="45.32659" lon="5.40437">
        <ele>590.40002441406</ele>
        <time>2024-03-01T14:49:06.000Z</time>
      </trkpt>
      <trkpt lat="45.32659" lon="5.40442">
        <ele>590.59997558594</ele>
        <time>2024-03-01T14:49:07.000Z</time>
      </trkpt>
      <trkpt lat="45.32658" lon="5.40447">
        <ele>590.59997558594</ele>
        <time>2024-03-01T14:49:08.000Z</time>
      </trkpt>
      <trkpt lat="45.32657" lon="5.4045">
        <ele>590.79998779297</ele>
        <time>2024-03-01T14:49:09.000Z</time>
      </trkpt>
      <trkpt lat="45.32656" lon="5.40452">
        <ele>590.79998779297</ele>
        <time>2024-03-01T14:49:10.000Z</time>
      </trkpt>
      <trkpt lat="45.32654" lon="5.40455">
        <ele>591</ele>
        <time>2024-03-01T14:49:11.000Z</time>
      </trkpt>
      <trkpt lat="45.32653" lon="5.40457">
        <ele>591.79998779297</ele>
        <time>2024-03-01T14:49:12.000Z</time>
      </trkpt>
      <trkpt lat="45.32653" lon="5.4046">
        <ele>593</ele>
        <time>2024-03-01T14:49:16.000Z</time>
      </trkpt>
      <trkpt lat="45.32652" lon="5.40462">
        <ele>593</ele>
        <time>2024-03-01T14:49:17.000Z</time>
      </trkpt>
      <trkpt lat="45.32652" lon="5.40464">
        <ele>593.20001220703</ele>
        <time>2024-03-01T14:49:18.000Z</time>
      </trkpt>
      <trkpt lat="45.32651" lon="5.40466">
        <ele>593.79998779297</ele>
        <time>2024-03-01T14:49:19.000Z</time>
      </trkpt>
      <trkpt lat="45.32651" lon="5.40468">
        <ele>594.20001220703</ele>
        <time>2024-03-01T14:49:20.000Z</time>
      </trkpt>
      <trkpt lat="45.32649" lon="5.4047">
        <ele>594.40002441406</ele>
        <time>2024-03-01T14:49:21.000Z</time>
      </trkpt>
      <trkpt lat="45.32649" lon="5.40471">
        <ele>594.59997558594</ele>
        <time>2024-03-01T14:49:22.000Z</time>
      </trkpt>
      <trkpt lat="45.32647" lon="5.40475">
        <ele>595.40002441406</ele>
        <time>2024-03-01T14:49:24.000Z</time>
      </trkpt>
      <trkpt lat="45.32646" lon="5.40478">
        <ele>595.79998779297</ele>
        <time>2024-03-01T14:49:26.000Z</time>
      </trkpt>
      <trkpt lat="45.32646" lon="5.4048">
        <ele>595.79998779297</ele>
        <time>2024-03-01T14:49:27.000Z</time>
      </trkpt>
      <trkpt lat="45.32645" lon="5.40482">
        <ele>596</ele>
        <time>2024-03-01T14:49:28.000Z</time>
      </trkpt>
      <trkpt lat="45.32644" lon="5.40485">
        <ele>596</ele>
        <time>2024-03-01T14:49:29.000Z</time>
      </trkpt>
      <trkpt lat="45.32644" lon="5.40487">
        <ele>596.40002441406</ele>
        <time>2024-03-01T14:49:30.000Z</time>
      </trkpt>
      <trkpt lat="45.32643" lon="5.4049">
        <ele>596.59997558594</ele>
        <time>2024-03-01T14:49:31.000Z</time>
      </trkpt>
      <trkpt lat="45.32644" lon="5.40493">
        <ele>596.79998779297</ele>
        <time>2024-03-01T14:49:32.000Z</time>
      </trkpt>
      <trkpt lat="45.32644" lon="5.40496">
        <ele>597</ele>
        <time>2024-03-01T14:49:33.000Z</time>
      </trkpt>
      <trkpt lat="45.32643" lon="5.40497">
        <ele>597</ele>
        <time>2024-03-01T14:49:34.000Z</time>
      </trkpt>
      <trkpt lat="45.32643" lon="5.40503">
        <ele>598.40002441406</ele>
        <time>2024-03-01T14:49:38.000Z</time>
      </trkpt>
      <trkpt lat="45.32642" lon="5.40505">
        <ele>598.79998779297</ele>
        <time>2024-03-01T14:49:39.000Z</time>
      </trkpt>
      <trkpt lat="45.32642" lon="5.40509">
        <ele>599.40002441406</ele>
        <time>2024-03-01T14:49:42.000Z</time>
      </trkpt>
      <trkpt lat="45.32641" lon="5.40511">
        <ele>599.59997558594</ele>
        <time>2024-03-01T14:49:43.000Z</time>
      </trkpt>
      <trkpt lat="45.3264" lon="5.40515">
        <ele>599.79998779297</ele>
        <time>2024-03-01T14:49:44.000Z</time>
      </trkpt>
      <trkpt lat="45.3264" lon="5.40519">
        <ele>600.40002441406</ele>
        <time>2024-03-01T14:49:46.000Z</time>
      </trkpt>
      <trkpt lat="45.32639" lon="5.40521">
        <ele>600.79998779297</ele>
        <time>2024-03-01T14:49:47.000Z</time>
      </trkpt>
      <trkpt lat="45.32639" lon="5.40523">
        <ele>600.79998779297</ele>
        <time>2024-03-01T14:49:48.000Z</time>
      </trkpt>
      <trkpt lat="45.32638" lon="5.40525">
        <ele>601.20001220703</ele>
        <time>2024-03-01T14:49:49.000Z</time>
      </trkpt>
      <trkpt lat="45.32638" lon="5.40526">
        <ele>601.59997558594</ele>
        <time>2024-03-01T14:49:50.000Z</time>
      </trkpt>
      <trkpt lat="45.32637" lon="5.40528">
        <ele>601.79998779297</ele>
        <time>2024-03-01T14:49:51.000Z</time>
      </trkpt>
      <trkpt lat="45.32637" lon="5.40531">
        <ele>602</ele>
        <time>2024-03-01T14:49:52.000Z</time>
      </trkpt>
      <trkpt lat="45.32636" lon="5.40533">
        <ele>602.20001220703</ele>
        <time>2024-03-01T14:49:53.000Z</time>
      </trkpt>
      <trkpt lat="45.32636" lon="5.40536">
        <ele>602.40002441406</ele>
        <time>2024-03-01T14:49:54.000Z</time>
      </trkpt>
      <trkpt lat="45.32634" lon="5.40539">
        <ele>602.40002441406</ele>
        <time>2024-03-01T14:49:55.000Z</time>
      </trkpt>
      <trkpt lat="45.32633" lon="5.40542">
        <ele>602.59997558594</ele>
        <time>2024-03-01T14:49:56.000Z</time>
      </trkpt>
      <trkpt lat="45.32635" lon="5.40548">
        <ele>602.79998779297</ele>
        <time>2024-03-01T14:49:58.000Z</time>
      </trkpt>
      <trkpt lat="45.32635" lon="5.40549">
        <ele>603</ele>
        <time>2024-03-01T14:49:59.000Z</time>
      </trkpt>
      <trkpt lat="45.32634" lon="5.40552">
        <ele>603</ele>
        <time>2024-03-01T14:50:00.000Z</time>
      </trkpt>
      <trkpt lat="45.32635" lon="5.40554">
        <ele>603.20001220703</ele>
        <time>2024-03-01T14:50:01.000Z</time>
      </trkpt>
      <trkpt lat="45.32636" lon="5.40555">
        <ele>603.20001220703</ele>
        <time>2024-03-01T14:50:02.000Z</time>
      </trkpt>
      <trkpt lat="45.32636" lon="5.40557">
        <ele>603.59997558594</ele>
        <time>2024-03-01T14:50:03.000Z</time>
      </trkpt>
      <trkpt lat="45.32637" lon="5.40559">
        <ele>603.79998779297</ele>
        <time>2024-03-01T14:50:04.000Z</time>
      </trkpt>
      <trkpt lat="45.32637" lon="5.4056">
        <ele>603.79998779297</ele>
        <time>2024-03-01T14:50:05.000Z</time>
      </trkpt>
      <trkpt lat="45.32638" lon="5.40561">
        <ele>604.20001220703</ele>
        <time>2024-03-01T14:50:07.000Z</time>
      </trkpt>
      <trkpt lat="45.32638" lon="5.40562">
        <ele>604.40002441406</ele>
        <time>2024-03-01T14:50:08.000Z</time>
      </trkpt>
      <trkpt lat="45.32639" lon="5.40563">
        <ele>604.79998779297</ele>
        <time>2024-03-01T14:50:10.000Z</time>
      </trkpt>
      <trkpt lat="45.32639" lon="5.40564">
        <ele>605</ele>
        <time>2024-03-01T14:50:11.000Z</time>
      </trkpt>
      <trkpt lat="45.3264" lon="5.40566">
        <ele>605.20001220703</ele>
        <time>2024-03-01T14:50:12.000Z</time>
      </trkpt>
      <trkpt lat="45.3264" lon="5.40567">
        <ele>605.40002441406</ele>
        <time>2024-03-01T14:50:14.000Z</time>
      </trkpt>
      <trkpt lat="45.32641" lon="5.40567">
        <ele>605.59997558594</ele>
        <time>2024-03-01T14:50:15.000Z</time>
      </trkpt>
      <trkpt lat="45.32641" lon="5.40568">
        <ele>605.79998779297</ele>
        <time>2024-03-01T14:50:16.000Z</time>
      </trkpt>
      <trkpt lat="45.32642" lon="5.40568">
        <ele>606</ele>
        <time>2024-03-01T14:50:59.000Z</time>
      </trkpt>
      <trkpt lat="45.32643" lon="5.40569">
        <ele>606</ele>
        <time>2024-03-01T14:51:00.000Z</time>
      </trkpt>
      <trkpt lat="45.32644" lon="5.40569">
        <ele>606</ele>
        <time>2024-03-01T14:51:01.000Z</time>
      </trkpt>
      <trkpt lat="45.32645" lon="5.4057">
        <ele>606</ele>
        <time>2024-03-01T14:51:02.000Z</time>
      </trkpt>
      <trkpt lat="45.32647" lon="5.4057">
        <ele>606</ele>
        <time>2024-03-01T14:51:03.000Z</time>
      </trkpt>
      <trkpt lat="45.32648" lon="5.40571">
        <ele>606</ele>
        <time>2024-03-01T14:51:04.000Z</time>
      </trkpt>
      <trkpt lat="45.32649" lon="5.40577">
        <ele>608</ele>
        <time>2024-03-01T14:51:05.000Z</time>
      </trkpt>
      <trkpt lat="45.32652" lon="5.40575">
        <ele>606</ele>
        <time>2024-03-01T14:51:06.000Z</time>
      </trkpt>
      <trkpt lat="45.32651" lon="5.40579">
        <ele>608.2</ele>
        <time>2024-03-01T14:51:07.000Z</time>
      </trkpt>
      <trkpt lat="45.32655" lon="5.40583">
        <ele>608.4</ele>
        <time>2024-03-01T14:51:08.000Z</time>
      </trkpt>
      <trkpt lat="45.32662" lon="5.40586">
        <ele>608.3</ele>
        <time>2024-03-01T14:51:09.000Z</time>
      </trkpt>
      <trkpt lat="45.32673" lon="5.40572">
        <ele>606.1</ele>
        <time>2024-03-01T14:51:12.000Z</time>
      </trkpt>
      <trkpt lat="45.32684" lon="5.4056">
        <ele>603.2</ele>
        <time>2024-03-01T14:51:15.000Z</time>
      </trkpt>
      <trkpt lat="45.32689" lon="5.40563">
        <ele>602.5</ele>
        <time>2024-03-01T14:51:17.000Z</time>
      </trkpt>
      <trkpt lat="45.32696" lon="5.40565">
        <ele>601.3</ele>
        <time>2024-03-01T14:51:19.000Z</time>
      </trkpt>
      <trkpt lat="45.32704" lon="5.40567">
        <ele>599.7</ele>
        <time>2024-03-01T14:51:22.000Z</time>
      </trkpt>
      <trkpt lat="45.32709" lon="5.40571">
        <ele>598.7</ele>
      </trkpt>
      <trkpt lat="45.32712" lon="5.40573">
        <ele>598.1</ele>
        <time>2024-03-01T14:51:23.000Z</time>
      </trkpt>
      <trkpt lat="45.32719" lon="5.40585">
        <ele>596.8</ele>
        <time>2024-03-01T14:51:24.000Z</time>
      </trkpt>
      <trkpt lat="45.32733" lon="5.40605">
        <ele>593.7</ele>
        <time>2024-03-01T14:51:25.000Z</time>
      </trkpt>
      <trkpt lat="45.32737" lon="5.40596">
        <ele>592.3</ele>
      </trkpt>
      <trkpt lat="45.3274" lon="5.4059">
        <ele>591.3</ele>
        <time>2024-03-01T14:51:28.000Z</time>
      </trkpt>
      <trkpt lat="45.32743" lon="5.40587">
        <ele>590.1</ele>
        <time>2024-03-01T14:51:30.000Z</time>
      </trkpt>
      <trkpt lat="45.32745" lon="5.40586">
        <ele>589.6</ele>
      </trkpt>
      <trkpt lat="45.32749" lon="5.40586">
        <ele>588.5</ele>
        <time>2024-03-01T14:51:34.000Z</time>
      </trkpt>
      <trkpt lat="45.32752" lon="5.40587">
        <ele>587.5</ele>
        <time>2024-03-01T14:51:35.000Z</time>
      </trkpt>
      <trkpt lat="45.32758" lon="5.40588">
        <ele>585.40002441406</ele>
        <time>2024-03-01T14:51:36.000Z</time>
      </trkpt>
      <trkpt lat="45.32762" lon="5.4059">
        <ele>585.4</ele>
        <time>2024-03-01T14:51:38.000Z</time>
      </trkpt>
      <trkpt lat="45.32767" lon="5.406">
        <ele>584.6</ele>
        <time>2024-03-01T14:51:40.000Z</time>
      </trkpt>
      <trkpt lat="45.32772" lon="5.40605">
        <ele>584</ele>
        <time>2024-03-01T14:51:41.000Z</time>
      </trkpt>
      <trkpt lat="45.32776" lon="5.40605">
        <ele>582.9</ele>
        <time>2024-03-01T14:51:42.000Z</time>
      </trkpt>
      <trkpt lat="45.32782" lon="5.40597">
        <ele>581.2</ele>
        <time>2024-03-01T14:51:45.000Z</time>
      </trkpt>
      <trkpt lat="45.32788" lon="5.40595">
        <ele>579.9</ele>
        <time>2024-03-01T14:51:47.000Z</time>
      </trkpt>
      <trkpt lat="45.32793" lon="5.40594">
        <ele>578.9</ele>
        <time>2024-03-01T14:51:48.000Z</time>
      </trkpt>
      <trkpt lat="45.32797" lon="5.40595">
        <ele>578.2</ele>
        <time>2024-03-01T14:51:49.000Z</time>
      </trkpt>
      <trkpt lat="45.32802" lon="5.406">
        <ele>577.4</ele>
        <time>2024-03-01T14:51:50.000Z</time>
      </trkpt>
      <trkpt lat="45.32806" lon="5.40602">
        <ele>573.59997558594</ele>
        <time>2024-03-01T14:51:51.000Z</time>
      </trkpt>
      <trkpt lat="45.32808" lon="5.406">
        <ele>573.40002441406</ele>
        <time>2024-03-01T14:51:52.000Z</time>
      </trkpt>
      <trkpt lat="45.32811" lon="5.40599">
        <ele>572.79998779297</ele>
        <time>2024-03-01T14:51:53.000Z</time>
      </trkpt>
      <trkpt lat="45.32816" lon="5.40599">
        <ele>574.3</ele>
        <time>2024-03-01T14:51:54.000Z</time>
      </trkpt>
      <trkpt lat="45.32822" lon="5.40598">
        <ele>573</ele>
        <time>2024-03-01T14:51:56.000Z</time>
      </trkpt>
      <trkpt lat="45.32825" lon="5.40594">
        <ele>572.2</ele>
        <time>2024-03-01T14:51:59.000Z</time>
      </trkpt>
      <trkpt lat="45.32829" lon="5.4059">
        <ele>571.1</ele>
        <time>2024-03-01T14:52:00.000Z</time>
      </trkpt>
      <trkpt lat="45.32834" lon="5.40581">
        <ele>569.8</ele>
        <time>2024-03-01T14:52:01.000Z</time>
      </trkpt>
      <trkpt lat="45.32839" lon="5.40573">
        <ele>568.4</ele>
        <time>2024-03-01T14:52:02.000Z</time>
      </trkpt>
      <trkpt lat="45.32844" lon="5.40575">
        <ele>567.4</ele>
        <time>2024-03-01T14:52:03.000Z</time>
      </trkpt>
      <trkpt lat="45.32849" lon="5.40587">
        <ele>566.6</ele>
        <time>2024-03-01T14:52:04.000Z</time>
      </trkpt>
      <trkpt lat="45.32857" lon="5.40599">
        <ele>565.5</ele>
        <time>2024-03-01T14:52:22.000Z</time>
      </trkpt>
      <trkpt lat="45.32862" lon="5.40597">
        <ele>564.4</ele>
        <time>2024-03-01T14:52:23.000Z</time>
      </trkpt>
      <trkpt lat="45.32864" lon="5.40589">
        <ele>563.5</ele>
        <time>2024-03-01T14:52:24.000Z</time>
      </trkpt>
      <trkpt lat="45.32866" lon="5.40585">
        <ele>559.79998779297</ele>
        <time>2024-03-01T14:52:28.000Z</time>
      </trkpt>
      <trkpt lat="45.32868" lon="5.40583">
        <ele>562.1</ele>
        <time>2024-03-01T14:52:29.000Z</time>
      </trkpt>
      <trkpt lat="45.32874" lon="5.40586">
        <ele>560.9</ele>
        <time>2024-03-01T14:52:30.000Z</time>
      </trkpt>
      <trkpt lat="45.32878" lon="5.40585">
        <ele>559.7</ele>
        <time>2024-03-01T14:52:31.000Z</time>
      </trkpt>
      <trkpt lat="45.32887" lon="5.4058">
        <ele>557.3</ele>
        <time>2024-03-01T14:52:32.000Z</time>
      </trkpt>
      <trkpt lat="45.32895" lon="5.40573">
        <ele>555</ele>
        <time>2024-03-01T14:52:34.000Z</time>
      </trkpt>
      <trkpt lat="45.32897" lon="5.40566">
        <ele>553.9</ele>
      </trkpt>
      <trkpt lat="45.329" lon="5.40558">
        <ele>552.7</ele>
        <time>2024-03-01T14:52:41.000Z</time>
      </trkpt>
      <trkpt lat="45.32902" lon="5.40554">
        <ele>551.7</ele>
        <time>2024-03-01T14:52:43.000Z</time>
      </trkpt>
      <trkpt lat="45.32905" lon="5.40552">
        <ele>550.8</ele>
        <time>2024-03-01T14:52:44.000Z</time>
      </trkpt>
      <trkpt lat="45.32909" lon="5.40552">
        <ele>549.2</ele>
        <time>2024-03-01T14:52:45.000Z</time>
      </trkpt>
      <trkpt lat="45.32915" lon="5.40549">
        <ele>547.5</ele>
        <time>2024-03-01T14:52:47.000Z</time>
      </trkpt>
      <trkpt lat="45.32918" lon="5.40549">
        <ele>546.4</ele>
      </trkpt>
      <trkpt lat="45.3292" lon="5.40544">
        <ele>545.8</ele>
      </trkpt>
      <trkpt lat="45.32922" lon="5.40537">
        <ele>544.8</ele>
        <time>2024-03-01T14:52:48.000Z</time>
      </trkpt>
      <trkpt lat="45.32927" lon="5.4053">
        <ele>543.1</ele>
        <time>2024-03-01T14:52:49.000Z</time>
      </trkpt>
      <trkpt lat="45.32934" lon="5.4054">
        <ele>539.79998779297</ele>
        <time>2024-03-01T14:52:50.000Z</time>
      </trkpt>
      <trkpt lat="45.32942" lon="5.40538">
        <ele>539</ele>
        <time>2024-03-01T14:52:51.000Z</time>
      </trkpt>
      <trkpt lat="45.3295" lon="5.40535">
        <ele>538</ele>
        <time>2024-03-01T14:52:52.000Z</time>
      </trkpt>
      <trkpt lat="45.32956" lon="5.40532">
        <ele>537.20001220703</ele>
        <time>2024-03-01T14:52:53.000Z</time>
      </trkpt>
      <trkpt lat="45.32961" lon="5.40527">
        <ele>534.20001220703</ele>
        <time>2024-03-01T14:52:55.000Z</time>
      </trkpt>
      <trkpt lat="45.3297" lon="5.40524">
        <ele>530</ele>
        <time>2024-03-01T14:52:58.000Z</time>
      </trkpt>
      <trkpt lat="45.32974" lon="5.40522">
        <ele>528.20001220703</ele>
        <time>2024-03-01T14:52:59.000Z</time>
      </trkpt>
      <trkpt lat="45.32979" lon="5.40519">
        <ele>527.59997558594</ele>
        <time>2024-03-01T14:53:00.000Z</time>
      </trkpt>
      <trkpt lat="45.32985" lon="5.40512">
        <ele>526.59997558594</ele>
        <time>2024-03-01T14:53:01.000Z</time>
      </trkpt>
      <trkpt lat="45.32989" lon="5.40504">
        <ele>524.79998779297</ele>
        <time>2024-03-01T14:53:02.000Z</time>
      </trkpt>
      <trkpt lat="45.32994" lon="5.40498">
        <ele>524.20001220703</ele>
        <time>2024-03-01T14:53:03.000Z</time>
      </trkpt>
      <trkpt lat="45.32999" lon="5.4049">
        <ele>523.59997558594</ele>
        <time>2024-03-01T14:53:04.000Z</time>
      </trkpt>
      <trkpt lat="45.33004" lon="5.40484">
        <ele>523.40002441406</ele>
        <time>2024-03-01T14:53:05.000Z</time>
      </trkpt>
      <trkpt lat="45.33007" lon="5.4048">
        <ele>523</ele>
        <time>2024-03-01T14:53:06.000Z</time>
      </trkpt>
      <trkpt lat="45.33009" lon="5.4048">
        <ele>522.79998779297</ele>
        <time>2024-03-01T14:53:07.000Z</time>
      </trkpt>
      <trkpt lat="45.33012" lon="5.40482">
        <ele>521.20001220703</ele>
        <time>2024-03-01T14:53:08.000Z</time>
      </trkpt>
      <trkpt lat="45.33016" lon="5.40481">
        <ele>519</ele>
        <time>2024-03-01T14:53:09.000Z</time>
      </trkpt>
      <trkpt lat="45.3302" lon="5.40477">
        <ele>518</ele>
        <time>2024-03-01T14:53:10.000Z</time>
      </trkpt>
      <trkpt lat="45.33023" lon="5.4047">
        <ele>516.40002441406</ele>
        <time>2024-03-01T14:53:11.000Z</time>
      </trkpt>
      <trkpt lat="45.33029" lon="5.40461">
        <ele>514.79998779297</ele>
        <time>2024-03-01T14:53:13.000Z</time>
      </trkpt>
      <trkpt lat="45.33033" lon="5.4046">
        <ele>514.40002441406</ele>
        <time>2024-03-01T14:53:14.000Z</time>
      </trkpt>
      <trkpt lat="45.33037" lon="5.4046">
        <ele>513.20001220703</ele>
        <time>2024-03-01T14:53:15.000Z</time>
      </trkpt>
      <trkpt lat="45.3304" lon="5.40462">
        <ele>511.39999389648</ele>
        <time>2024-03-01T14:53:16.000Z</time>
      </trkpt>
      <trkpt lat="45.33044" lon="5.40466">
        <ele>510.60000610352</ele>
        <time>2024-03-01T14:53:17.000Z</time>
      </trkpt>
      <trkpt lat="45.33047" lon="5.40468">
        <ele>509.60000610352</ele>
        <time>2024-03-01T14:53:18.000Z</time>
      </trkpt>
      <trkpt lat="45.3305" lon="5.40469">
        <ele>509</ele>
        <time>2024-03-01T14:53:19.000Z</time>
      </trkpt>
      <trkpt lat="45.33053" lon="5.40468">
        <ele>507</ele>
        <time>2024-03-01T14:53:20.000Z</time>
      </trkpt>
      <trkpt lat="45.33055" lon="5.40468">
        <ele>505.79998779297</ele>
        <time>2024-03-01T14:53:21.000Z</time>
      </trkpt>
      <trkpt lat="45.33057" lon="5.4047">
        <ele>505.39999389648</ele>
        <time>2024-03-01T14:53:22.000Z</time>
      </trkpt>
      <trkpt lat="45.33062" lon="5.40469">
        <ele>504</ele>
        <time>2024-03-01T14:53:23.000Z</time>
      </trkpt>
      <trkpt lat="45.33065" lon="5.40465">
        <ele>503.20001220703</ele>
        <time>2024-03-01T14:53:24.000Z</time>
      </trkpt>
      <trkpt lat="45.33066" lon="5.40461">
        <ele>502</ele>
        <time>2024-03-01T14:53:25.000Z</time>
      </trkpt>
      <trkpt lat="45.33068" lon="5.40454">
        <ele>501.60000610352</ele>
        <time>2024-03-01T14:53:26.000Z</time>
      </trkpt>
      <trkpt lat="45.33069" lon="5.40447">
        <ele>499.60000610352</ele>
        <time>2024-03-01T14:53:27.000Z</time>
      </trkpt>
      <trkpt lat="45.3307" lon="5.40439">
        <ele>498.39999389648</ele>
        <time>2024-03-01T14:53:28.000Z</time>
      </trkpt>
      <trkpt lat="45.33071" lon="5.4043">
        <ele>498</ele>
        <time>2024-03-01T14:53:29.000Z</time>
      </trkpt>
      <trkpt lat="45.33073" lon="5.4042">
        <ele>497.39999389648</ele>
        <time>2024-03-01T14:53:30.000Z</time>
      </trkpt>
      <trkpt lat="45.33076" lon="5.40411">
        <ele>497.20001220703</ele>
        <time>2024-03-01T14:53:31.000Z</time>
      </trkpt>
      <trkpt lat="45.33077" lon="5.40401">
        <ele>497</ele>
        <time>2024-03-01T14:53:32.000Z</time>
      </trkpt>
      <trkpt lat="45.33079" lon="5.40392">
        <ele>497</ele>
        <time>2024-03-01T14:53:33.000Z</time>
      </trkpt>
      <trkpt lat="45.3308" lon="5.40383">
        <ele>496.79998779297</ele>
        <time>2024-03-01T14:53:34.000Z</time>
      </trkpt>
      <trkpt lat="45.33082" lon="5.40374">
        <ele>496.39999389648</ele>
        <time>2024-03-01T14:53:35.000Z</time>
      </trkpt>
      <trkpt lat="45.33085" lon="5.40364">
        <ele>496.39999389648</ele>
        <time>2024-03-01T14:53:36.000Z</time>
      </trkpt>
      <trkpt lat="45.33087" lon="5.40354">
        <ele>496</ele>
        <time>2024-03-01T14:53:37.000Z</time>
      </trkpt>
      <trkpt lat="45.3309" lon="5.40344">
        <ele>496</ele>
        <time>2024-03-01T14:53:38.000Z</time>
      </trkpt>
      <trkpt lat="45.33091" lon="5.40333">
        <ele>495.60000610352</ele>
        <time>2024-03-01T14:53:39.000Z</time>
      </trkpt>
      <trkpt lat="45.33092" lon="5.40321">
        <ele>494.79998779297</ele>
        <time>2024-03-01T14:53:40.000Z</time>
      </trkpt>
      <trkpt lat="45.33094" lon="5.40307">
        <ele>494.39999389648</ele>
        <time>2024-03-01T14:53:41.000Z</time>
      </trkpt>
      <trkpt lat="45.33094" lon="5.40293">
        <ele>493.79998779297</ele>
        <time>2024-03-01T14:53:42.000Z</time>
      </trkpt>
      <trkpt lat="45.33093" lon="5.40278">
        <ele>493.79998779297</ele>
        <time>2024-03-01T14:53:43.000Z</time>
      </trkpt>
      <trkpt lat="45.33091" lon="5.40262">
        <ele>493</ele>
        <time>2024-03-01T14:53:44.000Z</time>
      </trkpt>
      <trkpt lat="45.33087" lon="5.40247">
        <ele>492.20001220703</ele>
        <time>2024-03-01T14:53:45.000Z</time>
      </trkpt>
      <trkpt lat="45.33084" lon="5.40234">
        <ele>490.79998779297</ele>
        <time>2024-03-01T14:53:46.000Z</time>
      </trkpt>
      <trkpt lat="45.33081" lon="5.40222">
        <ele>490</ele>
        <time>2024-03-01T14:53:47.000Z</time>
      </trkpt>
      <trkpt lat="45.3308" lon="5.40212">
        <ele>489.20001220703</ele>
        <time>2024-03-01T14:53:48.000Z</time>
      </trkpt>
      <trkpt lat="45.33079" lon="5.40207">
        <ele>487.79998779297</ele>
        <time>2024-03-01T14:53:49.000Z</time>
      </trkpt>
      <trkpt lat="45.33081" lon="5.40202">
        <ele>487</ele>
        <time>2024-03-01T14:53:50.000Z</time>
      </trkpt>
      <trkpt lat="45.33083" lon="5.40198">
        <ele>485.79998779297</ele>
        <time>2024-03-01T14:53:51.000Z</time>
      </trkpt>
      <trkpt lat="45.33087" lon="5.40195">
        <ele>485.39999389648</ele>
        <time>2024-03-01T14:53:52.000Z</time>
      </trkpt>
      <trkpt lat="45.3309" lon="5.40191">
        <ele>485</ele>
        <time>2024-03-01T14:53:53.000Z</time>
      </trkpt>
      <trkpt lat="45.33094" lon="5.40185">
        <ele>484.60000610352</ele>
        <time>2024-03-01T14:53:54.000Z</time>
      </trkpt>
      <trkpt lat="45.33097" lon="5.4018">
        <ele>484.39999389648</ele>
        <time>2024-03-01T14:53:55.000Z</time>
      </trkpt>
      <trkpt lat="45.331" lon="5.40176">
        <ele>483.79998779297</ele>
        <time>2024-03-01T14:53:56.000Z</time>
      </trkpt>
      <trkpt lat="45.33102" lon="5.40172">
        <ele>483.60000610352</ele>
        <time>2024-03-01T14:53:57.000Z</time>
      </trkpt>
      <trkpt lat="45.33101" lon="5.40169">
        <ele>482.39999389648</ele>
        <time>2024-03-01T14:53:58.000Z</time>
      </trkpt>
      <trkpt lat="45.33099" lon="5.40167">
        <ele>481.60000610352</ele>
        <time>2024-03-01T14:53:59.000Z</time>
      </trkpt>
      <trkpt lat="45.33095" lon="5.40165">
        <ele>479.79998779297</ele>
        <time>2024-03-01T14:54:01.000Z</time>
      </trkpt>
      <trkpt lat="45.33094" lon="5.40163">
        <ele>479.60000610352</ele>
        <time>2024-03-01T14:54:02.000Z</time>
      </trkpt>
      <trkpt lat="45.33092" lon="5.4016">
        <ele>479.39999389648</ele>
        <time>2024-03-01T14:54:03.000Z</time>
      </trkpt>
      <trkpt lat="45.33089" lon="5.40155">
        <ele>479.20001220703</ele>
        <time>2024-03-01T14:54:04.000Z</time>
      </trkpt>
      <trkpt lat="45.33087" lon="5.40152">
        <ele>479.20001220703</ele>
        <time>2024-03-01T14:54:05.000Z</time>
      </trkpt>
      <trkpt lat="45.33086" lon="5.40149">
        <ele>479</ele>
        <time>2024-03-01T14:54:06.000Z</time>
      </trkpt>
      <trkpt lat="45.33086" lon="5.40143">
        <ele>479</ele>
        <time>2024-03-01T14:54:08.000Z</time>
      </trkpt>
      <trkpt lat="45.33085" lon="5.40137">
        <ele>479</ele>
        <time>2024-03-01T14:54:09.000Z</time>
      </trkpt>
      <trkpt lat="45.33085" lon="5.40127">
        <ele>478.79998779297</ele>
        <time>2024-03-01T14:54:11.000Z</time>
      </trkpt>
      <trkpt lat="45.33086" lon="5.40124">
        <ele>478.60000610352</ele>
        <time>2024-03-01T14:54:12.000Z</time>
      </trkpt>
      <trkpt lat="45.33088" lon="5.40119">
        <ele>478.39999389648</ele>
        <time>2024-03-01T14:54:13.000Z</time>
      </trkpt>
      <trkpt lat="45.33091" lon="5.40115">
        <ele>478.20001220703</ele>
        <time>2024-03-01T14:54:14.000Z</time>
      </trkpt>
      <trkpt lat="45.33094" lon="5.40109">
        <ele>478</ele>
        <time>2024-03-01T14:54:15.000Z</time>
      </trkpt>
      <trkpt lat="45.33097" lon="5.40102">
        <ele>478</ele>
        <time>2024-03-01T14:54:16.000Z</time>
      </trkpt>
      <trkpt lat="45.33099" lon="5.40095">
        <ele>477.79998779297</ele>
        <time>2024-03-01T14:54:17.000Z</time>
      </trkpt>
      <trkpt lat="45.33101" lon="5.40079">
        <ele>477.60000610352</ele>
        <time>2024-03-01T14:54:19.000Z</time>
      </trkpt>
      <trkpt lat="45.33103" lon="5.40071">
        <ele>477.39999389648</ele>
        <time>2024-03-01T14:54:20.000Z</time>
      </trkpt>
      <trkpt lat="45.33104" lon="5.40064">
        <ele>477.20001220703</ele>
        <time>2024-03-01T14:54:21.000Z</time>
      </trkpt>
      <trkpt lat="45.33107" lon="5.40058">
        <ele>476.79998779297</ele>
        <time>2024-03-01T14:54:22.000Z</time>
      </trkpt>
      <trkpt lat="45.33111" lon="5.40051">
        <ele>476.60000610352</ele>
        <time>2024-03-01T14:54:23.000Z</time>
      </trkpt>
      <trkpt lat="45.33116" lon="5.40046">
        <ele>476</ele>
        <time>2024-03-01T14:54:24.000Z</time>
      </trkpt>
      <trkpt lat="45.33121" lon="5.40044">
        <ele>476.9</ele>
        <time>2024-03-01T14:54:25.000Z</time>
      </trkpt>
      <trkpt lat="45.33131" lon="5.40043">
        <ele>476.2</ele>
      </trkpt>
      <trkpt lat="45.33138" lon="5.40046">
        <ele>476</ele>
        <time>2024-03-01T14:54:28.000Z</time>
      </trkpt>
      <trkpt lat="45.33149" lon="5.40053">
        <ele>476</ele>
        <time>2024-03-01T14:54:29.000Z</time>
      </trkpt>
      <trkpt lat="45.33156" lon="5.40055">
        <ele>475.7</ele>
        <time>2024-03-01T14:54:32.000Z</time>
      </trkpt>
      <trkpt lat="45.33162" lon="5.40056">
        <ele>475.3</ele>
      </trkpt>
      <trkpt lat="45.33165" lon="5.40053">
        <ele>474.9</ele>
      </trkpt>
      <trkpt lat="45.33167" lon="5.40049">
        <ele>474.5</ele>
      </trkpt>
      <trkpt lat="45.3317" lon="5.40038">
        <ele>473.5</ele>
        <time>2024-03-01T14:55:35.000Z</time>
      </trkpt>
      <trkpt lat="45.33173" lon="5.40039">
        <ele>473.4</ele>
        <time>2024-03-01T14:55:36.000Z</time>
      </trkpt>
      <trkpt lat="45.33176" lon="5.40041">
        <ele>468.60000610352</ele>
        <time>2024-03-01T14:55:37.000Z</time>
      </trkpt>
      <trkpt lat="45.33182" lon="5.40047">
        <ele>468.60000610352</ele>
        <time>2024-03-01T14:55:39.000Z</time>
      </trkpt>
      <trkpt lat="45.33185" lon="5.40052">
        <ele>468.60000610352</ele>
        <time>2024-03-01T14:55:40.000Z</time>
      </trkpt>
      <trkpt lat="45.3319" lon="5.40057">
        <ele>473.4</ele>
      </trkpt>
      <trkpt lat="45.33193" lon="5.40057">
        <ele>473.2</ele>
      </trkpt>
      <trkpt lat="45.33196" lon="5.40053">
        <ele>466.60000610352</ele>
        <time>2024-03-01T14:57:42.000Z</time>
      </trkpt>
      <trkpt lat="45.33198" lon="5.40051">
        <ele>472.1</ele>
        <time>2024-03-01T14:57:43.000Z</time>
      </trkpt>
      <trkpt lat="45.33203" lon="5.40042">
        <ele>471</ele>
      </trkpt>
      <trkpt lat="45.33204" lon="5.40037">
        <ele>470.6</ele>
      </trkpt>
      <trkpt lat="45.33205" lon="5.40033">
        <ele>470.1</ele>
      </trkpt>
      <trkpt lat="45.33207" lon="5.40029">
        <ele>469.7</ele>
      </trkpt>
      <trkpt lat="45.33209" lon="5.40027">
        <ele>469.4</ele>
        <time>2024-03-01T14:59:15.000Z</time>
      </trkpt>
      <trkpt lat="45.33211" lon="5.40026">
        <ele>469.1</ele>
      </trkpt>
      <trkpt lat="45.33213" lon="5.40026">
        <ele>468.8</ele>
        <time>2024-03-01T14:59:26.000Z</time>
      </trkpt>
      <trkpt lat="45.33221" lon="5.40028">
        <ele>462.20001220703</ele>
        <time>2024-03-01T14:59:28.000Z</time>
      </trkpt>
      <trkpt lat="45.33226" lon="5.40023">
        <ele>462</ele>
        <time>2024-03-01T14:59:30.000Z</time>
      </trkpt>
      <trkpt lat="45.33229" lon="5.40021">
        <ele>461.79998779297</ele>
        <time>2024-03-01T14:59:31.000Z</time>
      </trkpt>
      <trkpt lat="45.33233" lon="5.40018">
        <ele>461.79998779297</ele>
        <time>2024-03-01T14:59:32.000Z</time>
      </trkpt>
      <trkpt lat="45.33237" lon="5.40017">
        <ele>461.79998779297</ele>
        <time>2024-03-01T14:59:33.000Z</time>
      </trkpt>
      <trkpt lat="45.3324" lon="5.40017">
        <ele>461.79998779297</ele>
        <time>2024-03-01T14:59:34.000Z</time>
      </trkpt>
      <trkpt lat="45.33244" lon="5.40015">
        <ele>461.60000610352</ele>
        <time>2024-03-01T14:59:35.000Z</time>
      </trkpt>
      <trkpt lat="45.33248" lon="5.40011">
        <ele>461.39999389648</ele>
        <time>2024-03-01T14:59:36.000Z</time>
      </trkpt>
      <trkpt lat="45.33253" lon="5.40009">
        <ele>461</ele>
        <time>2024-03-01T14:59:37.000Z</time>
      </trkpt>
      <trkpt lat="45.33263" lon="5.40007">
        <ele>460.79998779297</ele>
        <time>2024-03-01T14:59:39.000Z</time>
      </trkpt>
      <trkpt lat="45.33267" lon="5.40005">
        <ele>460.60000610352</ele>
        <time>2024-03-01T14:59:40.000Z</time>
      </trkpt>
      <trkpt lat="45.33272" lon="5.40003">
        <ele>460.60000610352</ele>
        <time>2024-03-01T14:59:41.000Z</time>
      </trkpt>
      <trkpt lat="45.33276" lon="5.40002">
        <ele>460.39999389648</ele>
        <time>2024-03-01T14:59:42.000Z</time>
      </trkpt>
      <trkpt lat="45.33279" lon="5.40003">
        <ele>460.39999389648</ele>
        <time>2024-03-01T14:59:43.000Z</time>
      </trkpt>
      <trkpt lat="45.33282" lon="5.40003">
        <ele>460.20001220703</ele>
        <time>2024-03-01T14:59:44.000Z</time>
      </trkpt>
      <trkpt lat="45.33288" lon="5.40009">
        <ele>455.6</ele>
        <time>2024-03-01T14:59:47.000Z</time>
      </trkpt>
      <trkpt lat="45.33297" lon="5.40013">
        <ele>453.6</ele>
      </trkpt>
      <trkpt lat="45.33303" lon="5.40011">
        <ele>452.2</ele>
        <time>2024-03-01T14:59:50.000Z</time>
      </trkpt>
      <trkpt lat="45.33308" lon="5.40008">
        <ele>458.20001220703</ele>
        <time>2024-03-01T14:59:51.000Z</time>
      </trkpt>
      <trkpt lat="45.33313" lon="5.40008">
        <ele>457.79998779297</ele>
        <time>2024-03-01T14:59:52.000Z</time>
      </trkpt>
      <trkpt lat="45.33339" lon="5.39996">
        <ele>446</ele>
        <time>2024-03-01T14:59:57.000Z</time>
      </trkpt>
      <trkpt lat="45.3335" lon="5.39987">
        <ele>444.1</ele>
        <time>2024-03-01T15:00:01.000Z</time>
      </trkpt>
      <trkpt lat="45.33363" lon="5.39973">
        <ele>442.3</ele>
        <time>2024-03-01T15:00:04.000Z</time>
      </trkpt>
      <trkpt lat="45.33372" lon="5.39959">
        <ele>440.5</ele>
        <time>2024-03-01T15:00:06.000Z</time>
      </trkpt>
      <trkpt lat="45.33376" lon="5.39942">
        <ele>440.1</ele>
      </trkpt>
      <trkpt lat="45.3338" lon="5.39919">
        <ele>438.3</ele>
        <time>2024-03-01T15:00:14.000Z</time>
      </trkpt>
      <trkpt lat="45.33381" lon="5.39891">
        <ele>435.20001220703</ele>
        <time>2024-03-01T15:00:18.000Z</time>
      </trkpt>
      <trkpt lat="45.33378" lon="5.39883">
        <ele>435</ele>
        <time>2024-03-01T15:00:19.000Z</time>
      </trkpt>
      <trkpt lat="45.3337" lon="5.39873">
        <ele>434.20001220703</ele>
        <time>2024-03-01T15:00:21.000Z</time>
      </trkpt>
      <trkpt lat="45.33367" lon="5.39868">
        <ele>433.60000610352</ele>
        <time>2024-03-01T15:00:22.000Z</time>
      </trkpt>
      <trkpt lat="45.33366" lon="5.39863">
        <ele>433.39999389648</ele>
        <time>2024-03-01T15:00:23.000Z</time>
      </trkpt>
      <trkpt lat="45.33366" lon="5.39858">
        <ele>433</ele>
        <time>2024-03-01T15:00:24.000Z</time>
      </trkpt>
      <trkpt lat="45.33368" lon="5.39846">
        <ele>432.79998779297</ele>
        <time>2024-03-01T15:00:26.000Z</time>
      </trkpt>
      <trkpt lat="45.33369" lon="5.39839">
        <ele>432.79998779297</ele>
        <time>2024-03-01T15:00:27.000Z</time>
      </trkpt>
      <trkpt lat="45.3337" lon="5.39831">
        <ele>432.79998779297</ele>
        <time>2024-03-01T15:00:28.000Z</time>
      </trkpt>
      <trkpt lat="45.3337" lon="5.39778">
        <ele>432</ele>
        <time>2024-03-01T15:00:35.000Z</time>
      </trkpt>
      <trkpt lat="45.33371" lon="5.39771">
        <ele>431.60000610352</ele>
        <time>2024-03-01T15:00:36.000Z</time>
      </trkpt>
      <trkpt lat="45.33372" lon="5.39766">
        <ele>431.20001220703</ele>
        <time>2024-03-01T15:00:37.000Z</time>
      </trkpt>
      <trkpt lat="45.3337" lon="5.39761">
        <ele>431.20001220703</ele>
        <time>2024-03-01T15:00:38.000Z</time>
      </trkpt>
      <trkpt lat="45.33368" lon="5.39757">
        <ele>430.79998779297</ele>
        <time>2024-03-01T15:00:39.000Z</time>
      </trkpt>
      <trkpt lat="45.33368" lon="5.39749">
        <ele>430.60000610352</ele>
        <time>2024-03-01T15:00:42.000Z</time>
      </trkpt>
      <trkpt lat="45.33369" lon="5.39744">
        <ele>430.20001220703</ele>
        <time>2024-03-01T15:00:43.000Z</time>
      </trkpt>
      <trkpt lat="45.33366" lon="5.39741">
        <ele>430</ele>
        <time>2024-03-01T15:00:44.000Z</time>
      </trkpt>
      <trkpt lat="45.33365" lon="5.39736">
        <ele>430</ele>
        <time>2024-03-01T15:00:45.000Z</time>
      </trkpt>
      <trkpt lat="45.33364" lon="5.39732">
        <ele>430</ele>
        <time>2024-03-01T15:00:46.000Z</time>
      </trkpt>
      <trkpt lat="45.33364" lon="5.39717">
        <ele>429.79998779297</ele>
        <time>2024-03-01T15:00:52.000Z</time>
      </trkpt>
      <trkpt lat="45.33365" lon="5.39717">
        <ele>429.79998779297</ele>
        <time>2024-03-01T15:00:53.000Z</time>
      </trkpt>
      <trkpt lat="45.33365" lon="5.39716">
        <ele>429.60000610352</ele>
        <time>2024-03-01T15:00:54.000Z</time>
      </trkpt>
      <trkpt lat="45.33369" lon="5.39716">
        <ele>429.60000610352</ele>
        <time>2024-03-01T15:00:56.000Z</time>
      </trkpt>
      <trkpt lat="45.33371" lon="5.39715">
        <ele>429.60000610352</ele>
        <time>2024-03-01T15:00:57.000Z</time>
      </trkpt>
      <trkpt lat="45.33373" lon="5.39715">
        <ele>429.39999389648</ele>
        <time>2024-03-01T15:00:58.000Z</time>
      </trkpt>
      <trkpt lat="45.33375" lon="5.39714">
        <ele>429.20001220703</ele>
        <time>2024-03-01T15:00:59.000Z</time>
      </trkpt>
      <trkpt lat="45.33376" lon="5.39713">
        <ele>429.20001220703</ele>
        <time>2024-03-01T15:01:00.000Z</time>
      </trkpt>
      <trkpt lat="45.33377" lon="5.39711">
        <ele>429</ele>
        <time>2024-03-01T15:01:01.000Z</time>
      </trkpt>
      <trkpt lat="45.33378" lon="5.39708">
        <ele>428.60000610352</ele>
        <time>2024-03-01T15:01:02.000Z</time>
      </trkpt>
      <trkpt lat="45.33379" lon="5.39706">
        <ele>427.79998779297</ele>
        <time>2024-03-01T15:01:03.000Z</time>
      </trkpt>
      <trkpt lat="45.33381" lon="5.39705">
        <ele>427.20001220703</ele>
        <time>2024-03-01T15:01:04.000Z</time>
      </trkpt>
      <trkpt lat="45.33387" lon="5.39699">
        <ele>425.60000610352</ele>
        <time>2024-03-01T15:01:07.000Z</time>
      </trkpt>
      <trkpt lat="45.33387" lon="5.39696">
        <ele>425</ele>
        <time>2024-03-01T15:01:08.000Z</time>
      </trkpt>
      <trkpt lat="45.33389" lon="5.39692">
        <ele>422.39999389648</ele>
        <time>2024-03-01T15:01:10.000Z</time>
      </trkpt>
      <trkpt lat="45.3339" lon="5.39691">
        <ele>420.79998779297</ele>
        <time>2024-03-01T15:01:12.000Z</time>
      </trkpt>
      <trkpt lat="45.33391" lon="5.39691">
        <ele>420.39999389648</ele>
        <time>2024-03-01T15:01:13.000Z</time>
      </trkpt>
      <trkpt lat="45.33392" lon="5.39692">
        <ele>419.79998779297</ele>
        <time>2024-03-01T15:01:14.000Z</time>
      </trkpt>
      <trkpt lat="45.33392" lon="5.39694">
        <ele>417.60000610352</ele>
        <time>2024-03-01T15:01:16.000Z</time>
      </trkpt>
      <trkpt lat="45.33393" lon="5.39695">
        <ele>416.20001220703</ele>
        <time>2024-03-01T15:01:17.000Z</time>
      </trkpt>
      <trkpt lat="45.33395" lon="5.39698">
        <ele>415.79998779297</ele>
        <time>2024-03-01T15:01:18.000Z</time>
      </trkpt>
      <trkpt lat="45.33396" lon="5.39701">
        <ele>414.39999389648</ele>
        <time>2024-03-01T15:01:19.000Z</time>
      </trkpt>
      <trkpt lat="45.334" lon="5.39707">
        <ele>413.39999389648</ele>
        <time>2024-03-01T15:01:21.000Z</time>
      </trkpt>
      <trkpt lat="45.33403" lon="5.39709">
        <ele>412.20001220703</ele>
        <time>2024-03-01T15:01:22.000Z</time>
      </trkpt>
      <trkpt lat="45.33406" lon="5.39709">
        <ele>411.60000610352</ele>
        <time>2024-03-01T15:01:23.000Z</time>
      </trkpt>
      <trkpt lat="45.3341" lon="5.3971">
        <ele>410.20001220703</ele>
        <time>2024-03-01T15:01:24.000Z</time>
      </trkpt>
      <trkpt lat="45.33413" lon="5.39709">
        <ele>409.79998779297</ele>
        <time>2024-03-01T15:01:25.000Z</time>
      </trkpt>
      <trkpt lat="45.33419" lon="5.39709">
        <ele>408</ele>
        <time>2024-03-01T15:01:27.000Z</time>
      </trkpt>
      <trkpt lat="45.33423" lon="5.39707">
        <ele>404.39999389648</ele>
        <time>2024-03-01T15:01:29.000Z</time>
      </trkpt>
      <trkpt lat="45.33425" lon="5.39704">
        <ele>403.20001220703</ele>
        <time>2024-03-01T15:01:30.000Z</time>
      </trkpt>
      <trkpt lat="45.33426" lon="5.39703">
        <ele>401.60000610352</ele>
        <time>2024-03-01T15:01:31.000Z</time>
      </trkpt>
      <trkpt lat="45.33427" lon="5.39701">
        <ele>401</ele>
        <time>2024-03-01T15:01:32.000Z</time>
      </trkpt>
      <trkpt lat="45.33428" lon="5.39698">
        <ele>399.79998779297</ele>
        <time>2024-03-01T15:01:33.000Z</time>
      </trkpt>
      <trkpt lat="45.33429" lon="5.39696">
        <ele>399.20001220703</ele>
        <time>2024-03-01T15:01:34.000Z</time>
      </trkpt>
      <trkpt lat="45.33429" lon="5.3969">
        <ele>398.39999389648</ele>
        <time>2024-03-01T15:01:36.000Z</time>
      </trkpt>
      <trkpt lat="45.3343" lon="5.39688">
        <ele>398.39999389648</ele>
        <time>2024-03-01T15:01:37.000Z</time>
      </trkpt>
      <trkpt lat="45.33431" lon="5.39685">
        <ele>398.20001220703</ele>
        <time>2024-03-01T15:01:41.000Z</time>
      </trkpt>
      <trkpt lat="45.33437" lon="5.39691">
        <ele>398.39999389648</ele>
        <time>2024-03-01T15:04:46.000Z</time>
      </trkpt>
      <trkpt lat="45.33436" lon="5.39693">
        <ele>398.39999389648</ele>
        <time>2024-03-01T15:04:47.000Z</time>
      </trkpt>
      <trkpt lat="45.33439" lon="5.39702">
        <ele>398.60000610352</ele>
        <time>2024-03-01T15:04:50.000Z</time>
      </trkpt>
      <trkpt lat="45.33439" lon="5.39706">
        <ele>398.60000610352</ele>
        <time>2024-03-01T15:04:51.000Z</time>
      </trkpt>
      <trkpt lat="45.33441" lon="5.39709">
        <ele>398.79998779297</ele>
        <time>2024-03-01T15:04:52.000Z</time>
      </trkpt>
      <trkpt lat="45.3344" lon="5.39712">
        <ele>398.79998779297</ele>
        <time>2024-03-01T15:04:53.000Z</time>
      </trkpt>
      <trkpt lat="45.3344" lon="5.39724">
        <ele>399.60000610352</ele>
        <time>2024-03-01T15:04:57.000Z</time>
      </trkpt>
      <trkpt lat="45.33441" lon="5.39727">
        <ele>399.79998779297</ele>
        <time>2024-03-01T15:04:58.000Z</time>
      </trkpt>
      <trkpt lat="45.33441" lon="5.39732">
        <ele>399.79998779297</ele>
        <time>2024-03-01T15:04:59.000Z</time>
      </trkpt>
      <trkpt lat="45.33442" lon="5.39737">
        <ele>399.79998779297</ele>
        <time>2024-03-01T15:05:00.000Z</time>
      </trkpt>
      <trkpt lat="45.33442" lon="5.39745">
        <ele>399.39999389648</ele>
        <time>2024-03-01T15:05:02.000Z</time>
      </trkpt>
      <trkpt lat="45.33443" lon="5.3975">
        <ele>399.20001220703</ele>
        <time>2024-03-01T15:05:03.000Z</time>
      </trkpt>
      <trkpt lat="45.33444" lon="5.39754">
        <ele>399.20001220703</ele>
        <time>2024-03-01T15:05:04.000Z</time>
      </trkpt>
      <trkpt lat="45.33445" lon="5.39761">
        <ele>399</ele>
        <time>2024-03-01T15:05:05.000Z</time>
      </trkpt>
      <trkpt lat="45.33447" lon="5.39767">
        <ele>399</ele>
        <time>2024-03-01T15:05:06.000Z</time>
      </trkpt>
      <trkpt lat="45.33449" lon="5.39771">
        <ele>399</ele>
        <time>2024-03-01T15:05:07.000Z</time>
      </trkpt>
      <trkpt lat="45.33449" lon="5.39783">
        <ele>398.79998779297</ele>
        <time>2024-03-01T15:05:09.000Z</time>
      </trkpt>
      <trkpt lat="45.3345" lon="5.39789">
        <ele>398.79998779297</ele>
        <time>2024-03-01T15:05:10.000Z</time>
      </trkpt>
      <trkpt lat="45.3345" lon="5.39799">
        <ele>398.79998779297</ele>
        <time>2024-03-01T15:05:12.000Z</time>
      </trkpt>
      <trkpt lat="45.33449" lon="5.39803">
        <ele>398.79998779297</ele>
        <time>2024-03-01T15:05:13.000Z</time>
      </trkpt>
      <trkpt lat="45.33449" lon="5.39808">
        <ele>398.79998779297</ele>
        <time>2024-03-01T15:05:14.000Z</time>
      </trkpt>
      <trkpt lat="45.33446" lon="5.39813">
        <ele>398.79998779297</ele>
        <time>2024-03-01T15:05:15.000Z</time>
      </trkpt>
      <trkpt lat="45.33447" lon="5.39819">
        <ele>398.79998779297</ele>
        <time>2024-03-01T15:05:16.000Z</time>
      </trkpt>
      <trkpt lat="45.33449" lon="5.39823">
        <ele>398.79998779297</ele>
        <time>2024-03-01T15:05:17.000Z</time>
      </trkpt>
      <trkpt lat="45.3345" lon="5.39828">
        <ele>398.79998779297</ele>
        <time>2024-03-01T15:05:18.000Z</time>
      </trkpt>
      <trkpt lat="45.33451" lon="5.39831">
        <ele>398.79998779297</ele>
        <time>2024-03-01T15:05:19.000Z</time>
      </trkpt>
      <trkpt lat="45.33453" lon="5.39834">
        <ele>398.79998779297</ele>
        <time>2024-03-01T15:05:20.000Z</time>
      </trkpt>
      <trkpt lat="45.33455" lon="5.39838">
        <ele>399</ele>
        <time>2024-03-01T15:05:21.000Z</time>
      </trkpt>
      <trkpt lat="45.33457" lon="5.39843">
        <ele>399</ele>
        <time>2024-03-01T15:05:22.000Z</time>
      </trkpt>
      <trkpt lat="45.33459" lon="5.39857">
        <ele>399</ele>
        <time>2024-03-01T15:05:24.000Z</time>
      </trkpt>
      <trkpt lat="45.33464" lon="5.39861">
        <ele>399.20001220703</ele>
        <time>2024-03-01T15:05:25.000Z</time>
      </trkpt>
      <trkpt lat="45.33467" lon="5.39866">
        <ele>399.20001220703</ele>
        <time>2024-03-01T15:05:26.000Z</time>
      </trkpt>
      <trkpt lat="45.33471" lon="5.39873">
        <ele>399.20001220703</ele>
        <time>2024-03-01T15:05:27.000Z</time>
      </trkpt>
      <trkpt lat="45.33473" lon="5.39878">
        <ele>399.20001220703</ele>
        <time>2024-03-01T15:05:28.000Z</time>
      </trkpt>
      <trkpt lat="45.33474" lon="5.39881">
        <ele>399.39999389648</ele>
        <time>2024-03-01T15:05:29.000Z</time>
      </trkpt>
      <trkpt lat="45.33472" lon="5.39885">
        <ele>399.39999389648</ele>
        <time>2024-03-01T15:05:30.000Z</time>
      </trkpt>
      <trkpt lat="45.33471" lon="5.3989">
        <ele>399.79998779297</ele>
        <time>2024-03-01T15:05:31.000Z</time>
      </trkpt>
      <trkpt lat="45.3347" lon="5.39897">
        <ele>399.79998779297</ele>
        <time>2024-03-01T15:05:32.000Z</time>
      </trkpt>
      <trkpt lat="45.33469" lon="5.39903">
        <ele>400</ele>
        <time>2024-03-01T15:05:33.000Z</time>
      </trkpt>
      <trkpt lat="45.33469" lon="5.3991">
        <ele>400.39999389648</ele>
        <time>2024-03-01T15:05:35.000Z</time>
      </trkpt>
      <trkpt lat="45.3347" lon="5.39913">
        <ele>400.60000610352</ele>
        <time>2024-03-01T15:05:36.000Z</time>
      </trkpt>
      <trkpt lat="45.33471" lon="5.39917">
        <ele>400.79998779297</ele>
        <time>2024-03-01T15:05:38.000Z</time>
      </trkpt>
      <trkpt lat="45.33471" lon="5.39938">
        <ele>401.39999389648</ele>
        <time>2024-03-01T15:05:42.000Z</time>
      </trkpt>
      <trkpt lat="45.33473" lon="5.39944">
        <ele>401.39999389648</ele>
        <time>2024-03-01T15:05:43.000Z</time>
      </trkpt>
      <trkpt lat="45.33473" lon="5.39949">
        <ele>401.79998779297</ele>
        <time>2024-03-01T15:05:44.000Z</time>
      </trkpt>
      <trkpt lat="45.33474" lon="5.39953">
        <ele>402.39999389648</ele>
        <time>2024-03-01T15:05:45.000Z</time>
      </trkpt>
      <trkpt lat="45.33474" lon="5.3996">
        <ele>403.20001220703</ele>
        <time>2024-03-01T15:05:47.000Z</time>
      </trkpt>
      <trkpt lat="45.33477" lon="5.39972">
        <ele>404.39999389648</ele>
        <time>2024-03-01T15:05:50.000Z</time>
      </trkpt>
      <trkpt lat="45.33478" lon="5.39975">
        <ele>404.60000610352</ele>
        <time>2024-03-01T15:05:51.000Z</time>
      </trkpt>
      <trkpt lat="45.33478" lon="5.39978">
        <ele>404.79998779297</ele>
        <time>2024-03-01T15:05:52.000Z</time>
      </trkpt>
      <trkpt lat="45.33476" lon="5.39982">
        <ele>404.79998779297</ele>
        <time>2024-03-01T15:05:53.000Z</time>
      </trkpt>
      <trkpt lat="45.33477" lon="5.39987">
        <ele>405</ele>
        <time>2024-03-01T15:05:54.000Z</time>
      </trkpt>
      <trkpt lat="45.33477" lon="5.39994">
        <ele>405</ele>
        <time>2024-03-01T15:05:55.000Z</time>
      </trkpt>
      <trkpt lat="45.3348" lon="5.40001">
        <ele>405</ele>
        <time>2024-03-01T15:05:56.000Z</time>
      </trkpt>
      <trkpt lat="45.3348" lon="5.40007">
        <ele>405</ele>
        <time>2024-03-01T15:05:57.000Z</time>
      </trkpt>
      <trkpt lat="45.33481" lon="5.40015">
        <ele>404.79998779297</ele>
        <time>2024-03-01T15:05:58.000Z</time>
      </trkpt>
      <trkpt lat="45.33482" lon="5.40025">
        <ele>404.60000610352</ele>
        <time>2024-03-01T15:05:59.000Z</time>
      </trkpt>
      <trkpt lat="45.33483" lon="5.40036">
        <ele>404.60000610352</ele>
        <time>2024-03-01T15:06:00.000Z</time>
      </trkpt>
      <trkpt lat="45.33484" lon="5.40048">
        <ele>404.39999389648</ele>
        <time>2024-03-01T15:06:01.000Z</time>
      </trkpt>
      <trkpt lat="45.33485" lon="5.40059">
        <ele>404.39999389648</ele>
        <time>2024-03-01T15:06:02.000Z</time>
      </trkpt>
      <trkpt lat="45.33485" lon="5.40069">
        <ele>403.79998779297</ele>
        <time>2024-03-01T15:06:03.000Z</time>
      </trkpt>
      <trkpt lat="45.33483" lon="5.4008">
        <ele>403.39999389648</ele>
        <time>2024-03-01T15:06:04.000Z</time>
      </trkpt>
      <trkpt lat="45.33483" lon="5.40085">
        <ele>403.20001220703</ele>
        <time>2024-03-01T15:06:05.000Z</time>
      </trkpt>
      <trkpt lat="45.33484" lon="5.40088">
        <ele>402.79998779297</ele>
        <time>2024-03-01T15:06:06.000Z</time>
      </trkpt>
      <trkpt lat="45.33482" lon="5.40094">
        <ele>402</ele>
        <time>2024-03-01T15:06:08.000Z</time>
      </trkpt>
      <trkpt lat="45.33485" lon="5.40103">
        <ele>401.39999389648</ele>
        <time>2024-03-01T15:06:10.000Z</time>
      </trkpt>
      <trkpt lat="45.33483" lon="5.40109">
        <ele>401.20001220703</ele>
        <time>2024-03-01T15:06:11.000Z</time>
      </trkpt>
      <trkpt lat="45.33482" lon="5.40115">
        <ele>401.20001220703</ele>
        <time>2024-03-01T15:06:12.000Z</time>
      </trkpt>
      <trkpt lat="45.33482" lon="5.40122">
        <ele>401</ele>
        <time>2024-03-01T15:06:13.000Z</time>
      </trkpt>
      <trkpt lat="45.33483" lon="5.40129">
        <ele>400.79998779297</ele>
        <time>2024-03-01T15:06:14.000Z</time>
      </trkpt>
      <trkpt lat="45.33482" lon="5.40136">
        <ele>400.79998779297</ele>
        <time>2024-03-01T15:06:15.000Z</time>
      </trkpt>
      <trkpt lat="45.3348" lon="5.40145">
        <ele>400.60000610352</ele>
        <time>2024-03-01T15:06:16.000Z</time>
      </trkpt>
      <trkpt lat="45.33481" lon="5.40151">
        <ele>400.60000610352</ele>
        <time>2024-03-01T15:06:17.000Z</time>
      </trkpt>
      <trkpt lat="45.33482" lon="5.40158">
        <ele>400.79998779297</ele>
        <time>2024-03-01T15:06:18.000Z</time>
      </trkpt>
      <trkpt lat="45.33484" lon="5.40167">
        <ele>401</ele>
        <time>2024-03-01T15:06:19.000Z</time>
      </trkpt>
      <trkpt lat="45.33484" lon="5.40172">
        <ele>401</ele>
        <time>2024-03-01T15:06:20.000Z</time>
      </trkpt>
      <trkpt lat="45.33487" lon="5.40178">
        <ele>401.20001220703</ele>
        <time>2024-03-01T15:06:21.000Z</time>
      </trkpt>
      <trkpt lat="45.33488" lon="5.40183">
        <ele>401.39999389648</ele>
        <time>2024-03-01T15:06:22.000Z</time>
      </trkpt>
      <trkpt lat="45.33488" lon="5.40206">
        <ele>402.79998779297</ele>
        <time>2024-03-01T15:06:28.000Z</time>
      </trkpt>
      <trkpt lat="45.33489" lon="5.4021">
        <ele>403</ele>
        <time>2024-03-01T15:06:29.000Z</time>
      </trkpt>
      <trkpt lat="45.33489" lon="5.40219">
        <ele>403.60000610352</ele>
        <time>2024-03-01T15:06:32.000Z</time>
      </trkpt>
      <trkpt lat="45.3349" lon="5.40224">
        <ele>403.60000610352</ele>
        <time>2024-03-01T15:06:33.000Z</time>
      </trkpt>
      <trkpt lat="45.33492" lon="5.40232">
        <ele>404</ele>
        <time>2024-03-01T15:06:35.000Z</time>
      </trkpt>
      <trkpt lat="45.33492" lon="5.40244">
        <ele>404</ele>
        <time>2024-03-01T15:06:38.000Z</time>
      </trkpt>
      <trkpt lat="45.33493" lon="5.4025">
        <ele>404.20001220703</ele>
        <time>2024-03-01T15:06:39.000Z</time>
      </trkpt>
      <trkpt lat="45.33494" lon="5.40255">
        <ele>404.39999389648</ele>
        <time>2024-03-01T15:06:40.000Z</time>
      </trkpt>
      <trkpt lat="45.33494" lon="5.40266">
        <ele>404.60000610352</ele>
        <time>2024-03-01T15:06:42.000Z</time>
      </trkpt>
      <trkpt lat="45.33493" lon="5.40272">
        <ele>404.60000610352</ele>
        <time>2024-03-01T15:06:43.000Z</time>
      </trkpt>
      <trkpt lat="45.33493" lon="5.40289">
        <ele>404.79998779297</ele>
        <time>2024-03-01T15:06:46.000Z</time>
      </trkpt>
      <trkpt lat="45.33494" lon="5.40295">
        <ele>404.60000610352</ele>
        <time>2024-03-01T15:06:47.000Z</time>
      </trkpt>
      <trkpt lat="45.33493" lon="5.40301">
        <ele>404.60000610352</ele>
        <time>2024-03-01T15:06:48.000Z</time>
      </trkpt>
      <trkpt lat="45.33493" lon="5.40308">
        <ele>404.79998779297</ele>
        <time>2024-03-01T15:06:49.000Z</time>
      </trkpt>
      <trkpt lat="45.33494" lon="5.40315">
        <ele>404.79998779297</ele>
        <time>2024-03-01T15:06:50.000Z</time>
      </trkpt>
      <trkpt lat="45.33494" lon="5.40329">
        <ele>404.79998779297</ele>
        <time>2024-03-01T15:06:52.000Z</time>
      </trkpt>
      <trkpt lat="45.33493" lon="5.40335">
        <ele>404.79998779297</ele>
        <time>2024-03-01T15:06:53.000Z</time>
      </trkpt>
      <trkpt lat="45.33494" lon="5.40338">
        <ele>404.79998779297</ele>
        <time>2024-03-01T15:06:54.000Z</time>
      </trkpt>
      <trkpt lat="45.33494" lon="5.40343">
        <ele>405.20001220703</ele>
        <time>2024-03-01T15:06:58.000Z</time>
      </trkpt>
      <trkpt lat="45.33493" lon="5.40344">
        <ele>405.39999389648</ele>
        <time>2024-03-01T15:06:59.000Z</time>
      </trkpt>
      <trkpt lat="45.33494" lon="5.40345">
        <ele>405.39999389648</ele>
        <time>2024-03-01T15:07:00.000Z</time>
      </trkpt>
      <trkpt lat="45.33494" lon="5.40346">
        <ele>405.39999389648</ele>
        <time>2024-03-01T15:07:01.000Z</time>
      </trkpt>
      <trkpt lat="45.33493" lon="5.40346">
        <ele>405.39999389648</ele>
        <time>2024-03-01T15:07:02.000Z</time>
      </trkpt>
      <trkpt lat="45.33494" lon="5.40348">
        <ele>405.60000610352</ele>
        <time>2024-03-01T15:07:03.000Z</time>
      </trkpt>
      <trkpt lat="45.33495" lon="5.40349">
        <ele>405.79998779297</ele>
        <time>2024-03-01T15:07:07.000Z</time>
      </trkpt>
      <trkpt lat="45.33495" lon="5.40352">
        <ele>406.20001220703</ele>
        <time>2024-03-01T15:07:11.000Z</time>
      </trkpt>
      <trkpt lat="45.33496" lon="5.40352">
        <ele>406</ele>
        <time>2024-03-01T15:07:12.000Z</time>
      </trkpt>
      <trkpt lat="45.33496" lon="5.40353">
        <ele>406.20001220703</ele>
        <time>2024-03-01T15:07:13.000Z</time>
      </trkpt>
      <trkpt lat="45.33495" lon="5.40356">
        <ele>406.20001220703</ele>
        <time>2024-03-01T15:07:14.000Z</time>
      </trkpt>
      <trkpt lat="45.33495" lon="5.4036">
        <ele>406.39999389648</ele>
        <time>2024-03-01T15:07:17.000Z</time>
      </trkpt>
      <trkpt lat="45.33496" lon="5.4036">
        <ele>406.39999389648</ele>
        <time>2024-03-01T15:07:19.000Z</time>
      </trkpt>
      <trkpt lat="45.33496" lon="5.40366">
        <ele>406.39999389648</ele>
        <time>2024-03-01T15:07:23.000Z</time>
      </trkpt>
      <trkpt lat="45.33497" lon="5.40367">
        <ele>406.39999389648</ele>
        <time>2024-03-01T15:07:24.000Z</time>
      </trkpt>
      <trkpt lat="45.33498" lon="5.40369">
        <ele>406.60000610352</ele>
        <time>2024-03-01T15:07:25.000Z</time>
      </trkpt>
      <trkpt lat="45.335" lon="5.40372">
        <ele>406.60000610352</ele>
        <time>2024-03-01T15:07:26.000Z</time>
      </trkpt>
      <trkpt lat="45.33501" lon="5.40376">
        <ele>406.20001220703</ele>
        <time>2024-03-01T15:07:27.000Z</time>
      </trkpt>
      <trkpt lat="45.33501" lon="5.40385">
        <ele>406.60000610352</ele>
        <time>2024-03-01T15:07:29.000Z</time>
      </trkpt>
      <trkpt lat="45.33503" lon="5.40395">
        <ele>406.60000610352</ele>
        <time>2024-03-01T15:07:31.000Z</time>
      </trkpt>
      <trkpt lat="45.33504" lon="5.40401">
        <ele>406.60000610352</ele>
        <time>2024-03-01T15:07:32.000Z</time>
      </trkpt>
      <trkpt lat="45.33505" lon="5.40405">
        <ele>406.60000610352</ele>
        <time>2024-03-01T15:07:33.000Z</time>
      </trkpt>
      <trkpt lat="45.33506" lon="5.40411">
        <ele>406.60000610352</ele>
        <time>2024-03-01T15:07:34.000Z</time>
      </trkpt>
      <trkpt lat="45.33507" lon="5.40416">
        <ele>406.60000610352</ele>
        <time>2024-03-01T15:07:35.000Z</time>
      </trkpt>
      <trkpt lat="45.33509" lon="5.40422">
        <ele>406.60000610352</ele>
        <time>2024-03-01T15:07:36.000Z</time>
      </trkpt>
      <trkpt lat="45.3351" lon="5.40427">
        <ele>406.60000610352</ele>
        <time>2024-03-01T15:07:37.000Z</time>
      </trkpt>
      <trkpt lat="45.33511" lon="5.40431">
        <ele>406.60000610352</ele>
        <time>2024-03-01T15:07:38.000Z</time>
      </trkpt>
      <trkpt lat="45.33513" lon="5.40436">
        <ele>406.60000610352</ele>
        <time>2024-03-01T15:07:39.000Z</time>
      </trkpt>
      <trkpt lat="45.33515" lon="5.4044">
        <ele>406.60000610352</ele>
        <time>2024-03-01T15:07:40.000Z</time>
      </trkpt>
      <trkpt lat="45.33517" lon="5.40447">
        <ele>406.60000610352</ele>
        <time>2024-03-01T15:07:41.000Z</time>
      </trkpt>
      <trkpt lat="45.33518" lon="5.40453">
        <ele>406.60000610352</ele>
        <time>2024-03-01T15:07:42.000Z</time>
      </trkpt>
      <trkpt lat="45.33518" lon="5.40456">
        <ele>406.60000610352</ele>
        <time>2024-03-01T15:07:43.000Z</time>
      </trkpt>
      <trkpt lat="45.3352" lon="5.4046">
        <ele>406.60000610352</ele>
        <time>2024-03-01T15:07:44.000Z</time>
      </trkpt>
      <trkpt lat="45.33519" lon="5.40465">
        <ele>406.60000610352</ele>
        <time>2024-03-01T15:07:45.000Z</time>
      </trkpt>
      <trkpt lat="45.33519" lon="5.40472">
        <ele>406.79998779297</ele>
        <time>2024-03-01T15:07:46.000Z</time>
      </trkpt>
      <trkpt lat="45.33518" lon="5.40477">
        <ele>406.79998779297</ele>
        <time>2024-03-01T15:07:47.000Z</time>
      </trkpt>
      <trkpt lat="45.33519" lon="5.40482">
        <ele>407.39999389648</ele>
        <time>2024-03-01T15:07:48.000Z</time>
      </trkpt>
      <trkpt lat="45.33519" lon="5.40496">
        <ele>407.79998779297</ele>
        <time>2024-03-01T15:07:51.000Z</time>
      </trkpt>
      <trkpt lat="45.3352" lon="5.405">
        <ele>408</ele>
        <time>2024-03-01T15:07:52.000Z</time>
      </trkpt>
      <trkpt lat="45.33521" lon="5.40507">
        <ele>408.20001220703</ele>
        <time>2024-03-01T15:07:53.000Z</time>
      </trkpt>
      <trkpt lat="45.33521" lon="5.40513">
        <ele>408.20001220703</ele>
        <time>2024-03-01T15:07:54.000Z</time>
      </trkpt>
      <trkpt lat="45.33522" lon="5.40518">
        <ele>408.60000610352</ele>
        <time>2024-03-01T15:07:55.000Z</time>
      </trkpt>
      <trkpt lat="45.33522" lon="5.40524">
        <ele>408.79998779297</ele>
        <time>2024-03-01T15:07:56.000Z</time>
      </trkpt>
      <trkpt lat="45.33521" lon="5.40528">
        <ele>408.79998779297</ele>
        <time>2024-03-01T15:07:57.000Z</time>
      </trkpt>
      <trkpt lat="45.33521" lon="5.40533">
        <ele>408.79998779297</ele>
        <time>2024-03-01T15:07:58.000Z</time>
      </trkpt>
      <trkpt lat="45.33519" lon="5.40537">
        <ele>408.79998779297</ele>
        <time>2024-03-01T15:07:59.000Z</time>
      </trkpt>
      <trkpt lat="45.33518" lon="5.40543">
        <ele>409.20001220703</ele>
        <time>2024-03-01T15:08:00.000Z</time>
      </trkpt>
      <trkpt lat="45.33519" lon="5.40547">
        <ele>409.20001220703</ele>
        <time>2024-03-01T15:08:01.000Z</time>
      </trkpt>
      <trkpt lat="45.33519" lon="5.40555">
        <ele>409.60000610352</ele>
        <time>2024-03-01T15:08:03.000Z</time>
      </trkpt>
      <trkpt lat="45.3352" lon="5.40558">
        <ele>409.60000610352</ele>
        <time>2024-03-01T15:08:04.000Z</time>
      </trkpt>
      <trkpt lat="45.3352" lon="5.40561">
        <ele>409.79998779297</ele>
        <time>2024-03-01T15:08:05.000Z</time>
      </trkpt>
      <trkpt lat="45.33518" lon="5.40565">
        <ele>409.79998779297</ele>
        <time>2024-03-01T15:08:06.000Z</time>
      </trkpt>
      <trkpt lat="45.33516" lon="5.4057">
        <ele>409.79998779297</ele>
        <time>2024-03-01T15:08:07.000Z</time>
      </trkpt>
      <trkpt lat="45.33517" lon="5.40575">
        <ele>410</ele>
        <time>2024-03-01T15:08:08.000Z</time>
      </trkpt>
      <trkpt lat="45.33517" lon="5.40579">
        <ele>410</ele>
        <time>2024-03-01T15:08:09.000Z</time>
      </trkpt>
      <trkpt lat="45.33516" lon="5.40584">
        <ele>410</ele>
        <time>2024-03-01T15:08:10.000Z</time>
      </trkpt>
      <trkpt lat="45.33516" lon="5.40602">
        <ele>410.20001220703</ele>
        <time>2024-03-01T15:08:13.000Z</time>
      </trkpt>
      <trkpt lat="45.33517" lon="5.4061">
        <ele>410</ele>
        <time>2024-03-01T15:08:14.000Z</time>
      </trkpt>
      <trkpt lat="45.33518" lon="5.40616">
        <ele>410.20001220703</ele>
        <time>2024-03-01T15:08:15.000Z</time>
      </trkpt>
      <trkpt lat="45.33519" lon="5.40621">
        <ele>410.20001220703</ele>
        <time>2024-03-01T15:08:16.000Z</time>
      </trkpt>
      <trkpt lat="45.33519" lon="5.40626">
        <ele>410</ele>
        <time>2024-03-01T15:08:17.000Z</time>
      </trkpt>
      <trkpt lat="45.33518" lon="5.40629">
        <ele>410</ele>
        <time>2024-03-01T15:08:18.000Z</time>
      </trkpt>
      <trkpt lat="45.33515" lon="5.40633">
        <ele>410</ele>
        <time>2024-03-01T15:08:19.000Z</time>
      </trkpt>
      <trkpt lat="45.33513" lon="5.40637">
        <ele>409.79998779297</ele>
        <time>2024-03-01T15:08:20.000Z</time>
      </trkpt>
      <trkpt lat="45.33511" lon="5.4064">
        <ele>409.60000610352</ele>
        <time>2024-03-01T15:08:21.000Z</time>
      </trkpt>
      <trkpt lat="45.33508" lon="5.40644">
        <ele>409.60000610352</ele>
        <time>2024-03-01T15:08:22.000Z</time>
      </trkpt>
      <trkpt lat="45.33506" lon="5.4065">
        <ele>409.60000610352</ele>
        <time>2024-03-01T15:08:23.000Z</time>
      </trkpt>
      <trkpt lat="45.33503" lon="5.40656">
        <ele>409.60000610352</ele>
        <time>2024-03-01T15:08:24.000Z</time>
      </trkpt>
      <trkpt lat="45.33501" lon="5.40661">
        <ele>409.60000610352</ele>
        <time>2024-03-01T15:08:25.000Z</time>
      </trkpt>
      <trkpt lat="45.33498" lon="5.40667">
        <ele>409.79998779297</ele>
        <time>2024-03-01T15:08:26.000Z</time>
      </trkpt>
      <trkpt lat="45.33497" lon="5.40673">
        <ele>409.60000610352</ele>
        <time>2024-03-01T15:08:27.000Z</time>
      </trkpt>
      <trkpt lat="45.33494" lon="5.40679">
        <ele>409.60000610352</ele>
        <time>2024-03-01T15:08:28.000Z</time>
      </trkpt>
      <trkpt lat="45.33491" lon="5.40686">
        <ele>409.39999389648</ele>
        <time>2024-03-01T15:08:29.000Z</time>
      </trkpt>
      <trkpt lat="45.3349" lon="5.40692">
        <ele>409.39999389648</ele>
        <time>2024-03-01T15:08:30.000Z</time>
      </trkpt>
      <trkpt lat="45.3349" lon="5.40698">
        <ele>409.39999389648</ele>
        <time>2024-03-01T15:08:31.000Z</time>
      </trkpt>
      <trkpt lat="45.33489" lon="5.40709">
        <ele>409.39999389648</ele>
        <time>2024-03-01T15:08:32.000Z</time>
      </trkpt>
      <trkpt lat="45.33489" lon="5.40718">
        <ele>409.20001220703</ele>
        <time>2024-03-01T15:08:33.000Z</time>
      </trkpt>
      <trkpt lat="45.3349" lon="5.40728">
        <ele>409</ele>
        <time>2024-03-01T15:08:34.000Z</time>
      </trkpt>
      <trkpt lat="45.33491" lon="5.40739">
        <ele>408.79998779297</ele>
        <time>2024-03-01T15:08:35.000Z</time>
      </trkpt>
      <trkpt lat="45.33491" lon="5.40758">
        <ele>407.60000610352</ele>
        <time>2024-03-01T15:08:37.000Z</time>
      </trkpt>
      <trkpt lat="45.33493" lon="5.4077">
        <ele>407.20001220703</ele>
        <time>2024-03-01T15:08:38.000Z</time>
      </trkpt>
      <trkpt lat="45.33496" lon="5.4078">
        <ele>407</ele>
        <time>2024-03-01T15:08:39.000Z</time>
      </trkpt>
      <trkpt lat="45.33497" lon="5.4079">
        <ele>406.79998779297</ele>
        <time>2024-03-01T15:08:40.000Z</time>
      </trkpt>
      <trkpt lat="45.33499" lon="5.40799">
        <ele>406.39999389648</ele>
        <time>2024-03-01T15:08:41.000Z</time>
      </trkpt>
      <trkpt lat="45.33498" lon="5.40809">
        <ele>406</ele>
        <time>2024-03-01T15:08:42.000Z</time>
      </trkpt>
      <trkpt lat="45.33497" lon="5.40817">
        <ele>406</ele>
        <time>2024-03-01T15:08:43.000Z</time>
      </trkpt>
      <trkpt lat="45.33497" lon="5.40851">
        <ele>405.39999389648</ele>
        <time>2024-03-01T15:08:47.000Z</time>
      </trkpt>
      <trkpt lat="45.33496" lon="5.40858">
        <ele>405.39999389648</ele>
        <time>2024-03-01T15:08:48.000Z</time>
      </trkpt>
      <trkpt lat="45.33496" lon="5.40881">
        <ele>405.39999389648</ele>
        <time>2024-03-01T15:08:51.000Z</time>
      </trkpt>
      <trkpt lat="45.33498" lon="5.40893">
        <ele>405.60000610352</ele>
        <time>2024-03-01T15:08:53.000Z</time>
      </trkpt>
      <trkpt lat="45.33497" lon="5.409">
        <ele>405.79998779297</ele>
        <time>2024-03-01T15:08:54.000Z</time>
      </trkpt>
      <trkpt lat="45.33497" lon="5.40914">
        <ele>406.39999389648</ele>
        <time>2024-03-01T15:08:56.000Z</time>
      </trkpt>
      <trkpt lat="45.33498" lon="5.40921">
        <ele>406.39999389648</ele>
        <time>2024-03-01T15:08:57.000Z</time>
      </trkpt>
      <trkpt lat="45.33498" lon="5.40933">
        <ele>406.39999389648</ele>
        <time>2024-03-01T15:08:59.000Z</time>
      </trkpt>
      <trkpt lat="45.33499" lon="5.40939">
        <ele>406.39999389648</ele>
        <time>2024-03-01T15:09:00.000Z</time>
      </trkpt>
      <trkpt lat="45.335" lon="5.40948">
        <ele>406.39999389648</ele>
        <time>2024-03-01T15:09:01.000Z</time>
      </trkpt>
      <trkpt lat="45.335" lon="5.40949">
        <ele>406.39999389648</ele>
        <time>2024-03-01T15:09:02.000Z</time>
      </trkpt>
      <trkpt lat="45.33501" lon="5.40953">
        <ele>406.39999389648</ele>
        <time>2024-03-01T15:09:03.000Z</time>
      </trkpt>
      <trkpt lat="45.33504" lon="5.40958">
        <ele>406.39999389648</ele>
        <time>2024-03-01T15:09:04.000Z</time>
      </trkpt>
      <trkpt lat="45.33506" lon="5.40965">
        <ele>406.60000610352</ele>
        <time>2024-03-01T15:09:05.000Z</time>
      </trkpt>
      <trkpt lat="45.3351" lon="5.40977">
        <ele>406.79998779297</ele>
        <time>2024-03-01T15:09:07.000Z</time>
      </trkpt>
      <trkpt lat="45.33516" lon="5.40991">
        <ele>407</ele>
        <time>2024-03-01T15:09:09.000Z</time>
      </trkpt>
      <trkpt lat="45.33518" lon="5.40998">
        <ele>407.20001220703</ele>
        <time>2024-03-01T15:09:10.000Z</time>
      </trkpt>
      <trkpt lat="45.3352" lon="5.41004">
        <ele>407.20001220703</ele>
        <time>2024-03-01T15:09:11.000Z</time>
      </trkpt>
      <trkpt lat="45.33522" lon="5.41009">
        <ele>407.20001220703</ele>
        <time>2024-03-01T15:09:12.000Z</time>
      </trkpt>
      <trkpt lat="45.33524" lon="5.41016">
        <ele>407.20001220703</ele>
        <time>2024-03-01T15:09:13.000Z</time>
      </trkpt>
      <trkpt lat="45.33527" lon="5.41026">
        <ele>407.20001220703</ele>
        <time>2024-03-01T15:09:14.000Z</time>
      </trkpt>
      <trkpt lat="45.33531" lon="5.41035">
        <ele>407.20001220703</ele>
        <time>2024-03-01T15:09:15.000Z</time>
      </trkpt>
      <trkpt lat="45.33533" lon="5.41043">
        <ele>407.20001220703</ele>
        <time>2024-03-01T15:09:16.000Z</time>
      </trkpt>
      <trkpt lat="45.33535" lon="5.41059">
        <ele>407.20001220703</ele>
        <time>2024-03-01T15:09:18.000Z</time>
      </trkpt>
      <trkpt lat="45.33537" lon="5.41067">
        <ele>407.20001220703</ele>
        <time>2024-03-01T15:09:19.000Z</time>
      </trkpt>
      <trkpt lat="45.33539" lon="5.41081">
        <ele>407.39999389648</ele>
        <time>2024-03-01T15:09:21.000Z</time>
      </trkpt>
      <trkpt lat="45.3354" lon="5.41089">
        <ele>407.39999389648</ele>
        <time>2024-03-01T15:09:22.000Z</time>
      </trkpt>
      <trkpt lat="45.33541" lon="5.41096">
        <ele>407.39999389648</ele>
        <time>2024-03-01T15:09:23.000Z</time>
      </trkpt>
      <trkpt lat="45.33543" lon="5.41103">
        <ele>407.60000610352</ele>
        <time>2024-03-01T15:09:24.000Z</time>
      </trkpt>
      <trkpt lat="45.33546" lon="5.41124">
        <ele>407.79998779297</ele>
        <time>2024-03-01T15:09:27.000Z</time>
      </trkpt>
      <trkpt lat="45.33545" lon="5.41132">
        <ele>407.79998779297</ele>
        <time>2024-03-01T15:09:28.000Z</time>
      </trkpt>
      <trkpt lat="45.33547" lon="5.4114">
        <ele>407.79998779297</ele>
        <time>2024-03-01T15:09:29.000Z</time>
      </trkpt>
      <trkpt lat="45.33548" lon="5.41148">
        <ele>408</ele>
        <time>2024-03-01T15:09:30.000Z</time>
      </trkpt>
      <trkpt lat="45.33548" lon="5.41165">
        <ele>407.79998779297</ele>
        <time>2024-03-01T15:09:32.000Z</time>
      </trkpt>
      <trkpt lat="45.33547" lon="5.41173">
        <ele>407.79998779297</ele>
        <time>2024-03-01T15:09:33.000Z</time>
      </trkpt>
      <trkpt lat="45.33547" lon="5.41189">
        <ele>408</ele>
        <time>2024-03-01T15:09:35.000Z</time>
      </trkpt>
      <trkpt lat="45.33548" lon="5.41195">
        <ele>408</ele>
        <time>2024-03-01T15:09:36.000Z</time>
      </trkpt>
      <trkpt lat="45.3355" lon="5.41202">
        <ele>408</ele>
        <time>2024-03-01T15:09:37.000Z</time>
      </trkpt>
      <trkpt lat="45.3355" lon="5.41208">
        <ele>407.60000610352</ele>
        <time>2024-03-01T15:09:38.000Z</time>
      </trkpt>
      <trkpt lat="45.33551" lon="5.41215">
        <ele>407.79998779297</ele>
        <time>2024-03-01T15:09:39.000Z</time>
      </trkpt>
      <trkpt lat="45.33551" lon="5.41234">
        <ele>407.60000610352</ele>
        <time>2024-03-01T15:09:42.000Z</time>
      </trkpt>
      <trkpt lat="45.3355" lon="5.4124">
        <ele>407.39999389648</ele>
        <time>2024-03-01T15:09:43.000Z</time>
      </trkpt>
      <trkpt lat="45.3355" lon="5.41257">
        <ele>407.60000610352</ele>
        <time>2024-03-01T15:09:46.000Z</time>
      </trkpt>
      <trkpt lat="45.33549" lon="5.41262">
        <ele>407.79998779297</ele>
        <time>2024-03-01T15:09:47.000Z</time>
      </trkpt>
      <trkpt lat="45.33549" lon="5.4128">
        <ele>407.79998779297</ele>
        <time>2024-03-01T15:09:50.000Z</time>
      </trkpt>
      <trkpt lat="45.33548" lon="5.41286">
        <ele>407.79998779297</ele>
        <time>2024-03-01T15:09:51.000Z</time>
      </trkpt>
      <trkpt lat="45.33548" lon="5.41304">
        <ele>408</ele>
        <time>2024-03-01T15:09:54.000Z</time>
      </trkpt>
      <trkpt lat="45.33547" lon="5.4131">
        <ele>408.20001220703</ele>
        <time>2024-03-01T15:09:55.000Z</time>
      </trkpt>
      <trkpt lat="45.33547" lon="5.4134">
        <ele>408.79998779297</ele>
        <time>2024-03-01T15:10:00.000Z</time>
      </trkpt>
      <trkpt lat="45.33548" lon="5.41346">
        <ele>408.79998779297</ele>
        <time>2024-03-01T15:10:01.000Z</time>
      </trkpt>
      <trkpt lat="45.33548" lon="5.41359">
        <ele>409</ele>
        <time>2024-03-01T15:10:03.000Z</time>
      </trkpt>
      <trkpt lat="45.33549" lon="5.41365">
        <ele>409</ele>
        <time>2024-03-01T15:10:04.000Z</time>
      </trkpt>
      <trkpt lat="45.33549" lon="5.41379">
        <ele>409</ele>
        <time>2024-03-01T15:10:06.000Z</time>
      </trkpt>
      <trkpt lat="45.3355" lon="5.41386">
        <ele>409</ele>
        <time>2024-03-01T15:10:07.000Z</time>
      </trkpt>
      <trkpt lat="45.3355" lon="5.41393">
        <ele>409</ele>
        <time>2024-03-01T15:10:08.000Z</time>
      </trkpt>
      <trkpt lat="45.33551" lon="5.41399">
        <ele>409</ele>
        <time>2024-03-01T15:10:09.000Z</time>
      </trkpt>
      <trkpt lat="45.33551" lon="5.41405">
        <ele>409.39999389648</ele>
        <time>2024-03-01T15:10:10.000Z</time>
      </trkpt>
      <trkpt lat="45.33553" lon="5.41411">
        <ele>409.39999389648</ele>
        <time>2024-03-01T15:10:11.000Z</time>
      </trkpt>
      <trkpt lat="45.33555" lon="5.41425">
        <ele>409.39999389648</ele>
        <time>2024-03-01T15:10:13.000Z</time>
      </trkpt>
      <trkpt lat="45.33556" lon="5.4143">
        <ele>409.60000610352</ele>
        <time>2024-03-01T15:10:14.000Z</time>
      </trkpt>
      <trkpt lat="45.33558" lon="5.41435">
        <ele>409.60000610352</ele>
        <time>2024-03-01T15:10:15.000Z</time>
      </trkpt>
      <trkpt lat="45.3356" lon="5.41441">
        <ele>410</ele>
        <time>2024-03-01T15:10:16.000Z</time>
      </trkpt>
      <trkpt lat="45.33563" lon="5.41446">
        <ele>410</ele>
        <time>2024-03-01T15:10:17.000Z</time>
      </trkpt>
      <trkpt lat="45.33566" lon="5.41452">
        <ele>410.39999389648</ele>
        <time>2024-03-01T15:10:18.000Z</time>
      </trkpt>
      <trkpt lat="45.33569" lon="5.41457">
        <ele>410.39999389648</ele>
        <time>2024-03-01T15:10:19.000Z</time>
      </trkpt>
      <trkpt lat="45.33572" lon="5.41463">
        <ele>410.39999389648</ele>
        <time>2024-03-01T15:10:20.000Z</time>
      </trkpt>
      <trkpt lat="45.33574" lon="5.41469">
        <ele>410.60000610352</ele>
        <time>2024-03-01T15:10:21.000Z</time>
      </trkpt>
      <trkpt lat="45.33577" lon="5.41476">
        <ele>410.60000610352</ele>
        <time>2024-03-01T15:10:22.000Z</time>
      </trkpt>
      <trkpt lat="45.3358" lon="5.41482">
        <ele>410.60000610352</ele>
        <time>2024-03-01T15:10:23.000Z</time>
      </trkpt>
      <trkpt lat="45.33581" lon="5.41488">
        <ele>410.60000610352</ele>
        <time>2024-03-01T15:10:24.000Z</time>
      </trkpt>
      <trkpt lat="45.33583" lon="5.41493">
        <ele>410.60000610352</ele>
        <time>2024-03-01T15:10:25.000Z</time>
      </trkpt>
      <trkpt lat="45.33585" lon="5.41499">
        <ele>410.60000610352</ele>
        <time>2024-03-01T15:10:26.000Z</time>
      </trkpt>
      <trkpt lat="45.33587" lon="5.41504">
        <ele>410.60000610352</ele>
        <time>2024-03-01T15:10:27.000Z</time>
      </trkpt>
      <trkpt lat="45.33588" lon="5.4151">
        <ele>410.39999389648</ele>
        <time>2024-03-01T15:10:28.000Z</time>
      </trkpt>
      <trkpt lat="45.3359" lon="5.41516">
        <ele>410.39999389648</ele>
        <time>2024-03-01T15:10:29.000Z</time>
      </trkpt>
      <trkpt lat="45.33591" lon="5.41521">
        <ele>410.20001220703</ele>
        <time>2024-03-01T15:10:30.000Z</time>
      </trkpt>
      <trkpt lat="45.33595" lon="5.41545">
        <ele>410.20001220703</ele>
        <time>2024-03-01T15:10:34.000Z</time>
      </trkpt>
      <trkpt lat="45.33595" lon="5.41551">
        <ele>410.20001220703</ele>
        <time>2024-03-01T15:10:35.000Z</time>
      </trkpt>
      <trkpt lat="45.33596" lon="5.41556">
        <ele>410.20001220703</ele>
        <time>2024-03-01T15:10:36.000Z</time>
      </trkpt>
      <trkpt lat="45.33597" lon="5.41562">
        <ele>410.20001220703</ele>
        <time>2024-03-01T15:10:37.000Z</time>
      </trkpt>
      <trkpt lat="45.33597" lon="5.41567">
        <ele>410.20001220703</ele>
        <time>2024-03-01T15:10:38.000Z</time>
      </trkpt>
      <trkpt lat="45.33601" lon="5.41591">
        <ele>410.79998779297</ele>
        <time>2024-03-01T15:10:42.000Z</time>
      </trkpt>
      <trkpt lat="45.33606" lon="5.41626">
        <ele>411</ele>
        <time>2024-03-01T15:10:47.000Z</time>
      </trkpt>
      <trkpt lat="45.33607" lon="5.41632">
        <ele>411</ele>
        <time>2024-03-01T15:10:48.000Z</time>
      </trkpt>
      <trkpt lat="45.33609" lon="5.41639">
        <ele>411</ele>
        <time>2024-03-01T15:10:49.000Z</time>
      </trkpt>
      <trkpt lat="45.3361" lon="5.41645">
        <ele>411</ele>
        <time>2024-03-01T15:10:50.000Z</time>
      </trkpt>
      <trkpt lat="45.33612" lon="5.41652">
        <ele>411.20001220703</ele>
        <time>2024-03-01T15:10:51.000Z</time>
      </trkpt>
      <trkpt lat="45.33613" lon="5.4166">
        <ele>411</ele>
        <time>2024-03-01T15:10:52.000Z</time>
      </trkpt>
      <trkpt lat="45.33617" lon="5.41672">
        <ele>411</ele>
        <time>2024-03-01T15:10:54.000Z</time>
      </trkpt>
      <trkpt lat="45.33619" lon="5.41677">
        <ele>411</ele>
        <time>2024-03-01T15:10:55.000Z</time>
      </trkpt>
      <trkpt lat="45.33625" lon="5.41695">
        <ele>410.79998779297</ele>
        <time>2024-03-01T15:10:58.000Z</time>
      </trkpt>
      <trkpt lat="45.33627" lon="5.41707">
        <ele>410.79998779297</ele>
        <time>2024-03-01T15:11:00.000Z</time>
      </trkpt>
      <trkpt lat="45.33628" lon="5.41711">
        <ele>411</ele>
        <time>2024-03-01T15:11:01.000Z</time>
      </trkpt>
      <trkpt lat="45.33628" lon="5.41723">
        <ele>411.20001220703</ele>
        <time>2024-03-01T15:11:03.000Z</time>
      </trkpt>
      <trkpt lat="45.33629" lon="5.41728">
        <ele>411.20001220703</ele>
        <time>2024-03-01T15:11:04.000Z</time>
      </trkpt>
      <trkpt lat="45.33631" lon="5.4174">
        <ele>411.39999389648</ele>
        <time>2024-03-01T15:11:06.000Z</time>
      </trkpt>
      <trkpt lat="45.33633" lon="5.41747">
        <ele>411.60000610352</ele>
        <time>2024-03-01T15:11:07.000Z</time>
      </trkpt>
      <trkpt lat="45.33634" lon="5.41754">
        <ele>411.60000610352</ele>
        <time>2024-03-01T15:11:08.000Z</time>
      </trkpt>
      <trkpt lat="45.33635" lon="5.4176">
        <ele>411.60000610352</ele>
        <time>2024-03-01T15:11:09.000Z</time>
      </trkpt>
      <trkpt lat="45.33637" lon="5.41767">
        <ele>411.60000610352</ele>
        <time>2024-03-01T15:11:10.000Z</time>
      </trkpt>
      <trkpt lat="45.33639" lon="5.41773">
        <ele>411.60000610352</ele>
        <time>2024-03-01T15:11:11.000Z</time>
      </trkpt>
      <trkpt lat="45.3364" lon="5.4178">
        <ele>411.60000610352</ele>
        <time>2024-03-01T15:11:12.000Z</time>
      </trkpt>
      <trkpt lat="45.3364" lon="5.41801">
        <ele>411.79998779297</ele>
        <time>2024-03-01T15:11:15.000Z</time>
      </trkpt>
      <trkpt lat="45.33641" lon="5.41808">
        <ele>411.79998779297</ele>
        <time>2024-03-01T15:11:16.000Z</time>
      </trkpt>
      <trkpt lat="45.33641" lon="5.41823">
        <ele>411.79998779297</ele>
        <time>2024-03-01T15:11:18.000Z</time>
      </trkpt>
      <trkpt lat="45.33643" lon="5.41839">
        <ele>412</ele>
        <time>2024-03-01T15:11:20.000Z</time>
      </trkpt>
      <trkpt lat="45.33643" lon="5.41847">
        <ele>412.20001220703</ele>
        <time>2024-03-01T15:11:21.000Z</time>
      </trkpt>
      <trkpt lat="45.33644" lon="5.41855">
        <ele>412.20001220703</ele>
        <time>2024-03-01T15:11:22.000Z</time>
      </trkpt>
      <trkpt lat="45.33644" lon="5.41869">
        <ele>412.20001220703</ele>
        <time>2024-03-01T15:11:24.000Z</time>
      </trkpt>
      <trkpt lat="45.33645" lon="5.41877">
        <ele>412.39999389648</ele>
        <time>2024-03-01T15:11:25.000Z</time>
      </trkpt>
      <trkpt lat="45.33647" lon="5.41884">
        <ele>412.39999389648</ele>
        <time>2024-03-01T15:11:26.000Z</time>
      </trkpt>
      <trkpt lat="45.33647" lon="5.41898">
        <ele>412.60000610352</ele>
        <time>2024-03-01T15:11:28.000Z</time>
      </trkpt>
      <trkpt lat="45.33646" lon="5.41906">
        <ele>412.60000610352</ele>
        <time>2024-03-01T15:11:29.000Z</time>
      </trkpt>
      <trkpt lat="45.33646" lon="5.41913">
        <ele>412.60000610352</ele>
        <time>2024-03-01T15:11:30.000Z</time>
      </trkpt>
      <trkpt lat="45.33645" lon="5.4192">
        <ele>412.79998779297</ele>
        <time>2024-03-01T15:11:31.000Z</time>
      </trkpt>
      <trkpt lat="45.33645" lon="5.41934">
        <ele>413</ele>
        <time>2024-03-01T15:11:33.000Z</time>
      </trkpt>
      <trkpt lat="45.33644" lon="5.41941">
        <ele>413.20001220703</ele>
        <time>2024-03-01T15:11:34.000Z</time>
      </trkpt>
      <trkpt lat="45.33643" lon="5.41947">
        <ele>413.20001220703</ele>
        <time>2024-03-01T15:11:35.000Z</time>
      </trkpt>
      <trkpt lat="45.33641" lon="5.41953">
        <ele>413.20001220703</ele>
        <time>2024-03-01T15:11:36.000Z</time>
      </trkpt>
      <trkpt lat="45.33639" lon="5.41958">
        <ele>413.39999389648</ele>
        <time>2024-03-01T15:11:37.000Z</time>
      </trkpt>
      <trkpt lat="45.33636" lon="5.41962">
        <ele>413.39999389648</ele>
        <time>2024-03-01T15:11:38.000Z</time>
      </trkpt>
      <trkpt lat="45.33628" lon="5.41968">
        <ele>413.39999389648</ele>
        <time>2024-03-01T15:11:40.000Z</time>
      </trkpt>
      <trkpt lat="45.33625" lon="5.41971">
        <ele>413.39999389648</ele>
        <time>2024-03-01T15:11:41.000Z</time>
      </trkpt>
      <trkpt lat="45.33622" lon="5.41975">
        <ele>413.79998779297</ele>
        <time>2024-03-01T15:11:42.000Z</time>
      </trkpt>
      <trkpt lat="45.33619" lon="5.4198">
        <ele>413.79998779297</ele>
        <time>2024-03-01T15:11:43.000Z</time>
      </trkpt>
      <trkpt lat="45.33617" lon="5.41985">
        <ele>413.79998779297</ele>
        <time>2024-03-01T15:11:44.000Z</time>
      </trkpt>
      <trkpt lat="45.33615" lon="5.41991">
        <ele>413.79998779297</ele>
        <time>2024-03-01T15:11:45.000Z</time>
      </trkpt>
      <trkpt lat="45.33613" lon="5.41996">
        <ele>413.79998779297</ele>
        <time>2024-03-01T15:11:46.000Z</time>
      </trkpt>
      <trkpt lat="45.33609" lon="5.42008">
        <ele>414</ele>
        <time>2024-03-01T15:11:48.000Z</time>
      </trkpt>
      <trkpt lat="45.33604" lon="5.42038">
        <ele>414.20001220703</ele>
        <time>2024-03-01T15:11:53.000Z</time>
      </trkpt>
      <trkpt lat="45.33603" lon="5.42043">
        <ele>414.39999389648</ele>
        <time>2024-03-01T15:11:54.000Z</time>
      </trkpt>
      <trkpt lat="45.33602" lon="5.42049">
        <ele>414.39999389648</ele>
        <time>2024-03-01T15:11:55.000Z</time>
      </trkpt>
      <trkpt lat="45.33601" lon="5.42054">
        <ele>414.79998779297</ele>
        <time>2024-03-01T15:11:56.000Z</time>
      </trkpt>
      <trkpt lat="45.336" lon="5.4206">
        <ele>415</ele>
        <time>2024-03-01T15:11:57.000Z</time>
      </trkpt>
      <trkpt lat="45.33599" lon="5.42065">
        <ele>415.20001220703</ele>
        <time>2024-03-01T15:11:58.000Z</time>
      </trkpt>
      <trkpt lat="45.33597" lon="5.42077">
        <ele>415.20001220703</ele>
        <time>2024-03-01T15:12:00.000Z</time>
      </trkpt>
      <trkpt lat="45.33595" lon="5.42082">
        <ele>415.39999389648</ele>
        <time>2024-03-01T15:12:01.000Z</time>
      </trkpt>
      <trkpt lat="45.33593" lon="5.42088">
        <ele>415.39999389648</ele>
        <time>2024-03-01T15:12:02.000Z</time>
      </trkpt>
      <trkpt lat="45.33592" lon="5.42093">
        <ele>415.39999389648</ele>
        <time>2024-03-01T15:12:03.000Z</time>
      </trkpt>
      <trkpt lat="45.3359" lon="5.42099">
        <ele>415.39999389648</ele>
        <time>2024-03-01T15:12:04.000Z</time>
      </trkpt>
      <trkpt lat="45.33589" lon="5.42105">
        <ele>415.60000610352</ele>
        <time>2024-03-01T15:12:05.000Z</time>
      </trkpt>
      <trkpt lat="45.33588" lon="5.4211">
        <ele>415.60000610352</ele>
        <time>2024-03-01T15:12:06.000Z</time>
      </trkpt>
      <trkpt lat="45.33584" lon="5.4212">
        <ele>415.79998779297</ele>
        <time>2024-03-01T15:12:08.000Z</time>
      </trkpt>
      <trkpt lat="45.33583" lon="5.42126">
        <ele>415.79998779297</ele>
        <time>2024-03-01T15:12:09.000Z</time>
      </trkpt>
      <trkpt lat="45.33581" lon="5.42132">
        <ele>415.79998779297</ele>
        <time>2024-03-01T15:12:10.000Z</time>
      </trkpt>
      <trkpt lat="45.33579" lon="5.42136">
        <ele>416</ele>
        <time>2024-03-01T15:12:11.000Z</time>
      </trkpt>
      <trkpt lat="45.33577" lon="5.42141">
        <ele>416</ele>
        <time>2024-03-01T15:12:12.000Z</time>
      </trkpt>
      <trkpt lat="45.33576" lon="5.42146">
        <ele>416</ele>
        <time>2024-03-01T15:12:13.000Z</time>
      </trkpt>
      <trkpt lat="45.33574" lon="5.42152">
        <ele>416</ele>
        <time>2024-03-01T15:12:14.000Z</time>
      </trkpt>
      <trkpt lat="45.33572" lon="5.42157">
        <ele>416.20001220703</ele>
        <time>2024-03-01T15:12:15.000Z</time>
      </trkpt>
      <trkpt lat="45.33571" lon="5.42163">
        <ele>416.20001220703</ele>
        <time>2024-03-01T15:12:16.000Z</time>
      </trkpt>
      <trkpt lat="45.3357" lon="5.42168">
        <ele>416.20001220703</ele>
        <time>2024-03-01T15:12:17.000Z</time>
      </trkpt>
      <trkpt lat="45.33568" lon="5.42172">
        <ele>416.20001220703</ele>
        <time>2024-03-01T15:12:18.000Z</time>
      </trkpt>
      <trkpt lat="45.33565" lon="5.42176">
        <ele>416.20001220703</ele>
        <time>2024-03-01T15:12:19.000Z</time>
      </trkpt>
      <trkpt lat="45.33562" lon="5.42179">
        <ele>416.39999389648</ele>
        <time>2024-03-01T15:12:20.000Z</time>
      </trkpt>
      <trkpt lat="45.3356" lon="5.42182">
        <ele>416.60000610352</ele>
        <time>2024-03-01T15:12:21.000Z</time>
      </trkpt>
      <trkpt lat="45.33557" lon="5.42186">
        <ele>416.60000610352</ele>
        <time>2024-03-01T15:12:22.000Z</time>
      </trkpt>
      <trkpt lat="45.33551" lon="5.42192">
        <ele>416.60000610352</ele>
        <time>2024-03-01T15:12:24.000Z</time>
      </trkpt>
      <trkpt lat="45.33548" lon="5.42196">
        <ele>416.79998779297</ele>
        <time>2024-03-01T15:12:25.000Z</time>
      </trkpt>
      <trkpt lat="45.33544" lon="5.42204">
        <ele>417</ele>
        <time>2024-03-01T15:12:27.000Z</time>
      </trkpt>
      <trkpt lat="45.33541" lon="5.42208">
        <ele>417</ele>
        <time>2024-03-01T15:12:28.000Z</time>
      </trkpt>
      <trkpt lat="45.33539" lon="5.42212">
        <ele>417.20001220703</ele>
        <time>2024-03-01T15:12:29.000Z</time>
      </trkpt>
      <trkpt lat="45.33536" lon="5.42216">
        <ele>417.20001220703</ele>
        <time>2024-03-01T15:12:30.000Z</time>
      </trkpt>
      <trkpt lat="45.33535" lon="5.4222">
        <ele>417.39999389648</ele>
        <time>2024-03-01T15:12:31.000Z</time>
      </trkpt>
      <trkpt lat="45.33532" lon="5.42225">
        <ele>417.60000610352</ele>
        <time>2024-03-01T15:12:32.000Z</time>
      </trkpt>
      <trkpt lat="45.33528" lon="5.42233">
        <ele>417.79998779297</ele>
        <time>2024-03-01T15:12:34.000Z</time>
      </trkpt>
      <trkpt lat="45.33527" lon="5.42237">
        <ele>417.79998779297</ele>
        <time>2024-03-01T15:12:35.000Z</time>
      </trkpt>
      <trkpt lat="45.33525" lon="5.42242">
        <ele>417.79998779297</ele>
        <time>2024-03-01T15:12:36.000Z</time>
      </trkpt>
      <trkpt lat="45.33519" lon="5.42254">
        <ele>418.20001220703</ele>
        <time>2024-03-01T15:12:39.000Z</time>
      </trkpt>
      <trkpt lat="45.33517" lon="5.42259">
        <ele>418.20001220703</ele>
        <time>2024-03-01T15:12:40.000Z</time>
      </trkpt>
      <trkpt lat="45.33516" lon="5.42264">
        <ele>418.39999389648</ele>
        <time>2024-03-01T15:12:41.000Z</time>
      </trkpt>
      <trkpt lat="45.33514" lon="5.42268">
        <ele>418.60000610352</ele>
        <time>2024-03-01T15:12:42.000Z</time>
      </trkpt>
      <trkpt lat="45.33512" lon="5.42278">
        <ele>418.79998779297</ele>
        <time>2024-03-01T15:12:44.000Z</time>
      </trkpt>
      <trkpt lat="45.3351" lon="5.42283">
        <ele>418.79998779297</ele>
        <time>2024-03-01T15:12:45.000Z</time>
      </trkpt>
      <trkpt lat="45.33509" lon="5.42287">
        <ele>419</ele>
        <time>2024-03-01T15:12:46.000Z</time>
      </trkpt>
      <trkpt lat="45.33507" lon="5.42292">
        <ele>419</ele>
        <time>2024-03-01T15:12:47.000Z</time>
      </trkpt>
      <trkpt lat="45.33506" lon="5.42296">
        <ele>419</ele>
        <time>2024-03-01T15:12:48.000Z</time>
      </trkpt>
      <trkpt lat="45.33502" lon="5.42304">
        <ele>419.20001220703</ele>
        <time>2024-03-01T15:12:50.000Z</time>
      </trkpt>
      <trkpt lat="45.33501" lon="5.42308">
        <ele>419.39999389648</ele>
        <time>2024-03-01T15:12:51.000Z</time>
      </trkpt>
      <trkpt lat="45.33499" lon="5.42312">
        <ele>419.39999389648</ele>
        <time>2024-03-01T15:12:52.000Z</time>
      </trkpt>
      <trkpt lat="45.33498" lon="5.42316">
        <ele>419.39999389648</ele>
        <time>2024-03-01T15:12:53.000Z</time>
      </trkpt>
      <trkpt lat="45.33497" lon="5.42321">
        <ele>419.39999389648</ele>
        <time>2024-03-01T15:12:54.000Z</time>
      </trkpt>
      <trkpt lat="45.33495" lon="5.42325">
        <ele>419.60000610352</ele>
        <time>2024-03-01T15:12:55.000Z</time>
      </trkpt>
      <trkpt lat="45.33494" lon="5.42329">
        <ele>419.60000610352</ele>
        <time>2024-03-01T15:12:56.000Z</time>
      </trkpt>
      <trkpt lat="45.33492" lon="5.42332">
        <ele>419.60000610352</ele>
        <time>2024-03-01T15:12:57.000Z</time>
      </trkpt>
      <trkpt lat="45.33491" lon="5.42334">
        <ele>419.79998779297</ele>
        <time>2024-03-01T15:12:58.000Z</time>
      </trkpt>
      <trkpt lat="45.3349" lon="5.42335">
        <ele>419.79998779297</ele>
        <time>2024-03-01T15:12:59.000Z</time>
      </trkpt>
      <trkpt lat="45.33487" lon="5.42337">
        <ele>420</ele>
        <time>2024-03-01T15:13:00.000Z</time>
      </trkpt>
      <trkpt lat="45.33484" lon="5.4234">
        <ele>420</ele>
        <time>2024-03-01T15:13:01.000Z</time>
      </trkpt>
      <trkpt lat="45.33482" lon="5.42343">
        <ele>420</ele>
        <time>2024-03-01T15:13:02.000Z</time>
      </trkpt>
      <trkpt lat="45.33475" lon="5.4235">
        <ele>420.39999389648</ele>
        <time>2024-03-01T15:13:04.000Z</time>
      </trkpt>
      <trkpt lat="45.33472" lon="5.42355">
        <ele>420.60000610352</ele>
        <time>2024-03-01T15:13:05.000Z</time>
      </trkpt>
      <trkpt lat="45.3347" lon="5.42358">
        <ele>420.79998779297</ele>
        <time>2024-03-01T15:13:06.000Z</time>
      </trkpt>
      <trkpt lat="45.33466" lon="5.42368">
        <ele>420.79998779297</ele>
        <time>2024-03-01T15:13:08.000Z</time>
      </trkpt>
      <trkpt lat="45.33465" lon="5.42372">
        <ele>420.79998779297</ele>
        <time>2024-03-01T15:13:09.000Z</time>
      </trkpt>
      <trkpt lat="45.33463" lon="5.42376">
        <ele>421.39999389648</ele>
        <time>2024-03-01T15:13:10.000Z</time>
      </trkpt>
      <trkpt lat="45.3346" lon="5.4238">
        <ele>421.60000610352</ele>
        <time>2024-03-01T15:13:11.000Z</time>
      </trkpt>
      <trkpt lat="45.33458" lon="5.42385">
        <ele>422.20001220703</ele>
        <time>2024-03-01T15:13:12.000Z</time>
      </trkpt>
      <trkpt lat="45.33454" lon="5.42389">
        <ele>422.60000610352</ele>
        <time>2024-03-01T15:13:14.000Z</time>
      </trkpt>
      <trkpt lat="45.33452" lon="5.42392">
        <ele>422.79998779297</ele>
        <time>2024-03-01T15:13:15.000Z</time>
      </trkpt>
      <trkpt lat="45.33451" lon="5.42395">
        <ele>423.20001220703</ele>
        <time>2024-03-01T15:13:16.000Z</time>
      </trkpt>
      <trkpt lat="45.33449" lon="5.42398">
        <ele>423.39999389648</ele>
        <time>2024-03-01T15:13:17.000Z</time>
      </trkpt>
      <trkpt lat="45.33447" lon="5.42404">
        <ele>423.79998779297</ele>
        <time>2024-03-01T15:13:19.000Z</time>
      </trkpt>
      <trkpt lat="45.33445" lon="5.42408">
        <ele>424.39999389648</ele>
        <time>2024-03-01T15:13:21.000Z</time>
      </trkpt>
      <trkpt lat="45.33444" lon="5.42411">
        <ele>424.60000610352</ele>
        <time>2024-03-01T15:13:22.000Z</time>
      </trkpt>
      <trkpt lat="45.33443" lon="5.42413">
        <ele>425</ele>
        <time>2024-03-01T15:13:23.000Z</time>
      </trkpt>
      <trkpt lat="45.33442" lon="5.42416">
        <ele>425.20001220703</ele>
        <time>2024-03-01T15:13:24.000Z</time>
      </trkpt>
      <trkpt lat="45.33441" lon="5.42418">
        <ele>425.39999389648</ele>
        <time>2024-03-01T15:13:25.000Z</time>
      </trkpt>
      <trkpt lat="45.33441" lon="5.42421">
        <ele>425.60000610352</ele>
        <time>2024-03-01T15:13:26.000Z</time>
      </trkpt>
      <trkpt lat="45.3344" lon="5.42423">
        <ele>425.79998779297</ele>
        <time>2024-03-01T15:13:27.000Z</time>
      </trkpt>
      <trkpt lat="45.3344" lon="5.42433">
        <ele>426.60000610352</ele>
        <time>2024-03-01T15:13:30.000Z</time>
      </trkpt>
      <trkpt lat="45.33439" lon="5.42436">
        <ele>427</ele>
        <time>2024-03-01T15:13:31.000Z</time>
      </trkpt>
      <trkpt lat="45.33439" lon="5.42444">
        <ele>427.60000610352</ele>
        <time>2024-03-01T15:13:34.000Z</time>
      </trkpt>
      <trkpt lat="45.33437" lon="5.4245">
        <ele>428.60000610352</ele>
        <time>2024-03-01T15:13:36.000Z</time>
      </trkpt>
      <trkpt lat="45.33436" lon="5.42454">
        <ele>428.60000610352</ele>
        <time>2024-03-01T15:13:37.000Z</time>
      </trkpt>
      <trkpt lat="45.33434" lon="5.4246">
        <ele>429.20001220703</ele>
        <time>2024-03-01T15:13:39.000Z</time>
      </trkpt>
      <trkpt lat="45.33434" lon="5.42465">
        <ele>429.60000610352</ele>
        <time>2024-03-01T15:13:41.000Z</time>
      </trkpt>
      <trkpt lat="45.33435" lon="5.42468">
        <ele>430</ele>
        <time>2024-03-01T15:13:42.000Z</time>
      </trkpt>
      <trkpt lat="45.33435" lon="5.42476">
        <ele>430.60000610352</ele>
        <time>2024-03-01T15:13:44.000Z</time>
      </trkpt>
      <trkpt lat="45.33433" lon="5.4248">
        <ele>431</ele>
        <time>2024-03-01T15:13:45.000Z</time>
      </trkpt>
      <trkpt lat="45.33432" lon="5.42483">
        <ele>431</ele>
        <time>2024-03-01T15:13:46.000Z</time>
      </trkpt>
      <trkpt lat="45.33428" lon="5.42489">
        <ele>431.79998779297</ele>
        <time>2024-03-01T15:13:48.000Z</time>
      </trkpt>
      <trkpt lat="45.33426" lon="5.42497">
        <ele>432.39999389648</ele>
        <time>2024-03-01T15:13:50.000Z</time>
      </trkpt>
      <trkpt lat="45.33423" lon="5.42502">
        <ele>432.60000610352</ele>
        <time>2024-03-01T15:13:51.000Z</time>
      </trkpt>
      <trkpt lat="45.33422" lon="5.42505">
        <ele>433</ele>
        <time>2024-03-01T15:13:52.000Z</time>
      </trkpt>
      <trkpt lat="45.33421" lon="5.42509">
        <ele>433.20001220703</ele>
        <time>2024-03-01T15:13:53.000Z</time>
      </trkpt>
      <trkpt lat="45.33419" lon="5.42512">
        <ele>433.39999389648</ele>
        <time>2024-03-01T15:13:54.000Z</time>
      </trkpt>
      <trkpt lat="45.33418" lon="5.42515">
        <ele>433.60000610352</ele>
        <time>2024-03-01T15:13:55.000Z</time>
      </trkpt>
      <trkpt lat="45.33417" lon="5.42519">
        <ele>433.79998779297</ele>
        <time>2024-03-01T15:13:56.000Z</time>
      </trkpt>
      <trkpt lat="45.33417" lon="5.42523">
        <ele>434</ele>
        <time>2024-03-01T15:13:57.000Z</time>
      </trkpt>
      <trkpt lat="45.33416" lon="5.42526">
        <ele>434.20001220703</ele>
        <time>2024-03-01T15:13:58.000Z</time>
      </trkpt>
      <trkpt lat="45.33414" lon="5.42534">
        <ele>434.79998779297</ele>
        <time>2024-03-01T15:14:00.000Z</time>
      </trkpt>
      <trkpt lat="45.33415" lon="5.42538">
        <ele>434.79998779297</ele>
        <time>2024-03-01T15:14:01.000Z</time>
      </trkpt>
      <trkpt lat="45.33415" lon="5.42543">
        <ele>435</ele>
        <time>2024-03-01T15:14:02.000Z</time>
      </trkpt>
      <trkpt lat="45.33416" lon="5.42547">
        <ele>435</ele>
        <time>2024-03-01T15:14:03.000Z</time>
      </trkpt>
      <trkpt lat="45.33416" lon="5.42561">
        <ele>435.39999389648</ele>
        <time>2024-03-01T15:14:06.000Z</time>
      </trkpt>
      <trkpt lat="45.33412" lon="5.42569">
        <ele>435.60000610352</ele>
        <time>2024-03-01T15:14:08.000Z</time>
      </trkpt>
      <trkpt lat="45.33409" lon="5.42573">
        <ele>435.79998779297</ele>
        <time>2024-03-01T15:14:09.000Z</time>
      </trkpt>
      <trkpt lat="45.33407" lon="5.42579">
        <ele>436</ele>
        <time>2024-03-01T15:14:10.000Z</time>
      </trkpt>
      <trkpt lat="45.33405" lon="5.42584">
        <ele>436.20001220703</ele>
        <time>2024-03-01T15:14:11.000Z</time>
      </trkpt>
      <trkpt lat="45.33405" lon="5.42592">
        <ele>436.39999389648</ele>
        <time>2024-03-01T15:14:13.000Z</time>
      </trkpt>
      <trkpt lat="45.33404" lon="5.42597">
        <ele>436.60000610352</ele>
        <time>2024-03-01T15:14:14.000Z</time>
      </trkpt>
      <trkpt lat="45.33401" lon="5.42602">
        <ele>436.60000610352</ele>
        <time>2024-03-01T15:14:15.000Z</time>
      </trkpt>
      <trkpt lat="45.334" lon="5.42608">
        <ele>436.79998779297</ele>
        <time>2024-03-01T15:14:16.000Z</time>
      </trkpt>
      <trkpt lat="45.33399" lon="5.42612">
        <ele>436.79998779297</ele>
        <time>2024-03-01T15:14:17.000Z</time>
      </trkpt>
      <trkpt lat="45.33396" lon="5.42615">
        <ele>437</ele>
        <time>2024-03-01T15:14:18.000Z</time>
      </trkpt>
      <trkpt lat="45.33395" lon="5.42619">
        <ele>437.20001220703</ele>
        <time>2024-03-01T15:14:19.000Z</time>
      </trkpt>
      <trkpt lat="45.33394" lon="5.42622">
        <ele>437.20001220703</ele>
        <time>2024-03-01T15:14:20.000Z</time>
      </trkpt>
      <trkpt lat="45.33392" lon="5.42625">
        <ele>437.39999389648</ele>
        <time>2024-03-01T15:14:21.000Z</time>
      </trkpt>
      <trkpt lat="45.33391" lon="5.42629">
        <ele>437.39999389648</ele>
        <time>2024-03-01T15:14:22.000Z</time>
      </trkpt>
      <trkpt lat="45.3339" lon="5.42632">
        <ele>437.60000610352</ele>
        <time>2024-03-01T15:14:23.000Z</time>
      </trkpt>
      <trkpt lat="45.33389" lon="5.42636">
        <ele>437.60000610352</ele>
        <time>2024-03-01T15:14:24.000Z</time>
      </trkpt>
      <trkpt lat="45.33387" lon="5.42639">
        <ele>437.79998779297</ele>
        <time>2024-03-01T15:14:25.000Z</time>
      </trkpt>
      <trkpt lat="45.33385" lon="5.42641">
        <ele>438</ele>
        <time>2024-03-01T15:14:26.000Z</time>
      </trkpt>
      <trkpt lat="45.33383" lon="5.42644">
        <ele>438</ele>
        <time>2024-03-01T15:14:27.000Z</time>
      </trkpt>
      <trkpt lat="45.33381" lon="5.42646">
        <ele>438.39999389648</ele>
        <time>2024-03-01T15:14:28.000Z</time>
      </trkpt>
      <trkpt lat="45.33377" lon="5.42654">
        <ele>438.60000610352</ele>
        <time>2024-03-01T15:14:30.000Z</time>
      </trkpt>
      <trkpt lat="45.33376" lon="5.42658">
        <ele>438.79998779297</ele>
        <time>2024-03-01T15:14:31.000Z</time>
      </trkpt>
      <trkpt lat="45.33375" lon="5.42661">
        <ele>439</ele>
        <time>2024-03-01T15:14:32.000Z</time>
      </trkpt>
      <trkpt lat="45.33373" lon="5.42664">
        <ele>439.20001220703</ele>
        <time>2024-03-01T15:14:33.000Z</time>
      </trkpt>
      <trkpt lat="45.33372" lon="5.42667">
        <ele>439.20001220703</ele>
        <time>2024-03-01T15:14:34.000Z</time>
      </trkpt>
      <trkpt lat="45.3337" lon="5.4267">
        <ele>439.39999389648</ele>
        <time>2024-03-01T15:14:35.000Z</time>
      </trkpt>
      <trkpt lat="45.33368" lon="5.42674">
        <ele>439.79998779297</ele>
        <time>2024-03-01T15:14:37.000Z</time>
      </trkpt>
      <trkpt lat="45.33364" lon="5.4268">
        <ele>440</ele>
        <time>2024-03-01T15:14:39.000Z</time>
      </trkpt>
      <trkpt lat="45.33362" lon="5.42684">
        <ele>440</ele>
        <time>2024-03-01T15:14:40.000Z</time>
      </trkpt>
      <trkpt lat="45.33358" lon="5.4269">
        <ele>440.20001220703</ele>
        <time>2024-03-01T15:14:42.000Z</time>
      </trkpt>
      <trkpt lat="45.33355" lon="5.42692">
        <ele>440.20001220703</ele>
        <time>2024-03-01T15:14:43.000Z</time>
      </trkpt>
      <trkpt lat="45.33353" lon="5.42695">
        <ele>440.39999389648</ele>
        <time>2024-03-01T15:14:44.000Z</time>
      </trkpt>
      <trkpt lat="45.3335" lon="5.42698">
        <ele>440.79998779297</ele>
        <time>2024-03-01T15:14:45.000Z</time>
      </trkpt>
      <trkpt lat="45.33348" lon="5.42701">
        <ele>440.79998779297</ele>
        <time>2024-03-01T15:14:46.000Z</time>
      </trkpt>
      <trkpt lat="45.33346" lon="5.42707">
        <ele>441.20001220703</ele>
        <time>2024-03-01T15:14:48.000Z</time>
      </trkpt>
      <trkpt lat="45.33342" lon="5.42715">
        <ele>441.79998779297</ele>
        <time>2024-03-01T15:14:50.000Z</time>
      </trkpt>
      <trkpt lat="45.33339" lon="5.42719">
        <ele>441.79998779297</ele>
        <time>2024-03-01T15:14:51.000Z</time>
      </trkpt>
      <trkpt lat="45.33338" lon="5.4272">
        <ele>442</ele>
        <time>2024-03-01T15:14:52.000Z</time>
      </trkpt>
      <trkpt lat="45.33337" lon="5.42722">
        <ele>442</ele>
        <time>2024-03-01T15:14:53.000Z</time>
      </trkpt>
      <trkpt lat="45.33335" lon="5.42725">
        <ele>442.20001220703</ele>
        <time>2024-03-01T15:14:54.000Z</time>
      </trkpt>
      <trkpt lat="45.3333" lon="5.42735">
        <ele>442.79998779297</ele>
        <time>2024-03-01T15:14:57.000Z</time>
      </trkpt>
      <trkpt lat="45.33327" lon="5.42737">
        <ele>442.79998779297</ele>
        <time>2024-03-01T15:14:58.000Z</time>
      </trkpt>
      <trkpt lat="45.33325" lon="5.4274">
        <ele>443</ele>
        <time>2024-03-01T15:14:59.000Z</time>
      </trkpt>
      <trkpt lat="45.33319" lon="5.42746">
        <ele>443.39999389648</ele>
        <time>2024-03-01T15:15:01.000Z</time>
      </trkpt>
      <trkpt lat="45.33313" lon="5.42755">
        <ele>443.79998779297</ele>
        <time>2024-03-01T15:15:04.000Z</time>
      </trkpt>
      <trkpt lat="45.33312" lon="5.42759">
        <ele>443.79998779297</ele>
        <time>2024-03-01T15:15:05.000Z</time>
      </trkpt>
      <trkpt lat="45.3331" lon="5.42762">
        <ele>444</ele>
        <time>2024-03-01T15:15:06.000Z</time>
      </trkpt>
      <trkpt lat="45.3331" lon="5.42765">
        <ele>444.20001220703</ele>
        <time>2024-03-01T15:15:07.000Z</time>
      </trkpt>
    </trkseg>
  </trk>
</gpx>